Vink, Annemiek (2026): Master tracks in different resolutions of SONNE cruise SO317, Ensenada - Sand Diego, 2025-12-29 - 2026-02-18 [dataset]. Federal Institute for Geosciences and Natural Resources, PANGAEA, https://doi.pangaea.de/10.1594/PANGAEA.993750 (DOI registration in progress)
Always quote citation above when using data! You can download the citation in several formats below.
Published: 2026-04-21
Abstract:
Raw data acquired by position sensors on board RV SONNE during expedition SO317 were processed to receive a validated master track which can be used as reference of further expedition data. During SO317 the motion reference unit Kongsberg SeaTex AS MRU-5 combined with Kongsberg SeaTex AS Seapath 320 and two GPS receivers SAAB MGL-4 were used as navigation sensors. Data were downloaded from DAVIS SHIP data base (http://dship.bsh.de) with a resolution of 1 sec. Processing and evaluation of the data is outlined in the data processing report. Processed data are provided as a master track with 1 sec resolution derived from the position sensors' data selected by priority and a generalized track with a reduced set of the most significant positions of the master track.
Other version:
Vink, Annemiek (2026): Master track of SONNE cruise SO317 in 1 sec resolution (zipped, 193 MB) [dataset]. Federal Institute for Geosciences and Natural Resources, PANGAEA, https://doi.pangaea.de/10.1594/PANGAEA.993751
Data processing report:
Further details:
Project(s):
DAM Underway Research Data (DAM_Underway)
Coverage:
Median Latitude: 14.923240 * Median Longitude: -117.580659 * South-bound Latitude: 11.460365 * West-bound Longitude: -119.420443 * North-bound Latitude: 32.715373 * East-bound Longitude: -116.665601
Date/Time Start: 2025-12-29T16:20:02 * Date/Time End: 2026-02-18T15:59:49
Event(s):
SO317-track * Latitude Start: 32.696668 * Longitude Start: -117.155563 * Latitude End: 32.703701 * Longitude End: -117.229606 * Date/Time Start: 2025-12-29T16:00:02 * Date/Time End: 2026-02-18T15:59:49 * Campaign: SO317 (MANGAN 2025) * Basis: Sonne_2 * Method/Device: Underway cruise track measurements (CT) * Comment: Ensenada - Sand Diego
Comment:
This dataset contains the master track in 10 min resolution, for other resolutions please see "Other version" references.
Parameter(s):
License:
Creative Commons Attribution 4.0 International (CC-BY-4.0)
Status:
Curation Level: Enhanced curation (CurationLevelC)
Size:
14686 data points
Data
| 1 Date/Time | 2 Latitude | 3 Longitude | 4 Speed [kn] | 5 Course [deg] |
|---|---|---|---|---|
| 2025-12-29T16:20 | 32.69667 | -117.15556 | 0.000 | 0.0 |
| 2025-12-29T16:30 | 32.69667 | -117.15556 | 0.000 | 180.0 |
| 2025-12-29T16:40 | 32.69667 | -117.15556 | 0.000 | 180.0 |
| 2025-12-29T16:50 | 32.69667 | -117.15556 | 0.000 | 180.0 |
| 2025-12-29T17:00 | 32.69667 | -117.15556 | 0.000 | 180.0 |
| 2025-12-29T17:10 | 32.69667 | -117.15556 | 0.000 | 180.0 |
| 2025-12-29T17:20 | 32.69667 | -117.15556 | 0.000 | 180.0 |
| 2025-12-29T17:30 | 32.69667 | -117.15556 | 0.000 | 180.0 |
| 2025-12-29T17:40 | 32.69667 | -117.15556 | 0.000 | 180.0 |
| 2025-12-29T17:50 | 32.69667 | -117.15556 | 0.000 | 180.0 |
| 2025-12-29T18:00 | 32.69667 | -117.15556 | 0.000 | 180.0 |
| 2025-12-29T18:10 | 32.69667 | -117.15556 | 0.000 | 180.0 |
| 2025-12-29T18:20 | 32.69667 | -117.15556 | 0.000 | 180.0 |
| 2025-12-29T18:30 | 32.69667 | -117.15556 | 0.000 | 0.0 |
| 2025-12-29T18:40 | 32.69667 | -117.15556 | 0.000 | 180.0 |
| 2025-12-29T18:50 | 32.69667 | -117.15556 | 0.000 | 180.0 |
| 2025-12-29T19:00 | 32.69667 | -117.15556 | 0.000 | 180.0 |
| 2025-12-29T19:10 | 32.69667 | -117.15556 | 0.000 | 180.0 |
| 2025-12-29T19:20 | 32.69667 | -117.15556 | 0.000 | 180.0 |
| 2025-12-29T19:30 | 32.69667 | -117.15556 | 0.000 | 180.0 |
| 2025-12-29T19:40 | 32.69667 | -117.15556 | 0.000 | 180.0 |
| 2025-12-29T19:50 | 32.69667 | -117.15556 | 0.000 | 180.0 |
| 2025-12-29T20:00 | 32.69667 | -117.15556 | 0.000 | 180.0 |
| 2025-12-29T20:10 | 32.69667 | -117.15556 | 0.000 | 180.0 |
| 2025-12-29T20:20 | 32.69667 | -117.15556 | 0.000 | 180.0 |
| 2025-12-29T20:30 | 32.69667 | -117.15556 | 0.000 | 0.0 |
| 2025-12-29T20:40 | 32.69667 | -117.15556 | 0.000 | 180.0 |
| 2025-12-29T20:50 | 32.69667 | -117.15556 | 0.000 | 180.0 |
| 2025-12-29T21:00 | 32.69667 | -117.15556 | 0.000 | 0.0 |
| 2025-12-29T21:10 | 32.69667 | -117.15556 | 0.000 | 180.0 |
| 2025-12-29T21:20 | 32.69667 | -117.15556 | 0.000 | 180.0 |
| 2025-12-29T21:30 | 32.69667 | -117.15556 | 0.000 | 180.0 |
| 2025-12-29T21:40 | 32.69667 | -117.15556 | 0.000 | 180.0 |
| 2025-12-29T21:50 | 32.69667 | -117.15556 | 0.000 | 180.0 |
| 2025-12-29T22:00 | 32.69667 | -117.15556 | 0.000 | 180.0 |
| 2025-12-29T22:10 | 32.69667 | -117.15556 | 0.000 | 0.0 |
| 2025-12-29T22:20 | 32.69667 | -117.15556 | 0.000 | 180.0 |
| 2025-12-29T22:30 | 32.69667 | -117.15556 | 0.000 | 180.0 |
| 2025-12-29T22:40 | 32.69667 | -117.15556 | 0.000 | 180.0 |
| 2025-12-29T22:50 | 32.69667 | -117.15556 | 0.000 | 0.0 |
| 2025-12-29T23:00 | 32.69667 | -117.15556 | 0.000 | 180.0 |
| 2025-12-29T23:10 | 32.69667 | -117.15556 | 0.000 | 180.0 |
| 2025-12-29T23:20 | 32.69667 | -117.15556 | 0.000 | 180.0 |
| 2025-12-29T23:30 | 32.69667 | -117.15556 | 0.000 | 180.0 |
| 2025-12-29T23:40 | 32.69667 | -117.15556 | 0.000 | 0.0 |
| 2025-12-29T23:50 | 32.69667 | -117.15556 | 0.000 | 180.0 |
| 2025-12-30T00:00 | 32.69667 | -117.15556 | 0.000 | 180.0 |
| 2025-12-30T00:10 | 32.69667 | -117.15556 | 0.000 | 180.0 |
| 2025-12-30T00:20 | 32.69667 | -117.15556 | 0.000 | 180.0 |
| 2025-12-30T00:30 | 32.69667 | -117.15556 | 0.000 | 0.0 |
| 2025-12-30T00:40 | 32.69667 | -117.15556 | 0.000 | 180.0 |
| 2025-12-30T00:50 | 32.69667 | -117.15556 | 0.000 | 180.0 |
| 2025-12-30T01:00 | 32.69667 | -117.15556 | 0.001 | 180.0 |
| 2025-12-30T01:10 | 32.69866 | -117.16181 | 2.026 | 290.6 |
| 2025-12-30T01:20 | 32.71537 | -117.18818 | 10.007 | 306.9 |
| 2025-12-30T01:30 | 32.71163 | -117.22116 | 10.102 | 262.4 |
| 2025-12-30T01:40 | 32.68604 | -117.23071 | 9.636 | 197.5 |
| 2025-12-30T01:50 | 32.66417 | -117.22795 | 7.900 | 173.9 |
| 2025-12-30T02:00 | 32.64429 | -117.22498 | 7.196 | 172.8 |
| 2025-12-30T02:10 | 32.62024 | -117.23077 | 8.811 | 191.5 |
| 2025-12-30T02:20 | 32.61200 | -117.26327 | 10.309 | 253.3 |
| 2025-12-30T02:30 | 32.60522 | -117.29537 | 10.056 | 256.0 |
| 2025-12-30T02:40 | 32.59903 | -117.32524 | 9.347 | 256.3 |
| 2025-12-30T02:50 | 32.59933 | -117.34961 | 7.410 | 270.8 |
| 2025-12-30T03:00 | 32.60063 | -117.37168 | 6.725 | 274.0 |
| 2025-12-30T03:10 | 32.60200 | -117.39337 | 6.609 | 274.2 |
| 2025-12-30T03:20 | 32.60366 | -117.41541 | 6.727 | 275.1 |
| 2025-12-30T03:30 | 32.60532 | -117.43760 | 6.770 | 275.1 |
| 2025-12-30T03:40 | 32.60700 | -117.45962 | 6.720 | 275.2 |
| 2025-12-30T03:50 | 32.60746 | -117.48161 | 6.687 | 271.4 |
| 2025-12-30T04:00 | 32.60137 | -117.50182 | 6.518 | 250.4 |
| 2025-12-30T04:10 | 32.59162 | -117.52062 | 6.704 | 238.5 |
| 2025-12-30T04:20 | 32.58162 | -117.53931 | 6.721 | 237.7 |
| 2025-12-30T04:30 | 32.57156 | -117.55798 | 6.730 | 237.5 |
| 2025-12-30T04:40 | 32.56157 | -117.57677 | 6.743 | 237.9 |
| 2025-12-30T04:50 | 32.54660 | -117.58737 | 6.269 | 211.0 |
| 2025-12-30T05:00 | 32.52872 | -117.59444 | 6.771 | 198.5 |
| 2025-12-30T05:10 | 32.51086 | -117.60141 | 6.756 | 198.3 |
| 2025-12-30T05:20 | 32.49376 | -117.60797 | 6.457 | 198.0 |
| 2025-12-30T05:30 | 32.47761 | -117.61428 | 6.109 | 198.3 |
| 2025-12-30T05:40 | 32.46158 | -117.62058 | 6.067 | 198.4 |
| 2025-12-30T05:50 | 32.44522 | -117.62694 | 6.182 | 198.2 |
| 2025-12-30T06:00 | 32.42773 | -117.63054 | 6.376 | 189.9 |
| 2025-12-30T06:10 | 32.41025 | -117.63008 | 6.277 | 178.7 |
| 2025-12-30T06:20 | 32.39292 | -117.62469 | 6.435 | 165.2 |
| 2025-12-30T06:30 | 32.37581 | -117.61919 | 6.371 | 164.7 |
| 2025-12-30T06:40 | 32.35855 | -117.61383 | 6.407 | 165.2 |
| 2025-12-30T06:50 | 32.34117 | -117.60839 | 6.457 | 165.1 |
| 2025-12-30T07:00 | 32.32381 | -117.60289 | 6.456 | 165.0 |
| 2025-12-30T07:10 | 32.30645 | -117.59742 | 6.453 | 165.0 |
| 2025-12-30T07:20 | 32.28903 | -117.59193 | 6.475 | 165.0 |
| 2025-12-30T07:30 | 32.27647 | -117.57946 | 5.899 | 139.9 |
| 2025-12-30T07:40 | 32.26547 | -117.56199 | 6.634 | 126.5 |
| 2025-12-30T07:50 | 32.25473 | -117.54438 | 6.614 | 125.7 |
| 2025-12-30T08:00 | 32.24409 | -117.52712 | 6.506 | 125.9 |
| 2025-12-30T08:10 | 32.23359 | -117.51001 | 6.440 | 125.8 |
| 2025-12-30T08:20 | 32.22298 | -117.49280 | 6.489 | 126.0 |
| 2025-12-30T08:30 | 32.21232 | -117.47526 | 6.581 | 125.5 |
| 2025-12-30T08:40 | 32.20141 | -117.45756 | 6.676 | 125.9 |
| 2025-12-30T08:50 | 32.19044 | -117.43969 | 6.731 | 125.8 |
| 2025-12-30T09:00 | 32.17948 | -117.42182 | 6.724 | 125.8 |
| 2025-12-30T09:10 | 32.16864 | -117.40411 | 6.666 | 125.8 |
| 2025-12-30T09:20 | 32.15778 | -117.38646 | 6.651 | 125.9 |
| 2025-12-30T09:30 | 32.14699 | -117.36860 | 6.692 | 125.4 |
| 2025-12-30T09:40 | 32.13602 | -117.35095 | 6.678 | 126.1 |
| 2025-12-30T09:50 | 32.12514 | -117.33321 | 6.682 | 125.8 |
| 2025-12-30T10:00 | 32.11413 | -117.31527 | 6.759 | 125.8 |
| 2025-12-30T10:10 | 32.10308 | -117.29729 | 6.777 | 125.8 |
| 2025-12-30T10:20 | 32.09200 | -117.27925 | 6.799 | 125.8 |
| 2025-12-30T10:30 | 32.08087 | -117.26113 | 6.830 | 125.8 |
| 2025-12-30T10:40 | 32.06966 | -117.24298 | 6.855 | 126.0 |
| 2025-12-30T10:50 | 32.05847 | -117.22469 | 6.884 | 125.7 |
| 2025-12-30T11:00 | 32.04728 | -117.20643 | 6.880 | 125.7 |
| 2025-12-30T11:10 | 32.03613 | -117.18832 | 6.836 | 125.9 |
| 2025-12-30T11:20 | 32.02527 | -117.17056 | 6.685 | 125.7 |
| 2025-12-30T11:30 | 32.01430 | -117.15284 | 6.700 | 126.0 |
| 2025-12-30T11:40 | 32.00335 | -117.13502 | 6.723 | 125.8 |
| 2025-12-30T11:50 | 31.99397 | -117.11621 | 6.667 | 120.3 |
| 2025-12-30T12:00 | 31.98708 | -117.09587 | 6.697 | 111.7 |
| 2025-12-30T12:10 | 31.98038 | -117.07551 | 6.679 | 111.1 |
| 2025-12-30T12:20 | 31.97371 | -117.05530 | 6.632 | 111.2 |
| 2025-12-30T12:30 | 31.96702 | -117.03538 | 6.554 | 111.5 |
| 2025-12-30T12:40 | 31.96057 | -117.01590 | 6.397 | 111.2 |
| 2025-12-30T12:50 | 31.95426 | -116.99700 | 6.212 | 111.4 |
| 2025-12-30T13:00 | 31.94798 | -116.97800 | 6.238 | 111.2 |
| 2025-12-30T13:10 | 31.94171 | -116.95878 | 6.300 | 110.9 |
| 2025-12-30T13:20 | 31.93516 | -116.93937 | 6.391 | 111.6 |
| 2025-12-30T13:30 | 31.92853 | -116.91962 | 6.499 | 111.5 |
| 2025-12-30T13:40 | 31.92180 | -116.89936 | 6.659 | 111.3 |
| 2025-12-30T13:50 | 31.91522 | -116.87926 | 6.595 | 111.0 |
| 2025-12-30T14:00 | 31.90913 | -116.86017 | 6.241 | 110.5 |
| 2025-12-30T14:10 | 31.90255 | -116.84074 | 6.402 | 111.6 |
| 2025-12-30T14:20 | 31.89589 | -116.82106 | 6.486 | 111.6 |
| 2025-12-30T14:30 | 31.88963 | -116.80195 | 6.271 | 111.0 |
| 2025-12-30T14:40 | 31.88315 | -116.78289 | 6.285 | 111.7 |
| 2025-12-30T14:50 | 31.87312 | -116.76594 | 6.318 | 124.7 |
| 2025-12-30T15:00 | 31.86298 | -116.74931 | 6.264 | 125.5 |
| 2025-12-30T15:10 | 31.85277 | -116.73285 | 6.235 | 126.0 |
| 2025-12-30T15:20 | 31.84298 | -116.71711 | 5.969 | 126.1 |
| 2025-12-30T15:30 | 31.83176 | -116.70258 | 6.006 | 132.1 |
| 2025-12-30T15:40 | 31.81692 | -116.69117 | 6.372 | 146.7 |
| 2025-12-30T15:50 | 31.80219 | -116.67940 | 6.403 | 145.7 |
| 2025-12-30T16:00 | 31.79630 | -116.66772 | 4.160 | 120.6 |
| 2025-12-30T16:10 | 31.79609 | -116.66917 | 0.450 | 260.3 |
| 2025-12-30T16:20 | 31.79628 | -116.67028 | 0.348 | 281.6 |
| 2025-12-30T16:30 | 31.79709 | -116.67045 | 0.293 | 349.8 |
| 2025-12-30T16:40 | 31.79728 | -116.67035 | 0.077 | 23.1 |
| 2025-12-30T16:50 | 31.79754 | -116.66973 | 0.212 | 64.3 |
| 2025-12-30T17:00 | 31.79781 | -116.66952 | 0.116 | 33.8 |
| 2025-12-30T17:10 | 31.79794 | -116.66906 | 0.148 | 71.1 |
| 2025-12-30T17:20 | 31.79733 | -116.66953 | 0.261 | 213.4 |
| 2025-12-30T17:30 | 31.79710 | -116.66950 | 0.086 | 173.0 |
| 2025-12-30T17:40 | 31.79749 | -116.66902 | 0.203 | 46.0 |
| 2025-12-30T17:50 | 31.79787 | -116.66833 | 0.254 | 57.2 |
| 2025-12-30T18:00 | 31.79803 | -116.66748 | 0.265 | 77.7 |
| 2025-12-30T18:10 | 31.79798 | -116.66622 | 0.387 | 92.4 |
| 2025-12-30T18:20 | 31.79827 | -116.66570 | 0.188 | 57.1 |
| 2025-12-30T18:30 | 31.79826 | -116.66565 | 0.016 | 101.9 |
| 2025-12-30T18:40 | 31.79828 | -116.66566 | 0.009 | 336.9 |
| 2025-12-30T18:50 | 31.79821 | -116.66564 | 0.025 | 166.4 |
| 2025-12-30T19:00 | 31.79821 | -116.66566 | 0.005 | 238.0 |
| 2025-12-30T19:10 | 31.79826 | -116.66560 | 0.026 | 43.6 |
| 2025-12-30T19:20 | 31.79833 | -116.66566 | 0.031 | 323.4 |
| 2025-12-30T19:30 | 31.79833 | -116.66570 | 0.012 | 273.5 |
| 2025-12-30T19:40 | 31.79828 | -116.66569 | 0.017 | 166.4 |
| 2025-12-30T19:50 | 31.79821 | -116.66564 | 0.029 | 151.9 |
| 2025-12-30T20:00 | 31.79820 | -116.66567 | 0.011 | 252.8 |
| 2025-12-30T20:10 | 31.79831 | -116.66568 | 0.038 | 357.7 |
| 2025-12-30T20:20 | 31.79828 | -116.66573 | 0.018 | 239.2 |
| 2025-12-30T20:30 | 31.79821 | -116.66566 | 0.034 | 142.2 |
| 2025-12-30T20:40 | 31.79832 | -116.66566 | 0.041 | 1.3 |
| 2025-12-30T20:50 | 31.79829 | -116.66567 | 0.013 | 198.1 |
| 2025-12-30T21:00 | 31.79827 | -116.66560 | 0.021 | 101.8 |
| 2025-12-30T21:10 | 31.79832 | -116.66564 | 0.021 | 330.6 |
| 2025-12-30T21:20 | 31.79830 | -116.66562 | 0.011 | 147.0 |
| 2025-12-30T21:30 | 31.79830 | -116.66570 | 0.026 | 268.4 |
| 2025-12-30T21:40 | 31.79833 | -116.66569 | 0.013 | 16.8 |
| 2025-12-30T21:50 | 31.79828 | -116.66566 | 0.020 | 151.3 |
| 2025-12-30T22:00 | 31.79822 | -116.66563 | 0.022 | 154.0 |
| 2025-12-30T22:10 | 31.79831 | -116.66570 | 0.039 | 325.4 |
| 2025-12-30T22:20 | 31.79824 | -116.66565 | 0.031 | 151.2 |
| 2025-12-30T22:30 | 31.79823 | -116.66564 | 0.005 | 111.3 |
| 2025-12-30T22:40 | 31.79828 | -116.66560 | 0.018 | 32.4 |
| 2025-12-30T22:50 | 31.79827 | -116.66564 | 0.011 | 260.2 |
| 2025-12-30T23:00 | 31.79822 | -116.66564 | 0.017 | 186.1 |
| 2025-12-30T23:10 | 31.79828 | -116.66566 | 0.019 | 346.2 |
| 2025-12-30T23:20 | 31.79822 | -116.66570 | 0.024 | 212.8 |
| 2025-12-30T23:30 | 31.79826 | -116.66567 | 0.020 | 34.5 |
| 2025-12-30T23:40 | 31.79829 | -116.66561 | 0.020 | 58.3 |
| 2025-12-30T23:50 | 31.79830 | -116.66562 | 0.003 | 315.1 |
| 2025-12-31T00:00 | 31.79832 | -116.66567 | 0.016 | 292.1 |
| 2025-12-31T00:10 | 31.79823 | -116.66562 | 0.036 | 154.6 |
| 2025-12-31T00:20 | 31.79826 | -116.66567 | 0.019 | 303.1 |
| 2025-12-31T00:30 | 31.79826 | -116.66566 | 0.002 | 29.7 |
| 2025-12-31T00:40 | 31.79824 | -116.66572 | 0.020 | 249.0 |
| 2025-12-31T00:50 | 31.79828 | -116.66573 | 0.013 | 353.2 |
| 2025-12-31T01:00 | 31.79577 | -116.67677 | 3.504 | 255.1 |
| 2025-12-31T01:10 | 31.78787 | -116.70809 | 10.013 | 253.6 |
| 2025-12-31T01:20 | 31.77921 | -116.74124 | 10.633 | 253.0 |
| 2025-12-31T01:30 | 31.77147 | -116.77441 | 10.546 | 254.7 |
| 2025-12-31T01:40 | 31.75501 | -116.80191 | 10.299 | 235.0 |
| 2025-12-31T01:50 | 31.73431 | -116.82628 | 10.543 | 225.2 |
| 2025-12-31T02:00 | 31.70828 | -116.83948 | 10.187 | 203.4 |
| 2025-12-31T02:10 | 31.68001 | -116.84937 | 10.593 | 196.7 |
| 2025-12-31T02:20 | 31.65201 | -116.85960 | 10.532 | 197.4 |
| 2025-12-31T02:30 | 31.62374 | -116.86976 | 10.620 | 197.1 |
| 2025-12-31T02:40 | 31.59526 | -116.88009 | 10.706 | 197.2 |
| 2025-12-31T02:50 | 31.56693 | -116.89039 | 10.653 | 197.3 |
| 2025-12-31T03:00 | 31.53976 | -116.90019 | 10.209 | 197.2 |
| 2025-12-31T03:10 | 31.51255 | -116.91011 | 10.233 | 197.3 |
| 2025-12-31T03:20 | 31.48466 | -116.92016 | 10.481 | 197.2 |
| 2025-12-31T03:30 | 31.45616 | -116.92955 | 10.632 | 195.8 |
| 2025-12-31T03:40 | 31.42791 | -116.93668 | 10.376 | 192.2 |
| 2025-12-31T03:50 | 31.39945 | -116.94365 | 10.439 | 191.9 |
| 2025-12-31T04:00 | 31.37099 | -116.95065 | 10.444 | 191.9 |
| 2025-12-31T04:10 | 31.34277 | -116.95754 | 10.351 | 191.8 |
| 2025-12-31T04:20 | 31.31462 | -116.96449 | 10.332 | 192.0 |
| 2025-12-31T04:30 | 31.28672 | -116.97139 | 10.241 | 192.0 |
| 2025-12-31T04:40 | 31.25853 | -116.97830 | 10.341 | 191.9 |
| 2025-12-31T04:50 | 31.23036 | -116.98526 | 10.338 | 192.0 |
| 2025-12-31T05:00 | 31.20123 | -116.99245 | 10.689 | 192.0 |
| 2025-12-31T05:10 | 31.17141 | -116.99977 | 10.944 | 191.9 |
| 2025-12-31T05:20 | 31.14142 | -117.00713 | 11.001 | 191.9 |
| 2025-12-31T05:30 | 31.11179 | -117.01443 | 10.876 | 192.0 |
| 2025-12-31T05:40 | 31.08210 | -117.02176 | 10.894 | 192.0 |
| 2025-12-31T05:50 | 31.05242 | -117.02895 | 10.886 | 191.8 |
| 2025-12-31T06:00 | 31.02316 | -117.03617 | 10.738 | 192.0 |
| 2025-12-31T06:10 | 30.99379 | -117.04337 | 10.777 | 191.9 |
| 2025-12-31T06:20 | 30.96415 | -117.05070 | 10.880 | 192.0 |
| 2025-12-31T06:30 | 30.93400 | -117.05805 | 11.061 | 191.9 |
| 2025-12-31T06:40 | 30.90396 | -117.06544 | 11.024 | 192.0 |
| 2025-12-31T06:50 | 30.87415 | -117.07273 | 10.935 | 191.9 |
| 2025-12-31T07:00 | 30.84450 | -117.07998 | 10.880 | 191.9 |
| 2025-12-31T07:10 | 30.81480 | -117.08723 | 10.895 | 191.9 |
| 2025-12-31T07:20 | 30.78479 | -117.09463 | 11.014 | 192.0 |
| 2025-12-31T07:30 | 30.75505 | -117.10186 | 10.911 | 191.9 |
| 2025-12-31T07:40 | 30.72580 | -117.10895 | 10.727 | 191.8 |
| 2025-12-31T07:50 | 30.69642 | -117.11621 | 10.785 | 192.1 |
| 2025-12-31T08:00 | 30.66722 | -117.12341 | 10.717 | 192.0 |
| 2025-12-31T08:10 | 30.63853 | -117.13039 | 10.524 | 191.9 |
| 2025-12-31T08:20 | 30.60970 | -117.13746 | 10.580 | 192.0 |
| 2025-12-31T08:30 | 30.58088 | -117.14467 | 10.586 | 192.2 |
| 2025-12-31T08:40 | 30.55214 | -117.15218 | 10.577 | 192.7 |
| 2025-12-31T08:50 | 30.52334 | -117.15970 | 10.599 | 192.7 |
| 2025-12-31T09:00 | 30.49457 | -117.16722 | 10.588 | 192.8 |
| 2025-12-31T09:10 | 30.46570 | -117.17471 | 10.621 | 192.7 |
| 2025-12-31T09:20 | 30.43716 | -117.18211 | 10.502 | 192.7 |
| 2025-12-31T09:30 | 30.40800 | -117.18973 | 10.731 | 192.8 |
| 2025-12-31T09:40 | 30.37863 | -117.19743 | 10.811 | 192.8 |
| 2025-12-31T09:50 | 30.34918 | -117.20507 | 10.835 | 192.7 |
| 2025-12-31T10:00 | 30.31972 | -117.21272 | 10.841 | 192.7 |
| 2025-12-31T10:10 | 30.29032 | -117.22035 | 10.817 | 192.7 |
| 2025-12-31T10:20 | 30.26111 | -117.22801 | 10.755 | 192.8 |
| 2025-12-31T10:30 | 30.23193 | -117.23555 | 10.734 | 192.7 |
| 2025-12-31T10:40 | 30.20264 | -117.24316 | 10.777 | 192.7 |
| 2025-12-31T10:50 | 30.17315 | -117.25082 | 10.852 | 192.7 |
| 2025-12-31T11:00 | 30.14352 | -117.25856 | 10.906 | 192.8 |
| 2025-12-31T11:10 | 30.11362 | -117.26636 | 11.005 | 192.8 |
| 2025-12-31T11:20 | 30.08401 | -117.27405 | 10.899 | 192.7 |
| 2025-12-31T11:30 | 30.05479 | -117.28158 | 10.747 | 192.6 |
| 2025-12-31T11:40 | 30.02565 | -117.28915 | 10.725 | 192.7 |
| 2025-12-31T11:50 | 29.99661 | -117.29673 | 10.689 | 192.8 |
| 2025-12-31T12:00 | 29.96798 | -117.30419 | 10.535 | 192.8 |
| 2025-12-31T12:10 | 29.93954 | -117.31151 | 10.463 | 192.6 |
| 2025-12-31T12:20 | 29.91105 | -117.31891 | 10.485 | 192.8 |
| 2025-12-31T12:30 | 29.88235 | -117.32630 | 10.556 | 192.7 |
| 2025-12-31T12:40 | 29.85385 | -117.33371 | 10.491 | 192.8 |
| 2025-12-31T12:50 | 29.82552 | -117.34105 | 10.424 | 192.7 |
| 2025-12-31T13:00 | 29.79716 | -117.34836 | 10.432 | 192.7 |
| 2025-12-31T13:10 | 29.76888 | -117.35563 | 10.405 | 192.7 |
| 2025-12-31T13:20 | 29.74084 | -117.36291 | 10.317 | 192.8 |
| 2025-12-31T13:30 | 29.71318 | -117.37009 | 10.180 | 192.8 |
| 2025-12-31T13:40 | 29.68558 | -117.37727 | 10.160 | 192.8 |
| 2025-12-31T13:50 | 29.65782 | -117.38445 | 10.214 | 192.7 |
| 2025-12-31T14:00 | 29.63013 | -117.39158 | 10.187 | 192.7 |
| 2025-12-31T14:10 | 29.60215 | -117.39872 | 10.288 | 192.6 |
| 2025-12-31T14:20 | 29.57350 | -117.40617 | 10.546 | 192.8 |
| 2025-12-31T14:30 | 29.54462 | -117.41370 | 10.633 | 192.8 |
| 2025-12-31T14:40 | 29.51602 | -117.42104 | 10.518 | 192.7 |
| 2025-12-31T14:50 | 29.48769 | -117.42837 | 10.425 | 192.8 |
| 2025-12-31T15:00 | 29.45960 | -117.43561 | 10.335 | 192.7 |
| 2025-12-31T15:10 | 29.43136 | -117.44278 | 10.382 | 192.5 |
| 2025-12-31T15:20 | 29.40265 | -117.45025 | 10.570 | 192.8 |
| 2025-12-31T15:30 | 29.37350 | -117.45783 | 10.730 | 192.8 |
| 2025-12-31T15:40 | 29.34454 | -117.46531 | 10.656 | 192.8 |
| 2025-12-31T15:50 | 29.31589 | -117.47263 | 10.537 | 192.6 |
| 2025-12-31T16:00 | 29.28767 | -117.47996 | 10.387 | 192.8 |
| 2025-12-31T16:10 | 29.25916 | -117.48726 | 10.486 | 192.7 |
| 2025-12-31T16:20 | 29.23036 | -117.49470 | 10.598 | 192.8 |
| 2025-12-31T16:30 | 29.20071 | -117.50229 | 10.907 | 192.7 |
| 2025-12-31T16:40 | 29.17151 | -117.50988 | 10.750 | 192.8 |
| 2025-12-31T16:50 | 29.14215 | -117.51738 | 10.798 | 192.6 |
| 2025-12-31T17:00 | 29.11279 | -117.52488 | 10.798 | 192.7 |
| 2025-12-31T17:10 | 29.08403 | -117.53229 | 10.584 | 192.7 |
| 2025-12-31T17:20 | 29.05566 | -117.53963 | 10.441 | 192.8 |
| 2025-12-31T17:30 | 29.02699 | -117.54708 | 10.553 | 192.9 |
| 2025-12-31T17:40 | 28.99851 | -117.55431 | 10.475 | 192.6 |
| 2025-12-31T17:50 | 28.97013 | -117.56167 | 10.448 | 192.9 |
| 2025-12-31T18:00 | 28.94134 | -117.56900 | 10.588 | 192.6 |
| 2025-12-31T18:10 | 28.91243 | -117.57639 | 10.634 | 192.7 |
| 2025-12-31T18:20 | 28.88347 | -117.58387 | 10.658 | 192.8 |
| 2025-12-31T18:30 | 28.85484 | -117.59124 | 10.537 | 192.8 |
| 2025-12-31T18:40 | 28.82644 | -117.59848 | 10.444 | 192.7 |
| 2025-12-31T18:50 | 28.79797 | -117.60575 | 10.473 | 192.7 |
| 2025-12-31T19:00 | 28.76947 | -117.61309 | 10.486 | 192.8 |
| 2025-12-31T19:10 | 28.74102 | -117.62034 | 10.465 | 192.7 |
| 2025-12-31T19:20 | 28.71261 | -117.62764 | 10.455 | 192.8 |
| 2025-12-31T19:30 | 28.68450 | -117.63482 | 10.339 | 192.7 |
| 2025-12-31T19:40 | 28.65642 | -117.64206 | 10.336 | 192.8 |
| 2025-12-31T19:50 | 28.62814 | -117.64929 | 10.401 | 192.7 |
| 2025-12-31T20:00 | 28.59981 | -117.65652 | 10.424 | 192.7 |
| 2025-12-31T20:10 | 28.57165 | -117.66371 | 10.359 | 192.7 |
| 2025-12-31T20:20 | 28.54353 | -117.67090 | 10.345 | 192.7 |
| 2025-12-31T20:30 | 28.51499 | -117.67820 | 10.501 | 192.7 |
| 2025-12-31T20:40 | 28.48647 | -117.68553 | 10.492 | 192.8 |
| 2025-12-31T20:50 | 28.45821 | -117.69270 | 10.393 | 192.7 |
| 2025-12-31T21:00 | 28.43031 | -117.69979 | 10.261 | 192.6 |
| 2025-12-31T21:10 | 28.40227 | -117.70699 | 10.319 | 192.8 |
| 2025-12-31T21:20 | 28.37368 | -117.71429 | 10.517 | 192.7 |
| 2025-12-31T21:30 | 28.34500 | -117.72160 | 10.553 | 192.7 |
| 2025-12-31T21:40 | 28.31637 | -117.72890 | 10.533 | 192.7 |
| 2025-12-31T21:50 | 28.28776 | -117.73620 | 10.522 | 192.7 |
| 2025-12-31T22:00 | 28.25943 | -117.74348 | 10.428 | 192.8 |
| 2025-12-31T22:10 | 28.23101 | -117.75069 | 10.452 | 192.7 |
| 2025-12-31T22:20 | 28.20257 | -117.75793 | 10.459 | 192.7 |
| 2025-12-31T22:30 | 28.17404 | -117.76524 | 10.500 | 192.8 |
| 2025-12-31T22:40 | 28.14559 | -117.77242 | 10.463 | 192.6 |
| 2025-12-31T22:50 | 28.11740 | -117.77966 | 10.373 | 192.8 |
| 2025-12-31T23:00 | 28.08888 | -117.78685 | 10.485 | 192.6 |
| 2025-12-31T23:10 | 28.06054 | -117.79409 | 10.427 | 192.8 |
| 2025-12-31T23:20 | 28.03225 | -117.80128 | 10.407 | 192.7 |
| 2025-12-31T23:30 | 28.00408 | -117.80851 | 10.369 | 192.8 |
| 2025-12-31T23:40 | 27.97597 | -117.81552 | 10.331 | 192.5 |
| 2025-12-31T23:50 | 27.94787 | -117.82287 | 10.350 | 193.1 |
| 2026-01-01T00:00 | 27.91973 | -117.82997 | 10.350 | 192.6 |
| 2026-01-01T00:10 | 27.89190 | -117.83704 | 10.235 | 192.7 |
| 2026-01-01T00:20 | 27.86408 | -117.84409 | 10.233 | 192.7 |
| 2026-01-01T00:30 | 27.83674 | -117.85098 | 10.054 | 192.6 |
| 2026-01-01T00:40 | 27.80938 | -117.85796 | 10.066 | 192.8 |
| 2026-01-01T00:50 | 27.78237 | -117.86488 | 9.941 | 192.8 |
| 2026-01-01T01:00 | 27.75565 | -117.87165 | 9.829 | 192.7 |
| 2026-01-01T01:10 | 27.72928 | -117.87831 | 9.697 | 192.7 |
| 2026-01-01T01:20 | 27.70316 | -117.88492 | 9.606 | 192.7 |
| 2026-01-01T01:30 | 27.67657 | -117.89168 | 9.783 | 192.8 |
| 2026-01-01T01:40 | 27.64853 | -117.89881 | 10.318 | 192.8 |
| 2026-01-01T01:50 | 27.62068 | -117.90587 | 10.243 | 192.7 |
| 2026-01-01T02:00 | 27.59274 | -117.91293 | 10.278 | 192.7 |
| 2026-01-01T02:10 | 27.56484 | -117.91999 | 10.260 | 192.7 |
| 2026-01-01T02:20 | 27.53670 | -117.92718 | 10.358 | 192.8 |
| 2026-01-01T02:30 | 27.50856 | -117.93429 | 10.350 | 192.7 |
| 2026-01-01T02:40 | 27.48083 | -117.94132 | 10.199 | 192.7 |
| 2026-01-01T02:50 | 27.45302 | -117.94826 | 10.225 | 192.6 |
| 2026-01-01T03:00 | 27.42551 | -117.95530 | 10.121 | 192.9 |
| 2026-01-01T03:10 | 27.39775 | -117.96231 | 10.213 | 192.7 |
| 2026-01-01T03:20 | 27.36968 | -117.96948 | 10.328 | 192.8 |
| 2026-01-01T03:30 | 27.34178 | -117.97646 | 10.259 | 192.6 |
| 2026-01-01T03:40 | 27.31417 | -117.98354 | 10.160 | 192.9 |
| 2026-01-01T03:50 | 27.28658 | -117.99045 | 10.146 | 192.6 |
| 2026-01-01T04:00 | 27.25844 | -117.99754 | 10.348 | 192.7 |
| 2026-01-01T04:10 | 27.23005 | -118.00474 | 10.445 | 192.8 |
| 2026-01-01T04:20 | 27.20159 | -118.01193 | 10.469 | 192.7 |
| 2026-01-01T04:30 | 27.17338 | -118.01901 | 10.375 | 192.7 |
| 2026-01-01T04:40 | 27.14502 | -118.02615 | 10.431 | 192.7 |
| 2026-01-01T04:50 | 27.11638 | -118.03337 | 10.532 | 192.7 |
| 2026-01-01T05:00 | 27.08754 | -118.04069 | 10.610 | 192.8 |
| 2026-01-01T05:10 | 27.05857 | -118.04791 | 10.649 | 192.6 |
| 2026-01-01T05:20 | 27.02932 | -118.05539 | 10.767 | 192.9 |
| 2026-01-01T05:30 | 27.00023 | -118.06272 | 10.698 | 192.7 |
| 2026-01-01T05:40 | 26.97108 | -118.07001 | 10.718 | 192.6 |
| 2026-01-01T05:50 | 26.94187 | -118.07743 | 10.748 | 192.8 |
| 2026-01-01T06:00 | 26.91253 | -118.08481 | 10.791 | 192.7 |
| 2026-01-01T06:10 | 26.88290 | -118.09225 | 10.897 | 192.7 |
| 2026-01-01T06:20 | 26.85307 | -118.09979 | 10.972 | 192.8 |
| 2026-01-01T06:30 | 26.82322 | -118.10729 | 10.980 | 192.7 |
| 2026-01-01T06:40 | 26.79341 | -118.11475 | 10.961 | 192.7 |
| 2026-01-01T06:50 | 26.76349 | -118.12228 | 11.003 | 192.7 |
| 2026-01-01T07:00 | 26.73363 | -118.12983 | 10.986 | 192.8 |
| 2026-01-01T07:10 | 26.70344 | -118.13743 | 11.103 | 192.8 |
| 2026-01-01T07:20 | 26.67311 | -118.14499 | 11.152 | 192.6 |
| 2026-01-01T07:30 | 26.64270 | -118.15269 | 11.190 | 192.8 |
| 2026-01-01T07:40 | 26.61233 | -118.16033 | 11.170 | 192.8 |
| 2026-01-01T07:50 | 26.58191 | -118.16790 | 11.184 | 192.6 |
| 2026-01-01T08:00 | 26.55170 | -118.17552 | 11.114 | 192.8 |
| 2026-01-01T08:10 | 26.52141 | -118.18313 | 11.142 | 192.7 |
| 2026-01-01T08:20 | 26.49092 | -118.19080 | 11.214 | 192.8 |
| 2026-01-01T08:30 | 26.46030 | -118.19851 | 11.262 | 192.8 |
| 2026-01-01T08:40 | 26.42931 | -118.20626 | 11.396 | 192.7 |
| 2026-01-01T08:50 | 26.39846 | -118.21397 | 11.345 | 192.7 |
| 2026-01-01T09:00 | 26.36744 | -118.22174 | 11.408 | 192.7 |
| 2026-01-01T09:10 | 26.33629 | -118.22953 | 11.457 | 192.7 |
| 2026-01-01T09:20 | 26.30541 | -118.23729 | 11.357 | 192.8 |
| 2026-01-01T09:30 | 26.27470 | -118.24499 | 11.296 | 192.7 |
| 2026-01-01T09:40 | 26.24369 | -118.25285 | 11.410 | 192.9 |
| 2026-01-01T09:50 | 26.21272 | -118.26048 | 11.383 | 192.5 |
| 2026-01-01T10:00 | 26.18174 | -118.26824 | 11.391 | 192.7 |
| 2026-01-01T10:10 | 26.15076 | -118.27601 | 11.395 | 192.8 |
| 2026-01-01T10:20 | 26.11977 | -118.28381 | 11.403 | 192.8 |
| 2026-01-01T10:30 | 26.08868 | -118.29150 | 11.427 | 192.6 |
| 2026-01-01T10:40 | 26.05797 | -118.29927 | 11.301 | 192.9 |
| 2026-01-01T10:50 | 26.02733 | -118.30687 | 11.265 | 192.6 |
| 2026-01-01T11:00 | 25.99659 | -118.31460 | 11.306 | 192.8 |
| 2026-01-01T11:10 | 25.96592 | -118.32223 | 11.280 | 192.7 |
| 2026-01-01T11:20 | 25.93517 | -118.32994 | 11.310 | 192.8 |
| 2026-01-01T11:30 | 25.90426 | -118.33768 | 11.370 | 192.8 |
| 2026-01-01T11:40 | 25.87363 | -118.34531 | 11.260 | 192.7 |
| 2026-01-01T11:50 | 25.84301 | -118.35292 | 11.258 | 192.7 |
| 2026-01-01T12:00 | 25.81228 | -118.36058 | 11.303 | 192.7 |
| 2026-01-01T12:10 | 25.78108 | -118.36837 | 11.472 | 192.8 |
| 2026-01-01T12:20 | 25.74969 | -118.37621 | 11.546 | 192.7 |
| 2026-01-01T12:30 | 25.71849 | -118.38395 | 11.470 | 192.7 |
| 2026-01-01T12:40 | 25.68729 | -118.39172 | 11.474 | 192.7 |
| 2026-01-01T12:50 | 25.65666 | -118.39935 | 11.262 | 192.7 |
| 2026-01-01T13:00 | 25.62615 | -118.40699 | 11.225 | 192.8 |
| 2026-01-01T13:10 | 25.59570 | -118.41455 | 11.194 | 192.7 |
| 2026-01-01T13:20 | 25.56493 | -118.42225 | 11.320 | 192.8 |
| 2026-01-01T13:30 | 25.53422 | -118.42986 | 11.289 | 192.7 |
| 2026-01-01T13:40 | 25.50338 | -118.43642 | 11.266 | 190.9 |
| 2026-01-01T13:50 | 25.47224 | -118.44048 | 11.251 | 186.8 |
| 2026-01-01T14:00 | 25.44183 | -118.44425 | 10.975 | 186.4 |
| 2026-01-01T14:10 | 25.41189 | -118.44807 | 10.811 | 186.6 |
| 2026-01-01T14:20 | 25.38195 | -118.45184 | 10.812 | 186.5 |
| 2026-01-01T14:30 | 25.35166 | -118.45563 | 10.936 | 186.5 |
| 2026-01-01T14:40 | 25.32113 | -118.45952 | 11.023 | 186.6 |
| 2026-01-01T14:50 | 25.29058 | -118.46333 | 11.030 | 186.5 |
| 2026-01-01T15:00 | 25.25991 | -118.46723 | 11.071 | 186.6 |
| 2026-01-01T15:10 | 25.22934 | -118.47109 | 11.039 | 186.6 |
| 2026-01-01T15:20 | 25.19878 | -118.47486 | 11.030 | 186.4 |
| 2026-01-01T15:30 | 25.16861 | -118.47871 | 10.893 | 186.6 |
| 2026-01-01T15:40 | 25.13875 | -118.48250 | 10.784 | 186.6 |
| 2026-01-01T15:50 | 25.10892 | -118.48622 | 10.769 | 186.5 |
| 2026-01-01T16:00 | 25.07904 | -118.49004 | 10.788 | 186.6 |
| 2026-01-01T16:10 | 25.04885 | -118.49383 | 10.898 | 186.5 |
| 2026-01-01T16:20 | 25.01891 | -118.49764 | 10.811 | 186.6 |
| 2026-01-01T16:30 | 24.98843 | -118.50115 | 10.994 | 186.0 |
| 2026-01-01T16:40 | 24.95812 | -118.50417 | 10.916 | 185.2 |
| 2026-01-01T16:50 | 24.92817 | -118.50721 | 10.788 | 185.3 |
| 2026-01-01T17:00 | 24.89841 | -118.51020 | 10.721 | 185.2 |
| 2026-01-01T17:10 | 24.86865 | -118.51315 | 10.718 | 185.2 |
| 2026-01-01T17:20 | 24.83938 | -118.51605 | 10.540 | 185.2 |
| 2026-01-01T17:30 | 24.81022 | -118.51904 | 10.504 | 185.3 |
| 2026-01-01T17:40 | 24.78091 | -118.52198 | 10.556 | 185.2 |
| 2026-01-01T17:50 | 24.75177 | -118.52486 | 10.497 | 185.2 |
| 2026-01-01T18:00 | 24.72288 | -118.52779 | 10.406 | 185.3 |
| 2026-01-01T18:10 | 24.69406 | -118.53062 | 10.377 | 185.1 |
| 2026-01-01T18:20 | 24.66487 | -118.53323 | 10.503 | 184.7 |
| 2026-01-01T18:30 | 24.63555 | -118.53588 | 10.554 | 184.7 |
| 2026-01-01T18:40 | 24.60594 | -118.53854 | 10.654 | 184.7 |
| 2026-01-01T18:50 | 24.57663 | -118.54178 | 10.566 | 185.8 |
| 2026-01-01T19:00 | 24.54724 | -118.54536 | 10.608 | 186.4 |
| 2026-01-01T19:10 | 24.51796 | -118.54834 | 10.549 | 185.3 |
| 2026-01-01T19:20 | 24.48931 | -118.55121 | 10.318 | 185.2 |
| 2026-01-01T19:30 | 24.45983 | -118.55423 | 10.620 | 185.4 |
| 2026-01-01T19:40 | 24.43004 | -118.55715 | 10.726 | 185.1 |
| 2026-01-01T19:50 | 24.40080 | -118.56004 | 10.532 | 185.2 |
| 2026-01-01T20:00 | 24.37117 | -118.56306 | 10.674 | 185.3 |
| 2026-01-01T20:10 | 24.34130 | -118.56596 | 10.753 | 185.1 |
| 2026-01-01T20:20 | 24.31208 | -118.56897 | 10.526 | 185.4 |
| 2026-01-01T20:30 | 24.28274 | -118.57187 | 10.566 | 185.2 |
| 2026-01-01T20:40 | 24.25347 | -118.57480 | 10.540 | 185.2 |
| 2026-01-01T20:50 | 24.22463 | -118.57766 | 10.388 | 185.2 |
| 2026-01-01T21:00 | 24.19536 | -118.58063 | 10.544 | 185.3 |
| 2026-01-01T21:10 | 24.16662 | -118.58352 | 10.351 | 185.3 |
| 2026-01-01T21:20 | 24.13785 | -118.58642 | 10.362 | 185.3 |
| 2026-01-01T21:30 | 24.10906 | -118.58924 | 10.367 | 185.1 |
| 2026-01-01T21:40 | 24.07817 | -118.59233 | 11.124 | 185.3 |
| 2026-01-01T21:50 | 24.04931 | -118.59520 | 10.392 | 185.2 |
| 2026-01-01T22:00 | 24.02212 | -118.59791 | 9.795 | 185.2 |
| 2026-01-01T22:10 | 23.99395 | -118.60072 | 10.143 | 185.2 |
| 2026-01-01T22:20 | 23.96581 | -118.60354 | 10.133 | 185.3 |
| 2026-01-01T22:30 | 23.93774 | -118.60633 | 10.110 | 185.2 |
| 2026-01-01T22:40 | 23.91091 | -118.60902 | 9.664 | 185.3 |
| 2026-01-01T22:50 | 23.88766 | -118.61129 | 8.371 | 185.1 |
| 2026-01-01T23:00 | 23.86148 | -118.61394 | 9.429 | 185.3 |
| 2026-01-01T23:10 | 23.83272 | -118.61675 | 10.357 | 185.1 |
| 2026-01-01T23:20 | 23.80380 | -118.61961 | 10.415 | 185.2 |
| 2026-01-01T23:30 | 23.77652 | -118.62240 | 9.824 | 185.4 |
| 2026-01-01T23:40 | 23.74904 | -118.62515 | 9.896 | 185.2 |
| 2026-01-01T23:50 | 23.72092 | -118.62793 | 10.128 | 185.2 |
| 2026-01-02T00:00 | 23.69220 | -118.63082 | 10.344 | 185.3 |
| 2026-01-02T00:10 | 23.66337 | -118.63367 | 10.382 | 185.2 |
| 2026-01-02T00:20 | 23.63373 | -118.63658 | 10.673 | 185.2 |
| 2026-01-02T00:30 | 23.60369 | -118.63960 | 10.818 | 185.3 |
| 2026-01-02T00:40 | 23.57396 | -118.64256 | 10.707 | 185.2 |
| 2026-01-02T00:50 | 23.54417 | -118.64548 | 10.727 | 185.2 |
| 2026-01-02T01:00 | 23.51458 | -118.64850 | 10.657 | 185.4 |
| 2026-01-02T01:10 | 23.48471 | -118.65141 | 10.755 | 185.1 |
| 2026-01-02T01:20 | 23.45461 | -118.65436 | 10.839 | 185.2 |
| 2026-01-02T01:30 | 23.42436 | -118.65742 | 10.894 | 185.3 |
| 2026-01-02T01:40 | 23.39449 | -118.66035 | 10.758 | 185.2 |
| 2026-01-02T01:50 | 23.36580 | -118.66328 | 10.334 | 185.4 |
| 2026-01-02T02:00 | 23.33727 | -118.66607 | 10.270 | 185.2 |
| 2026-01-02T02:10 | 23.30883 | -118.66890 | 10.244 | 185.3 |
| 2026-01-02T02:20 | 23.28042 | -118.67171 | 10.229 | 185.2 |
| 2026-01-02T02:30 | 23.25185 | -118.67456 | 10.289 | 185.3 |
| 2026-01-02T02:40 | 23.22344 | -118.67733 | 10.230 | 185.2 |
| 2026-01-02T02:50 | 23.19527 | -118.68014 | 10.144 | 185.3 |
| 2026-01-02T03:00 | 23.16701 | -118.68298 | 10.178 | 185.3 |
| 2026-01-02T03:10 | 23.13921 | -118.68565 | 10.009 | 185.1 |
| 2026-01-02T03:20 | 23.11114 | -118.68846 | 10.109 | 185.3 |
| 2026-01-02T03:30 | 23.08275 | -118.69128 | 10.220 | 185.2 |
| 2026-01-02T03:40 | 23.05422 | -118.69414 | 10.274 | 185.3 |
| 2026-01-02T03:50 | 23.02572 | -118.69698 | 10.265 | 185.3 |
| 2026-01-02T04:00 | 22.99709 | -118.69978 | 10.308 | 185.2 |
| 2026-01-02T04:10 | 22.96865 | -118.70258 | 10.242 | 185.2 |
| 2026-01-02T04:20 | 22.94005 | -118.70534 | 10.294 | 185.1 |
| 2026-01-02T04:30 | 22.91167 | -118.70817 | 10.222 | 185.3 |
| 2026-01-02T04:40 | 22.88300 | -118.71104 | 10.323 | 185.3 |
| 2026-01-02T04:50 | 22.85419 | -118.71391 | 10.376 | 185.3 |
| 2026-01-02T05:00 | 22.82535 | -118.71677 | 10.386 | 185.3 |
| 2026-01-02T05:10 | 22.79687 | -118.71956 | 10.252 | 185.2 |
| 2026-01-02T05:20 | 22.76816 | -118.72239 | 10.341 | 185.2 |
| 2026-01-02T05:30 | 22.73947 | -118.72524 | 10.331 | 185.3 |
| 2026-01-02T05:40 | 22.71065 | -118.72811 | 10.375 | 185.3 |
| 2026-01-02T05:50 | 22.68189 | -118.73090 | 10.355 | 185.2 |
| 2026-01-02T06:00 | 22.65347 | -118.73376 | 10.237 | 185.3 |
| 2026-01-02T06:10 | 22.62524 | -118.73652 | 10.163 | 185.2 |
| 2026-01-02T06:20 | 22.59686 | -118.73930 | 10.216 | 185.2 |
| 2026-01-02T06:30 | 22.56857 | -118.74209 | 10.188 | 185.2 |
| 2026-01-02T06:40 | 22.54045 | -118.74487 | 10.127 | 185.3 |
| 2026-01-02T06:50 | 22.51236 | -118.74768 | 10.115 | 185.3 |
| 2026-01-02T07:00 | 22.48465 | -118.75036 | 9.977 | 185.2 |
| 2026-01-02T07:10 | 22.45691 | -118.75314 | 9.988 | 185.3 |
| 2026-01-02T07:20 | 22.42919 | -118.75589 | 9.980 | 185.3 |
| 2026-01-02T07:30 | 22.40169 | -118.75854 | 9.900 | 185.1 |
| 2026-01-02T07:40 | 22.37355 | -118.76130 | 10.132 | 185.2 |
| 2026-01-02T07:50 | 22.34549 | -118.76410 | 10.106 | 185.3 |
| 2026-01-02T08:00 | 22.31777 | -118.76684 | 9.980 | 185.2 |
| 2026-01-02T08:10 | 22.29006 | -118.76959 | 9.979 | 185.3 |
| 2026-01-02T08:20 | 22.26195 | -118.77233 | 10.120 | 185.2 |
| 2026-01-02T08:30 | 22.23375 | -118.77507 | 10.152 | 185.2 |
| 2026-01-02T08:40 | 22.20598 | -118.77784 | 10.001 | 185.3 |
| 2026-01-02T08:50 | 22.17745 | -118.78063 | 10.270 | 185.2 |
| 2026-01-02T09:00 | 22.14952 | -118.78332 | 10.056 | 185.1 |
| 2026-01-02T09:10 | 22.12149 | -118.78608 | 10.093 | 185.3 |
| 2026-01-02T09:20 | 22.09328 | -118.78898 | 10.161 | 185.5 |
| 2026-01-02T09:30 | 22.06513 | -118.79167 | 10.134 | 185.1 |
| 2026-01-02T09:40 | 22.03710 | -118.79446 | 10.092 | 185.3 |
| 2026-01-02T09:50 | 22.00897 | -118.79720 | 10.128 | 185.2 |
| 2026-01-02T10:00 | 21.98083 | -118.79994 | 10.130 | 185.2 |
| 2026-01-02T10:10 | 21.95254 | -118.80271 | 10.187 | 185.2 |
| 2026-01-02T10:20 | 21.92394 | -118.80558 | 10.300 | 185.3 |
| 2026-01-02T10:30 | 21.89554 | -118.80832 | 10.222 | 185.2 |
| 2026-01-02T10:40 | 21.86710 | -118.81109 | 10.239 | 185.2 |
| 2026-01-02T10:50 | 21.83831 | -118.81394 | 10.366 | 185.3 |
| 2026-01-02T11:00 | 21.80963 | -118.81674 | 10.326 | 185.2 |
| 2026-01-02T11:10 | 21.78099 | -118.81959 | 10.313 | 185.3 |
| 2026-01-02T11:20 | 21.75222 | -118.82241 | 10.357 | 185.2 |
| 2026-01-02T11:30 | 21.72345 | -118.82521 | 10.357 | 185.2 |
| 2026-01-02T11:40 | 21.69478 | -118.82805 | 10.325 | 185.3 |
| 2026-01-02T11:50 | 21.66598 | -118.83089 | 10.369 | 185.3 |
| 2026-01-02T12:00 | 21.63724 | -118.83367 | 10.345 | 185.2 |
| 2026-01-02T12:10 | 21.60877 | -118.83649 | 10.252 | 185.3 |
| 2026-01-02T12:20 | 21.58048 | -118.83921 | 10.182 | 185.1 |
| 2026-01-02T12:30 | 21.55241 | -118.84196 | 10.106 | 185.2 |
| 2026-01-02T12:40 | 21.52463 | -118.84473 | 10.004 | 185.3 |
| 2026-01-02T12:50 | 21.49677 | -118.84747 | 10.031 | 185.3 |
| 2026-01-02T13:00 | 21.46890 | -118.85020 | 10.034 | 185.2 |
| 2026-01-02T13:10 | 21.44091 | -118.85291 | 10.075 | 185.2 |
| 2026-01-02T13:20 | 21.41274 | -118.85568 | 10.144 | 185.3 |
| 2026-01-02T13:30 | 21.38469 | -118.85841 | 10.099 | 185.2 |
| 2026-01-02T13:40 | 21.35686 | -118.86116 | 10.019 | 185.3 |
| 2026-01-02T13:50 | 21.32929 | -118.86383 | 9.925 | 185.2 |
| 2026-01-02T14:00 | 21.30172 | -118.86650 | 9.924 | 185.2 |
| 2026-01-02T14:10 | 21.27383 | -118.86925 | 10.042 | 185.3 |
| 2026-01-02T14:20 | 21.24613 | -118.87198 | 9.971 | 185.3 |
| 2026-01-02T14:30 | 21.21777 | -118.87474 | 10.210 | 185.2 |
| 2026-01-02T14:40 | 21.18902 | -118.87755 | 10.353 | 185.2 |
| 2026-01-02T14:50 | 21.16028 | -118.88038 | 10.347 | 185.3 |
| 2026-01-02T15:00 | 21.13150 | -118.88314 | 10.358 | 185.1 |
| 2026-01-02T15:10 | 21.10253 | -118.88601 | 10.432 | 185.3 |
| 2026-01-02T15:20 | 21.07561 | -118.88861 | 9.690 | 185.2 |
| 2026-01-02T15:30 | 21.05285 | -118.89069 | 8.188 | 184.9 |
| 2026-01-02T15:40 | 21.04968 | -118.89471 | 1.770 | 229.9 |
| 2026-01-02T15:50 | 21.07051 | -118.88773 | 7.830 | 17.4 |
| 2026-01-02T16:00 | 21.06853 | -118.88494 | 1.178 | 127.2 |
| 2026-01-02T16:10 | 21.06071 | -118.88611 | 2.830 | 188.0 |
| 2026-01-02T16:20 | 21.03224 | -118.89047 | 10.310 | 188.2 |
| 2026-01-02T16:30 | 21.00316 | -118.89557 | 10.565 | 189.4 |
| 2026-01-02T16:40 | 20.97385 | -118.89861 | 10.559 | 185.6 |
| 2026-01-02T16:50 | 20.94580 | -118.90128 | 10.097 | 185.1 |
| 2026-01-02T17:00 | 20.95363 | -118.90533 | 3.122 | 334.1 |
| 2026-01-02T17:10 | 20.96439 | -118.89756 | 4.660 | 34.2 |
| 2026-01-02T17:20 | 20.96444 | -118.89750 | 0.028 | 46.7 |
| 2026-01-02T17:30 | 20.96444 | -118.89750 | 0.001 | 205.2 |
| 2026-01-02T17:40 | 20.96451 | -118.89743 | 0.035 | 41.6 |
| 2026-01-02T17:50 | 20.96449 | -118.89748 | 0.021 | 248.0 |
| 2026-01-02T18:00 | 20.96450 | -118.89752 | 0.013 | 281.4 |
| 2026-01-02T18:10 | 20.96443 | -118.89744 | 0.036 | 131.3 |
| 2026-01-02T18:20 | 20.96449 | -118.89738 | 0.028 | 41.7 |
| 2026-01-02T18:30 | 20.96445 | -118.89741 | 0.016 | 211.1 |
| 2026-01-02T18:40 | 20.96441 | -118.89744 | 0.018 | 220.0 |
| 2026-01-02T18:50 | 20.96438 | -118.89745 | 0.010 | 181.9 |
| 2026-01-02T19:00 | 20.96440 | -118.89744 | 0.005 | 35.2 |
| 2026-01-02T19:10 | 20.96442 | -118.89747 | 0.016 | 306.8 |
| 2026-01-02T19:20 | 20.96449 | -118.89745 | 0.026 | 19.5 |
| 2026-01-02T19:30 | 20.96448 | -118.89740 | 0.016 | 99.2 |
| 2026-01-02T19:40 | 20.96441 | -118.89744 | 0.028 | 207.6 |
| 2026-01-02T19:50 | 20.96440 | -118.89746 | 0.010 | 239.2 |
| 2026-01-02T20:00 | 20.96440 | -118.89748 | 0.006 | 255.1 |
| 2026-01-02T20:10 | 20.96444 | -118.89747 | 0.016 | 8.7 |
| 2026-01-02T20:20 | 20.96449 | -118.89739 | 0.032 | 58.3 |
| 2026-01-02T20:30 | 20.96449 | -118.89740 | 0.004 | 300.1 |
| 2026-01-02T20:40 | 20.96441 | -118.89740 | 0.030 | 176.8 |
| 2026-01-02T20:50 | 20.96443 | -118.89737 | 0.013 | 46.6 |
| 2026-01-02T21:00 | 20.96441 | -118.89743 | 0.021 | 250.5 |
| 2026-01-02T21:10 | 20.96444 | -118.89750 | 0.023 | 292.1 |
| 2026-01-02T21:20 | 20.96441 | -118.89741 | 0.030 | 111.9 |
| 2026-01-02T21:30 | 20.96442 | -118.89749 | 0.025 | 278.2 |
| 2026-01-02T21:40 | 20.96440 | -118.89741 | 0.026 | 101.2 |
| 2026-01-02T21:50 | 20.96449 | -118.89742 | 0.030 | 356.8 |
| 2026-01-02T22:00 | 20.96447 | -118.89739 | 0.010 | 125.9 |
| 2026-01-02T22:10 | 20.96447 | -118.89745 | 0.020 | 273.1 |
| 2026-01-02T22:20 | 20.96441 | -118.89748 | 0.023 | 202.5 |
| 2026-01-02T22:30 | 20.96445 | -118.89745 | 0.017 | 32.4 |
| 2026-01-02T22:40 | 20.96440 | -118.89748 | 0.022 | 204.8 |
| 2026-01-02T22:50 | 20.96429 | -118.89759 | 0.053 | 224.8 |
| 2026-01-02T23:00 | 20.96414 | -118.89801 | 0.152 | 249.6 |
| 2026-01-02T23:10 | 20.96429 | -118.89841 | 0.144 | 291.0 |
| 2026-01-02T23:20 | 20.96415 | -118.89805 | 0.132 | 112.6 |
| 2026-01-02T23:30 | 20.96429 | -118.89758 | 0.167 | 72.0 |
| 2026-01-02T23:40 | 20.96448 | -118.89741 | 0.089 | 40.0 |
| 2026-01-02T23:50 | 20.96445 | -118.89743 | 0.012 | 209.7 |
| 2026-01-03T00:00 | 20.96442 | -118.89741 | 0.013 | 152.9 |
| 2026-01-03T00:10 | 20.96428 | -118.89719 | 0.088 | 125.1 |
| 2026-01-03T00:20 | 20.96351 | -118.89594 | 0.505 | 123.1 |
| 2026-01-03T00:30 | 20.96273 | -118.89471 | 0.497 | 124.0 |
| 2026-01-03T00:40 | 20.96195 | -118.89348 | 0.500 | 124.0 |
| 2026-01-03T00:50 | 20.96118 | -118.89224 | 0.501 | 123.7 |
| 2026-01-03T01:00 | 20.96098 | -118.89195 | 0.121 | 124.9 |
| 2026-01-03T01:10 | 20.96097 | -118.89198 | 0.013 | 248.4 |
| 2026-01-03T01:20 | 20.96098 | -118.89200 | 0.006 | 293.7 |
| 2026-01-03T01:30 | 20.96101 | -118.89199 | 0.012 | 20.9 |
| 2026-01-03T01:40 | 20.96105 | -118.89200 | 0.015 | 337.7 |
| 2026-01-03T01:50 | 20.96106 | -118.89195 | 0.017 | 72.0 |
| 2026-01-03T02:00 | 20.96102 | -118.89199 | 0.019 | 220.3 |
| 2026-01-03T02:10 | 20.96103 | -118.89202 | 0.010 | 282.4 |
| 2026-01-03T02:20 | 20.96103 | -118.89195 | 0.022 | 82.5 |
| 2026-01-03T02:30 | 20.96102 | -118.89195 | 0.007 | 160.9 |
| 2026-01-03T02:40 | 20.96098 | -118.89198 | 0.019 | 220.9 |
| 2026-01-03T02:50 | 20.96100 | -118.89201 | 0.012 | 319.2 |
| 2026-01-03T03:00 | 20.96100 | -118.89201 | 0.001 | 193.2 |
| 2026-01-03T03:10 | 20.96098 | -118.89200 | 0.008 | 152.7 |
| 2026-01-03T03:20 | 20.96098 | -118.89198 | 0.005 | 74.2 |
| 2026-01-03T03:30 | 20.96100 | -118.89200 | 0.010 | 313.9 |
| 2026-01-03T03:40 | 20.96100 | -118.89194 | 0.021 | 91.0 |
| 2026-01-03T03:50 | 20.96100 | -118.89200 | 0.019 | 264.5 |
| 2026-01-03T04:00 | 20.96102 | -118.89195 | 0.019 | 63.9 |
| 2026-01-03T04:10 | 20.96104 | -118.89194 | 0.007 | 19.1 |
| 2026-01-03T04:20 | 20.96105 | -118.89194 | 0.004 | 5.4 |
| 2026-01-03T04:30 | 20.96101 | -118.89193 | 0.012 | 170.3 |
| 2026-01-03T04:40 | 20.96099 | -118.89199 | 0.021 | 243.7 |
| 2026-01-03T04:50 | 20.95592 | -118.89140 | 1.827 | 173.8 |
| 2026-01-03T05:00 | 20.92848 | -118.90195 | 10.460 | 199.9 |
| 2026-01-03T05:10 | 20.89928 | -118.90598 | 10.555 | 187.4 |
| 2026-01-03T05:20 | 20.87045 | -118.90869 | 10.378 | 185.1 |
| 2026-01-03T05:30 | 20.84181 | -118.91146 | 10.310 | 185.2 |
| 2026-01-03T05:40 | 20.81304 | -118.91427 | 10.356 | 185.2 |
| 2026-01-03T05:50 | 20.78422 | -118.91698 | 10.371 | 185.1 |
| 2026-01-03T06:00 | 20.75577 | -118.91981 | 10.244 | 185.3 |
| 2026-01-03T06:10 | 20.72735 | -118.92259 | 10.233 | 185.3 |
| 2026-01-03T06:20 | 20.69909 | -118.92534 | 10.172 | 185.2 |
| 2026-01-03T06:30 | 20.67099 | -118.92813 | 10.117 | 185.3 |
| 2026-01-03T06:40 | 20.64277 | -118.93085 | 10.158 | 185.2 |
| 2026-01-03T06:50 | 20.61415 | -118.93358 | 10.302 | 185.1 |
| 2026-01-03T07:00 | 20.58552 | -118.93640 | 10.307 | 185.3 |
| 2026-01-03T07:10 | 20.55714 | -118.93906 | 10.215 | 185.0 |
| 2026-01-03T07:20 | 20.52884 | -118.94196 | 10.190 | 185.5 |
| 2026-01-03T07:30 | 20.50041 | -118.94470 | 10.234 | 185.2 |
| 2026-01-03T07:40 | 20.47164 | -118.94746 | 10.355 | 185.2 |
| 2026-01-03T07:50 | 20.44291 | -118.95029 | 10.344 | 185.3 |
| 2026-01-03T08:00 | 20.41437 | -118.95297 | 10.271 | 185.1 |
| 2026-01-03T08:10 | 20.38584 | -118.95580 | 10.274 | 185.3 |
| 2026-01-03T08:20 | 20.35751 | -118.95854 | 10.198 | 185.2 |
| 2026-01-03T08:30 | 20.32951 | -118.96132 | 10.080 | 185.3 |
| 2026-01-03T08:40 | 20.30168 | -118.96400 | 10.017 | 185.2 |
| 2026-01-03T08:50 | 20.27357 | -118.96673 | 10.119 | 185.2 |
| 2026-01-03T09:00 | 20.24572 | -118.96948 | 10.026 | 185.3 |
| 2026-01-03T09:10 | 20.21794 | -118.97213 | 10.000 | 185.1 |
| 2026-01-03T09:20 | 20.19003 | -118.97484 | 10.045 | 185.2 |
| 2026-01-03T09:30 | 20.16213 | -118.97752 | 10.042 | 185.2 |
| 2026-01-03T09:40 | 20.13412 | -118.98025 | 10.083 | 185.2 |
| 2026-01-03T09:50 | 20.10608 | -118.98298 | 10.093 | 185.2 |
| 2026-01-03T10:00 | 20.07813 | -118.98570 | 10.063 | 185.3 |
| 2026-01-03T10:10 | 20.05007 | -118.98839 | 10.098 | 185.2 |
| 2026-01-03T10:20 | 20.02190 | -118.99114 | 10.140 | 185.3 |
| 2026-01-03T10:30 | 19.99376 | -118.99390 | 10.134 | 185.3 |
| 2026-01-03T10:40 | 19.96579 | -118.99658 | 10.065 | 185.2 |
| 2026-01-03T10:50 | 19.93753 | -118.99931 | 10.172 | 185.2 |
| 2026-01-03T11:00 | 19.90920 | -119.00202 | 10.196 | 185.2 |
| 2026-01-03T11:10 | 19.88127 | -119.00475 | 10.056 | 185.3 |
| 2026-01-03T11:20 | 19.85332 | -119.00749 | 10.062 | 185.3 |
| 2026-01-03T11:30 | 19.82515 | -119.01026 | 10.140 | 185.3 |
| 2026-01-03T11:40 | 19.79684 | -119.01295 | 10.189 | 185.1 |
| 2026-01-03T11:50 | 19.76865 | -119.01569 | 10.148 | 185.3 |
| 2026-01-03T12:00 | 19.74035 | -119.01838 | 10.185 | 185.1 |
| 2026-01-03T12:10 | 19.71218 | -119.02117 | 10.140 | 185.4 |
| 2026-01-03T12:20 | 19.68413 | -119.02389 | 10.096 | 185.2 |
| 2026-01-03T12:30 | 19.65621 | -119.02658 | 10.050 | 185.2 |
| 2026-01-03T12:40 | 19.62862 | -119.02916 | 9.930 | 185.1 |
| 2026-01-03T12:50 | 19.60119 | -119.03188 | 9.876 | 185.3 |
| 2026-01-03T13:00 | 19.57335 | -119.03451 | 10.017 | 185.1 |
| 2026-01-03T13:10 | 19.54531 | -119.03733 | 10.098 | 185.4 |
| 2026-01-03T13:20 | 19.51698 | -119.04002 | 10.197 | 185.2 |
| 2026-01-03T13:30 | 19.48871 | -119.04279 | 10.174 | 185.3 |
| 2026-01-03T13:40 | 19.46095 | -119.04539 | 9.992 | 185.1 |
| 2026-01-03T13:50 | 19.43318 | -119.04810 | 9.995 | 185.3 |
| 2026-01-03T14:00 | 19.40540 | -119.05080 | 10.000 | 185.3 |
| 2026-01-03T14:10 | 19.37764 | -119.05347 | 9.993 | 185.2 |
| 2026-01-03T14:20 | 19.34994 | -119.05616 | 9.968 | 185.3 |
| 2026-01-03T14:30 | 19.32253 | -119.05870 | 9.864 | 185.0 |
| 2026-01-03T14:40 | 19.29821 | -119.06109 | 8.754 | 185.3 |
| 2026-01-03T14:50 | 19.27125 | -119.06378 | 9.709 | 185.4 |
| 2026-01-03T15:00 | 19.24281 | -119.06652 | 10.234 | 185.2 |
| 2026-01-03T15:10 | 19.21434 | -119.06921 | 10.248 | 185.1 |
| 2026-01-03T15:20 | 19.18596 | -119.07199 | 10.214 | 185.3 |
| 2026-01-03T15:30 | 19.15783 | -119.07473 | 10.127 | 185.3 |
| 2026-01-03T15:40 | 19.12960 | -119.07734 | 10.158 | 185.0 |
| 2026-01-03T15:50 | 19.10466 | -119.07976 | 8.978 | 185.3 |
| 2026-01-03T16:00 | 19.07966 | -119.08220 | 8.996 | 185.3 |
| 2026-01-03T16:10 | 19.05268 | -119.08484 | 9.713 | 185.3 |
| 2026-01-03T16:20 | 19.02480 | -119.08746 | 10.034 | 185.1 |
| 2026-01-03T16:30 | 18.99723 | -119.09013 | 9.922 | 185.3 |
| 2026-01-03T16:40 | 18.96920 | -119.09286 | 10.090 | 185.3 |
| 2026-01-03T16:50 | 18.94115 | -119.09550 | 10.094 | 185.1 |
| 2026-01-03T17:00 | 18.91206 | -119.09839 | 10.474 | 185.4 |
| 2026-01-03T17:10 | 18.88290 | -119.10120 | 10.494 | 185.2 |
| 2026-01-03T17:20 | 18.85385 | -119.10396 | 10.453 | 185.2 |
| 2026-01-03T17:30 | 18.82455 | -119.10677 | 10.548 | 185.2 |
| 2026-01-03T17:40 | 18.79526 | -119.10967 | 10.544 | 185.4 |
| 2026-01-03T17:50 | 18.76585 | -119.11240 | 10.582 | 185.1 |
| 2026-01-03T18:00 | 18.73646 | -119.11524 | 10.577 | 185.3 |
| 2026-01-03T18:10 | 18.70806 | -119.11799 | 10.225 | 185.3 |
| 2026-01-03T18:20 | 18.68001 | -119.12065 | 10.092 | 185.2 |
| 2026-01-03T18:30 | 18.65196 | -119.12336 | 10.096 | 185.3 |
| 2026-01-03T18:40 | 18.62335 | -119.12612 | 10.299 | 185.3 |
| 2026-01-03T18:50 | 18.59439 | -119.12886 | 10.420 | 185.2 |
| 2026-01-03T19:00 | 18.56534 | -119.13175 | 10.460 | 185.4 |
| 2026-01-03T19:10 | 18.53637 | -119.13451 | 10.427 | 185.2 |
| 2026-01-03T19:20 | 18.50722 | -119.13731 | 10.491 | 185.2 |
| 2026-01-03T19:30 | 18.47819 | -119.14007 | 10.447 | 185.2 |
| 2026-01-03T19:40 | 18.44915 | -119.14289 | 10.453 | 185.3 |
| 2026-01-03T19:50 | 18.42015 | -119.14563 | 10.436 | 185.2 |
| 2026-01-03T20:00 | 18.39114 | -119.14842 | 10.440 | 185.2 |
| 2026-01-03T20:10 | 18.36198 | -119.15118 | 10.492 | 185.2 |
| 2026-01-03T20:20 | 18.33269 | -119.15392 | 10.540 | 185.1 |
| 2026-01-03T20:30 | 18.30345 | -119.15678 | 10.525 | 185.3 |
| 2026-01-03T20:40 | 18.27427 | -119.15964 | 10.504 | 185.3 |
| 2026-01-03T20:50 | 18.24513 | -119.16247 | 10.488 | 185.3 |
| 2026-01-03T21:00 | 18.21686 | -119.16513 | 10.174 | 185.1 |
| 2026-01-03T21:10 | 18.19037 | -119.16763 | 9.530 | 185.2 |
| 2026-01-03T21:20 | 18.16192 | -119.17042 | 10.243 | 185.4 |
| 2026-01-03T21:30 | 18.13317 | -119.17324 | 10.350 | 185.4 |
| 2026-01-03T21:40 | 18.10437 | -119.17601 | 10.362 | 185.2 |
| 2026-01-03T21:50 | 18.07534 | -119.17869 | 10.446 | 185.1 |
| 2026-01-03T22:00 | 18.04651 | -119.18148 | 10.374 | 185.3 |
| 2026-01-03T22:10 | 18.01767 | -119.18428 | 10.382 | 185.3 |
| 2026-01-03T22:20 | 17.98898 | -119.18701 | 10.325 | 185.2 |
| 2026-01-03T22:30 | 17.96132 | -119.18610 | 9.919 | 178.2 |
| 2026-01-03T22:40 | 17.93475 | -119.17670 | 10.054 | 161.3 |
| 2026-01-03T22:50 | 17.90788 | -119.16693 | 10.193 | 160.8 |
| 2026-01-03T23:00 | 17.88116 | -119.15711 | 10.153 | 160.6 |
| 2026-01-03T23:10 | 17.85447 | -119.14751 | 10.116 | 161.0 |
| 2026-01-03T23:20 | 17.82818 | -119.13797 | 9.976 | 160.8 |
| 2026-01-03T23:30 | 17.80132 | -119.12827 | 10.184 | 160.9 |
| 2026-01-03T23:40 | 17.77446 | -119.11847 | 10.198 | 160.7 |
| 2026-01-03T23:50 | 17.74754 | -119.10866 | 10.218 | 160.8 |
| 2026-01-04T00:00 | 17.72047 | -119.09892 | 10.263 | 161.0 |
| 2026-01-04T00:10 | 17.69343 | -119.08897 | 10.277 | 160.6 |
| 2026-01-04T00:20 | 17.66594 | -119.07915 | 10.411 | 161.1 |
| 2026-01-04T00:30 | 17.63855 | -119.06915 | 10.399 | 160.7 |
| 2026-01-04T00:40 | 17.61116 | -119.05929 | 10.386 | 160.9 |
| 2026-01-04T00:50 | 17.58382 | -119.04932 | 10.379 | 160.7 |
| 2026-01-04T01:00 | 17.55652 | -119.03944 | 10.355 | 160.8 |
| 2026-01-04T01:10 | 17.52919 | -119.02961 | 10.362 | 161.0 |
| 2026-01-04T01:20 | 17.50178 | -119.01964 | 10.405 | 160.8 |
| 2026-01-04T01:30 | 17.47416 | -119.00963 | 10.478 | 160.8 |
| 2026-01-04T01:40 | 17.44648 | -118.99960 | 10.502 | 160.8 |
| 2026-01-04T01:50 | 17.41882 | -118.98961 | 10.492 | 160.9 |
| 2026-01-04T02:00 | 17.39103 | -118.97949 | 10.551 | 160.7 |
| 2026-01-04T02:10 | 17.36319 | -118.96954 | 10.546 | 161.1 |
| 2026-01-04T02:20 | 17.33543 | -118.95951 | 10.530 | 160.9 |
| 2026-01-04T02:30 | 17.30790 | -118.94950 | 10.450 | 160.7 |
| 2026-01-04T02:40 | 17.28026 | -118.93947 | 10.492 | 160.8 |
| 2026-01-04T02:50 | 17.25253 | -118.92944 | 10.518 | 160.8 |
| 2026-01-04T03:00 | 17.22503 | -118.91946 | 10.439 | 160.8 |
| 2026-01-04T03:10 | 17.19778 | -118.90966 | 10.329 | 160.9 |
| 2026-01-04T03:20 | 17.17047 | -118.89975 | 10.368 | 160.8 |
| 2026-01-04T03:30 | 17.14296 | -118.88983 | 10.432 | 160.9 |
| 2026-01-04T03:40 | 17.11546 | -118.87991 | 10.429 | 160.9 |
| 2026-01-04T03:50 | 17.08788 | -118.86996 | 10.463 | 160.8 |
| 2026-01-04T04:00 | 17.05967 | -118.85971 | 10.706 | 160.8 |
| 2026-01-04T04:10 | 17.03113 | -118.84943 | 10.826 | 160.9 |
| 2026-01-04T04:20 | 17.00243 | -118.83905 | 10.889 | 160.8 |
| 2026-01-04T04:30 | 16.97364 | -118.82868 | 10.918 | 160.9 |
| 2026-01-04T04:40 | 16.94471 | -118.81822 | 10.978 | 160.8 |
| 2026-01-04T04:50 | 16.91546 | -118.80762 | 11.102 | 160.8 |
| 2026-01-04T05:00 | 16.88577 | -118.79700 | 11.253 | 161.0 |
| 2026-01-04T05:10 | 16.85687 | -118.78650 | 10.970 | 160.7 |
| 2026-01-04T05:20 | 16.82811 | -118.77621 | 10.899 | 161.0 |
| 2026-01-04T05:30 | 16.79968 | -118.76590 | 10.794 | 160.8 |
| 2026-01-04T05:40 | 16.77155 | -118.75582 | 10.661 | 160.9 |
| 2026-01-04T05:50 | 16.74432 | -118.74601 | 10.332 | 160.8 |
| 2026-01-04T06:00 | 16.71691 | -118.73610 | 10.400 | 160.8 |
| 2026-01-04T06:10 | 16.68951 | -118.72614 | 10.405 | 160.7 |
| 2026-01-04T06:20 | 16.66207 | -118.71635 | 10.397 | 161.0 |
| 2026-01-04T06:30 | 16.63467 | -118.70650 | 10.390 | 160.9 |
| 2026-01-04T06:40 | 16.60743 | -118.69661 | 10.343 | 160.7 |
| 2026-01-04T06:50 | 16.58018 | -118.68679 | 10.337 | 160.8 |
| 2026-01-04T07:00 | 16.55310 | -118.67701 | 10.275 | 160.8 |
| 2026-01-04T07:10 | 16.52580 | -118.66721 | 10.353 | 160.9 |
| 2026-01-04T07:20 | 16.49875 | -118.65753 | 10.254 | 160.9 |
| 2026-01-04T07:30 | 16.47189 | -118.64783 | 10.190 | 160.8 |
| 2026-01-04T07:40 | 16.44526 | -118.63820 | 10.108 | 160.8 |
| 2026-01-04T07:50 | 16.41863 | -118.62866 | 10.097 | 160.9 |
| 2026-01-04T08:00 | 16.39220 | -118.61911 | 10.030 | 160.8 |
| 2026-01-04T08:10 | 16.36578 | -118.60961 | 10.023 | 160.8 |
| 2026-01-04T08:20 | 16.33952 | -118.60017 | 9.960 | 160.9 |
| 2026-01-04T08:30 | 16.31255 | -118.59055 | 10.221 | 161.0 |
| 2026-01-04T08:40 | 16.28558 | -118.58079 | 10.238 | 160.7 |
| 2026-01-04T08:50 | 16.25899 | -118.57121 | 10.088 | 160.8 |
| 2026-01-04T09:00 | 16.23251 | -118.56168 | 10.046 | 160.8 |
| 2026-01-04T09:10 | 16.20653 | -118.55232 | 9.857 | 160.8 |
| 2026-01-04T09:20 | 16.18038 | -118.54296 | 9.913 | 160.9 |
| 2026-01-04T09:30 | 16.15387 | -118.53344 | 10.055 | 160.9 |
| 2026-01-04T09:40 | 16.12748 | -118.52393 | 10.014 | 160.8 |
| 2026-01-04T09:50 | 16.10151 | -118.51456 | 9.854 | 160.8 |
| 2026-01-04T10:00 | 16.07517 | -118.50508 | 9.994 | 160.8 |
| 2026-01-04T10:10 | 16.04876 | -118.49564 | 10.012 | 160.9 |
| 2026-01-04T10:20 | 16.02240 | -118.48612 | 10.004 | 160.8 |
| 2026-01-04T10:30 | 15.99632 | -118.47681 | 9.885 | 160.9 |
| 2026-01-04T10:40 | 15.96986 | -118.46732 | 10.036 | 160.9 |
| 2026-01-04T10:50 | 15.94329 | -118.45777 | 10.080 | 160.8 |
| 2026-01-04T11:00 | 15.91630 | -118.44800 | 10.244 | 160.7 |
| 2026-01-04T11:10 | 15.88923 | -118.43840 | 10.256 | 161.1 |
| 2026-01-04T11:20 | 15.86210 | -118.42861 | 10.296 | 160.8 |
| 2026-01-04T11:30 | 15.83500 | -118.41889 | 10.280 | 160.8 |
| 2026-01-04T11:40 | 15.80763 | -118.40905 | 10.383 | 160.8 |
| 2026-01-04T11:50 | 15.78016 | -118.39911 | 10.429 | 160.7 |
| 2026-01-04T12:00 | 15.75292 | -118.38944 | 10.321 | 161.0 |
| 2026-01-04T12:10 | 15.72589 | -118.37974 | 10.254 | 160.8 |
| 2026-01-04T12:20 | 15.69894 | -118.37013 | 10.215 | 160.9 |
| 2026-01-04T12:30 | 15.67201 | -118.36049 | 10.214 | 160.9 |
| 2026-01-04T12:40 | 15.64534 | -118.35086 | 10.124 | 160.7 |
| 2026-01-04T12:50 | 15.61890 | -118.34137 | 10.031 | 160.8 |
| 2026-01-04T13:00 | 15.59242 | -118.33186 | 10.047 | 160.8 |
| 2026-01-04T13:10 | 15.56609 | -118.32248 | 9.981 | 160.9 |
| 2026-01-04T13:20 | 15.53983 | -118.31305 | 9.961 | 160.8 |
| 2026-01-04T13:30 | 15.51359 | -118.30365 | 9.952 | 160.8 |
| 2026-01-04T13:40 | 15.48726 | -118.29422 | 9.986 | 160.9 |
| 2026-01-04T13:50 | 15.46085 | -118.28472 | 10.023 | 160.8 |
| 2026-01-04T14:00 | 15.43441 | -118.27520 | 10.036 | 160.8 |
| 2026-01-04T14:10 | 15.40846 | -118.26593 | 9.839 | 160.9 |
| 2026-01-04T14:20 | 15.38188 | -118.25648 | 10.073 | 161.0 |
| 2026-01-04T14:30 | 15.35494 | -118.24685 | 10.217 | 160.9 |
| 2026-01-04T14:40 | 15.32786 | -118.23713 | 10.273 | 160.8 |
| 2026-01-04T14:50 | 15.30064 | -118.22734 | 10.331 | 160.8 |
| 2026-01-04T15:00 | 15.27343 | -118.21764 | 10.315 | 160.9 |
| 2026-01-04T15:10 | 15.24620 | -118.20788 | 10.333 | 160.8 |
| 2026-01-04T15:20 | 15.21919 | -118.19821 | 10.244 | 160.8 |
| 2026-01-04T15:30 | 15.19220 | -118.18862 | 10.230 | 161.0 |
| 2026-01-04T15:40 | 15.16524 | -118.17891 | 10.233 | 160.7 |
| 2026-01-04T15:50 | 15.13803 | -118.16918 | 10.320 | 160.8 |
| 2026-01-04T16:00 | 15.11254 | -118.16100 | 9.567 | 162.7 |
| 2026-01-04T16:10 | 15.08832 | -118.15335 | 9.076 | 162.9 |
| 2026-01-04T16:20 | 15.06425 | -118.14589 | 9.007 | 163.2 |
| 2026-01-04T16:30 | 15.05591 | -118.14356 | 3.096 | 164.8 |
| 2026-01-04T16:40 | 15.05597 | -118.14349 | 0.031 | 46.0 |
| 2026-01-04T16:50 | 15.05593 | -118.14350 | 0.015 | 193.7 |
| 2026-01-04T17:00 | 15.05588 | -118.14351 | 0.019 | 185.3 |
| 2026-01-04T17:10 | 15.05586 | -118.14352 | 0.007 | 219.8 |
| 2026-01-04T17:20 | 15.05588 | -118.14349 | 0.012 | 59.8 |
| 2026-01-04T17:30 | 15.05600 | -118.14352 | 0.044 | 346.1 |
| 2026-01-04T17:40 | 15.05591 | -118.14352 | 0.033 | 180.0 |
| 2026-01-04T17:50 | 15.05587 | -118.14348 | 0.019 | 129.6 |
| 2026-01-04T18:00 | 15.05587 | -118.14350 | 0.006 | 247.0 |
| 2026-01-04T18:10 | 15.05587 | -118.14352 | 0.008 | 267.3 |
| 2026-01-04T18:20 | 15.05591 | -118.14351 | 0.017 | 14.2 |
| 2026-01-04T18:30 | 15.05586 | -118.14351 | 0.019 | 180.0 |
| 2026-01-04T18:40 | 15.05593 | -118.14352 | 0.025 | 347.3 |
| 2026-01-04T18:50 | 15.05599 | -118.14354 | 0.022 | 342.9 |
| 2026-01-04T19:00 | 15.05596 | -118.14352 | 0.012 | 142.9 |
| 2026-01-04T19:10 | 15.05589 | -118.14348 | 0.029 | 151.9 |
| 2026-01-04T19:20 | 15.05590 | -118.14343 | 0.018 | 71.4 |
| 2026-01-04T19:30 | 15.05593 | -118.14347 | 0.015 | 310.1 |
| 2026-01-04T19:40 | 15.05593 | -118.14351 | 0.016 | 268.7 |
| 2026-01-04T19:50 | 15.04562 | -118.13865 | 4.064 | 155.4 |
| 2026-01-04T20:00 | 15.01923 | -118.12691 | 10.299 | 156.6 |
| 2026-01-04T20:10 | 14.99172 | -118.11691 | 10.456 | 160.5 |
| 2026-01-04T20:20 | 14.96462 | -118.10718 | 10.281 | 160.8 |
| 2026-01-04T20:30 | 14.93770 | -118.09767 | 10.198 | 161.1 |
| 2026-01-04T20:40 | 14.91070 | -118.08801 | 10.244 | 160.8 |
| 2026-01-04T20:50 | 14.88425 | -118.07848 | 10.041 | 160.7 |
| 2026-01-04T21:00 | 14.85751 | -118.06897 | 10.137 | 160.9 |
| 2026-01-04T21:10 | 14.83361 | -118.06042 | 9.066 | 160.8 |
| 2026-01-04T21:20 | 14.80920 | -118.05176 | 9.252 | 160.9 |
| 2026-01-04T21:30 | 14.78151 | -118.04178 | 10.513 | 160.7 |
| 2026-01-04T21:40 | 14.75320 | -118.03171 | 10.735 | 160.9 |
| 2026-01-04T21:50 | 14.72573 | -118.02187 | 10.422 | 160.8 |
| 2026-01-04T22:00 | 14.69848 | -118.01224 | 10.323 | 161.0 |
| 2026-01-04T22:10 | 14.67104 | -118.00234 | 10.420 | 160.7 |
| 2026-01-04T22:20 | 14.64322 | -117.99251 | 10.540 | 161.0 |
| 2026-01-04T22:30 | 14.61607 | -117.98274 | 10.305 | 160.7 |
| 2026-01-04T22:40 | 14.58862 | -117.97298 | 10.409 | 160.9 |
| 2026-01-04T22:50 | 14.56105 | -117.96313 | 10.457 | 160.8 |
| 2026-01-04T23:00 | 14.53349 | -117.95334 | 10.450 | 160.9 |
| 2026-01-04T23:10 | 14.50615 | -117.94361 | 10.365 | 160.9 |
| 2026-01-04T23:20 | 14.47913 | -117.93395 | 10.252 | 160.8 |
| 2026-01-04T23:30 | 14.45230 | -117.92440 | 10.175 | 160.9 |
| 2026-01-04T23:40 | 14.42582 | -117.91493 | 10.047 | 160.8 |
| 2026-01-04T23:50 | 14.39934 | -117.90545 | 10.047 | 160.8 |
| 2026-01-05T00:00 | 14.37316 | -117.89615 | 9.924 | 160.9 |
| 2026-01-05T00:10 | 14.34718 | -117.88688 | 9.856 | 160.8 |
| 2026-01-05T00:20 | 14.32089 | -117.87756 | 9.967 | 160.9 |
| 2026-01-05T00:30 | 14.29607 | -117.86871 | 9.414 | 160.8 |
| 2026-01-05T00:40 | 14.27076 | -117.85969 | 9.597 | 160.8 |
| 2026-01-05T00:50 | 14.24466 | -117.85039 | 9.900 | 160.8 |
| 2026-01-05T01:00 | 14.21824 | -117.84095 | 10.023 | 160.8 |
| 2026-01-05T01:10 | 14.19155 | -117.83151 | 10.114 | 161.0 |
| 2026-01-05T01:20 | 14.16494 | -117.82194 | 10.105 | 160.7 |
| 2026-01-05T01:30 | 14.13810 | -117.81245 | 10.169 | 161.0 |
| 2026-01-05T01:40 | 14.11136 | -117.80290 | 10.146 | 160.8 |
| 2026-01-05T01:50 | 14.08454 | -117.79328 | 10.181 | 160.7 |
| 2026-01-05T02:00 | 14.05777 | -117.78378 | 10.148 | 160.9 |
| 2026-01-05T02:10 | 14.03051 | -117.77419 | 10.326 | 161.1 |
| 2026-01-05T02:20 | 14.00332 | -117.76447 | 10.318 | 160.8 |
| 2026-01-05T02:30 | 13.97628 | -117.75486 | 10.253 | 160.9 |
| 2026-01-05T02:40 | 13.94934 | -117.74522 | 10.225 | 160.7 |
| 2026-01-05T02:50 | 13.92218 | -117.73566 | 10.287 | 161.0 |
| 2026-01-05T03:00 | 13.89482 | -117.72583 | 10.390 | 160.7 |
| 2026-01-05T03:10 | 13.86752 | -117.71619 | 10.344 | 161.0 |
| 2026-01-05T03:20 | 13.84069 | -117.70663 | 10.179 | 160.8 |
| 2026-01-05T03:30 | 13.81397 | -117.69713 | 10.133 | 160.8 |
| 2026-01-05T03:40 | 13.78740 | -117.68762 | 10.084 | 160.7 |
| 2026-01-05T03:50 | 13.76046 | -117.67808 | 10.213 | 160.9 |
| 2026-01-05T04:00 | 13.73383 | -117.66869 | 10.092 | 161.0 |
| 2026-01-05T04:10 | 13.70717 | -117.65917 | 10.115 | 160.8 |
| 2026-01-05T04:20 | 13.68059 | -117.64968 | 10.088 | 160.8 |
| 2026-01-05T04:30 | 13.65393 | -117.64024 | 10.107 | 160.9 |
| 2026-01-05T04:40 | 13.62738 | -117.63083 | 10.065 | 160.9 |
| 2026-01-05T04:50 | 13.60076 | -117.62138 | 10.096 | 160.9 |
| 2026-01-05T05:00 | 13.57416 | -117.61195 | 10.084 | 160.8 |
| 2026-01-05T05:10 | 13.54728 | -117.60241 | 10.195 | 160.9 |
| 2026-01-05T05:20 | 13.52056 | -117.59264 | 10.166 | 160.3 |
| 2026-01-05T05:30 | 13.49374 | -117.58276 | 10.211 | 160.2 |
| 2026-01-05T05:40 | 13.46713 | -117.57297 | 10.132 | 160.2 |
| 2026-01-05T05:50 | 13.44061 | -117.56316 | 10.105 | 160.1 |
| 2026-01-05T06:00 | 13.41392 | -117.55339 | 10.155 | 160.3 |
| 2026-01-05T06:10 | 13.38722 | -117.54349 | 10.176 | 160.1 |
| 2026-01-05T06:20 | 13.36045 | -117.53369 | 10.187 | 160.3 |
| 2026-01-05T06:30 | 13.33344 | -117.52369 | 10.294 | 160.1 |
| 2026-01-05T06:40 | 13.30641 | -117.51364 | 10.304 | 160.0 |
| 2026-01-05T06:50 | 13.27938 | -117.50374 | 10.285 | 160.3 |
| 2026-01-05T07:00 | 13.25250 | -117.49383 | 10.238 | 160.2 |
| 2026-01-05T07:10 | 13.22573 | -117.48410 | 10.181 | 160.4 |
| 2026-01-05T07:20 | 13.19924 | -117.47434 | 10.089 | 160.1 |
| 2026-01-05T07:30 | 13.17248 | -117.46443 | 10.199 | 160.1 |
| 2026-01-05T07:40 | 13.14588 | -117.45461 | 10.130 | 160.1 |
| 2026-01-05T07:50 | 13.11858 | -117.44471 | 10.381 | 160.4 |
| 2026-01-05T08:00 | 13.09110 | -117.43460 | 10.463 | 160.2 |
| 2026-01-05T08:10 | 13.06359 | -117.42440 | 10.485 | 160.0 |
| 2026-01-05T08:20 | 13.03586 | -117.41423 | 10.555 | 160.2 |
| 2026-01-05T08:30 | 13.00794 | -117.40399 | 10.630 | 160.2 |
| 2026-01-05T08:40 | 12.98019 | -117.39361 | 10.589 | 159.9 |
| 2026-01-05T08:50 | 12.95283 | -117.38366 | 10.406 | 160.4 |
| 2026-01-05T09:00 | 12.92567 | -117.37389 | 10.318 | 160.6 |
| 2026-01-05T09:10 | 12.89873 | -117.36376 | 10.285 | 159.8 |
| 2026-01-05T09:20 | 12.87176 | -117.35385 | 10.270 | 160.2 |
| 2026-01-05T09:30 | 12.84496 | -117.34408 | 10.195 | 160.3 |
| 2026-01-05T09:40 | 12.81868 | -117.33428 | 10.025 | 159.9 |
| 2026-01-05T09:50 | 12.79227 | -117.32462 | 10.052 | 160.2 |
| 2026-01-05T10:00 | 12.76545 | -117.31493 | 10.193 | 160.5 |
| 2026-01-05T10:10 | 12.73830 | -117.30490 | 10.344 | 160.1 |
| 2026-01-05T10:20 | 12.71105 | -117.29484 | 10.383 | 160.1 |
| 2026-01-05T10:30 | 12.68391 | -117.28490 | 10.333 | 160.2 |
| 2026-01-05T10:40 | 12.65678 | -117.27493 | 10.332 | 160.2 |
| 2026-01-05T10:50 | 12.62978 | -117.26498 | 10.285 | 160.1 |
| 2026-01-05T11:00 | 12.60230 | -117.25482 | 10.473 | 160.0 |
| 2026-01-05T11:10 | 12.57455 | -117.24471 | 10.557 | 160.3 |
| 2026-01-05T11:20 | 12.54766 | -117.23483 | 10.241 | 160.2 |
| 2026-01-05T11:30 | 12.52118 | -117.22512 | 10.081 | 160.2 |
| 2026-01-05T11:40 | 12.49442 | -117.21529 | 10.190 | 160.2 |
| 2026-01-05T11:50 | 12.46787 | -117.20562 | 10.103 | 160.3 |
| 2026-01-05T12:00 | 12.44136 | -117.19577 | 10.108 | 159.9 |
| 2026-01-05T12:10 | 12.41475 | -117.18605 | 10.129 | 160.3 |
| 2026-01-05T12:20 | 12.38807 | -117.17633 | 10.151 | 160.3 |
| 2026-01-05T12:30 | 12.36168 | -117.16651 | 10.066 | 159.9 |
| 2026-01-05T12:40 | 12.33534 | -117.15688 | 10.027 | 160.2 |
| 2026-01-05T12:50 | 12.30909 | -117.14725 | 9.995 | 160.2 |
| 2026-01-05T13:00 | 12.28265 | -117.13756 | 10.067 | 160.2 |
| 2026-01-05T13:10 | 12.25618 | -117.12787 | 10.077 | 160.2 |
| 2026-01-05T13:20 | 12.22973 | -117.11819 | 10.069 | 160.2 |
| 2026-01-05T13:30 | 12.20333 | -117.10848 | 10.057 | 160.1 |
| 2026-01-05T13:40 | 12.17688 | -117.09884 | 10.065 | 160.3 |
| 2026-01-05T13:50 | 12.15018 | -117.08906 | 10.168 | 160.2 |
| 2026-01-05T14:00 | 12.12334 | -117.07920 | 10.222 | 160.1 |
| 2026-01-05T14:10 | 12.09617 | -117.06923 | 10.346 | 160.2 |
| 2026-01-05T14:20 | 12.06943 | -117.05928 | 10.199 | 159.9 |
| 2026-01-05T14:30 | 12.04301 | -117.04970 | 10.049 | 160.4 |
| 2026-01-05T14:40 | 12.01678 | -117.03967 | 10.039 | 159.4 |
| 2026-01-05T14:50 | 11.99079 | -117.02919 | 10.017 | 158.3 |
| 2026-01-05T15:00 | 11.96496 | -117.01873 | 9.959 | 158.3 |
| 2026-01-05T15:10 | 11.94466 | -116.99977 | 9.880 | 137.4 |
| 2026-01-05T15:20 | 11.92368 | -116.98075 | 10.073 | 138.2 |
| 2026-01-05T15:30 | 11.92022 | -116.97023 | 3.913 | 108.5 |
| 2026-01-05T15:40 | 11.92031 | -116.97028 | 0.037 | 330.6 |
| 2026-01-05T15:50 | 11.92074 | -116.97079 | 0.238 | 310.8 |
| 2026-01-05T16:00 | 11.92099 | -116.97112 | 0.144 | 307.8 |
| 2026-01-05T16:10 | 11.92292 | -116.97403 | 1.240 | 303.9 |
| 2026-01-05T16:20 | 11.92584 | -116.97891 | 2.012 | 301.3 |
| 2026-01-05T16:30 | 11.92922 | -116.98353 | 2.032 | 306.6 |
| 2026-01-05T16:40 | 11.93253 | -116.98834 | 2.067 | 305.0 |
| 2026-01-05T16:50 | 11.93479 | -116.99225 | 1.602 | 300.4 |
| 2026-01-05T17:00 | 11.93662 | -116.99604 | 1.488 | 296.1 |
| 2026-01-05T17:10 | 11.93814 | -116.99989 | 1.464 | 291.9 |
| 2026-01-05T17:20 | 11.93972 | -117.00401 | 1.558 | 291.3 |
| 2026-01-05T17:30 | 11.94382 | -117.00860 | 2.186 | 312.1 |
| 2026-01-05T17:40 | 11.94592 | -117.01160 | 1.298 | 305.5 |
| 2026-01-05T17:50 | 11.95117 | -117.01253 | 1.909 | 350.1 |
| 2026-01-05T18:00 | 11.95430 | -117.01289 | 1.128 | 353.6 |
| 2026-01-05T18:10 | 11.94221 | -117.01905 | 4.845 | 206.6 |
| 2026-01-05T18:20 | 11.93224 | -117.02400 | 3.975 | 206.1 |
| 2026-01-05T18:30 | 11.93195 | -117.02702 | 1.073 | 264.5 |
| 2026-01-05T18:40 | 11.93042 | -117.02707 | 0.548 | 181.6 |
| 2026-01-05T18:50 | 11.93000 | -117.02695 | 0.157 | 163.9 |
| 2026-01-05T19:00 | 11.93012 | -117.02696 | 0.044 | 354.1 |
| 2026-01-05T19:10 | 11.93007 | -117.02697 | 0.019 | 195.1 |
| 2026-01-05T19:20 | 11.93010 | -117.02694 | 0.017 | 44.6 |
| 2026-01-05T19:30 | 11.93014 | -117.02700 | 0.024 | 298.1 |
| 2026-01-05T19:40 | 11.92997 | -117.02715 | 0.079 | 221.6 |
| 2026-01-05T19:50 | 11.93000 | -117.02715 | 0.012 | 7.0 |
| 2026-01-05T20:00 | 11.93020 | -117.02707 | 0.077 | 20.8 |
| 2026-01-05T20:10 | 11.93015 | -117.02709 | 0.020 | 200.7 |
| 2026-01-05T20:20 | 11.93006 | -117.02713 | 0.036 | 205.7 |
| 2026-01-05T20:30 | 11.93016 | -117.02709 | 0.038 | 21.4 |
| 2026-01-05T20:40 | 11.93017 | -117.02707 | 0.008 | 77.0 |
| 2026-01-05T20:50 | 11.93009 | -117.02701 | 0.034 | 141.9 |
| 2026-01-05T21:00 | 11.93010 | -117.02704 | 0.009 | 281.9 |
| 2026-01-05T21:10 | 11.93002 | -117.02709 | 0.034 | 211.6 |
| 2026-01-05T21:20 | 11.93005 | -117.02706 | 0.015 | 38.9 |
| 2026-01-05T21:30 | 11.93013 | -117.02702 | 0.032 | 24.8 |
| 2026-01-05T21:40 | 11.93002 | -117.02708 | 0.045 | 208.0 |
| 2026-01-05T21:50 | 11.93017 | -117.02708 | 0.053 | 0.4 |
| 2026-01-05T22:00 | 11.93007 | -117.02709 | 0.033 | 187.3 |
| 2026-01-05T22:10 | 11.93003 | -117.02713 | 0.020 | 224.6 |
| 2026-01-05T22:20 | 11.93009 | -117.02710 | 0.024 | 30.7 |
| 2026-01-05T22:30 | 11.93018 | -117.02713 | 0.033 | 338.5 |
| 2026-01-05T22:40 | 11.93009 | -117.02703 | 0.048 | 131.5 |
| 2026-01-05T22:50 | 11.93000 | -117.02709 | 0.039 | 213.1 |
| 2026-01-05T23:00 | 11.93017 | -117.02705 | 0.065 | 11.9 |
| 2026-01-05T23:10 | 11.93008 | -117.02704 | 0.033 | 170.8 |
| 2026-01-05T23:20 | 11.93008 | -117.02702 | 0.007 | 86.9 |
| 2026-01-05T23:30 | 11.93009 | -117.02707 | 0.020 | 278.1 |
| 2026-01-05T23:40 | 11.93015 | -117.02706 | 0.020 | 16.0 |
| 2026-01-05T23:50 | 11.93002 | -117.02711 | 0.049 | 199.2 |
| 2026-01-06T00:00 | 11.93009 | -117.02712 | 0.026 | 344.1 |
| 2026-01-06T00:10 | 11.93008 | -117.02639 | 0.260 | 90.6 |
| 2026-01-06T00:20 | 11.93012 | -117.02624 | 0.055 | 75.4 |
| 2026-01-06T00:30 | 11.93012 | -117.02627 | 0.011 | 282.9 |
| 2026-01-06T00:40 | 11.93012 | -117.02629 | 0.007 | 251.3 |
| 2026-01-06T00:50 | 11.93015 | -117.02627 | 0.014 | 22.9 |
| 2026-01-06T01:00 | 11.93013 | -117.02629 | 0.012 | 223.3 |
| 2026-01-06T01:10 | 11.93012 | -117.02621 | 0.028 | 95.8 |
| 2026-01-06T01:20 | 11.93009 | -117.02623 | 0.012 | 216.1 |
| 2026-01-06T01:30 | 11.93008 | -117.02627 | 0.013 | 253.8 |
| 2026-01-06T01:40 | 11.93016 | -117.02628 | 0.029 | 354.4 |
| 2026-01-06T01:50 | 11.93013 | -117.02670 | 0.151 | 264.8 |
| 2026-01-06T02:00 | 11.93015 | -117.02699 | 0.101 | 274.9 |
| 2026-01-06T02:10 | 11.93013 | -117.02697 | 0.011 | 138.2 |
| 2026-01-06T02:20 | 11.93009 | -117.02697 | 0.012 | 181.7 |
| 2026-01-06T02:30 | 11.93003 | -117.02698 | 0.025 | 193.2 |
| 2026-01-06T02:40 | 11.93008 | -117.02695 | 0.023 | 32.8 |
| 2026-01-06T02:50 | 11.93006 | -117.02690 | 0.018 | 112.3 |
| 2026-01-06T03:00 | 11.93012 | -117.02699 | 0.038 | 302.0 |
| 2026-01-06T03:10 | 11.93001 | -117.02694 | 0.042 | 156.0 |
| 2026-01-06T03:20 | 11.93001 | -117.02693 | 0.005 | 101.5 |
| 2026-01-06T03:30 | 11.92999 | -117.02694 | 0.008 | 215.4 |
| 2026-01-06T03:40 | 11.93002 | -117.02696 | 0.012 | 332.3 |
| 2026-01-06T03:50 | 11.93005 | -117.02695 | 0.009 | 16.7 |
| 2026-01-06T04:00 | 11.93004 | -117.02699 | 0.014 | 255.0 |
| 2026-01-06T04:10 | 11.92996 | -117.02696 | 0.028 | 161.4 |
| 2026-01-06T04:20 | 11.93008 | -117.02700 | 0.045 | 345.4 |
| 2026-01-06T04:30 | 11.93007 | -117.02693 | 0.024 | 103.8 |
| 2026-01-06T04:40 | 11.93008 | -117.02693 | 0.003 | 0.0 |
| 2026-01-06T04:50 | 11.93000 | -117.02696 | 0.028 | 202.0 |
| 2026-01-06T05:00 | 11.93006 | -117.02692 | 0.025 | 35.3 |
| 2026-01-06T05:10 | 11.93007 | -117.02692 | 0.002 | 26.2 |
| 2026-01-06T05:20 | 11.93004 | -117.02697 | 0.022 | 242.2 |
| 2026-01-06T05:30 | 11.92997 | -117.02680 | 0.063 | 111.7 |
| 2026-01-06T05:40 | 11.92950 | -117.02611 | 0.298 | 124.7 |
| 2026-01-06T05:50 | 11.92923 | -117.02572 | 0.169 | 124.7 |
| 2026-01-06T06:00 | 11.92927 | -117.02576 | 0.022 | 312.2 |
| 2026-01-06T06:10 | 11.92922 | -117.02577 | 0.020 | 190.9 |
| 2026-01-06T06:20 | 11.92923 | -117.02573 | 0.015 | 73.8 |
| 2026-01-06T06:30 | 11.92918 | -117.02573 | 0.017 | 176.4 |
| 2026-01-06T06:40 | 11.92932 | -117.02572 | 0.050 | 5.7 |
| 2026-01-06T06:50 | 11.92915 | -117.02577 | 0.065 | 198.9 |
| 2026-01-06T07:00 | 11.92929 | -117.02571 | 0.057 | 23.0 |
| 2026-01-06T07:10 | 11.92922 | -117.02551 | 0.075 | 111.4 |
| 2026-01-06T07:20 | 11.92921 | -117.02554 | 0.010 | 268.0 |
| 2026-01-06T07:30 | 11.92921 | -117.02555 | 0.004 | 208.7 |
| 2026-01-06T07:40 | 11.92928 | -117.02552 | 0.029 | 24.0 |
| 2026-01-06T07:50 | 11.92919 | -117.02551 | 0.032 | 174.9 |
| 2026-01-06T08:00 | 11.92917 | -117.02559 | 0.028 | 255.2 |
| 2026-01-06T08:10 | 11.92917 | -117.02557 | 0.005 | 94.2 |
| 2026-01-06T08:20 | 11.92915 | -117.02558 | 0.007 | 220.5 |
| 2026-01-06T08:30 | 11.92919 | -117.02556 | 0.016 | 38.2 |
| 2026-01-06T08:40 | 11.92918 | -117.02556 | 0.004 | 204.1 |
| 2026-01-06T08:50 | 11.92926 | -117.02552 | 0.032 | 29.6 |
| 2026-01-06T09:00 | 11.92930 | -117.02549 | 0.019 | 27.2 |
| 2026-01-06T09:10 | 11.92923 | -117.02552 | 0.028 | 201.4 |
| 2026-01-06T09:20 | 11.92918 | -117.02554 | 0.020 | 197.5 |
| 2026-01-06T09:30 | 11.92915 | -117.02559 | 0.021 | 244.4 |
| 2026-01-06T09:40 | 11.92918 | -117.02559 | 0.011 | 1.8 |
| 2026-01-06T09:50 | 11.92924 | -117.02557 | 0.021 | 15.4 |
| 2026-01-06T10:00 | 11.92919 | -117.02557 | 0.020 | 177.9 |
| 2026-01-06T10:10 | 11.92917 | -117.02554 | 0.014 | 114.3 |
| 2026-01-06T10:20 | 11.92921 | -117.02555 | 0.014 | 343.7 |
| 2026-01-06T10:30 | 11.92916 | -117.02556 | 0.017 | 195.9 |
| 2026-01-06T10:40 | 11.92918 | -117.02556 | 0.005 | 348.9 |
| 2026-01-06T10:50 | 11.92946 | -117.02552 | 0.103 | 8.8 |
| 2026-01-06T11:00 | 11.93027 | -117.02520 | 0.310 | 21.4 |
| 2026-01-06T11:10 | 11.93078 | -117.02495 | 0.204 | 25.9 |
| 2026-01-06T11:20 | 11.93064 | -117.02476 | 0.082 | 127.3 |
| 2026-01-06T11:30 | 11.93054 | -117.02455 | 0.082 | 115.0 |
| 2026-01-06T11:40 | 11.93072 | -117.02447 | 0.069 | 25.9 |
| 2026-01-06T11:50 | 11.93092 | -117.02454 | 0.076 | 339.5 |
| 2026-01-06T12:00 | 11.93116 | -117.02469 | 0.101 | 329.4 |
| 2026-01-06T12:10 | 11.93132 | -117.02495 | 0.109 | 303.0 |
| 2026-01-06T12:20 | 11.93132 | -117.02481 | 0.047 | 93.5 |
| 2026-01-06T12:30 | 11.93136 | -117.02487 | 0.025 | 309.2 |
| 2026-01-06T12:40 | 11.93129 | -117.02482 | 0.030 | 143.0 |
| 2026-01-06T12:50 | 11.93130 | -117.02484 | 0.009 | 274.6 |
| 2026-01-06T13:00 | 11.93131 | -117.02473 | 0.042 | 81.2 |
| 2026-01-06T13:10 | 11.93120 | -117.02462 | 0.053 | 137.9 |
| 2026-01-06T13:20 | 11.93112 | -117.02456 | 0.040 | 142.0 |
| 2026-01-06T13:30 | 11.93116 | -117.02456 | 0.015 | 348.1 |
| 2026-01-06T13:40 | 11.93113 | -117.02453 | 0.016 | 130.9 |
| 2026-01-06T13:50 | 11.93114 | -117.02455 | 0.009 | 299.0 |
| 2026-01-06T14:00 | 11.93114 | -117.02455 | 0.000 | 180.0 |
| 2026-01-06T14:10 | 11.93117 | -117.02452 | 0.015 | 40.8 |
| 2026-01-06T14:20 | 11.93113 | -117.02453 | 0.014 | 184.2 |
| 2026-01-06T14:30 | 11.93116 | -117.02448 | 0.018 | 54.0 |
| 2026-01-06T14:40 | 11.93119 | -117.02452 | 0.017 | 309.5 |
| 2026-01-06T14:50 | 11.93106 | -117.02444 | 0.056 | 147.6 |
| 2026-01-06T15:00 | 11.93100 | -117.02442 | 0.022 | 166.4 |
| 2026-01-06T15:10 | 11.93100 | -117.02445 | 0.010 | 265.7 |
| 2026-01-06T15:20 | 11.93102 | -117.02439 | 0.023 | 69.6 |
| 2026-01-06T15:30 | 11.93104 | -117.02443 | 0.018 | 299.0 |
| 2026-01-06T15:40 | 11.93102 | -117.02442 | 0.010 | 141.4 |
| 2026-01-06T15:50 | 11.93107 | -117.02446 | 0.023 | 319.2 |
| 2026-01-06T16:00 | 11.93107 | -117.02446 | 0.002 | 230.9 |
| 2026-01-06T16:10 | 11.93102 | -117.02445 | 0.017 | 159.6 |
| 2026-01-06T16:20 | 11.93109 | -117.02451 | 0.034 | 318.8 |
| 2026-01-06T16:30 | 11.93100 | -117.02488 | 0.135 | 255.3 |
| 2026-01-06T16:40 | 11.93098 | -117.02485 | 0.011 | 126.6 |
| 2026-01-06T16:50 | 11.93081 | -117.02486 | 0.060 | 180.7 |
| 2026-01-06T17:00 | 11.93105 | -117.02493 | 0.089 | 343.7 |
| 2026-01-06T17:10 | 11.93100 | -117.02487 | 0.026 | 132.1 |
| 2026-01-06T17:20 | 11.93078 | -117.02487 | 0.079 | 180.5 |
| 2026-01-06T17:30 | 11.93074 | -117.02490 | 0.018 | 211.1 |
| 2026-01-06T17:40 | 11.93082 | -117.02493 | 0.029 | 340.7 |
| 2026-01-06T17:50 | 11.93106 | -117.02499 | 0.091 | 345.6 |
| 2026-01-06T18:00 | 11.93106 | -117.02493 | 0.020 | 90.0 |
| 2026-01-06T18:10 | 11.93106 | -117.02496 | 0.010 | 267.9 |
| 2026-01-06T18:20 | 11.93106 | -117.02500 | 0.015 | 275.5 |
| 2026-01-06T18:30 | 11.93103 | -117.02498 | 0.013 | 144.2 |
| 2026-01-06T18:40 | 11.93100 | -117.02496 | 0.016 | 145.6 |
| 2026-01-06T18:50 | 11.93102 | -117.02502 | 0.023 | 287.6 |
| 2026-01-06T19:00 | 11.93100 | -117.02495 | 0.024 | 100.3 |
| 2026-01-06T19:10 | 11.93102 | -117.02501 | 0.022 | 282.0 |
| 2026-01-06T19:20 | 11.93103 | -117.02497 | 0.017 | 69.0 |
| 2026-01-06T19:30 | 11.93101 | -117.02503 | 0.022 | 248.1 |
| 2026-01-06T19:40 | 11.93103 | -117.02499 | 0.013 | 63.8 |
| 2026-01-06T19:50 | 11.93101 | -117.02500 | 0.008 | 198.2 |
| 2026-01-06T20:00 | 11.93098 | -117.02497 | 0.013 | 136.5 |
| 2026-01-06T20:10 | 11.93099 | -117.02495 | 0.011 | 60.6 |
| 2026-01-06T20:20 | 11.93097 | -117.02498 | 0.015 | 228.5 |
| 2026-01-06T20:30 | 11.93100 | -117.02497 | 0.013 | 7.8 |
| 2026-01-06T20:40 | 11.93102 | -117.02497 | 0.006 | 353.0 |
| 2026-01-06T20:50 | 11.93102 | -117.02501 | 0.011 | 273.6 |
| 2026-01-06T21:00 | 11.93104 | -117.02501 | 0.006 | 340.8 |
| 2026-01-06T21:10 | 11.93099 | -117.02499 | 0.019 | 156.2 |
| 2026-01-06T21:20 | 11.93095 | -117.02497 | 0.017 | 149.4 |
| 2026-01-06T21:30 | 11.93105 | -117.02502 | 0.040 | 333.6 |
| 2026-01-06T21:40 | 11.93098 | -117.02496 | 0.030 | 138.8 |
| 2026-01-06T21:50 | 11.93103 | -117.02502 | 0.026 | 303.9 |
| 2026-01-06T22:00 | 11.93102 | -117.02497 | 0.020 | 97.4 |
| 2026-01-06T22:10 | 11.93102 | -117.02499 | 0.007 | 273.1 |
| 2026-01-06T22:20 | 11.93104 | -117.02500 | 0.008 | 329.4 |
| 2026-01-06T22:30 | 11.93102 | -117.02501 | 0.008 | 215.4 |
| 2026-01-06T22:40 | 11.93099 | -117.02501 | 0.013 | 175.2 |
| 2026-01-06T22:50 | 11.93104 | -117.02500 | 0.021 | 9.8 |
| 2026-01-06T23:00 | 11.93101 | -117.02486 | 0.050 | 103.6 |
| 2026-01-06T23:10 | 11.93094 | -117.02467 | 0.071 | 110.7 |
| 2026-01-06T23:20 | 11.93099 | -117.02472 | 0.026 | 317.1 |
| 2026-01-06T23:30 | 11.93098 | -117.02477 | 0.016 | 256.1 |
| 2026-01-06T23:40 | 11.93104 | -117.02473 | 0.024 | 32.6 |
| 2026-01-06T23:50 | 11.93102 | -117.02476 | 0.013 | 237.2 |
| 2026-01-07T00:00 | 11.93099 | -117.02474 | 0.012 | 149.4 |
| 2026-01-07T00:10 | 11.93101 | -117.02471 | 0.014 | 65.7 |
| 2026-01-07T00:20 | 11.93098 | -117.02474 | 0.014 | 233.0 |
| 2026-01-07T00:30 | 11.93101 | -117.02471 | 0.012 | 45.8 |
| 2026-01-07T00:40 | 11.93102 | -117.02473 | 0.008 | 292.1 |
| 2026-01-07T00:50 | 11.93103 | -117.02475 | 0.010 | 311.2 |
| 2026-01-07T01:00 | 11.93101 | -117.02470 | 0.022 | 118.6 |
| 2026-01-07T01:10 | 11.93103 | -117.02477 | 0.025 | 291.0 |
| 2026-01-07T01:20 | 11.93101 | -117.02469 | 0.027 | 107.2 |
| 2026-01-07T01:30 | 11.93101 | -117.02456 | 0.049 | 90.8 |
| 2026-01-07T01:40 | 11.93104 | -117.02455 | 0.012 | 13.8 |
| 2026-01-07T01:50 | 11.93105 | -117.02454 | 0.005 | 33.3 |
| 2026-01-07T02:00 | 11.93103 | -117.02457 | 0.013 | 231.4 |
| 2026-01-07T02:10 | 11.93099 | -117.02452 | 0.021 | 127.1 |
| 2026-01-07T02:20 | 11.93104 | -117.02452 | 0.017 | 4.8 |
| 2026-01-07T02:30 | 11.93103 | -117.02455 | 0.011 | 253.1 |
| 2026-01-07T02:40 | 11.93105 | -117.02457 | 0.011 | 316.8 |
| 2026-01-07T02:50 | 11.93106 | -117.02454 | 0.011 | 80.4 |
| 2026-01-07T03:00 | 11.93105 | -117.02455 | 0.006 | 224.6 |
| 2026-01-07T03:10 | 11.93102 | -117.02455 | 0.011 | 180.0 |
| 2026-01-07T03:20 | 11.93103 | -117.02449 | 0.023 | 73.6 |
| 2026-01-07T03:30 | 11.93106 | -117.02451 | 0.011 | 312.8 |
| 2026-01-07T03:40 | 11.93107 | -117.02453 | 0.008 | 315.4 |
| 2026-01-07T03:50 | 11.93106 | -117.02453 | 0.005 | 195.7 |
| 2026-01-07T04:00 | 11.93101 | -117.02446 | 0.031 | 128.0 |
| 2026-01-07T04:10 | 11.93102 | -117.02453 | 0.024 | 283.8 |
| 2026-01-07T04:20 | 11.93097 | -117.02447 | 0.028 | 130.8 |
| 2026-01-07T04:30 | 11.93102 | -117.02441 | 0.028 | 47.6 |
| 2026-01-07T04:40 | 11.93111 | -117.02442 | 0.029 | 355.9 |
| 2026-01-07T04:50 | 11.93110 | -117.02436 | 0.020 | 98.4 |
| 2026-01-07T05:00 | 11.93071 | -117.02599 | 0.591 | 256.3 |
| 2026-01-07T05:10 | 11.93015 | -117.02734 | 0.516 | 247.5 |
| 2026-01-07T05:20 | 11.93017 | -117.02732 | 0.009 | 54.6 |
| 2026-01-07T05:30 | 11.93016 | -117.02740 | 0.029 | 262.2 |
| 2026-01-07T05:40 | 11.93005 | -117.02738 | 0.041 | 169.1 |
| 2026-01-07T05:50 | 11.93009 | -117.02739 | 0.018 | 348.6 |
| 2026-01-07T06:00 | 11.93004 | -117.02732 | 0.031 | 128.5 |
| 2026-01-07T06:10 | 11.93003 | -117.02733 | 0.005 | 232.7 |
| 2026-01-07T06:20 | 11.93005 | -117.02735 | 0.011 | 311.4 |
| 2026-01-07T06:30 | 11.93006 | -117.02740 | 0.017 | 276.0 |
| 2026-01-07T06:40 | 11.93007 | -117.02676 | 0.227 | 89.1 |
| 2026-01-07T06:50 | 11.93005 | -117.02653 | 0.082 | 93.5 |
| 2026-01-07T07:00 | 11.93007 | -117.02656 | 0.014 | 292.9 |
| 2026-01-07T07:10 | 11.93001 | -117.02655 | 0.023 | 165.7 |
| 2026-01-07T07:20 | 11.93004 | -117.02652 | 0.014 | 36.5 |
| 2026-01-07T07:30 | 11.93008 | -117.02655 | 0.017 | 326.4 |
| 2026-01-07T07:40 | 11.93004 | -117.02650 | 0.020 | 126.7 |
| 2026-01-07T07:50 | 11.93005 | -117.02650 | 0.001 | 55.9 |
| 2026-01-07T08:00 | 11.93003 | -117.02655 | 0.018 | 243.6 |
| 2026-01-07T08:10 | 11.93002 | -117.02651 | 0.013 | 102.4 |
| 2026-01-07T08:20 | 11.93007 | -117.02651 | 0.017 | 355.3 |
| 2026-01-07T08:30 | 11.93003 | -117.02732 | 0.285 | 267.4 |
| 2026-01-07T08:40 | 11.93011 | -117.02786 | 0.194 | 278.3 |
| 2026-01-07T08:50 | 11.93018 | -117.02787 | 0.026 | 355.4 |
| 2026-01-07T09:00 | 11.93010 | -117.02790 | 0.031 | 201.9 |
| 2026-01-07T09:10 | 11.93008 | -117.02784 | 0.021 | 107.5 |
| 2026-01-07T09:20 | 11.93013 | -117.02788 | 0.021 | 325.9 |
| 2026-01-07T09:30 | 11.93009 | -117.02784 | 0.019 | 136.2 |
| 2026-01-07T09:40 | 11.93010 | -117.02790 | 0.022 | 279.3 |
| 2026-01-07T09:50 | 11.93008 | -117.02788 | 0.011 | 144.7 |
| 2026-01-07T10:00 | 11.93017 | -117.02788 | 0.033 | 4.3 |
| 2026-01-07T10:10 | 11.93017 | -117.02785 | 0.009 | 87.7 |
| 2026-01-07T10:20 | 11.93012 | -117.02717 | 0.240 | 94.1 |
| 2026-01-07T10:30 | 11.93018 | -117.02718 | 0.023 | 358.2 |
| 2026-01-07T10:40 | 11.93017 | -117.02717 | 0.007 | 155.1 |
| 2026-01-07T10:50 | 11.93018 | -117.02719 | 0.009 | 294.8 |
| 2026-01-07T11:00 | 11.93011 | -117.02718 | 0.024 | 174.0 |
| 2026-01-07T11:10 | 11.93011 | -117.02718 | 0.002 | 161.8 |
| 2026-01-07T11:20 | 11.93009 | -117.02715 | 0.011 | 111.1 |
| 2026-01-07T11:30 | 11.93012 | -117.02712 | 0.015 | 45.5 |
| 2026-01-07T11:40 | 11.93012 | -117.02718 | 0.020 | 266.9 |
| 2026-01-07T11:50 | 11.92910 | -117.02685 | 0.385 | 162.8 |
| 2026-01-07T12:00 | 11.92188 | -117.02006 | 3.526 | 137.2 |
| 2026-01-07T12:10 | 11.91318 | -117.01054 | 4.578 | 132.8 |
| 2026-01-07T12:20 | 11.90220 | -116.99859 | 5.767 | 133.0 |
| 2026-01-07T12:30 | 11.88628 | -116.98230 | 8.096 | 134.8 |
| 2026-01-07T12:40 | 11.86806 | -116.96344 | 9.319 | 134.4 |
| 2026-01-07T12:50 | 11.84850 | -116.94283 | 10.099 | 133.9 |
| 2026-01-07T13:00 | 11.82884 | -116.92199 | 10.181 | 133.8 |
| 2026-01-07T13:10 | 11.80892 | -116.90114 | 10.249 | 134.1 |
| 2026-01-07T13:20 | 11.78901 | -116.88028 | 10.250 | 134.1 |
| 2026-01-07T13:30 | 11.76949 | -116.85965 | 10.091 | 133.8 |
| 2026-01-07T13:40 | 11.75220 | -116.84165 | 8.873 | 134.3 |
| 2026-01-07T13:50 | 11.73263 | -116.82716 | 8.678 | 143.9 |
| 2026-01-07T14:00 | 11.72250 | -116.81962 | 4.499 | 143.7 |
| 2026-01-07T14:10 | 11.72275 | -116.81952 | 0.094 | 20.7 |
| 2026-01-07T14:20 | 11.72271 | -116.81963 | 0.039 | 250.7 |
| 2026-01-07T14:30 | 11.72277 | -116.81958 | 0.026 | 44.0 |
| 2026-01-07T14:40 | 11.72275 | -116.81957 | 0.004 | 175.3 |
| 2026-01-07T14:50 | 11.72280 | -116.81949 | 0.034 | 60.4 |
| 2026-01-07T15:00 | 11.72272 | -116.81952 | 0.031 | 197.2 |
| 2026-01-07T15:10 | 11.72498 | -116.81699 | 1.204 | 47.7 |
| 2026-01-07T15:20 | 11.72698 | -116.81876 | 0.949 | 318.9 |
| 2026-01-07T15:30 | 11.74582 | -116.82590 | 7.203 | 339.5 |
| 2026-01-07T15:40 | 11.77264 | -116.83315 | 9.944 | 345.1 |
| 2026-01-07T15:50 | 11.78961 | -116.83162 | 6.100 | 5.1 |
| 2026-01-07T16:00 | 11.79053 | -116.83040 | 0.543 | 52.6 |
| 2026-01-07T16:10 | 11.79057 | -116.83039 | 0.017 | 11.8 |
| 2026-01-07T16:20 | 11.79063 | -116.83039 | 0.019 | 6.2 |
| 2026-01-07T16:30 | 11.79048 | -116.83038 | 0.052 | 178.8 |
| 2026-01-07T16:40 | 11.79180 | -116.82932 | 0.604 | 38.6 |
| 2026-01-07T16:50 | 11.79380 | -116.82816 | 0.825 | 29.6 |
| 2026-01-07T17:00 | 11.78415 | -116.82726 | 3.472 | 174.8 |
| 2026-01-07T17:10 | 11.76562 | -116.84713 | 9.656 | 226.6 |
| 2026-01-07T17:20 | 11.74927 | -116.87173 | 10.472 | 236.0 |
| 2026-01-07T17:30 | 11.74866 | -116.88440 | 4.478 | 267.2 |
| 2026-01-07T17:40 | 11.74889 | -116.88473 | 0.142 | 306.9 |
| 2026-01-07T17:50 | 11.74883 | -116.88459 | 0.054 | 115.4 |
| 2026-01-07T18:00 | 11.74878 | -116.88467 | 0.035 | 236.6 |
| 2026-01-07T18:10 | 11.74977 | -116.88302 | 0.682 | 58.5 |
| 2026-01-07T18:20 | 11.75120 | -116.88177 | 0.676 | 40.8 |
| 2026-01-07T18:30 | 11.75952 | -116.88757 | 3.616 | 325.5 |
| 2026-01-07T18:40 | 11.78297 | -116.90747 | 10.948 | 320.1 |
| 2026-01-07T18:50 | 11.80622 | -116.92732 | 10.880 | 319.9 |
| 2026-01-07T19:00 | 11.82940 | -116.94701 | 10.828 | 320.1 |
| 2026-01-07T19:10 | 11.85216 | -116.96648 | 10.661 | 319.9 |
| 2026-01-07T19:20 | 11.87535 | -116.98620 | 10.833 | 320.1 |
| 2026-01-07T19:30 | 11.89858 | -117.00549 | 10.751 | 320.7 |
| 2026-01-07T19:40 | 11.92240 | -117.02306 | 10.543 | 324.0 |
| 2026-01-07T19:50 | 11.92984 | -117.02673 | 2.966 | 334.1 |
| 2026-01-07T20:00 | 11.93013 | -117.02696 | 0.129 | 322.5 |
| 2026-01-07T20:10 | 11.93006 | -117.02687 | 0.039 | 126.3 |
| 2026-01-07T20:20 | 11.93016 | -117.02690 | 0.037 | 343.0 |
| 2026-01-07T20:30 | 11.93011 | -117.02691 | 0.018 | 198.2 |
| 2026-01-07T20:40 | 11.93008 | -117.02692 | 0.013 | 186.1 |
| 2026-01-07T20:50 | 11.93006 | -117.02695 | 0.012 | 246.2 |
| 2026-01-07T21:00 | 11.93011 | -117.02693 | 0.019 | 20.5 |
| 2026-01-07T21:10 | 11.93012 | -117.02694 | 0.006 | 306.0 |
| 2026-01-07T21:20 | 11.93007 | -117.02699 | 0.027 | 219.2 |
| 2026-01-07T21:30 | 11.93018 | -117.02694 | 0.047 | 23.1 |
| 2026-01-07T21:40 | 11.93009 | -117.02687 | 0.043 | 144.1 |
| 2026-01-07T21:50 | 11.93013 | -117.02686 | 0.014 | 2.8 |
| 2026-01-07T22:00 | 11.93014 | -117.02691 | 0.017 | 282.2 |
| 2026-01-07T22:10 | 11.93017 | -117.02698 | 0.027 | 297.3 |
| 2026-01-07T22:20 | 11.93017 | -117.02701 | 0.010 | 263.6 |
| 2026-01-07T22:30 | 11.93005 | -117.02688 | 0.060 | 135.4 |
| 2026-01-07T22:40 | 11.93006 | -117.02690 | 0.007 | 321.8 |
| 2026-01-07T22:50 | 11.93019 | -117.02698 | 0.053 | 326.4 |
| 2026-01-07T23:00 | 11.93008 | -117.02684 | 0.062 | 129.1 |
| 2026-01-07T23:10 | 11.93016 | -117.02696 | 0.050 | 305.9 |
| 2026-01-07T23:20 | 11.93004 | -117.02691 | 0.045 | 155.4 |
| 2026-01-07T23:30 | 11.93016 | -117.02684 | 0.046 | 30.7 |
| 2026-01-07T23:40 | 11.93019 | -117.02692 | 0.032 | 291.1 |
| 2026-01-07T23:50 | 11.93008 | -117.02687 | 0.043 | 153.6 |
| 2026-01-08T00:00 | 11.93016 | -117.02688 | 0.030 | 353.8 |
| 2026-01-08T00:10 | 11.93014 | -117.02694 | 0.025 | 248.7 |
| 2026-01-08T00:20 | 11.93013 | -117.02694 | 0.003 | 113.5 |
| 2026-01-08T00:30 | 11.93004 | -117.02686 | 0.045 | 141.8 |
| 2026-01-08T00:40 | 11.93010 | -117.02691 | 0.030 | 325.0 |
| 2026-01-08T00:50 | 11.93010 | -117.02686 | 0.018 | 97.0 |
| 2026-01-08T01:00 | 11.93003 | -117.02687 | 0.025 | 193.2 |
| 2026-01-08T01:10 | 11.93010 | -117.02685 | 0.025 | 18.9 |
| 2026-01-08T01:20 | 11.93009 | -117.02692 | 0.025 | 265.2 |
| 2026-01-08T01:30 | 11.93016 | -117.02692 | 0.024 | 0.8 |
| 2026-01-08T01:40 | 11.93012 | -117.02694 | 0.016 | 211.2 |
| 2026-01-08T01:50 | 11.93016 | -117.02693 | 0.013 | 13.8 |
| 2026-01-08T02:00 | 11.93013 | -117.02677 | 0.060 | 100.7 |
| 2026-01-08T02:10 | 11.93002 | -117.02660 | 0.071 | 122.8 |
| 2026-01-08T02:20 | 11.93003 | -117.02661 | 0.006 | 308.0 |
| 2026-01-08T02:30 | 11.93000 | -117.02652 | 0.035 | 108.7 |
| 2026-01-08T02:40 | 11.92998 | -117.02656 | 0.014 | 251.8 |
| 2026-01-08T02:50 | 11.92996 | -117.02660 | 0.018 | 241.6 |
| 2026-01-08T03:00 | 11.92994 | -117.02665 | 0.019 | 250.9 |
| 2026-01-08T03:10 | 11.92996 | -117.02655 | 0.035 | 81.8 |
| 2026-01-08T03:20 | 11.93001 | -117.02652 | 0.023 | 28.2 |
| 2026-01-08T03:30 | 11.93005 | -117.02641 | 0.043 | 71.2 |
| 2026-01-08T03:40 | 11.93007 | -117.02639 | 0.008 | 27.3 |
| 2026-01-08T03:50 | 11.93003 | -117.02641 | 0.019 | 199.9 |
| 2026-01-08T04:00 | 11.92995 | -117.02638 | 0.029 | 159.4 |
| 2026-01-08T04:10 | 11.93009 | -117.02641 | 0.053 | 349.6 |
| 2026-01-08T04:20 | 11.93000 | -117.02640 | 0.034 | 171.2 |
| 2026-01-08T04:30 | 11.92997 | -117.02635 | 0.020 | 126.1 |
| 2026-01-08T04:40 | 11.92995 | -117.02640 | 0.020 | 254.2 |
| 2026-01-08T04:50 | 11.93007 | -117.02638 | 0.043 | 13.6 |
| 2026-01-08T05:00 | 11.93002 | -117.02648 | 0.040 | 241.7 |
| 2026-01-08T05:10 | 11.93010 | -117.02674 | 0.097 | 287.6 |
| 2026-01-08T05:20 | 11.93000 | -117.02671 | 0.037 | 166.7 |
| 2026-01-08T05:30 | 11.93013 | -117.02661 | 0.060 | 38.3 |
| 2026-01-08T05:40 | 11.93013 | -117.02677 | 0.058 | 268.6 |
| 2026-01-08T05:50 | 11.92996 | -117.02689 | 0.072 | 214.9 |
| 2026-01-08T06:00 | 11.92992 | -117.02686 | 0.017 | 140.5 |
| 2026-01-08T06:10 | 11.93011 | -117.02672 | 0.081 | 36.0 |
| 2026-01-08T06:20 | 11.93017 | -117.02670 | 0.022 | 19.3 |
| 2026-01-08T06:30 | 11.93016 | -117.02668 | 0.010 | 111.3 |
| 2026-01-08T06:40 | 11.93017 | -117.02674 | 0.022 | 287.2 |
| 2026-01-08T06:50 | 11.93008 | -117.02665 | 0.045 | 136.7 |
| 2026-01-08T07:00 | 11.93010 | -117.02670 | 0.020 | 290.4 |
| 2026-01-08T07:10 | 11.93012 | -117.02667 | 0.010 | 58.6 |
| 2026-01-08T07:20 | 11.93013 | -117.02659 | 0.029 | 80.8 |
| 2026-01-08T07:30 | 11.93018 | -117.02664 | 0.026 | 318.7 |
| 2026-01-08T07:40 | 11.93012 | -117.02665 | 0.024 | 188.6 |
| 2026-01-08T07:50 | 11.93007 | -117.02666 | 0.017 | 190.9 |
| 2026-01-08T08:00 | 11.93022 | -117.02663 | 0.054 | 11.7 |
| 2026-01-08T08:10 | 11.93018 | -117.02768 | 0.369 | 267.6 |
| 2026-01-08T08:20 | 11.93011 | -117.02768 | 0.023 | 180.9 |
| 2026-01-08T08:30 | 11.93009 | -117.02775 | 0.028 | 256.1 |
| 2026-01-08T08:40 | 11.93009 | -117.02775 | 0.000 | 135.4 |
| 2026-01-08T08:50 | 11.93009 | -117.02783 | 0.027 | 268.5 |
| 2026-01-08T09:00 | 11.93015 | -117.02780 | 0.022 | 27.9 |
| 2026-01-08T09:10 | 11.93015 | -117.02778 | 0.009 | 90.0 |
| 2026-01-08T09:20 | 11.93012 | -117.02781 | 0.015 | 238.9 |
| 2026-01-08T09:30 | 11.93018 | -117.02779 | 0.022 | 17.0 |
| 2026-01-08T09:40 | 11.93010 | -117.02776 | 0.030 | 157.4 |
| 2026-01-08T09:50 | 11.93018 | -117.02775 | 0.029 | 9.2 |
| 2026-01-08T10:00 | 11.93008 | -117.02783 | 0.046 | 217.1 |
| 2026-01-08T10:10 | 11.93020 | -117.02777 | 0.049 | 25.7 |
| 2026-01-08T10:20 | 11.93012 | -117.02774 | 0.030 | 161.4 |
| 2026-01-08T10:30 | 11.93015 | -117.02775 | 0.011 | 343.5 |
| 2026-01-08T10:40 | 11.93015 | -117.02787 | 0.041 | 266.0 |
| 2026-01-08T10:50 | 11.93012 | -117.02774 | 0.044 | 102.3 |
| 2026-01-08T11:00 | 11.93008 | -117.02781 | 0.025 | 237.9 |
| 2026-01-08T11:10 | 11.93039 | -117.02502 | 0.989 | 83.6 |
| 2026-01-08T11:20 | 11.93078 | -117.02471 | 0.176 | 38.3 |
| 2026-01-08T11:30 | 11.93079 | -117.02472 | 0.005 | 330.1 |
| 2026-01-08T11:40 | 11.93065 | -117.02477 | 0.051 | 203.0 |
| 2026-01-08T11:50 | 11.93076 | -117.02471 | 0.043 | 30.2 |
| 2026-01-08T12:00 | 11.93064 | -117.02470 | 0.042 | 173.8 |
| 2026-01-08T12:10 | 11.93066 | -117.02473 | 0.014 | 304.1 |
| 2026-01-08T12:20 | 11.93080 | -117.02472 | 0.051 | 6.3 |
| 2026-01-08T12:30 | 11.93077 | -117.02472 | 0.012 | 183.4 |
| 2026-01-08T12:40 | 11.93080 | -117.02466 | 0.023 | 67.1 |
| 2026-01-08T12:50 | 11.93081 | -117.02473 | 0.025 | 281.6 |
| 2026-01-08T13:00 | 11.93076 | -117.02472 | 0.017 | 173.0 |
| 2026-01-08T13:10 | 11.93075 | -117.02474 | 0.007 | 235.1 |
| 2026-01-08T13:20 | 11.93077 | -117.02469 | 0.016 | 68.1 |
| 2026-01-08T13:30 | 11.93080 | -117.02472 | 0.014 | 313.4 |
| 2026-01-08T13:40 | 11.93085 | -117.02468 | 0.026 | 35.7 |
| 2026-01-08T13:50 | 11.93109 | -117.02470 | 0.086 | 356.2 |
| 2026-01-08T14:00 | 11.93111 | -117.02472 | 0.009 | 300.1 |
| 2026-01-08T14:10 | 11.93109 | -117.02470 | 0.008 | 119.2 |
| 2026-01-08T14:20 | 11.93110 | -117.02474 | 0.015 | 272.8 |
| 2026-01-08T14:30 | 11.93112 | -117.02471 | 0.012 | 55.4 |
| 2026-01-08T14:40 | 11.93110 | -117.02468 | 0.013 | 108.7 |
| 2026-01-08T14:50 | 11.93102 | -117.02472 | 0.032 | 206.5 |
| 2026-01-08T15:00 | 11.93111 | -117.02474 | 0.030 | 342.2 |
| 2026-01-08T15:10 | 11.93111 | -117.02474 | 0.001 | 270.0 |
| 2026-01-08T15:20 | 11.93121 | -117.02477 | 0.041 | 346.4 |
| 2026-01-08T15:30 | 11.93124 | -117.02485 | 0.028 | 285.7 |
| 2026-01-08T15:40 | 11.93130 | -117.02487 | 0.025 | 339.0 |
| 2026-01-08T15:50 | 11.93128 | -117.02488 | 0.008 | 205.1 |
| 2026-01-08T16:00 | 11.93133 | -117.02483 | 0.026 | 49.6 |
| 2026-01-08T16:10 | 11.93126 | -117.02484 | 0.023 | 194.9 |
| 2026-01-08T16:20 | 11.93135 | -117.02491 | 0.039 | 322.5 |
| 2026-01-08T16:30 | 11.93131 | -117.02490 | 0.014 | 157.7 |
| 2026-01-08T16:40 | 11.93133 | -117.02489 | 0.006 | 23.3 |
| 2026-01-08T16:50 | 11.93133 | -117.02488 | 0.005 | 67.1 |
| 2026-01-08T17:00 | 11.93131 | -117.02489 | 0.008 | 205.1 |
| 2026-01-08T17:10 | 11.93128 | -117.02485 | 0.019 | 131.7 |
| 2026-01-08T17:20 | 11.93124 | -117.02490 | 0.023 | 232.2 |
| 2026-01-08T17:30 | 11.93125 | -117.02490 | 0.006 | 336.7 |
| 2026-01-08T17:40 | 11.93127 | -117.02483 | 0.027 | 74.7 |
| 2026-01-08T17:50 | 11.93133 | -117.02493 | 0.039 | 299.7 |
| 2026-01-08T18:00 | 11.93125 | -117.02485 | 0.038 | 135.8 |
| 2026-01-08T18:10 | 11.93128 | -117.02490 | 0.019 | 303.5 |
| 2026-01-08T18:20 | 11.93134 | -117.02490 | 0.019 | 352.6 |
| 2026-01-08T18:30 | 11.93125 | -117.02487 | 0.033 | 155.7 |
| 2026-01-08T18:40 | 11.93129 | -117.02488 | 0.015 | 338.5 |
| 2026-01-08T18:50 | 11.93128 | -117.02484 | 0.013 | 108.7 |
| 2026-01-08T19:00 | 11.93124 | -117.02485 | 0.014 | 191.7 |
| 2026-01-08T19:10 | 11.93126 | -117.02493 | 0.027 | 287.7 |
| 2026-01-08T19:20 | 11.93123 | -117.02484 | 0.032 | 110.5 |
| 2026-01-08T19:30 | 11.93124 | -117.02490 | 0.022 | 276.6 |
| 2026-01-08T19:40 | 11.93124 | -117.02484 | 0.021 | 88.1 |
| 2026-01-08T19:50 | 11.93129 | -117.02489 | 0.025 | 319.5 |
| 2026-01-08T20:00 | 11.93125 | -117.02485 | 0.022 | 142.1 |
| 2026-01-08T20:10 | 11.93126 | -117.02491 | 0.023 | 285.1 |
| 2026-01-08T20:20 | 11.93130 | -117.02492 | 0.015 | 358.6 |
| 2026-01-08T20:30 | 11.93098 | -117.02499 | 0.117 | 192.9 |
| 2026-01-08T20:40 | 11.93098 | -117.02496 | 0.011 | 101.5 |
| 2026-01-08T20:50 | 11.93099 | -117.02503 | 0.024 | 281.0 |
| 2026-01-08T21:00 | 11.93099 | -117.02503 | 0.001 | 180.0 |
| 2026-01-08T21:10 | 11.93098 | -117.02499 | 0.014 | 112.9 |
| 2026-01-08T21:20 | 11.93101 | -117.02505 | 0.023 | 302.6 |
| 2026-01-08T21:30 | 11.93102 | -117.02505 | 0.006 | 342.9 |
| 2026-01-08T21:40 | 11.93098 | -117.02502 | 0.018 | 142.7 |
| 2026-01-08T21:50 | 11.93094 | -117.02500 | 0.019 | 154.7 |
| 2026-01-08T22:00 | 11.93116 | -117.02483 | 0.099 | 37.1 |
| 2026-01-08T22:10 | 11.93114 | -117.02483 | 0.007 | 203.6 |
| 2026-01-08T22:20 | 11.93114 | -117.02483 | 0.001 | 0.0 |
| 2026-01-08T22:30 | 11.93111 | -117.02476 | 0.031 | 114.8 |
| 2026-01-08T22:40 | 11.93102 | -117.02475 | 0.030 | 177.3 |
| 2026-01-08T22:50 | 11.93109 | -117.02456 | 0.073 | 71.7 |
| 2026-01-08T23:00 | 11.93110 | -117.02456 | 0.006 | 339.7 |
| 2026-01-08T23:10 | 11.93107 | -117.02462 | 0.022 | 241.0 |
| 2026-01-08T23:20 | 11.93108 | -117.02463 | 0.004 | 296.9 |
| 2026-01-08T23:30 | 11.93104 | -117.02461 | 0.016 | 159.0 |
| 2026-01-08T23:40 | 11.93106 | -117.02455 | 0.021 | 70.1 |
| 2026-01-08T23:50 | 11.93104 | -117.02457 | 0.009 | 212.6 |
| 2026-01-09T00:00 | 11.93107 | -117.02458 | 0.012 | 330.6 |
| 2026-01-09T00:10 | 11.93106 | -117.02456 | 0.008 | 113.5 |
| 2026-01-09T00:20 | 11.93105 | -117.02460 | 0.013 | 252.8 |
| 2026-01-09T00:30 | 11.93107 | -117.02456 | 0.014 | 57.9 |
| 2026-01-09T00:40 | 11.93109 | -117.02460 | 0.015 | 304.5 |
| 2026-01-09T00:50 | 11.93106 | -117.02460 | 0.011 | 176.5 |
| 2026-01-09T01:00 | 11.93114 | -117.02461 | 0.031 | 350.1 |
| 2026-01-09T01:10 | 11.93109 | -117.02455 | 0.028 | 131.3 |
| 2026-01-09T01:20 | 11.93113 | -117.02461 | 0.025 | 300.5 |
| 2026-01-09T01:30 | 11.93104 | -117.02456 | 0.037 | 150.8 |
| 2026-01-09T01:40 | 11.93112 | -117.02461 | 0.035 | 329.4 |
| 2026-01-09T01:50 | 11.93109 | -117.02457 | 0.019 | 124.1 |
| 2026-01-09T02:00 | 11.93111 | -117.02461 | 0.018 | 294.4 |
| 2026-01-09T02:10 | 11.93126 | -117.02475 | 0.072 | 318.6 |
| 2026-01-09T02:20 | 11.93131 | -117.02481 | 0.026 | 308.9 |
| 2026-01-09T02:30 | 11.93131 | -117.02478 | 0.011 | 91.8 |
| 2026-01-09T02:40 | 11.93130 | -117.02480 | 0.010 | 252.7 |
| 2026-01-09T02:50 | 11.93126 | -117.02480 | 0.017 | 172.7 |
| 2026-01-09T03:00 | 11.93131 | -117.02476 | 0.023 | 34.3 |
| 2026-01-09T03:10 | 11.93126 | -117.02477 | 0.018 | 186.9 |
| 2026-01-09T03:20 | 11.93131 | -117.02475 | 0.021 | 14.5 |
| 2026-01-09T03:30 | 11.93126 | -117.02480 | 0.027 | 218.7 |
| 2026-01-09T03:40 | 11.93132 | -117.02476 | 0.027 | 29.6 |
| 2026-01-09T03:50 | 11.93124 | -117.02471 | 0.035 | 149.6 |
| 2026-01-09T04:00 | 11.93099 | -117.02509 | 0.160 | 236.1 |
| 2026-01-09T04:10 | 11.93094 | -117.02505 | 0.022 | 146.7 |
| 2026-01-09T04:20 | 11.93113 | -117.02488 | 0.090 | 41.0 |
| 2026-01-09T04:30 | 11.93126 | -117.02479 | 0.057 | 33.9 |
| 2026-01-09T04:40 | 11.93127 | -117.02475 | 0.015 | 70.4 |
| 2026-01-09T04:50 | 11.93099 | -117.02509 | 0.157 | 229.4 |
| 2026-01-09T05:00 | 11.93092 | -117.02508 | 0.025 | 165.2 |
| 2026-01-09T05:10 | 11.93098 | -117.02507 | 0.021 | 6.9 |
| 2026-01-09T05:20 | 11.93093 | -117.02504 | 0.021 | 147.0 |
| 2026-01-09T05:30 | 11.93090 | -117.02508 | 0.018 | 237.8 |
| 2026-01-09T05:40 | 11.93093 | -117.02509 | 0.009 | 341.8 |
| 2026-01-09T05:50 | 11.93096 | -117.02509 | 0.010 | 356.1 |
| 2026-01-09T06:00 | 11.93089 | -117.02505 | 0.027 | 151.5 |
| 2026-01-09T06:10 | 11.93092 | -117.02513 | 0.031 | 291.2 |
| 2026-01-09T06:20 | 11.93096 | -117.02510 | 0.018 | 33.6 |
| 2026-01-09T06:30 | 11.93097 | -117.02517 | 0.025 | 279.7 |
| 2026-01-09T06:40 | 11.93098 | -117.02515 | 0.007 | 70.4 |
| 2026-01-09T06:50 | 11.93110 | -117.02531 | 0.070 | 307.0 |
| 2026-01-09T07:00 | 11.93163 | -117.02586 | 0.273 | 314.7 |
| 2026-01-09T07:10 | 11.93180 | -117.02614 | 0.115 | 301.0 |
| 2026-01-09T07:20 | 11.93176 | -117.02728 | 0.402 | 267.9 |
| 2026-01-09T07:30 | 11.93168 | -117.02810 | 0.291 | 264.5 |
| 2026-01-09T07:40 | 11.93212 | -117.02849 | 0.210 | 319.4 |
| 2026-01-09T07:50 | 11.93255 | -117.02958 | 0.412 | 291.6 |
| 2026-01-09T08:00 | 11.93236 | -117.03043 | 0.309 | 257.1 |
| 2026-01-09T08:10 | 11.93249 | -117.03111 | 0.245 | 281.3 |
| 2026-01-09T08:20 | 11.93261 | -117.03092 | 0.081 | 57.3 |
| 2026-01-09T08:30 | 11.93259 | -117.03096 | 0.017 | 240.5 |
| 2026-01-09T08:40 | 11.93257 | -117.03088 | 0.031 | 104.7 |
| 2026-01-09T08:50 | 11.93260 | -117.03091 | 0.016 | 322.6 |
| 2026-01-09T09:00 | 11.93257 | -117.03091 | 0.014 | 192.0 |
| 2026-01-09T09:10 | 11.93255 | -117.03092 | 0.007 | 212.5 |
| 2026-01-09T09:20 | 11.93262 | -117.03093 | 0.024 | 357.5 |
| 2026-01-09T09:30 | 11.93259 | -117.03089 | 0.017 | 125.4 |
| 2026-01-09T09:40 | 11.93260 | -117.03094 | 0.018 | 287.3 |
| 2026-01-09T09:50 | 11.93254 | -117.03089 | 0.027 | 147.1 |
| 2026-01-09T10:00 | 11.93261 | -117.03091 | 0.025 | 349.6 |
| 2026-01-09T10:10 | 11.93262 | -117.03093 | 0.010 | 290.6 |
| 2026-01-09T10:20 | 11.93257 | -117.03087 | 0.028 | 125.5 |
| 2026-01-09T10:30 | 11.93254 | -117.03087 | 0.013 | 176.8 |
| 2026-01-09T10:40 | 11.93250 | -117.03085 | 0.016 | 155.5 |
| 2026-01-09T10:50 | 11.93254 | -117.03091 | 0.026 | 303.0 |
| 2026-01-09T11:00 | 11.93248 | -117.03084 | 0.032 | 126.9 |
| 2026-01-09T11:10 | 11.93254 | -117.03093 | 0.039 | 304.5 |
| 2026-01-09T11:20 | 11.93250 | -117.03089 | 0.020 | 139.8 |
| 2026-01-09T11:30 | 11.93296 | -117.03050 | 0.214 | 40.0 |
| 2026-01-09T11:40 | 11.93434 | -117.02698 | 1.338 | 68.3 |
| 2026-01-09T11:50 | 11.93406 | -117.02638 | 0.234 | 116.0 |
| 2026-01-09T12:00 | 11.93401 | -117.02639 | 0.017 | 186.1 |
| 2026-01-09T12:10 | 11.93402 | -117.02641 | 0.009 | 279.6 |
| 2026-01-09T12:20 | 11.93403 | -117.02643 | 0.008 | 301.4 |
| 2026-01-09T12:30 | 11.93403 | -117.02644 | 0.003 | 315.4 |
| 2026-01-09T12:40 | 11.93404 | -117.02647 | 0.012 | 290.3 |
| 2026-01-09T12:50 | 11.93409 | -117.02642 | 0.024 | 41.5 |
| 2026-01-09T13:00 | 11.93408 | -117.02645 | 0.012 | 238.3 |
| 2026-01-09T13:10 | 11.93408 | -117.02642 | 0.013 | 90.0 |
| 2026-01-09T13:20 | 11.93407 | -117.02637 | 0.016 | 104.6 |
| 2026-01-09T13:30 | 11.93403 | -117.02638 | 0.014 | 195.9 |
| 2026-01-09T13:40 | 11.93405 | -117.02642 | 0.013 | 300.3 |
| 2026-01-09T13:50 | 11.93408 | -117.02646 | 0.020 | 303.8 |
| 2026-01-09T14:00 | 11.93407 | -117.02639 | 0.026 | 100.2 |
| 2026-01-09T14:10 | 11.93407 | -117.02640 | 0.005 | 278.2 |
| 2026-01-09T14:20 | 11.93405 | -117.02641 | 0.008 | 190.2 |
| 2026-01-09T14:30 | 11.93404 | -117.02638 | 0.010 | 110.6 |
| 2026-01-09T14:40 | 11.93398 | -117.02639 | 0.021 | 183.9 |
| 2026-01-09T14:50 | 11.93407 | -117.02638 | 0.034 | 1.8 |
| 2026-01-09T15:00 | 11.93406 | -117.02640 | 0.008 | 248.8 |
| 2026-01-09T15:10 | 11.93402 | -117.02636 | 0.022 | 140.0 |
| 2026-01-09T15:20 | 11.93402 | -117.02646 | 0.035 | 274.1 |
| 2026-01-09T15:30 | 11.93131 | -117.02561 | 1.017 | 162.9 |
| 2026-01-09T15:40 | 11.93006 | -117.02852 | 1.119 | 246.5 |
| 2026-01-09T15:50 | 11.93016 | -117.02837 | 0.063 | 56.3 |
| 2026-01-09T16:00 | 11.93016 | -117.02843 | 0.018 | 270.0 |
| 2026-01-09T16:10 | 11.93011 | -117.02841 | 0.020 | 160.2 |
| 2026-01-09T16:20 | 11.93021 | -117.02841 | 0.034 | 359.4 |
| 2026-01-09T16:30 | 11.93005 | -117.02844 | 0.057 | 189.7 |
| 2026-01-09T16:40 | 11.93009 | -117.02835 | 0.034 | 64.7 |
| 2026-01-09T16:50 | 11.93020 | -117.02846 | 0.056 | 314.1 |
| 2026-01-09T17:00 | 11.93009 | -117.02822 | 0.094 | 114.8 |
| 2026-01-09T17:10 | 11.93015 | -117.02813 | 0.039 | 55.0 |
| 2026-01-09T17:20 | 11.93012 | -117.02746 | 0.236 | 92.3 |
| 2026-01-09T17:30 | 11.93015 | -117.02761 | 0.054 | 280.7 |
| 2026-01-09T17:40 | 11.93021 | -117.02752 | 0.039 | 55.6 |
| 2026-01-09T17:50 | 11.93020 | -117.02747 | 0.018 | 108.3 |
| 2026-01-09T18:00 | 11.93022 | -117.02752 | 0.018 | 294.4 |
| 2026-01-09T18:10 | 11.93027 | -117.02759 | 0.032 | 305.0 |
| 2026-01-09T18:20 | 11.93035 | -117.02757 | 0.030 | 12.7 |
| 2026-01-09T18:30 | 11.93049 | -117.02764 | 0.053 | 335.5 |
| 2026-01-09T18:40 | 11.93058 | -117.02763 | 0.035 | 2.9 |
| 2026-01-09T18:50 | 11.93066 | -117.02785 | 0.083 | 289.7 |
| 2026-01-09T19:00 | 11.93091 | -117.02808 | 0.121 | 317.6 |
| 2026-01-09T19:10 | 11.93085 | -117.02809 | 0.022 | 187.5 |
| 2026-01-09T19:20 | 11.93093 | -117.02808 | 0.029 | 5.6 |
| 2026-01-09T19:30 | 11.93083 | -117.02810 | 0.038 | 192.2 |
| 2026-01-09T19:40 | 11.93091 | -117.02804 | 0.037 | 35.9 |
| 2026-01-09T19:50 | 11.93085 | -117.02801 | 0.024 | 150.4 |
| 2026-01-09T20:00 | 11.93078 | -117.02803 | 0.026 | 193.3 |
| 2026-01-09T20:10 | 11.93077 | -117.02806 | 0.012 | 252.4 |
| 2026-01-09T20:20 | 11.93082 | -117.02804 | 0.020 | 18.2 |
| 2026-01-09T20:30 | 11.93093 | -117.02809 | 0.042 | 336.8 |
| 2026-01-09T20:40 | 11.93084 | -117.02800 | 0.045 | 138.7 |
| 2026-01-09T20:50 | 11.93076 | -117.02805 | 0.032 | 209.3 |
| 2026-01-09T21:00 | 11.93076 | -117.02807 | 0.009 | 277.2 |
| 2026-01-09T21:10 | 11.93091 | -117.02805 | 0.055 | 8.2 |
| 2026-01-09T21:20 | 11.93082 | -117.02807 | 0.035 | 193.3 |
| 2026-01-09T21:30 | 11.93081 | -117.02810 | 0.012 | 251.9 |
| 2026-01-09T21:40 | 11.93077 | -117.02807 | 0.018 | 131.5 |
| 2026-01-09T21:50 | 11.93084 | -117.02817 | 0.045 | 303.6 |
| 2026-01-09T22:00 | 11.93080 | -117.02807 | 0.039 | 110.5 |
| 2026-01-09T22:10 | 11.93001 | -117.01879 | 3.285 | 94.9 |
| 2026-01-09T22:20 | 11.92804 | -117.01659 | 1.050 | 132.2 |
| 2026-01-09T22:30 | 11.92704 | -117.01490 | 0.695 | 121.0 |
| 2026-01-09T22:40 | 11.92702 | -117.01485 | 0.019 | 115.0 |
| 2026-01-09T22:50 | 11.92711 | -117.01496 | 0.051 | 307.5 |
| 2026-01-09T23:00 | 11.92605 | -117.01453 | 0.407 | 158.1 |
| 2026-01-09T23:10 | 11.92608 | -117.01462 | 0.032 | 287.9 |
| 2026-01-09T23:20 | 11.92225 | -117.01300 | 1.485 | 157.4 |
| 2026-01-09T23:30 | 11.90922 | -117.01189 | 4.685 | 175.2 |
| 2026-01-09T23:40 | 11.91220 | -117.01025 | 1.213 | 28.5 |
| 2026-01-09T23:50 | 11.91253 | -117.00971 | 0.223 | 57.6 |
| 2026-01-10T00:00 | 11.91262 | -117.00954 | 0.070 | 62.3 |
| 2026-01-10T00:10 | 11.91258 | -117.00935 | 0.070 | 103.1 |
| 2026-01-10T00:20 | 11.92415 | -117.00041 | 5.206 | 37.2 |
| 2026-01-10T00:30 | 11.92510 | -116.99911 | 0.572 | 53.4 |
| 2026-01-10T00:40 | 11.94495 | -117.00453 | 7.364 | 344.9 |
| 2026-01-10T00:50 | 11.95997 | -117.00415 | 5.380 | 1.4 |
| 2026-01-10T01:00 | 11.95938 | -117.00455 | 0.255 | 213.8 |
| 2026-01-10T01:10 | 11.95739 | -117.00091 | 1.470 | 119.0 |
| 2026-01-10T01:20 | 11.93763 | -117.01820 | 9.342 | 220.8 |
| 2026-01-10T01:30 | 11.92997 | -117.02882 | 4.644 | 233.8 |
| 2026-01-10T01:40 | 11.93040 | -117.02818 | 0.272 | 56.0 |
| 2026-01-10T01:50 | 11.93073 | -117.02822 | 0.118 | 353.3 |
| 2026-01-10T02:00 | 11.93080 | -117.02817 | 0.032 | 33.8 |
| 2026-01-10T02:10 | 11.93066 | -117.02814 | 0.051 | 165.1 |
| 2026-01-10T02:20 | 11.93070 | -117.02811 | 0.015 | 31.8 |
| 2026-01-10T02:30 | 11.93070 | -117.02822 | 0.037 | 272.2 |
| 2026-01-10T02:40 | 11.93087 | -117.02810 | 0.073 | 33.7 |
| 2026-01-10T02:50 | 11.93087 | -117.02811 | 0.003 | 245.7 |
| 2026-01-10T03:00 | 11.93089 | -117.02810 | 0.010 | 34.4 |
| 2026-01-10T03:10 | 11.93088 | -117.02810 | 0.007 | 207.5 |
| 2026-01-10T03:20 | 11.93090 | -117.02809 | 0.011 | 32.8 |
| 2026-01-10T03:30 | 11.93085 | -117.02813 | 0.022 | 222.6 |
| 2026-01-10T03:40 | 11.93088 | -117.02802 | 0.041 | 76.2 |
| 2026-01-10T03:50 | 11.93087 | -117.02812 | 0.036 | 260.4 |
| 2026-01-10T04:00 | 11.93083 | -117.02801 | 0.040 | 108.2 |
| 2026-01-10T04:10 | 11.93086 | -117.02801 | 0.010 | 4.0 |
| 2026-01-10T04:20 | 11.93084 | -117.02801 | 0.008 | 190.6 |
| 2026-01-10T04:30 | 11.93076 | -117.02793 | 0.040 | 133.3 |
| 2026-01-10T04:40 | 11.93086 | -117.02797 | 0.038 | 340.2 |
| 2026-01-10T04:50 | 11.93083 | -117.02793 | 0.019 | 131.7 |
| 2026-01-10T05:00 | 11.93078 | -117.02800 | 0.028 | 237.9 |
| 2026-01-10T05:10 | 11.93084 | -117.02787 | 0.048 | 62.5 |
| 2026-01-10T05:20 | 11.93079 | -117.02791 | 0.023 | 214.5 |
| 2026-01-10T05:30 | 11.93080 | -117.02790 | 0.006 | 56.9 |
| 2026-01-10T05:40 | 11.93077 | -117.02786 | 0.016 | 130.9 |
| 2026-01-10T05:50 | 11.93077 | -117.02782 | 0.017 | 92.5 |
| 2026-01-10T06:00 | 11.93078 | -117.02792 | 0.037 | 272.8 |
| 2026-01-10T06:10 | 11.93072 | -117.02787 | 0.027 | 140.3 |
| 2026-01-10T06:20 | 11.93076 | -117.02791 | 0.019 | 319.1 |
| 2026-01-10T06:30 | 11.93075 | -117.02784 | 0.026 | 98.6 |
| 2026-01-10T06:40 | 11.93081 | -117.02793 | 0.038 | 303.4 |
| 2026-01-10T06:50 | 11.93074 | -117.02784 | 0.038 | 129.7 |
| 2026-01-10T07:00 | 11.93074 | -117.02785 | 0.002 | 348.9 |
| 2026-01-10T07:10 | 11.93083 | -117.02790 | 0.036 | 329.8 |
| 2026-01-10T07:20 | 11.93075 | -117.02745 | 0.160 | 100.0 |
| 2026-01-10T07:30 | 11.93083 | -117.02736 | 0.043 | 52.0 |
| 2026-01-10T07:40 | 11.93082 | -117.02745 | 0.034 | 264.0 |
| 2026-01-10T07:50 | 11.93079 | -117.02733 | 0.046 | 104.8 |
| 2026-01-10T08:00 | 11.93085 | -117.02746 | 0.053 | 296.8 |
| 2026-01-10T08:10 | 11.93080 | -117.02734 | 0.045 | 111.3 |
| 2026-01-10T08:20 | 11.93090 | -117.02743 | 0.048 | 314.5 |
| 2026-01-10T08:30 | 11.93075 | -117.02738 | 0.056 | 160.8 |
| 2026-01-10T08:40 | 11.93081 | -117.02733 | 0.029 | 38.6 |
| 2026-01-10T08:50 | 11.93082 | -117.02737 | 0.016 | 283.3 |
| 2026-01-10T09:00 | 11.93088 | -117.02739 | 0.020 | 343.4 |
| 2026-01-10T09:10 | 11.93080 | -117.02733 | 0.034 | 138.8 |
| 2026-01-10T09:20 | 11.93086 | -117.02740 | 0.032 | 304.6 |
| 2026-01-10T09:30 | 11.93076 | -117.02734 | 0.039 | 149.3 |
| 2026-01-10T09:40 | 11.93089 | -117.02738 | 0.048 | 343.3 |
| 2026-01-10T09:50 | 11.93082 | -117.02735 | 0.027 | 156.8 |
| 2026-01-10T10:00 | 11.93083 | -117.02742 | 0.022 | 273.8 |
| 2026-01-10T10:10 | 11.93084 | -117.02737 | 0.017 | 69.7 |
| 2026-01-10T10:20 | 11.93108 | -117.02612 | 0.449 | 79.0 |
| 2026-01-10T10:30 | 11.93135 | -117.02470 | 0.509 | 79.2 |
| 2026-01-10T10:40 | 11.93143 | -117.02472 | 0.030 | 346.5 |
| 2026-01-10T10:50 | 11.93148 | -117.02471 | 0.019 | 10.9 |
| 2026-01-10T11:00 | 11.93141 | -117.02472 | 0.024 | 185.0 |
| 2026-01-10T11:10 | 11.93139 | -117.02474 | 0.009 | 215.1 |
| 2026-01-10T11:20 | 11.93144 | -117.02467 | 0.029 | 52.6 |
| 2026-01-10T11:30 | 11.93142 | -117.02475 | 0.030 | 255.6 |
| 2026-01-10T11:40 | 11.93139 | -117.02466 | 0.034 | 111.2 |
| 2026-01-10T11:50 | 11.93143 | -117.02471 | 0.021 | 313.4 |
| 2026-01-10T12:00 | 11.93143 | -117.02470 | 0.002 | 44.6 |
| 2026-01-10T12:10 | 11.93143 | -117.02467 | 0.012 | 90.0 |
| 2026-01-10T12:20 | 11.93149 | -117.02472 | 0.026 | 319.2 |
| 2026-01-10T12:30 | 11.93146 | -117.02467 | 0.019 | 120.3 |
| 2026-01-10T12:40 | 11.93144 | -117.02477 | 0.036 | 255.1 |
| 2026-01-10T12:50 | 11.93140 | -117.02471 | 0.023 | 119.3 |
| 2026-01-10T13:00 | 11.93144 | -117.02475 | 0.019 | 312.4 |
| 2026-01-10T13:10 | 11.93147 | -117.02477 | 0.011 | 329.7 |
| 2026-01-10T13:20 | 11.93146 | -117.02467 | 0.036 | 95.1 |
| 2026-01-10T13:30 | 11.93139 | -117.02476 | 0.042 | 231.8 |
| 2026-01-10T13:40 | 11.93146 | -117.02469 | 0.035 | 39.7 |
| 2026-01-10T13:50 | 11.93145 | -117.02472 | 0.010 | 258.1 |
| 2026-01-10T14:00 | 11.93137 | -117.02467 | 0.037 | 146.4 |
| 2026-01-10T14:10 | 11.93143 | -117.02467 | 0.023 | 354.6 |
| 2026-01-10T14:20 | 11.93139 | -117.02469 | 0.018 | 204.2 |
| 2026-01-10T14:30 | 11.93141 | -117.02463 | 0.025 | 72.3 |
| 2026-01-10T14:40 | 11.93135 | -117.02464 | 0.023 | 191.7 |
| 2026-01-10T14:50 | 11.93135 | -117.02461 | 0.011 | 90.0 |
| 2026-01-10T15:00 | 11.93140 | -117.02463 | 0.023 | 338.5 |
| 2026-01-10T15:10 | 11.93137 | -117.02461 | 0.013 | 148.1 |
| 2026-01-10T15:20 | 11.93137 | -117.02466 | 0.016 | 259.8 |
| 2026-01-10T15:30 | 11.93130 | -117.02461 | 0.031 | 144.3 |
| 2026-01-10T15:40 | 11.93107 | -117.02462 | 0.080 | 182.5 |
| 2026-01-10T15:50 | 11.93104 | -117.02457 | 0.019 | 125.0 |
| 2026-01-10T16:00 | 11.93114 | -117.02459 | 0.034 | 348.7 |
| 2026-01-10T16:10 | 11.93098 | -117.02459 | 0.056 | 178.9 |
| 2026-01-10T16:20 | 11.93097 | -117.02458 | 0.006 | 145.7 |
| 2026-01-10T16:30 | 11.93104 | -117.02460 | 0.026 | 342.1 |
| 2026-01-10T16:40 | 11.93107 | -117.02461 | 0.011 | 343.0 |
| 2026-01-10T16:50 | 11.93102 | -117.02464 | 0.018 | 214.2 |
| 2026-01-10T17:00 | 11.93098 | -117.02457 | 0.028 | 121.5 |
| 2026-01-10T17:10 | 11.93101 | -117.02455 | 0.010 | 37.3 |
| 2026-01-10T17:20 | 11.93097 | -117.02461 | 0.025 | 235.4 |
| 2026-01-10T17:30 | 11.93091 | -117.02457 | 0.024 | 142.7 |
| 2026-01-10T17:40 | 11.93091 | -117.02463 | 0.019 | 270.0 |
| 2026-01-10T17:50 | 11.93097 | -117.02462 | 0.022 | 2.8 |
| 2026-01-10T18:00 | 11.93098 | -117.02459 | 0.013 | 78.8 |
| 2026-01-10T18:10 | 11.93096 | -117.02463 | 0.018 | 247.2 |
| 2026-01-10T18:20 | 11.93095 | -117.02461 | 0.009 | 116.9 |
| 2026-01-10T18:30 | 11.93090 | -117.02460 | 0.017 | 162.6 |
| 2026-01-10T18:40 | 11.93091 | -117.02462 | 0.009 | 286.5 |
| 2026-01-10T18:50 | 11.93097 | -117.02466 | 0.024 | 325.8 |
| 2026-01-10T19:00 | 11.93090 | -117.02462 | 0.026 | 152.4 |
| 2026-01-10T19:10 | 11.93094 | -117.02466 | 0.019 | 318.4 |
| 2026-01-10T19:20 | 11.93090 | -117.02462 | 0.020 | 133.3 |
| 2026-01-10T19:30 | 11.93093 | -117.02461 | 0.009 | 16.7 |
| 2026-01-10T19:40 | 11.93096 | -117.02457 | 0.018 | 48.5 |
| 2026-01-10T19:50 | 11.93100 | -117.02459 | 0.016 | 339.9 |
| 2026-01-10T20:00 | 11.93101 | -117.02461 | 0.010 | 285.3 |
| 2026-01-10T20:10 | 11.93101 | -117.02460 | 0.004 | 84.7 |
| 2026-01-10T20:20 | 11.93098 | -117.02458 | 0.015 | 147.1 |
| 2026-01-10T20:30 | 11.93100 | -117.02458 | 0.007 | 3.0 |
| 2026-01-10T20:40 | 11.93097 | -117.02464 | 0.022 | 245.2 |
| 2026-01-10T20:50 | 11.93100 | -117.02453 | 0.040 | 72.4 |
| 2026-01-10T21:00 | 11.93103 | -117.02463 | 0.039 | 282.7 |
| 2026-01-10T21:10 | 11.93102 | -117.02459 | 0.015 | 94.2 |
| 2026-01-10T21:20 | 11.93100 | -117.02458 | 0.009 | 156.8 |
| 2026-01-10T21:30 | 11.93105 | -117.02460 | 0.019 | 338.1 |
| 2026-01-10T21:40 | 11.93102 | -117.02460 | 0.009 | 173.5 |
| 2026-01-10T21:50 | 11.93100 | -117.02459 | 0.010 | 163.7 |
| 2026-01-10T22:00 | 11.93069 | -117.02447 | 0.117 | 159.1 |
| 2026-01-10T22:10 | 11.93067 | -117.02441 | 0.024 | 110.5 |
| 2026-01-10T22:20 | 11.93067 | -117.02438 | 0.011 | 86.2 |
| 2026-01-10T22:30 | 11.93078 | -117.02442 | 0.042 | 337.2 |
| 2026-01-10T22:40 | 11.93070 | -117.02436 | 0.036 | 143.8 |
| 2026-01-10T22:50 | 11.93075 | -117.02438 | 0.019 | 336.7 |
| 2026-01-10T23:00 | 11.93066 | -117.02440 | 0.030 | 191.0 |
| 2026-01-10T23:10 | 11.93068 | -117.02437 | 0.013 | 57.2 |
| 2026-01-10T23:20 | 11.93077 | -117.02439 | 0.031 | 346.6 |
| 2026-01-10T23:30 | 11.93075 | -117.02436 | 0.013 | 119.1 |
| 2026-01-10T23:40 | 11.93073 | -117.02442 | 0.022 | 252.2 |
| 2026-01-10T23:50 | 11.93075 | -117.02443 | 0.007 | 339.1 |
| 2026-01-11T00:00 | 11.93065 | -117.02437 | 0.041 | 153.1 |
| 2026-01-11T00:10 | 11.93065 | -117.02442 | 0.015 | 270.0 |
| 2026-01-11T00:20 | 11.93066 | -117.02446 | 0.017 | 286.0 |
| 2026-01-11T00:30 | 11.93067 | -117.02445 | 0.005 | 57.1 |
| 2026-01-11T00:40 | 11.93063 | -117.02439 | 0.024 | 121.5 |
| 2026-01-11T00:50 | 11.93063 | -117.02443 | 0.014 | 267.2 |
| 2026-01-11T01:00 | 11.93066 | -117.02439 | 0.019 | 52.9 |
| 2026-01-11T01:10 | 11.93070 | -117.02440 | 0.015 | 350.5 |
| 2026-01-11T01:20 | 11.93063 | -117.02440 | 0.026 | 185.6 |
| 2026-01-11T01:30 | 11.93073 | -117.02442 | 0.038 | 349.2 |
| 2026-01-11T01:40 | 11.93054 | -117.02438 | 0.070 | 168.1 |
| 2026-01-11T01:50 | 11.93050 | -117.02445 | 0.027 | 233.6 |
| 2026-01-11T02:00 | 11.93054 | -117.02440 | 0.020 | 47.4 |
| 2026-01-11T02:10 | 11.93054 | -117.02434 | 0.022 | 85.2 |
| 2026-01-11T02:20 | 11.93086 | -117.02431 | 0.114 | 5.9 |
| 2026-01-11T02:30 | 11.93094 | -117.02461 | 0.110 | 285.9 |
| 2026-01-11T02:40 | 11.93088 | -117.02462 | 0.021 | 192.9 |
| 2026-01-11T02:50 | 11.93110 | -117.02462 | 0.076 | 0.8 |
| 2026-01-11T03:00 | 11.93093 | -117.02484 | 0.099 | 232.9 |
| 2026-01-11T03:10 | 11.93122 | -117.02496 | 0.111 | 338.9 |
| 2026-01-11T03:20 | 11.93125 | -117.02496 | 0.011 | 351.0 |
| 2026-01-11T03:30 | 11.93127 | -117.02497 | 0.010 | 331.9 |
| 2026-01-11T03:40 | 11.93121 | -117.02502 | 0.026 | 215.7 |
| 2026-01-11T03:50 | 11.93123 | -117.02501 | 0.005 | 41.8 |
| 2026-01-11T04:00 | 11.93128 | -117.02497 | 0.023 | 34.3 |
| 2026-01-11T04:10 | 11.93128 | -117.02503 | 0.020 | 275.1 |
| 2026-01-11T04:20 | 11.93130 | -117.02506 | 0.014 | 290.5 |
| 2026-01-11T04:30 | 11.93134 | -117.02512 | 0.025 | 304.3 |
| 2026-01-11T04:40 | 11.93137 | -117.02511 | 0.014 | 15.9 |
| 2026-01-11T04:50 | 11.93133 | -117.02511 | 0.015 | 174.8 |
| 2026-01-11T05:00 | 11.93132 | -117.02501 | 0.034 | 96.6 |
| 2026-01-11T05:10 | 11.93129 | -117.02503 | 0.014 | 206.2 |
| 2026-01-11T05:20 | 11.93134 | -117.02511 | 0.035 | 300.9 |
| 2026-01-11T05:30 | 11.93132 | -117.02519 | 0.027 | 257.0 |
| 2026-01-11T05:40 | 11.93130 | -117.02537 | 0.066 | 265.0 |
| 2026-01-11T05:50 | 11.93129 | -117.02536 | 0.006 | 123.1 |
| 2026-01-11T06:00 | 11.93135 | -117.02537 | 0.021 | 352.1 |
| 2026-01-11T06:10 | 11.93139 | -117.02547 | 0.037 | 291.5 |
| 2026-01-11T06:20 | 11.93132 | -117.02558 | 0.046 | 239.1 |
| 2026-01-11T06:30 | 11.93134 | -117.02559 | 0.007 | 327.5 |
| 2026-01-11T06:40 | 11.93128 | -117.02559 | 0.020 | 181.0 |
| 2026-01-11T06:50 | 11.93136 | -117.02564 | 0.033 | 327.9 |
| 2026-01-11T07:00 | 11.93148 | -117.02559 | 0.047 | 22.1 |
| 2026-01-11T07:10 | 11.93145 | -117.02557 | 0.014 | 150.6 |
| 2026-01-11T07:20 | 11.93142 | -117.02563 | 0.023 | 243.5 |
| 2026-01-11T07:30 | 11.93147 | -117.02558 | 0.026 | 44.6 |
| 2026-01-11T07:40 | 11.93140 | -117.02560 | 0.025 | 202.2 |
| 2026-01-11T07:50 | 11.93135 | -117.02547 | 0.051 | 111.2 |
| 2026-01-11T08:00 | 11.93143 | -117.02548 | 0.029 | 349.7 |
| 2026-01-11T08:10 | 11.93138 | -117.02544 | 0.025 | 138.9 |
| 2026-01-11T08:20 | 11.93142 | -117.02543 | 0.014 | 10.3 |
| 2026-01-11T08:30 | 11.93141 | -117.02548 | 0.018 | 258.7 |
| 2026-01-11T08:40 | 11.93125 | -117.02525 | 0.097 | 124.6 |
| 2026-01-11T08:50 | 11.93060 | -117.02468 | 0.309 | 139.4 |
| 2026-01-11T09:00 | 11.93062 | -117.02465 | 0.016 | 54.8 |
| 2026-01-11T09:10 | 11.93054 | -117.02481 | 0.064 | 241.1 |
| 2026-01-11T09:20 | 11.93070 | -117.02522 | 0.156 | 291.7 |
| 2026-01-11T09:30 | 11.93068 | -117.02526 | 0.015 | 249.2 |
| 2026-01-11T09:40 | 11.93079 | -117.02525 | 0.039 | 3.1 |
| 2026-01-11T09:50 | 11.93068 | -117.02525 | 0.039 | 179.0 |
| 2026-01-11T10:00 | 11.93070 | -117.02524 | 0.008 | 10.6 |
| 2026-01-11T10:10 | 11.93070 | -117.02525 | 0.002 | 247.9 |
| 2026-01-11T10:20 | 11.93068 | -117.02527 | 0.010 | 221.7 |
| 2026-01-11T10:30 | 11.93072 | -117.02527 | 0.015 | 350.5 |
| 2026-01-11T10:40 | 11.93072 | -117.02523 | 0.016 | 98.8 |
| 2026-01-11T10:50 | 11.93073 | -117.02530 | 0.025 | 282.6 |
| 2026-01-11T11:00 | 11.93071 | -117.02531 | 0.009 | 227.9 |
| 2026-01-11T11:10 | 11.93073 | -117.02499 | 0.113 | 86.9 |
| 2026-01-11T11:20 | 11.93074 | -117.02457 | 0.149 | 89.3 |
| 2026-01-11T11:30 | 11.93071 | -117.02400 | 0.203 | 92.6 |
| 2026-01-11T11:40 | 11.93073 | -117.02376 | 0.083 | 85.5 |
| 2026-01-11T11:50 | 11.93074 | -117.02379 | 0.010 | 298.7 |
| 2026-01-11T12:00 | 11.93074 | -117.02375 | 0.012 | 90.0 |
| 2026-01-11T12:10 | 11.93070 | -117.02374 | 0.018 | 157.3 |
| 2026-01-11T12:20 | 11.93072 | -117.02376 | 0.014 | 312.2 |
| 2026-01-11T12:30 | 11.93066 | -117.02374 | 0.024 | 155.0 |
| 2026-01-11T12:40 | 11.93069 | -117.02372 | 0.010 | 21.5 |
| 2026-01-11T12:50 | 11.93072 | -117.02374 | 0.014 | 340.9 |
| 2026-01-11T13:00 | 11.93073 | -117.02376 | 0.008 | 286.2 |
| 2026-01-11T13:10 | 11.93068 | -117.02374 | 0.020 | 160.2 |
| 2026-01-11T13:20 | 11.93071 | -117.02378 | 0.018 | 304.4 |
| 2026-01-11T13:30 | 11.93068 | -117.02372 | 0.025 | 111.8 |
| 2026-01-11T13:40 | 11.93071 | -117.02379 | 0.028 | 295.3 |
| 2026-01-11T13:50 | 11.93065 | -117.02372 | 0.035 | 133.8 |
| 2026-01-11T14:00 | 11.93066 | -117.02375 | 0.014 | 292.4 |
| 2026-01-11T14:10 | 11.93067 | -117.02372 | 0.011 | 63.9 |
| 2026-01-11T14:20 | 11.93056 | -117.02359 | 0.063 | 131.3 |
| 2026-01-11T14:30 | 11.93025 | -117.02338 | 0.131 | 146.0 |
| 2026-01-11T14:40 | 11.92976 | -117.02368 | 0.204 | 210.7 |
| 2026-01-11T14:50 | 11.92974 | -117.02416 | 0.171 | 266.9 |
| 2026-01-11T15:00 | 11.92970 | -117.02486 | 0.247 | 267.1 |
| 2026-01-11T15:10 | 11.92968 | -117.02493 | 0.027 | 253.2 |
| 2026-01-11T15:20 | 11.92970 | -117.02492 | 0.008 | 23.9 |
| 2026-01-11T15:30 | 11.92969 | -117.02490 | 0.010 | 124.1 |
| 2026-01-11T15:40 | 11.92967 | -117.02485 | 0.018 | 109.1 |
| 2026-01-11T15:50 | 11.92970 | -117.02493 | 0.030 | 292.6 |
| 2026-01-11T16:00 | 11.92962 | -117.02490 | 0.032 | 158.4 |
| 2026-01-11T16:10 | 11.92964 | -117.02495 | 0.020 | 295.5 |
| 2026-01-11T16:20 | 11.92960 | -117.02492 | 0.018 | 150.8 |
| 2026-01-11T16:30 | 11.92969 | -117.02497 | 0.038 | 333.8 |
| 2026-01-11T16:40 | 11.92965 | -117.02491 | 0.026 | 128.7 |
| 2026-01-11T16:50 | 11.92964 | -117.02495 | 0.012 | 250.2 |
| 2026-01-11T17:00 | 11.92970 | -117.02497 | 0.025 | 335.6 |
| 2026-01-11T17:10 | 11.92979 | -117.02527 | 0.109 | 286.3 |
| 2026-01-11T17:20 | 11.92985 | -117.02519 | 0.037 | 50.7 |
| 2026-01-11T17:30 | 11.92980 | -117.02527 | 0.034 | 234.9 |
| 2026-01-11T17:40 | 11.92988 | -117.02523 | 0.034 | 26.2 |
| 2026-01-11T17:50 | 11.92982 | -117.02519 | 0.027 | 149.0 |
| 2026-01-11T18:00 | 11.92985 | -117.02524 | 0.024 | 301.5 |
| 2026-01-11T18:10 | 11.92982 | -117.02526 | 0.011 | 207.8 |
| 2026-01-11T18:20 | 11.93041 | -117.02465 | 0.300 | 45.9 |
| 2026-01-11T18:30 | 11.93066 | -117.02443 | 0.120 | 40.1 |
| 2026-01-11T18:40 | 11.93075 | -117.02438 | 0.034 | 26.7 |
| 2026-01-11T18:50 | 11.93070 | -117.02435 | 0.020 | 147.0 |
| 2026-01-11T19:00 | 11.93074 | -117.02439 | 0.018 | 316.2 |
| 2026-01-11T19:10 | 11.93075 | -117.02436 | 0.011 | 63.1 |
| 2026-01-11T19:20 | 11.93067 | -117.02440 | 0.033 | 202.9 |
| 2026-01-11T19:30 | 11.93067 | -117.02435 | 0.016 | 90.0 |
| 2026-01-11T19:40 | 11.93061 | -117.02441 | 0.029 | 224.6 |
| 2026-01-11T19:50 | 11.93066 | -117.02443 | 0.017 | 334.3 |
| 2026-01-11T20:00 | 11.93067 | -117.02439 | 0.016 | 68.8 |
| 2026-01-11T20:10 | 11.93077 | -117.02465 | 0.098 | 290.9 |
| 2026-01-11T20:20 | 11.93096 | -117.02492 | 0.116 | 305.8 |
| 2026-01-11T20:30 | 11.93106 | -117.02502 | 0.051 | 311.7 |
| 2026-01-11T20:40 | 11.93103 | -117.02504 | 0.013 | 215.5 |
| 2026-01-11T20:50 | 11.93106 | -117.02505 | 0.011 | 345.7 |
| 2026-01-11T21:00 | 11.93111 | -117.02509 | 0.022 | 325.9 |
| 2026-01-11T21:10 | 11.93110 | -117.02511 | 0.008 | 239.6 |
| 2026-01-11T21:20 | 11.93109 | -117.02507 | 0.014 | 105.3 |
| 2026-01-11T21:30 | 11.93104 | -117.02503 | 0.021 | 137.5 |
| 2026-01-11T21:40 | 11.93103 | -117.02506 | 0.011 | 241.4 |
| 2026-01-11T21:50 | 11.93105 | -117.02509 | 0.015 | 296.9 |
| 2026-01-11T22:00 | 11.93103 | -117.02510 | 0.005 | 216.4 |
| 2026-01-11T22:10 | 11.93107 | -117.02505 | 0.023 | 60.3 |
| 2026-01-11T22:20 | 11.93110 | -117.02507 | 0.015 | 319.2 |
| 2026-01-11T22:30 | 11.93102 | -117.02505 | 0.031 | 164.1 |
| 2026-01-11T22:40 | 11.93111 | -117.02508 | 0.034 | 343.3 |
| 2026-01-11T22:50 | 11.93110 | -117.02506 | 0.007 | 105.0 |
| 2026-01-11T23:00 | 11.93108 | -117.02504 | 0.011 | 149.7 |
| 2026-01-11T23:10 | 11.93100 | -117.02504 | 0.026 | 179.2 |
| 2026-01-11T23:20 | 11.93109 | -117.02509 | 0.035 | 331.2 |
| 2026-01-11T23:30 | 11.93110 | -117.02508 | 0.005 | 64.9 |
| 2026-01-11T23:40 | 11.93112 | -117.02476 | 0.111 | 86.1 |
| 2026-01-11T23:50 | 11.93121 | -117.02473 | 0.037 | 19.8 |
| 2026-01-12T00:00 | 11.93117 | -117.02463 | 0.039 | 115.0 |
| 2026-01-12T00:10 | 11.93125 | -117.02464 | 0.028 | 354.2 |
| 2026-01-12T00:20 | 11.93125 | -117.02462 | 0.005 | 61.3 |
| 2026-01-12T00:30 | 11.93118 | -117.02456 | 0.036 | 138.3 |
| 2026-01-12T00:40 | 11.93109 | -117.02447 | 0.043 | 137.1 |
| 2026-01-12T00:50 | 11.93091 | -117.02422 | 0.110 | 126.0 |
| 2026-01-12T01:00 | 11.93088 | -117.02423 | 0.012 | 190.5 |
| 2026-01-12T01:10 | 11.93087 | -117.02424 | 0.004 | 251.3 |
| 2026-01-12T01:20 | 11.93092 | -117.02426 | 0.018 | 340.4 |
| 2026-01-12T01:30 | 11.93089 | -117.02421 | 0.020 | 126.1 |
| 2026-01-12T01:40 | 11.93085 | -117.02425 | 0.018 | 229.5 |
| 2026-01-12T01:50 | 11.93092 | -117.02426 | 0.024 | 351.4 |
| 2026-01-12T02:00 | 11.93085 | -117.02428 | 0.026 | 199.2 |
| 2026-01-12T02:10 | 11.93086 | -117.02425 | 0.013 | 78.5 |
| 2026-01-12T02:20 | 11.93087 | -117.02422 | 0.009 | 73.5 |
| 2026-01-12T02:30 | 11.93089 | -117.02422 | 0.008 | 357.3 |
| 2026-01-12T02:40 | 11.93084 | -117.02424 | 0.019 | 200.9 |
| 2026-01-12T02:50 | 11.93087 | -117.02423 | 0.012 | 25.5 |
| 2026-01-12T03:00 | 11.93087 | -117.02420 | 0.011 | 82.8 |
| 2026-01-12T03:10 | 11.93087 | -117.02426 | 0.021 | 271.0 |
| 2026-01-12T03:20 | 11.93089 | -117.02425 | 0.007 | 5.9 |
| 2026-01-12T03:30 | 11.93092 | -117.02425 | 0.009 | 14.4 |
| 2026-01-12T03:40 | 11.93093 | -117.02425 | 0.004 | 11.1 |
| 2026-01-12T03:50 | 11.93093 | -117.02421 | 0.013 | 80.1 |
| 2026-01-12T04:00 | 11.93084 | -117.02430 | 0.045 | 223.6 |
| 2026-01-12T04:10 | 11.93083 | -117.02423 | 0.026 | 100.2 |
| 2026-01-12T04:20 | 11.93094 | -117.02421 | 0.041 | 4.9 |
| 2026-01-12T04:30 | 11.93087 | -117.02447 | 0.094 | 252.7 |
| 2026-01-12T04:40 | 11.93085 | -117.02463 | 0.058 | 264.7 |
| 2026-01-12T04:50 | 11.93087 | -117.02455 | 0.031 | 78.7 |
| 2026-01-12T05:00 | 11.93087 | -117.02454 | 0.005 | 94.5 |
| 2026-01-12T05:10 | 11.93086 | -117.02452 | 0.005 | 115.1 |
| 2026-01-12T05:20 | 11.93086 | -117.02452 | 0.001 | 198.2 |
| 2026-01-12T05:30 | 11.93102 | -117.02445 | 0.062 | 25.5 |
| 2026-01-12T05:40 | 11.93121 | -117.02440 | 0.074 | 13.3 |
| 2026-01-12T05:50 | 11.93128 | -117.02443 | 0.026 | 336.6 |
| 2026-01-12T06:00 | 11.93156 | -117.02457 | 0.113 | 333.6 |
| 2026-01-12T06:10 | 11.93177 | -117.02475 | 0.096 | 319.5 |
| 2026-01-12T06:20 | 11.93217 | -117.02509 | 0.188 | 319.8 |
| 2026-01-12T06:30 | 11.93216 | -117.02508 | 0.004 | 145.4 |
| 2026-01-12T06:40 | 11.93216 | -117.02513 | 0.017 | 271.2 |
| 2026-01-12T06:50 | 11.93219 | -117.02512 | 0.011 | 14.7 |
| 2026-01-12T07:00 | 11.93220 | -117.02509 | 0.012 | 58.3 |
| 2026-01-12T07:10 | 11.93217 | -117.02505 | 0.020 | 129.6 |
| 2026-01-12T07:20 | 11.93209 | -117.02512 | 0.036 | 221.4 |
| 2026-01-12T07:30 | 11.93222 | -117.02507 | 0.047 | 21.2 |
| 2026-01-12T07:40 | 11.93213 | -117.02506 | 0.032 | 175.0 |
| 2026-01-12T07:50 | 11.93192 | -117.02491 | 0.093 | 144.3 |
| 2026-01-12T08:00 | 11.93164 | -117.02473 | 0.119 | 147.3 |
| 2026-01-12T08:10 | 11.93129 | -117.02459 | 0.136 | 158.3 |
| 2026-01-12T08:20 | 11.93082 | -117.02445 | 0.175 | 163.6 |
| 2026-01-12T08:30 | 11.93058 | -117.02436 | 0.091 | 160.6 |
| 2026-01-12T08:40 | 11.93045 | -117.02432 | 0.048 | 163.3 |
| 2026-01-12T08:50 | 11.93046 | -117.02432 | 0.004 | 354.9 |
| 2026-01-12T09:00 | 11.93045 | -117.02436 | 0.015 | 251.3 |
| 2026-01-12T09:10 | 11.93043 | -117.02434 | 0.010 | 135.4 |
| 2026-01-12T09:20 | 11.93024 | -117.02419 | 0.086 | 141.5 |
| 2026-01-12T09:30 | 11.92959 | -117.02367 | 0.295 | 141.6 |
| 2026-01-12T09:40 | 11.92893 | -117.02249 | 0.481 | 119.5 |
| 2026-01-12T09:50 | 11.92841 | -117.02147 | 0.406 | 117.7 |
| 2026-01-12T10:00 | 11.92801 | -117.02071 | 0.304 | 117.8 |
| 2026-01-12T10:10 | 11.92760 | -117.01998 | 0.296 | 119.5 |
| 2026-01-12T10:20 | 11.92717 | -117.01918 | 0.319 | 119.1 |
| 2026-01-12T10:30 | 11.92681 | -117.01845 | 0.289 | 116.3 |
| 2026-01-12T10:40 | 11.92642 | -117.01770 | 0.299 | 118.0 |
| 2026-01-12T10:50 | 11.92602 | -117.01697 | 0.296 | 118.9 |
| 2026-01-12T11:00 | 11.92563 | -117.01620 | 0.304 | 117.7 |
| 2026-01-12T11:10 | 11.92524 | -117.01546 | 0.298 | 118.0 |
| 2026-01-12T11:20 | 11.92485 | -117.01470 | 0.301 | 117.7 |
| 2026-01-12T11:30 | 11.92445 | -117.01397 | 0.296 | 118.9 |
| 2026-01-12T11:40 | 11.92405 | -117.01320 | 0.304 | 117.5 |
| 2026-01-12T11:50 | 11.92367 | -117.01245 | 0.299 | 117.2 |
| 2026-01-12T12:00 | 11.92327 | -117.01169 | 0.303 | 118.4 |
| 2026-01-12T12:10 | 11.92289 | -117.01093 | 0.301 | 116.8 |
| 2026-01-12T12:20 | 11.92247 | -117.01018 | 0.304 | 119.7 |
| 2026-01-12T12:30 | 11.92211 | -117.00943 | 0.296 | 116.0 |
| 2026-01-12T12:40 | 11.92169 | -117.00868 | 0.302 | 119.7 |
| 2026-01-12T12:50 | 11.92131 | -117.00794 | 0.295 | 117.6 |
| 2026-01-12T13:00 | 11.92106 | -117.00742 | 0.205 | 115.9 |
| 2026-01-12T13:10 | 11.92083 | -117.00743 | 0.082 | 182.9 |
| 2026-01-12T13:20 | 11.92086 | -117.00747 | 0.016 | 310.9 |
| 2026-01-12T13:30 | 11.92082 | -117.00746 | 0.014 | 174.1 |
| 2026-01-12T13:40 | 11.92081 | -117.00747 | 0.005 | 221.6 |
| 2026-01-12T13:50 | 11.92078 | -117.00749 | 0.012 | 202.4 |
| 2026-01-12T14:00 | 11.92085 | -117.00743 | 0.033 | 36.2 |
| 2026-01-12T14:10 | 11.92084 | -117.00744 | 0.005 | 221.6 |
| 2026-01-12T14:20 | 11.92071 | -117.00791 | 0.174 | 253.9 |
| 2026-01-12T14:30 | 11.92067 | -117.00799 | 0.032 | 245.1 |
| 2026-01-12T14:40 | 11.92069 | -117.00801 | 0.008 | 319.0 |
| 2026-01-12T14:50 | 11.92071 | -117.00798 | 0.012 | 56.9 |
| 2026-01-12T15:00 | 11.92071 | -117.00799 | 0.003 | 320.6 |
| 2026-01-12T15:10 | 11.92077 | -117.00796 | 0.023 | 27.0 |
| 2026-01-12T15:20 | 11.92070 | -117.00801 | 0.033 | 216.3 |
| 2026-01-12T15:30 | 11.92074 | -117.00797 | 0.022 | 40.0 |
| 2026-01-12T15:40 | 11.92074 | -117.00798 | 0.004 | 234.6 |
| 2026-01-12T15:50 | 11.92074 | -117.00797 | 0.005 | 58.0 |
| 2026-01-12T16:00 | 11.92074 | -117.00796 | 0.003 | 97.2 |
| 2026-01-12T16:10 | 11.92073 | -117.00796 | 0.004 | 190.2 |
| 2026-01-12T16:20 | 11.92083 | -117.00823 | 0.101 | 290.1 |
| 2026-01-12T16:30 | 11.92086 | -117.00838 | 0.054 | 282.6 |
| 2026-01-12T16:40 | 11.92079 | -117.00828 | 0.044 | 124.6 |
| 2026-01-12T16:50 | 11.92074 | -117.00821 | 0.031 | 122.5 |
| 2026-01-12T17:00 | 11.92072 | -117.00820 | 0.008 | 156.1 |
| 2026-01-12T17:10 | 11.92066 | -117.00819 | 0.024 | 174.1 |
| 2026-01-12T17:20 | 11.92071 | -117.00820 | 0.018 | 348.6 |
| 2026-01-12T17:30 | 11.92070 | -117.00829 | 0.032 | 263.5 |
| 2026-01-12T17:40 | 11.92077 | -117.00821 | 0.038 | 47.2 |
| 2026-01-12T17:50 | 11.92071 | -117.00823 | 0.022 | 194.9 |
| 2026-01-12T18:00 | 11.92074 | -117.00826 | 0.018 | 310.5 |
| 2026-01-12T18:10 | 11.92075 | -117.00820 | 0.025 | 83.3 |
| 2026-01-12T18:20 | 11.92071 | -117.00816 | 0.018 | 133.8 |
| 2026-01-12T18:30 | 11.92072 | -117.00824 | 0.030 | 274.8 |
| 2026-01-12T18:40 | 11.92074 | -117.00823 | 0.008 | 35.4 |
| 2026-01-12T18:50 | 11.92073 | -117.00813 | 0.035 | 94.7 |
| 2026-01-12T19:00 | 11.92067 | -117.00825 | 0.048 | 242.1 |
| 2026-01-12T19:10 | 11.92065 | -117.00825 | 0.005 | 172.5 |
| 2026-01-12T19:20 | 11.92066 | -117.00825 | 0.004 | 28.2 |
| 2026-01-12T19:30 | 11.91984 | -117.01015 | 0.733 | 246.1 |
| 2026-01-12T19:40 | 11.92646 | -117.02244 | 4.942 | 298.7 |
| 2026-01-12T19:50 | 11.93051 | -117.02653 | 2.045 | 315.1 |
| 2026-01-12T20:00 | 11.93049 | -117.02684 | 0.111 | 266.5 |
| 2026-01-12T20:10 | 11.93062 | -117.02683 | 0.046 | 5.2 |
| 2026-01-12T20:20 | 11.93049 | -117.02681 | 0.045 | 172.9 |
| 2026-01-12T20:30 | 11.93062 | -117.02678 | 0.048 | 12.6 |
| 2026-01-12T20:40 | 11.93052 | -117.02688 | 0.049 | 222.8 |
| 2026-01-12T20:50 | 11.93052 | -117.02681 | 0.023 | 91.8 |
| 2026-01-12T21:00 | 11.93056 | -117.02687 | 0.026 | 301.5 |
| 2026-01-12T21:10 | 11.93062 | -117.02680 | 0.034 | 53.5 |
| 2026-01-12T21:20 | 11.93059 | -117.02685 | 0.022 | 240.2 |
| 2026-01-12T21:30 | 11.93059 | -117.02677 | 0.027 | 88.5 |
| 2026-01-12T21:40 | 11.93052 | -117.02676 | 0.025 | 165.2 |
| 2026-01-12T21:50 | 11.93054 | -117.02679 | 0.014 | 298.9 |
| 2026-01-12T22:00 | 11.93048 | -117.02684 | 0.026 | 217.2 |
| 2026-01-12T22:10 | 11.93049 | -117.02685 | 0.007 | 295.5 |
| 2026-01-12T22:20 | 11.93060 | -117.02677 | 0.047 | 36.2 |
| 2026-01-12T22:30 | 11.93049 | -117.02682 | 0.042 | 204.0 |
| 2026-01-12T22:40 | 11.93051 | -117.02684 | 0.011 | 312.7 |
| 2026-01-12T22:50 | 11.92919 | -117.02579 | 0.602 | 142.0 |
| 2026-01-12T23:00 | 11.92118 | -117.02257 | 3.084 | 158.4 |
| 2026-01-12T23:10 | 11.92067 | -117.02237 | 0.197 | 159.2 |
| 2026-01-12T23:20 | 11.92107 | -117.02125 | 0.420 | 70.0 |
| 2026-01-12T23:30 | 11.92818 | -117.02609 | 3.066 | 326.2 |
| 2026-01-12T23:40 | 11.93074 | -117.02676 | 0.946 | 345.4 |
| 2026-01-12T23:50 | 11.93063 | -117.02662 | 0.065 | 127.9 |
| 2026-01-13T00:00 | 11.93069 | -117.02674 | 0.051 | 298.4 |
| 2026-01-13T00:10 | 11.93065 | -117.02662 | 0.046 | 107.7 |
| 2026-01-13T00:20 | 11.93063 | -117.02661 | 0.009 | 164.0 |
| 2026-01-13T00:30 | 11.93068 | -117.02671 | 0.038 | 297.9 |
| 2026-01-13T00:40 | 11.93069 | -117.02654 | 0.060 | 85.5 |
| 2026-01-13T00:50 | 11.93067 | -117.02653 | 0.007 | 166.2 |
| 2026-01-13T01:00 | 11.93074 | -117.02656 | 0.024 | 337.2 |
| 2026-01-13T01:10 | 11.93080 | -117.02662 | 0.031 | 321.9 |
| 2026-01-13T01:20 | 11.93077 | -117.02657 | 0.020 | 124.1 |
| 2026-01-13T01:30 | 11.93078 | -117.02655 | 0.008 | 77.0 |
| 2026-01-13T01:40 | 11.93071 | -117.02654 | 0.023 | 176.5 |
| 2026-01-13T01:50 | 11.93067 | -117.02655 | 0.014 | 190.0 |
| 2026-01-13T02:00 | 11.93066 | -117.02657 | 0.008 | 240.8 |
| 2026-01-13T02:10 | 11.93074 | -117.02658 | 0.029 | 352.9 |
| 2026-01-13T02:20 | 11.93072 | -117.02653 | 0.019 | 111.1 |
| 2026-01-13T02:30 | 11.93075 | -117.02764 | 0.393 | 271.6 |
| 2026-01-13T02:40 | 11.93078 | -117.02784 | 0.069 | 277.2 |
| 2026-01-13T02:50 | 11.93079 | -117.02788 | 0.017 | 290.3 |
| 2026-01-13T03:00 | 11.93083 | -117.02783 | 0.020 | 54.8 |
| 2026-01-13T03:10 | 11.93076 | -117.02786 | 0.025 | 204.4 |
| 2026-01-13T03:20 | 11.93081 | -117.02783 | 0.021 | 36.8 |
| 2026-01-13T03:30 | 11.93083 | -117.02787 | 0.017 | 294.2 |
| 2026-01-13T03:40 | 11.93076 | -117.02786 | 0.023 | 172.9 |
| 2026-01-13T03:50 | 11.93078 | -117.02781 | 0.018 | 77.4 |
| 2026-01-13T04:00 | 11.93078 | -117.02792 | 0.038 | 273.8 |
| 2026-01-13T04:10 | 11.93075 | -117.02784 | 0.032 | 114.6 |
| 2026-01-13T04:20 | 11.93078 | -117.02794 | 0.036 | 289.1 |
| 2026-01-13T04:30 | 11.93078 | -117.02785 | 0.030 | 90.7 |
| 2026-01-13T04:40 | 11.93078 | -117.02790 | 0.016 | 276.4 |
| 2026-01-13T04:50 | 11.93079 | -117.02788 | 0.006 | 70.3 |
| 2026-01-13T05:00 | 11.93080 | -117.02793 | 0.017 | 279.6 |
| 2026-01-13T05:10 | 11.93082 | -117.02786 | 0.026 | 72.5 |
| 2026-01-13T05:20 | 11.93076 | -117.02785 | 0.022 | 171.0 |
| 2026-01-13T05:30 | 11.93080 | -117.02794 | 0.036 | 296.1 |
| 2026-01-13T05:40 | 11.93077 | -117.02794 | 0.010 | 192.3 |
| 2026-01-13T05:50 | 11.93078 | -117.02741 | 0.189 | 89.7 |
| 2026-01-13T06:00 | 11.93075 | -117.02744 | 0.016 | 230.7 |
| 2026-01-13T06:10 | 11.93074 | -117.02742 | 0.011 | 109.3 |
| 2026-01-13T06:20 | 11.93074 | -117.02745 | 0.014 | 275.9 |
| 2026-01-13T06:30 | 11.93074 | -117.02741 | 0.017 | 92.4 |
| 2026-01-13T06:40 | 11.93080 | -117.02736 | 0.026 | 34.6 |
| 2026-01-13T06:50 | 11.93081 | -117.02745 | 0.032 | 276.4 |
| 2026-01-13T07:00 | 11.93080 | -117.02736 | 0.032 | 97.0 |
| 2026-01-13T07:10 | 11.93079 | -117.02746 | 0.034 | 266.3 |
| 2026-01-13T07:20 | 11.93073 | -117.02739 | 0.033 | 130.2 |
| 2026-01-13T07:30 | 11.93078 | -117.02747 | 0.034 | 302.1 |
| 2026-01-13T07:40 | 11.93074 | -117.02736 | 0.039 | 111.0 |
| 2026-01-13T07:50 | 11.93078 | -117.02746 | 0.037 | 291.5 |
| 2026-01-13T08:00 | 11.93076 | -117.02739 | 0.025 | 106.4 |
| 2026-01-13T08:10 | 11.93074 | -117.02740 | 0.008 | 187.3 |
| 2026-01-13T08:20 | 11.93076 | -117.02734 | 0.021 | 65.3 |
| 2026-01-13T08:30 | 11.93078 | -117.02740 | 0.022 | 288.7 |
| 2026-01-13T08:40 | 11.93081 | -117.02744 | 0.017 | 308.7 |
| 2026-01-13T08:50 | 11.93077 | -117.02738 | 0.027 | 121.6 |
| 2026-01-13T09:00 | 11.93095 | -117.02662 | 0.273 | 76.3 |
| 2026-01-13T09:10 | 11.93090 | -117.02600 | 0.222 | 94.7 |
| 2026-01-13T09:20 | 11.93083 | -117.02490 | 0.388 | 93.8 |
| 2026-01-13T09:30 | 11.93081 | -117.02445 | 0.160 | 92.3 |
| 2026-01-13T09:40 | 11.93079 | -117.02413 | 0.111 | 93.5 |
| 2026-01-13T09:50 | 11.93088 | -117.02418 | 0.037 | 331.3 |
| 2026-01-13T10:00 | 11.93089 | -117.02415 | 0.013 | 82.2 |
| 2026-01-13T10:10 | 11.93092 | -117.02419 | 0.019 | 298.9 |
| 2026-01-13T10:20 | 11.93092 | -117.02421 | 0.008 | 277.6 |
| 2026-01-13T10:30 | 11.93087 | -117.02423 | 0.020 | 193.6 |
| 2026-01-13T10:40 | 11.93087 | -117.02415 | 0.028 | 86.3 |
| 2026-01-13T10:50 | 11.93088 | -117.02413 | 0.006 | 69.2 |
| 2026-01-13T11:00 | 11.93088 | -117.02415 | 0.007 | 287.8 |
| 2026-01-13T11:10 | 11.93087 | -117.02416 | 0.005 | 213.3 |
| 2026-01-13T11:20 | 11.93089 | -117.02420 | 0.016 | 299.2 |
| 2026-01-13T11:30 | 11.93092 | -117.02420 | 0.010 | 3.9 |
| 2026-01-13T11:40 | 11.93089 | -117.02421 | 0.012 | 195.5 |
| 2026-01-13T11:50 | 11.93093 | -117.02417 | 0.021 | 39.1 |
| 2026-01-13T12:00 | 11.93092 | -117.02417 | 0.006 | 176.9 |
| 2026-01-13T12:10 | 11.93089 | -117.02413 | 0.017 | 126.8 |
| 2026-01-13T12:20 | 11.93088 | -117.02421 | 0.028 | 259.7 |
| 2026-01-13T12:30 | 11.93090 | -117.02418 | 0.014 | 52.7 |
| 2026-01-13T12:40 | 11.93093 | -117.02414 | 0.016 | 44.6 |
| 2026-01-13T12:50 | 11.93083 | -117.02423 | 0.046 | 218.9 |
| 2026-01-13T13:00 | 11.93063 | -117.02467 | 0.171 | 245.2 |
| 2026-01-13T13:10 | 11.93062 | -117.02460 | 0.024 | 96.9 |
| 2026-01-13T13:20 | 11.93065 | -117.02482 | 0.078 | 276.6 |
| 2026-01-13T13:30 | 11.93050 | -117.02457 | 0.102 | 121.7 |
| 2026-01-13T13:40 | 11.93051 | -117.02456 | 0.007 | 42.4 |
| 2026-01-13T13:50 | 11.93051 | -117.02457 | 0.005 | 261.1 |
| 2026-01-13T14:00 | 11.93048 | -117.02451 | 0.027 | 116.9 |
| 2026-01-13T14:10 | 11.93050 | -117.02456 | 0.021 | 294.3 |
| 2026-01-13T14:20 | 11.93050 | -117.02455 | 0.005 | 93.9 |
| 2026-01-13T14:30 | 11.93051 | -117.02454 | 0.005 | 57.1 |
| 2026-01-13T14:40 | 11.93046 | -117.02450 | 0.022 | 142.8 |
| 2026-01-13T14:50 | 11.93046 | -117.02453 | 0.011 | 264.4 |
| 2026-01-13T15:00 | 11.93047 | -117.02452 | 0.004 | 24.1 |
| 2026-01-13T15:10 | 11.93046 | -117.02452 | 0.003 | 187.0 |
| 2026-01-13T15:20 | 11.93046 | -117.02450 | 0.011 | 86.1 |
| 2026-01-13T15:30 | 11.93045 | -117.02451 | 0.006 | 236.9 |
| 2026-01-13T15:40 | 11.93052 | -117.02455 | 0.028 | 331.5 |
| 2026-01-13T15:50 | 11.93045 | -117.02439 | 0.059 | 114.6 |
| 2026-01-13T16:00 | 11.93043 | -117.02437 | 0.013 | 132.2 |
| 2026-01-13T16:10 | 11.93037 | -117.02438 | 0.019 | 196.9 |
| 2026-01-13T16:20 | 11.93042 | -117.02439 | 0.018 | 345.4 |
| 2026-01-13T16:30 | 11.93037 | -117.02438 | 0.020 | 167.9 |
| 2026-01-13T16:40 | 11.93044 | -117.02438 | 0.025 | 6.5 |
| 2026-01-13T16:50 | 11.93038 | -117.02434 | 0.025 | 146.0 |
| 2026-01-13T17:00 | 11.93038 | -117.02438 | 0.014 | 262.6 |
| 2026-01-13T17:10 | 11.93043 | -117.02437 | 0.020 | 9.3 |
| 2026-01-13T17:20 | 11.93037 | -117.02439 | 0.022 | 206.6 |
| 2026-01-13T17:30 | 11.93064 | -117.02459 | 0.118 | 324.8 |
| 2026-01-13T17:40 | 11.93057 | -117.02453 | 0.033 | 140.3 |
| 2026-01-13T17:50 | 11.93065 | -117.02458 | 0.031 | 326.4 |
| 2026-01-13T18:00 | 11.93067 | -117.02452 | 0.022 | 63.1 |
| 2026-01-13T18:10 | 11.93078 | -117.02455 | 0.039 | 345.3 |
| 2026-01-13T18:20 | 11.93073 | -117.02451 | 0.021 | 141.8 |
| 2026-01-13T18:30 | 11.93074 | -117.02454 | 0.009 | 286.5 |
| 2026-01-13T18:40 | 11.93076 | -117.02456 | 0.013 | 312.1 |
| 2026-01-13T18:50 | 11.93073 | -117.02451 | 0.022 | 120.2 |
| 2026-01-13T19:00 | 11.93070 | -117.02446 | 0.022 | 121.0 |
| 2026-01-13T19:10 | 11.93065 | -117.02444 | 0.018 | 162.6 |
| 2026-01-13T19:20 | 11.93075 | -117.02453 | 0.048 | 318.4 |
| 2026-01-13T19:30 | 11.93071 | -117.02452 | 0.014 | 171.6 |
| 2026-01-13T19:40 | 11.93066 | -117.02451 | 0.019 | 167.4 |
| 2026-01-13T19:50 | 11.93066 | -117.02449 | 0.009 | 99.2 |
| 2026-01-13T20:00 | 11.93066 | -117.02447 | 0.007 | 75.0 |
| 2026-01-13T20:10 | 11.93060 | -117.02445 | 0.023 | 162.4 |
| 2026-01-13T20:20 | 11.93055 | -117.02443 | 0.018 | 158.9 |
| 2026-01-13T20:30 | 11.93054 | -117.02443 | 0.004 | 166.2 |
| 2026-01-13T20:40 | 11.93005 | -117.02417 | 0.199 | 152.6 |
| 2026-01-13T20:50 | 11.92990 | -117.02413 | 0.054 | 164.3 |
| 2026-01-13T21:00 | 11.92986 | -117.02408 | 0.024 | 133.7 |
| 2026-01-13T21:10 | 11.92990 | -117.02406 | 0.015 | 21.5 |
| 2026-01-13T21:20 | 11.92977 | -117.02404 | 0.047 | 170.0 |
| 2026-01-13T21:30 | 11.92982 | -117.02400 | 0.023 | 33.0 |
| 2026-01-13T21:40 | 11.92969 | -117.02393 | 0.055 | 151.0 |
| 2026-01-13T21:50 | 11.92991 | -117.02394 | 0.081 | 356.3 |
| 2026-01-13T22:00 | 11.92986 | -117.02372 | 0.081 | 103.9 |
| 2026-01-13T22:10 | 11.93030 | -117.02364 | 0.162 | 10.3 |
| 2026-01-13T22:20 | 11.93040 | -117.02364 | 0.033 | 355.7 |
| 2026-01-13T22:30 | 11.93036 | -117.02360 | 0.021 | 127.1 |
| 2026-01-13T22:40 | 11.93060 | -117.02354 | 0.089 | 13.1 |
| 2026-01-13T22:50 | 11.93050 | -117.02388 | 0.125 | 252.7 |
| 2026-01-13T23:00 | 11.93029 | -117.02458 | 0.258 | 253.6 |
| 2026-01-13T23:10 | 11.93028 | -117.02491 | 0.118 | 268.4 |
| 2026-01-13T23:20 | 11.93025 | -117.02493 | 0.015 | 208.6 |
| 2026-01-13T23:30 | 11.93013 | -117.02489 | 0.046 | 160.3 |
| 2026-01-13T23:40 | 11.93019 | -117.02489 | 0.022 | 3.7 |
| 2026-01-13T23:50 | 11.93021 | -117.02491 | 0.010 | 316.9 |
| 2026-01-14T00:00 | 11.93003 | -117.02468 | 0.101 | 128.5 |
| 2026-01-14T00:10 | 11.93007 | -117.02476 | 0.032 | 298.3 |
| 2026-01-14T00:20 | 11.93004 | -117.02477 | 0.012 | 200.9 |
| 2026-01-14T00:30 | 11.93002 | -117.02474 | 0.013 | 120.3 |
| 2026-01-14T00:40 | 11.93008 | -117.02474 | 0.020 | 356.0 |
| 2026-01-14T00:50 | 11.93010 | -117.02475 | 0.009 | 348.4 |
| 2026-01-14T01:00 | 11.93006 | -117.02473 | 0.016 | 154.9 |
| 2026-01-14T01:10 | 11.93003 | -117.02477 | 0.018 | 232.5 |
| 2026-01-14T01:20 | 11.93007 | -117.02474 | 0.017 | 39.4 |
| 2026-01-14T01:30 | 11.93009 | -117.02477 | 0.012 | 318.9 |
| 2026-01-14T01:40 | 11.93034 | -117.02475 | 0.089 | 2.7 |
| 2026-01-14T01:50 | 11.93047 | -117.02476 | 0.045 | 355.5 |
| 2026-01-14T02:00 | 11.93041 | -117.02472 | 0.027 | 148.8 |
| 2026-01-14T02:10 | 11.93039 | -117.02474 | 0.008 | 222.7 |
| 2026-01-14T02:20 | 11.93040 | -117.02473 | 0.004 | 21.5 |
| 2026-01-14T02:30 | 11.93040 | -117.02477 | 0.011 | 275.4 |
| 2026-01-14T02:40 | 11.93045 | -117.02474 | 0.020 | 23.0 |
| 2026-01-14T02:50 | 11.93047 | -117.02475 | 0.005 | 348.1 |
| 2026-01-14T03:00 | 11.93039 | -117.02474 | 0.027 | 176.2 |
| 2026-01-14T03:10 | 11.93040 | -117.02474 | 0.004 | 348.9 |
| 2026-01-14T03:20 | 11.93036 | -117.02472 | 0.018 | 155.8 |
| 2026-01-14T03:30 | 11.93043 | -117.02475 | 0.027 | 341.6 |
| 2026-01-14T03:40 | 11.93041 | -117.02474 | 0.009 | 165.6 |
| 2026-01-14T03:50 | 11.93061 | -117.02455 | 0.100 | 41.5 |
| 2026-01-14T04:00 | 11.93076 | -117.02445 | 0.063 | 34.7 |
| 2026-01-14T04:10 | 11.93079 | -117.02449 | 0.018 | 317.9 |
| 2026-01-14T04:20 | 11.93080 | -117.02452 | 0.013 | 271.6 |
| 2026-01-14T04:30 | 11.93075 | -117.02445 | 0.030 | 126.0 |
| 2026-01-14T04:40 | 11.93072 | -117.02447 | 0.011 | 209.6 |
| 2026-01-14T04:50 | 11.93076 | -117.02448 | 0.015 | 340.5 |
| 2026-01-14T05:00 | 11.93082 | -117.02448 | 0.020 | 5.0 |
| 2026-01-14T05:10 | 11.93085 | -117.02444 | 0.016 | 46.4 |
| 2026-01-14T05:20 | 11.93084 | -117.02447 | 0.009 | 246.2 |
| 2026-01-14T05:30 | 11.93077 | -117.02447 | 0.024 | 186.7 |
| 2026-01-14T05:40 | 11.93080 | -117.02450 | 0.015 | 321.3 |
| 2026-01-14T05:50 | 11.93077 | -117.02447 | 0.016 | 129.1 |
| 2026-01-14T06:00 | 11.93083 | -117.02452 | 0.027 | 319.1 |
| 2026-01-14T06:10 | 11.93078 | -117.02446 | 0.027 | 131.7 |
| 2026-01-14T06:20 | 11.93079 | -117.02449 | 0.011 | 279.3 |
| 2026-01-14T06:30 | 11.93078 | -117.02452 | 0.010 | 262.0 |
| 2026-01-14T06:40 | 11.93081 | -117.02445 | 0.026 | 65.2 |
| 2026-01-14T06:50 | 11.93083 | -117.02450 | 0.015 | 287.9 |
| 2026-01-14T07:00 | 11.93080 | -117.02450 | 0.010 | 193.8 |
| 2026-01-14T07:10 | 11.93080 | -117.02451 | 0.002 | 288.7 |
| 2026-01-14T07:20 | 11.93080 | -117.02450 | 0.002 | 116.9 |
| 2026-01-14T07:30 | 11.93083 | -117.02456 | 0.025 | 298.0 |
| 2026-01-14T07:40 | 11.93097 | -117.02432 | 0.100 | 59.0 |
| 2026-01-14T07:50 | 11.93078 | -117.02431 | 0.071 | 177.7 |
| 2026-01-14T08:00 | 11.93080 | -117.02431 | 0.010 | 4.2 |
| 2026-01-14T08:10 | 11.93056 | -117.02404 | 0.129 | 131.9 |
| 2026-01-14T08:20 | 11.93059 | -117.02400 | 0.016 | 53.7 |
| 2026-01-14T08:30 | 11.93055 | -117.02399 | 0.015 | 166.5 |
| 2026-01-14T08:40 | 11.93053 | -117.02402 | 0.011 | 227.3 |
| 2026-01-14T08:50 | 11.93061 | -117.02408 | 0.037 | 321.3 |
| 2026-01-14T09:00 | 11.93039 | -117.02404 | 0.079 | 170.3 |
| 2026-01-14T09:10 | 11.93024 | -117.02401 | 0.055 | 168.9 |
| 2026-01-14T09:20 | 11.93038 | -117.02401 | 0.050 | 359.2 |
| 2026-01-14T09:30 | 11.93026 | -117.02402 | 0.042 | 184.3 |
| 2026-01-14T09:40 | 11.93035 | -117.02404 | 0.034 | 349.2 |
| 2026-01-14T09:50 | 11.93012 | -117.02403 | 0.083 | 176.6 |
| 2026-01-14T10:00 | 11.93015 | -117.02408 | 0.023 | 300.4 |
| 2026-01-14T10:10 | 11.93012 | -117.02409 | 0.013 | 195.3 |
| 2026-01-14T10:20 | 11.93026 | -117.02404 | 0.055 | 19.1 |
| 2026-01-14T10:30 | 11.93016 | -117.02401 | 0.038 | 162.3 |
| 2026-01-14T10:40 | 11.93015 | -117.02406 | 0.019 | 255.5 |
| 2026-01-14T10:50 | 11.93022 | -117.02410 | 0.030 | 334.1 |
| 2026-01-14T11:00 | 11.93006 | -117.02432 | 0.097 | 232.9 |
| 2026-01-14T11:10 | 11.92999 | -117.02433 | 0.023 | 192.2 |
| 2026-01-14T11:20 | 11.93000 | -117.02436 | 0.011 | 279.6 |
| 2026-01-14T11:30 | 11.93008 | -117.02435 | 0.030 | 6.1 |
| 2026-01-14T11:40 | 11.93024 | -117.02423 | 0.072 | 36.6 |
| 2026-01-14T11:50 | 11.93040 | -117.02407 | 0.080 | 45.1 |
| 2026-01-14T12:00 | 11.93027 | -117.02411 | 0.050 | 196.4 |
| 2026-01-14T12:10 | 11.93039 | -117.02410 | 0.042 | 3.4 |
| 2026-01-14T12:20 | 11.93032 | -117.02409 | 0.022 | 167.3 |
| 2026-01-14T12:30 | 11.93022 | -117.02410 | 0.039 | 187.7 |
| 2026-01-14T12:40 | 11.93029 | -117.02404 | 0.036 | 40.2 |
| 2026-01-14T12:50 | 11.93036 | -117.02410 | 0.031 | 315.9 |
| 2026-01-14T13:00 | 11.93040 | -117.02406 | 0.019 | 37.1 |
| 2026-01-14T13:10 | 11.93024 | -117.02407 | 0.058 | 183.5 |
| 2026-01-14T13:20 | 11.93037 | -117.02410 | 0.048 | 349.9 |
| 2026-01-14T13:30 | 11.93034 | -117.02414 | 0.017 | 227.1 |
| 2026-01-14T13:40 | 11.93031 | -117.02412 | 0.010 | 146.7 |
| 2026-01-14T13:50 | 11.93033 | -117.02405 | 0.024 | 76.2 |
| 2026-01-14T14:00 | 11.93033 | -117.02408 | 0.008 | 270.0 |
| 2026-01-14T14:10 | 11.93027 | -117.02410 | 0.022 | 198.8 |
| 2026-01-14T14:20 | 11.93027 | -117.02411 | 0.006 | 277.2 |
| 2026-01-14T14:30 | 11.93028 | -117.02411 | 0.005 | 18.2 |
| 2026-01-14T14:40 | 11.93029 | -117.02408 | 0.011 | 80.7 |
| 2026-01-14T14:50 | 11.93029 | -117.02410 | 0.009 | 272.3 |
| 2026-01-14T15:00 | 11.93031 | -117.02410 | 0.007 | 24.9 |
| 2026-01-14T15:10 | 11.93031 | -117.02410 | 0.001 | 315.4 |
| 2026-01-14T15:20 | 11.93033 | -117.02407 | 0.013 | 53.7 |
| 2026-01-14T15:30 | 11.93036 | -117.02406 | 0.011 | 18.8 |
| 2026-01-14T15:40 | 11.93032 | -117.02410 | 0.019 | 229.9 |
| 2026-01-14T15:50 | 11.93034 | -117.02403 | 0.023 | 80.2 |
| 2026-01-14T16:00 | 11.93031 | -117.02409 | 0.022 | 245.5 |
| 2026-01-14T16:10 | 11.93039 | -117.02406 | 0.031 | 22.4 |
| 2026-01-14T16:20 | 11.93064 | -117.02404 | 0.088 | 3.7 |
| 2026-01-14T16:30 | 11.93077 | -117.02407 | 0.050 | 347.1 |
| 2026-01-14T16:40 | 11.93074 | -117.02406 | 0.013 | 163.2 |
| 2026-01-14T16:50 | 11.93080 | -117.02412 | 0.031 | 318.7 |
| 2026-01-14T17:00 | 11.93093 | -117.02392 | 0.084 | 57.5 |
| 2026-01-14T17:10 | 11.93098 | -117.02390 | 0.019 | 24.8 |
| 2026-01-14T17:20 | 11.93048 | -117.02589 | 0.723 | 255.8 |
| 2026-01-14T17:30 | 11.93054 | -117.02713 | 0.439 | 273.0 |
| 2026-01-14T17:40 | 11.93084 | -117.02762 | 0.205 | 301.6 |
| 2026-01-14T17:50 | 11.93087 | -117.02767 | 0.019 | 301.2 |
| 2026-01-14T18:00 | 11.93076 | -117.02772 | 0.043 | 201.0 |
| 2026-01-14T18:10 | 11.93078 | -117.02764 | 0.027 | 69.9 |
| 2026-01-14T18:20 | 11.93082 | -117.02770 | 0.024 | 298.4 |
| 2026-01-14T18:30 | 11.93080 | -117.02767 | 0.012 | 110.8 |
| 2026-01-14T18:40 | 11.93079 | -117.02768 | 0.005 | 221.8 |
| 2026-01-14T18:50 | 11.93073 | -117.02767 | 0.024 | 171.4 |
| 2026-01-14T19:00 | 11.93078 | -117.02765 | 0.020 | 24.9 |
| 2026-01-14T19:10 | 11.93082 | -117.02765 | 0.015 | 353.3 |
| 2026-01-14T19:20 | 11.93085 | -117.02773 | 0.030 | 292.0 |
| 2026-01-14T19:30 | 11.93079 | -117.02771 | 0.024 | 161.3 |
| 2026-01-14T19:40 | 11.93077 | -117.02764 | 0.026 | 106.7 |
| 2026-01-14T19:50 | 11.93077 | -117.02772 | 0.029 | 270.0 |
| 2026-01-14T20:00 | 11.93075 | -117.02765 | 0.023 | 103.6 |
| 2026-01-14T20:10 | 11.93079 | -117.02768 | 0.015 | 324.4 |
| 2026-01-14T20:20 | 11.93073 | -117.02763 | 0.026 | 136.0 |
| 2026-01-14T20:30 | 11.93079 | -117.02791 | 0.100 | 282.0 |
| 2026-01-14T20:40 | 11.93078 | -117.02815 | 0.088 | 267.4 |
| 2026-01-14T20:50 | 11.93079 | -117.02819 | 0.012 | 282.2 |
| 2026-01-14T21:00 | 11.93074 | -117.02814 | 0.022 | 136.1 |
| 2026-01-14T21:10 | 11.93074 | -117.02812 | 0.007 | 93.1 |
| 2026-01-14T21:20 | 11.93081 | -117.02812 | 0.024 | 0.8 |
| 2026-01-14T21:30 | 11.93084 | -117.02816 | 0.017 | 309.5 |
| 2026-01-14T21:40 | 11.93075 | -117.02810 | 0.035 | 146.1 |
| 2026-01-14T21:50 | 11.93072 | -117.02809 | 0.014 | 160.4 |
| 2026-01-14T22:00 | 11.93081 | -117.02817 | 0.042 | 319.2 |
| 2026-01-14T22:10 | 11.93082 | -117.02815 | 0.007 | 53.3 |
| 2026-01-14T22:20 | 11.93074 | -117.02817 | 0.030 | 187.4 |
| 2026-01-14T22:30 | 11.93084 | -117.02813 | 0.039 | 16.7 |
| 2026-01-14T22:40 | 11.93078 | -117.02814 | 0.023 | 188.9 |
| 2026-01-14T22:50 | 11.93081 | -117.02814 | 0.012 | 11.5 |
| 2026-01-14T23:00 | 11.93085 | -117.02815 | 0.014 | 340.4 |
| 2026-01-14T23:10 | 11.93072 | -117.02815 | 0.044 | 181.4 |
| 2026-01-14T23:20 | 11.93073 | -117.02811 | 0.014 | 87.1 |
| 2026-01-14T23:30 | 11.93081 | -117.02818 | 0.038 | 324.1 |
| 2026-01-14T23:40 | 11.93073 | -117.02817 | 0.029 | 175.8 |
| 2026-01-14T23:50 | 11.93079 | -117.02766 | 0.182 | 83.9 |
| 2026-01-15T00:00 | 11.93071 | -117.02689 | 0.272 | 95.4 |
| 2026-01-15T00:10 | 11.93069 | -117.02699 | 0.038 | 255.3 |
| 2026-01-15T00:20 | 11.93072 | -117.02699 | 0.011 | 14.0 |
| 2026-01-15T00:30 | 11.93065 | -117.02696 | 0.025 | 157.0 |
| 2026-01-15T00:40 | 11.93066 | -117.02698 | 0.009 | 288.0 |
| 2026-01-15T00:50 | 11.93073 | -117.02701 | 0.026 | 341.8 |
| 2026-01-15T01:00 | 11.93072 | -117.02695 | 0.020 | 102.7 |
| 2026-01-15T01:10 | 11.93070 | -117.02695 | 0.007 | 165.5 |
| 2026-01-15T01:20 | 11.93065 | -117.02698 | 0.020 | 211.6 |
| 2026-01-15T01:30 | 11.93065 | -117.02705 | 0.024 | 270.0 |
| 2026-01-15T01:40 | 11.93073 | -117.02702 | 0.031 | 18.8 |
| 2026-01-15T01:50 | 11.93069 | -117.02709 | 0.028 | 238.5 |
| 2026-01-15T02:00 | 11.93058 | -117.02697 | 0.057 | 131.7 |
| 2026-01-15T02:10 | 11.93072 | -117.02703 | 0.055 | 333.3 |
| 2026-01-15T02:20 | 11.93067 | -117.02701 | 0.021 | 156.9 |
| 2026-01-15T02:30 | 11.93071 | -117.02697 | 0.022 | 47.9 |
| 2026-01-15T02:40 | 11.93066 | -117.02697 | 0.019 | 189.9 |
| 2026-01-15T02:50 | 11.92078 | -117.02085 | 4.146 | 148.6 |
| 2026-01-15T03:00 | 11.89232 | -117.01348 | 10.520 | 165.7 |
| 2026-01-15T03:10 | 11.86343 | -117.00617 | 10.665 | 166.0 |
| 2026-01-15T03:20 | 11.83475 | -116.99996 | 10.501 | 167.9 |
| 2026-01-15T03:30 | 11.83238 | -116.99454 | 2.092 | 114.0 |
| 2026-01-15T03:40 | 11.83251 | -116.99446 | 0.054 | 32.6 |
| 2026-01-15T03:50 | 11.83268 | -116.99453 | 0.066 | 339.0 |
| 2026-01-15T04:00 | 11.83270 | -116.99447 | 0.022 | 68.9 |
| 2026-01-15T04:10 | 11.83268 | -116.99443 | 0.016 | 122.7 |
| 2026-01-15T04:20 | 11.83269 | -116.99452 | 0.030 | 279.7 |
| 2026-01-15T04:30 | 11.83270 | -116.99445 | 0.022 | 86.3 |
| 2026-01-15T04:40 | 11.83275 | -116.99455 | 0.038 | 297.9 |
| 2026-01-15T04:50 | 11.83268 | -116.99447 | 0.035 | 129.6 |
| 2026-01-15T05:00 | 11.83266 | -116.99451 | 0.018 | 237.8 |
| 2026-01-15T05:10 | 11.83277 | -116.99455 | 0.044 | 340.2 |
| 2026-01-15T05:20 | 11.83264 | -116.99456 | 0.047 | 180.9 |
| 2026-01-15T05:30 | 11.83266 | -116.99458 | 0.011 | 310.0 |
| 2026-01-15T05:40 | 11.83272 | -116.99446 | 0.047 | 61.5 |
| 2026-01-15T05:50 | 11.83270 | -116.99451 | 0.020 | 242.2 |
| 2026-01-15T06:00 | 11.83267 | -116.99454 | 0.016 | 224.6 |
| 2026-01-15T06:10 | 11.83265 | -116.99448 | 0.024 | 100.5 |
| 2026-01-15T06:20 | 11.83142 | -116.99562 | 0.598 | 222.5 |
| 2026-01-15T06:30 | 11.82791 | -117.00838 | 4.675 | 254.4 |
| 2026-01-15T06:40 | 11.82724 | -117.01188 | 1.258 | 259.1 |
| 2026-01-15T06:50 | 11.82763 | -117.01255 | 0.274 | 300.7 |
| 2026-01-15T07:00 | 11.82788 | -117.01287 | 0.144 | 307.5 |
| 2026-01-15T07:10 | 11.82796 | -117.01331 | 0.157 | 281.3 |
| 2026-01-15T07:20 | 11.82786 | -117.01328 | 0.038 | 161.8 |
| 2026-01-15T07:30 | 11.82794 | -117.01324 | 0.029 | 24.1 |
| 2026-01-15T07:40 | 11.82793 | -117.01324 | 0.001 | 124.1 |
| 2026-01-15T07:50 | 11.82787 | -117.01332 | 0.037 | 230.8 |
| 2026-01-15T08:00 | 11.82792 | -117.01327 | 0.027 | 47.8 |
| 2026-01-15T08:10 | 11.82791 | -117.01330 | 0.012 | 263.2 |
| 2026-01-15T08:20 | 11.82795 | -117.01328 | 0.016 | 25.1 |
| 2026-01-15T08:30 | 11.82793 | -117.01334 | 0.022 | 246.4 |
| 2026-01-15T08:40 | 11.82792 | -117.01322 | 0.044 | 96.6 |
| 2026-01-15T08:50 | 11.82795 | -117.01328 | 0.025 | 297.6 |
| 2026-01-15T09:00 | 11.82793 | -117.01326 | 0.011 | 134.2 |
| 2026-01-15T09:10 | 11.82785 | -117.01330 | 0.030 | 210.7 |
| 2026-01-15T09:20 | 11.82787 | -117.01329 | 0.007 | 29.0 |
| 2026-01-15T09:30 | 11.82792 | -117.01323 | 0.026 | 50.1 |
| 2026-01-15T09:40 | 11.82509 | -117.01977 | 2.518 | 246.3 |
| 2026-01-15T09:50 | 11.82310 | -117.03153 | 4.211 | 260.2 |
| 2026-01-15T10:00 | 11.82401 | -117.03198 | 0.362 | 334.4 |
| 2026-01-15T10:10 | 11.82403 | -117.03186 | 0.043 | 84.2 |
| 2026-01-15T10:20 | 11.82395 | -117.03186 | 0.027 | 179.2 |
| 2026-01-15T10:30 | 11.82397 | -117.03185 | 0.007 | 13.8 |
| 2026-01-15T10:40 | 11.82394 | -117.03187 | 0.014 | 204.2 |
| 2026-01-15T10:50 | 11.82405 | -117.03189 | 0.042 | 350.4 |
| 2026-01-15T11:00 | 11.82399 | -117.03181 | 0.035 | 131.3 |
| 2026-01-15T11:10 | 11.82404 | -117.03185 | 0.025 | 323.1 |
| 2026-01-15T11:20 | 11.82398 | -117.03187 | 0.023 | 194.5 |
| 2026-01-15T11:30 | 11.82397 | -117.03186 | 0.007 | 135.4 |
| 2026-01-15T11:40 | 11.82396 | -117.03183 | 0.010 | 108.7 |
| 2026-01-15T11:50 | 11.82402 | -117.03186 | 0.026 | 334.8 |
| 2026-01-15T12:00 | 11.82400 | -117.03186 | 0.008 | 190.6 |
| 2026-01-15T12:10 | 11.82403 | -117.03191 | 0.019 | 301.7 |
| 2026-01-15T12:20 | 11.82399 | -117.03185 | 0.025 | 123.4 |
| 2026-01-15T12:30 | 11.82395 | -117.03191 | 0.026 | 230.6 |
| 2026-01-15T12:40 | 11.82401 | -117.03185 | 0.030 | 41.7 |
| 2026-01-15T12:50 | 11.82725 | -117.03063 | 1.240 | 20.4 |
| 2026-01-15T13:00 | 11.85037 | -117.04192 | 9.189 | 334.3 |
| 2026-01-15T13:10 | 11.85464 | -117.03890 | 1.867 | 34.9 |
| 2026-01-15T13:20 | 11.85454 | -117.03906 | 0.066 | 236.0 |
| 2026-01-15T13:30 | 11.85458 | -117.03902 | 0.017 | 41.2 |
| 2026-01-15T13:40 | 11.85455 | -117.03899 | 0.014 | 127.3 |
| 2026-01-15T13:50 | 11.85453 | -117.03900 | 0.010 | 202.6 |
| 2026-01-15T14:00 | 11.85454 | -117.03904 | 0.014 | 297.6 |
| 2026-01-15T14:10 | 11.85458 | -117.03900 | 0.019 | 46.9 |
| 2026-01-15T14:20 | 11.85450 | -117.03908 | 0.042 | 225.9 |
| 2026-01-15T14:30 | 11.85448 | -117.03908 | 0.005 | 183.8 |
| 2026-01-15T14:40 | 11.85445 | -117.03905 | 0.017 | 135.4 |
| 2026-01-15T14:50 | 11.85453 | -117.03913 | 0.040 | 318.0 |
| 2026-01-15T15:00 | 11.85446 | -117.03907 | 0.032 | 143.6 |
| 2026-01-15T15:10 | 11.85455 | -117.03907 | 0.033 | 0.0 |
| 2026-01-15T15:20 | 11.85451 | -117.03913 | 0.025 | 228.5 |
| 2026-01-15T15:30 | 11.85456 | -117.03909 | 0.024 | 33.3 |
| 2026-01-15T15:40 | 11.85450 | -117.03903 | 0.028 | 138.0 |
| 2026-01-15T15:50 | 11.85447 | -117.03907 | 0.017 | 223.7 |
| 2026-01-15T16:00 | 11.85763 | -117.02480 | 5.160 | 77.3 |
| 2026-01-15T16:10 | 11.85785 | -117.02266 | 0.759 | 84.0 |
| 2026-01-15T16:20 | 11.85789 | -117.02211 | 0.196 | 85.9 |
| 2026-01-15T16:30 | 11.85789 | -117.02212 | 0.004 | 280.5 |
| 2026-01-15T16:40 | 11.85792 | -117.02220 | 0.029 | 288.7 |
| 2026-01-15T16:50 | 11.85787 | -117.02209 | 0.041 | 115.1 |
| 2026-01-15T17:00 | 11.85790 | -117.02211 | 0.012 | 320.4 |
| 2026-01-15T17:10 | 11.85802 | -117.02219 | 0.051 | 328.8 |
| 2026-01-15T17:20 | 11.85800 | -117.02219 | 0.006 | 210.6 |
| 2026-01-15T17:30 | 11.85797 | -117.02221 | 0.013 | 204.1 |
| 2026-01-15T17:40 | 11.85791 | -117.02215 | 0.030 | 140.2 |
| 2026-01-15T17:50 | 11.85792 | -117.02221 | 0.021 | 289.6 |
| 2026-01-15T18:00 | 11.85800 | -117.02222 | 0.027 | 356.9 |
| 2026-01-15T18:10 | 11.85795 | -117.02215 | 0.030 | 124.8 |
| 2026-01-15T18:20 | 11.85803 | -117.02220 | 0.035 | 323.3 |
| 2026-01-15T18:30 | 11.85795 | -117.02213 | 0.040 | 135.4 |
| 2026-01-15T18:40 | 11.85801 | -117.02220 | 0.035 | 307.5 |
| 2026-01-15T18:50 | 11.85899 | -117.01954 | 1.003 | 69.5 |
| 2026-01-15T19:00 | 11.86181 | -117.00796 | 4.207 | 76.1 |
| 2026-01-15T19:10 | 11.86225 | -117.00598 | 0.719 | 77.1 |
| 2026-01-15T19:20 | 11.86221 | -117.00600 | 0.019 | 211.5 |
| 2026-01-15T19:30 | 11.86223 | -117.00601 | 0.008 | 349.9 |
| 2026-01-15T19:40 | 11.86223 | -117.00598 | 0.009 | 85.2 |
| 2026-01-15T19:50 | 11.86222 | -117.00596 | 0.010 | 112.5 |
| 2026-01-15T20:00 | 11.86226 | -117.00593 | 0.017 | 27.9 |
| 2026-01-15T20:10 | 11.86224 | -117.00595 | 0.011 | 217.9 |
| 2026-01-15T20:20 | 11.86226 | -117.00596 | 0.008 | 349.4 |
| 2026-01-15T20:30 | 11.86223 | -117.00597 | 0.013 | 206.9 |
| 2026-01-15T20:40 | 11.86221 | -117.00595 | 0.010 | 126.4 |
| 2026-01-15T20:50 | 11.86231 | -117.00598 | 0.038 | 342.0 |
| 2026-01-15T21:00 | 11.86226 | -117.00598 | 0.017 | 178.8 |
| 2026-01-15T21:10 | 11.86229 | -117.00604 | 0.022 | 294.9 |
| 2026-01-15T21:20 | 11.86223 | -117.00593 | 0.043 | 117.5 |
| 2026-01-15T21:30 | 11.86231 | -117.00602 | 0.044 | 311.8 |
| 2026-01-15T21:40 | 11.86229 | -117.00603 | 0.009 | 199.5 |
| 2026-01-15T21:50 | 11.86223 | -117.00599 | 0.024 | 145.6 |
| 2026-01-15T22:00 | 11.86221 | -117.00599 | 0.007 | 159.0 |
| 2026-01-15T22:10 | 11.86875 | -117.00762 | 2.410 | 346.1 |
| 2026-01-15T22:20 | 11.89312 | -117.02058 | 9.857 | 332.4 |
| 2026-01-15T22:30 | 11.91668 | -117.03463 | 9.786 | 329.6 |
| 2026-01-15T22:40 | 11.92600 | -117.03641 | 3.395 | 349.3 |
| 2026-01-15T22:50 | 11.92638 | -117.03586 | 0.236 | 54.7 |
| 2026-01-15T23:00 | 11.92637 | -117.03578 | 0.028 | 95.1 |
| 2026-01-15T23:10 | 11.93442 | -117.03542 | 2.884 | 2.5 |
| 2026-01-15T23:20 | 11.93847 | -117.03436 | 1.500 | 14.5 |
| 2026-01-15T23:30 | 11.93858 | -117.03412 | 0.093 | 64.8 |
| 2026-01-15T23:40 | 11.93146 | -117.02886 | 3.154 | 144.0 |
| 2026-01-15T23:50 | 11.93099 | -117.02693 | 0.700 | 103.9 |
| 2026-01-16T00:00 | 11.93083 | -117.02667 | 0.107 | 122.3 |
| 2026-01-16T00:10 | 11.93086 | -117.02667 | 0.010 | 10.3 |
| 2026-01-16T00:20 | 11.93074 | -117.02655 | 0.059 | 136.9 |
| 2026-01-16T00:30 | 11.93073 | -117.02657 | 0.006 | 255.8 |
| 2026-01-16T00:40 | 11.93072 | -117.02657 | 0.004 | 180.0 |
| 2026-01-16T00:50 | 11.93069 | -117.02653 | 0.020 | 128.9 |
| 2026-01-16T01:00 | 11.93071 | -117.02654 | 0.010 | 328.4 |
| 2026-01-16T01:10 | 11.93069 | -117.02655 | 0.008 | 203.9 |
| 2026-01-16T01:20 | 11.93078 | -117.02651 | 0.035 | 26.7 |
| 2026-01-16T01:30 | 11.93074 | -117.02652 | 0.016 | 203.4 |
| 2026-01-16T01:40 | 11.93065 | -117.02648 | 0.033 | 154.1 |
| 2026-01-16T01:50 | 11.93079 | -117.02652 | 0.051 | 344.8 |
| 2026-01-16T02:00 | 11.93074 | -117.02646 | 0.029 | 131.4 |
| 2026-01-16T02:10 | 11.93078 | -117.02650 | 0.019 | 312.4 |
| 2026-01-16T02:20 | 11.93074 | -117.02646 | 0.020 | 135.4 |
| 2026-01-16T02:30 | 11.93068 | -117.02649 | 0.023 | 213.0 |
| 2026-01-16T02:40 | 11.93071 | -117.02647 | 0.011 | 45.8 |
| 2026-01-16T02:50 | 11.93069 | -117.02641 | 0.024 | 100.5 |
| 2026-01-16T03:00 | 11.93081 | -117.02469 | 0.605 | 86.1 |
| 2026-01-16T03:10 | 11.93082 | -117.02467 | 0.010 | 58.6 |
| 2026-01-16T03:20 | 11.93082 | -117.02467 | 0.002 | 218.2 |
| 2026-01-16T03:30 | 11.93081 | -117.02468 | 0.004 | 240.6 |
| 2026-01-16T03:40 | 11.93080 | -117.02468 | 0.004 | 166.2 |
| 2026-01-16T03:50 | 11.93079 | -117.02465 | 0.012 | 109.2 |
| 2026-01-16T04:00 | 11.93080 | -117.02465 | 0.003 | 311.0 |
| 2026-01-16T04:10 | 11.93077 | -117.02463 | 0.013 | 132.1 |
| 2026-01-16T04:20 | 11.93078 | -117.02467 | 0.015 | 284.2 |
| 2026-01-16T04:30 | 11.93082 | -117.02464 | 0.017 | 34.6 |
| 2026-01-16T04:40 | 11.93079 | -117.02464 | 0.010 | 178.0 |
| 2026-01-16T04:50 | 11.93082 | -117.02469 | 0.018 | 296.9 |
| 2026-01-16T05:00 | 11.93080 | -117.02461 | 0.026 | 100.2 |
| 2026-01-16T05:10 | 11.93084 | -117.02468 | 0.026 | 301.5 |
| 2026-01-16T05:20 | 11.93083 | -117.02468 | 0.005 | 180.0 |
| 2026-01-16T05:30 | 11.93084 | -117.02469 | 0.007 | 315.4 |
| 2026-01-16T05:40 | 11.93079 | -117.02465 | 0.024 | 144.6 |
| 2026-01-16T05:50 | 11.93081 | -117.02465 | 0.009 | 0.0 |
| 2026-01-16T06:00 | 11.93082 | -117.02470 | 0.018 | 274.6 |
| 2026-01-16T06:10 | 11.93081 | -117.02465 | 0.018 | 101.5 |
| 2026-01-16T06:20 | 11.93087 | -117.02470 | 0.030 | 319.3 |
| 2026-01-16T06:30 | 11.93081 | -117.02466 | 0.026 | 143.2 |
| 2026-01-16T06:40 | 11.93085 | -117.02471 | 0.022 | 312.1 |
| 2026-01-16T06:50 | 11.93108 | -117.02472 | 0.084 | 355.6 |
| 2026-01-16T07:00 | 11.93117 | -117.02451 | 0.082 | 67.0 |
| 2026-01-16T07:10 | 11.93112 | -117.02450 | 0.018 | 167.5 |
| 2026-01-16T07:20 | 11.93119 | -117.02452 | 0.024 | 341.8 |
| 2026-01-16T07:30 | 11.93120 | -117.02448 | 0.016 | 71.3 |
| 2026-01-16T07:40 | 11.93117 | -117.02452 | 0.020 | 229.6 |
| 2026-01-16T07:50 | 11.93112 | -117.02448 | 0.023 | 143.7 |
| 2026-01-16T08:00 | 11.93120 | -117.02450 | 0.031 | 350.0 |
| 2026-01-16T08:10 | 11.93114 | -117.02451 | 0.020 | 190.9 |
| 2026-01-16T08:20 | 11.93073 | -117.02457 | 0.151 | 187.9 |
| 2026-01-16T08:30 | 11.93073 | -117.02459 | 0.007 | 276.1 |
| 2026-01-16T08:40 | 11.93075 | -117.02454 | 0.020 | 70.0 |
| 2026-01-16T08:50 | 11.93072 | -117.02456 | 0.011 | 218.2 |
| 2026-01-16T09:00 | 11.93082 | -117.02444 | 0.053 | 47.8 |
| 2026-01-16T09:10 | 11.93077 | -117.02439 | 0.025 | 132.6 |
| 2026-01-16T09:20 | 11.93080 | -117.02444 | 0.019 | 298.9 |
| 2026-01-16T09:30 | 11.93075 | -117.02441 | 0.019 | 148.2 |
| 2026-01-16T09:40 | 11.93074 | -117.02442 | 0.005 | 218.2 |
| 2026-01-16T09:50 | 11.93082 | -117.02444 | 0.030 | 342.9 |
| 2026-01-16T10:00 | 11.93081 | -117.02442 | 0.006 | 116.9 |
| 2026-01-16T10:10 | 11.93082 | -117.02439 | 0.011 | 86.2 |
| 2026-01-16T10:20 | 11.93078 | -117.02444 | 0.020 | 232.5 |
| 2026-01-16T10:30 | 11.93079 | -117.02440 | 0.013 | 78.8 |
| 2026-01-16T10:40 | 11.93085 | -117.02444 | 0.024 | 329.3 |
| 2026-01-16T10:50 | 11.93076 | -117.02440 | 0.034 | 156.2 |
| 2026-01-16T11:00 | 11.93084 | -117.02442 | 0.030 | 346.5 |
| 2026-01-16T11:10 | 11.93072 | -117.02440 | 0.043 | 170.4 |
| 2026-01-16T11:20 | 11.93079 | -117.02442 | 0.025 | 339.0 |
| 2026-01-16T11:30 | 11.93083 | -117.02445 | 0.018 | 333.3 |
| 2026-01-16T11:40 | 11.93074 | -117.02440 | 0.037 | 151.1 |
| 2026-01-16T11:50 | 11.93081 | -117.02456 | 0.065 | 292.8 |
| 2026-01-16T12:00 | 11.93087 | -117.02513 | 0.199 | 275.9 |
| 2026-01-16T12:10 | 11.93090 | -117.02512 | 0.013 | 15.7 |
| 2026-01-16T12:20 | 11.93090 | -117.02515 | 0.012 | 255.8 |
| 2026-01-16T12:30 | 11.93096 | -117.02516 | 0.023 | 352.1 |
| 2026-01-16T12:40 | 11.93093 | -117.02515 | 0.010 | 164.3 |
| 2026-01-16T12:50 | 11.93092 | -117.02512 | 0.011 | 116.1 |
| 2026-01-16T13:00 | 11.93090 | -117.02510 | 0.010 | 138.4 |
| 2026-01-16T13:10 | 11.93093 | -117.02518 | 0.031 | 295.7 |
| 2026-01-16T13:20 | 11.93091 | -117.02515 | 0.014 | 124.9 |
| 2026-01-16T13:30 | 11.93094 | -117.02512 | 0.014 | 37.6 |
| 2026-01-16T13:40 | 11.93096 | -117.02516 | 0.013 | 293.5 |
| 2026-01-16T13:50 | 11.93099 | -117.02514 | 0.012 | 37.1 |
| 2026-01-16T14:00 | 11.93090 | -117.02512 | 0.031 | 168.2 |
| 2026-01-16T14:10 | 11.93095 | -117.02511 | 0.018 | 17.1 |
| 2026-01-16T14:20 | 11.93092 | -117.02513 | 0.015 | 221.7 |
| 2026-01-16T14:30 | 11.93095 | -117.02511 | 0.013 | 31.9 |
| 2026-01-16T14:40 | 11.93094 | -117.02514 | 0.008 | 243.1 |
| 2026-01-16T14:50 | 11.93091 | -117.02513 | 0.012 | 174.7 |
| 2026-01-16T15:00 | 11.93090 | -117.02513 | 0.001 | 180.0 |
| 2026-01-16T15:10 | 11.93090 | -117.02513 | 0.002 | 67.9 |
| 2026-01-16T15:20 | 11.93092 | -117.02514 | 0.007 | 313.5 |
| 2026-01-16T15:30 | 11.93109 | -117.02520 | 0.063 | 342.1 |
| 2026-01-16T15:40 | 11.93115 | -117.02523 | 0.023 | 334.2 |
| 2026-01-16T15:50 | 11.93117 | -117.02523 | 0.008 | 0.0 |
| 2026-01-16T16:00 | 11.93117 | -117.02523 | 0.004 | 299.4 |
| 2026-01-16T16:10 | 11.93107 | -117.02519 | 0.042 | 156.2 |
| 2026-01-16T16:20 | 11.93108 | -117.02521 | 0.008 | 300.4 |
| 2026-01-16T16:30 | 11.93055 | -117.02533 | 0.194 | 192.9 |
| 2026-01-16T16:40 | 11.93037 | -117.02513 | 0.097 | 132.3 |
| 2026-01-16T16:50 | 11.93044 | -117.02496 | 0.065 | 66.6 |
| 2026-01-16T17:00 | 11.93042 | -117.02496 | 0.007 | 182.8 |
| 2026-01-16T17:10 | 11.93042 | -117.02496 | 0.001 | 288.7 |
| 2026-01-16T17:20 | 11.93042 | -117.02496 | 0.001 | 206.2 |
| 2026-01-16T17:30 | 11.93043 | -117.02499 | 0.010 | 287.4 |
| 2026-01-16T17:40 | 11.93043 | -117.02491 | 0.026 | 83.7 |
| 2026-01-16T17:50 | 11.93079 | -117.02497 | 0.130 | 351.6 |
| 2026-01-16T18:00 | 11.93094 | -117.02493 | 0.054 | 15.9 |
| 2026-01-16T18:10 | 11.93098 | -117.02501 | 0.032 | 298.3 |
| 2026-01-16T18:20 | 11.93074 | -117.02486 | 0.102 | 148.9 |
| 2026-01-16T18:30 | 11.93020 | -117.02473 | 0.199 | 166.6 |
| 2026-01-16T18:40 | 11.93033 | -117.02480 | 0.054 | 332.6 |
| 2026-01-16T18:50 | 11.93023 | -117.02473 | 0.044 | 145.6 |
| 2026-01-16T19:00 | 11.93086 | -117.02474 | 0.226 | 358.6 |
| 2026-01-16T19:10 | 11.93071 | -117.02451 | 0.099 | 124.3 |
| 2026-01-16T19:20 | 11.93016 | -117.02415 | 0.235 | 146.6 |
| 2026-01-16T19:30 | 11.93015 | -117.02416 | 0.005 | 244.9 |
| 2026-01-16T19:40 | 11.93016 | -117.02417 | 0.004 | 315.4 |
| 2026-01-16T19:50 | 11.93017 | -117.02418 | 0.006 | 292.7 |
| 2026-01-16T20:00 | 11.93013 | -117.02414 | 0.019 | 132.4 |
| 2026-01-16T20:10 | 11.93018 | -117.02427 | 0.048 | 290.2 |
| 2026-01-16T20:20 | 11.93034 | -117.02451 | 0.103 | 305.3 |
| 2026-01-16T20:30 | 11.93056 | -117.02456 | 0.082 | 347.0 |
| 2026-01-16T20:40 | 11.93069 | -117.02459 | 0.044 | 347.2 |
| 2026-01-16T20:50 | 11.93075 | -117.02454 | 0.029 | 35.0 |
| 2026-01-16T21:00 | 11.93078 | -117.02459 | 0.021 | 302.5 |
| 2026-01-16T21:10 | 11.93076 | -117.02459 | 0.008 | 161.8 |
| 2026-01-16T21:20 | 11.93069 | -117.02454 | 0.030 | 149.3 |
| 2026-01-16T21:30 | 11.93073 | -117.02454 | 0.016 | 357.5 |
| 2026-01-16T21:40 | 11.93073 | -117.02496 | 0.147 | 269.0 |
| 2026-01-16T21:50 | 11.93076 | -117.02489 | 0.025 | 64.9 |
| 2026-01-16T22:00 | 11.93073 | -117.02493 | 0.015 | 233.0 |
| 2026-01-16T22:10 | 11.93078 | -117.02492 | 0.016 | 8.9 |
| 2026-01-16T22:20 | 11.93030 | -117.02493 | 0.170 | 180.8 |
| 2026-01-16T22:30 | 11.93029 | -117.02488 | 0.017 | 97.2 |
| 2026-01-16T22:40 | 11.93037 | -117.02500 | 0.050 | 301.3 |
| 2026-01-16T22:50 | 11.93035 | -117.02496 | 0.016 | 120.5 |
| 2026-01-16T23:00 | 11.93033 | -117.02493 | 0.014 | 108.2 |
| 2026-01-16T23:10 | 11.93037 | -117.02489 | 0.019 | 47.6 |
| 2026-01-16T23:20 | 11.93035 | -117.02500 | 0.039 | 261.0 |
| 2026-01-16T23:30 | 11.93025 | -117.02473 | 0.100 | 111.8 |
| 2026-01-16T23:40 | 11.93018 | -117.02461 | 0.051 | 121.1 |
| 2026-01-16T23:50 | 11.93011 | -117.02463 | 0.026 | 195.2 |
| 2026-01-17T00:00 | 11.93026 | -117.02464 | 0.054 | 355.5 |
| 2026-01-17T00:10 | 11.93015 | -117.02458 | 0.044 | 151.5 |
| 2026-01-17T00:20 | 11.93012 | -117.02463 | 0.021 | 237.3 |
| 2026-01-17T00:30 | 11.93015 | -117.02465 | 0.013 | 328.9 |
| 2026-01-17T00:40 | 11.93031 | -117.02452 | 0.073 | 37.6 |
| 2026-01-17T00:50 | 11.93056 | -117.02441 | 0.099 | 24.5 |
| 2026-01-17T01:00 | 11.93051 | -117.02442 | 0.018 | 193.6 |
| 2026-01-17T01:10 | 11.93014 | -117.02426 | 0.143 | 156.3 |
| 2026-01-17T01:20 | 11.93021 | -117.02427 | 0.023 | 345.1 |
| 2026-01-17T01:30 | 11.93020 | -117.02428 | 0.006 | 222.1 |
| 2026-01-17T01:40 | 11.93014 | -117.02428 | 0.020 | 171.8 |
| 2026-01-17T01:50 | 11.93017 | -117.02424 | 0.015 | 47.4 |
| 2026-01-17T02:00 | 11.93013 | -117.02429 | 0.020 | 226.7 |
| 2026-01-17T02:10 | 11.93018 | -117.02430 | 0.019 | 343.1 |
| 2026-01-17T02:20 | 11.93011 | -117.02428 | 0.027 | 164.0 |
| 2026-01-17T02:30 | 11.93024 | -117.02433 | 0.051 | 340.1 |
| 2026-01-17T02:40 | 11.93049 | -117.02449 | 0.106 | 326.6 |
| 2026-01-17T02:50 | 11.93052 | -117.02440 | 0.035 | 69.4 |
| 2026-01-17T03:00 | 11.93049 | -117.02441 | 0.014 | 192.0 |
| 2026-01-17T03:10 | 11.93050 | -117.02444 | 0.011 | 288.7 |
| 2026-01-17T03:20 | 11.93054 | -117.02444 | 0.016 | 357.4 |
| 2026-01-17T03:30 | 11.93053 | -117.02442 | 0.010 | 124.1 |
| 2026-01-17T03:40 | 11.93092 | -117.02464 | 0.160 | 331.1 |
| 2026-01-17T03:50 | 11.93089 | -117.02465 | 0.011 | 212.8 |
| 2026-01-17T04:00 | 11.93091 | -117.02462 | 0.015 | 60.0 |
| 2026-01-17T04:10 | 11.93088 | -117.02463 | 0.010 | 193.8 |
| 2026-01-17T04:20 | 11.93093 | -117.02467 | 0.024 | 315.4 |
| 2026-01-17T04:30 | 11.93095 | -117.02465 | 0.010 | 50.3 |
| 2026-01-17T04:40 | 11.93092 | -117.02464 | 0.012 | 160.7 |
| 2026-01-17T04:50 | 11.93086 | -117.02472 | 0.035 | 235.4 |
| 2026-01-17T05:00 | 11.93086 | -117.02519 | 0.165 | 269.8 |
| 2026-01-17T05:10 | 11.93080 | -117.02511 | 0.035 | 132.9 |
| 2026-01-17T05:20 | 11.93084 | -117.02514 | 0.020 | 329.2 |
| 2026-01-17T05:30 | 11.93084 | -117.02514 | 0.001 | 116.9 |
| 2026-01-17T05:40 | 11.93096 | -117.02510 | 0.043 | 19.7 |
| 2026-01-17T05:50 | 11.93093 | -117.02505 | 0.020 | 118.7 |
| 2026-01-17T06:00 | 11.93095 | -117.02507 | 0.010 | 318.3 |
| 2026-01-17T06:10 | 11.93090 | -117.02505 | 0.017 | 162.2 |
| 2026-01-17T06:20 | 11.93082 | -117.02478 | 0.102 | 108.1 |
| 2026-01-17T06:30 | 11.93065 | -117.02424 | 0.198 | 107.9 |
| 2026-01-17T06:40 | 11.93053 | -117.02397 | 0.104 | 114.0 |
| 2026-01-17T06:50 | 11.93052 | -117.02393 | 0.016 | 103.0 |
| 2026-01-17T07:00 | 11.93050 | -117.02392 | 0.008 | 149.4 |
| 2026-01-17T07:10 | 11.93071 | -117.02404 | 0.089 | 331.0 |
| 2026-01-17T07:20 | 11.93073 | -117.02413 | 0.031 | 282.1 |
| 2026-01-17T07:30 | 11.93070 | -117.02410 | 0.014 | 143.6 |
| 2026-01-17T07:40 | 11.93071 | -117.02413 | 0.011 | 285.1 |
| 2026-01-17T07:50 | 11.93071 | -117.02413 | 0.001 | 116.9 |
| 2026-01-17T08:00 | 11.93090 | -117.02419 | 0.071 | 343.2 |
| 2026-01-17T08:10 | 11.93091 | -117.02416 | 0.011 | 66.5 |
| 2026-01-17T08:20 | 11.93085 | -117.02408 | 0.036 | 126.6 |
| 2026-01-17T08:30 | 11.93084 | -117.02407 | 0.003 | 110.8 |
| 2026-01-17T08:40 | 11.93087 | -117.02415 | 0.030 | 285.2 |
| 2026-01-17T08:50 | 11.93089 | -117.02419 | 0.016 | 305.5 |
| 2026-01-17T09:00 | 11.93084 | -117.02417 | 0.021 | 165.2 |
| 2026-01-17T09:10 | 11.93082 | -117.02420 | 0.013 | 237.2 |
| 2026-01-17T09:20 | 11.93084 | -117.02447 | 0.092 | 275.1 |
| 2026-01-17T09:30 | 11.93064 | -117.02454 | 0.076 | 199.0 |
| 2026-01-17T09:40 | 11.93070 | -117.02458 | 0.027 | 320.8 |
| 2026-01-17T09:50 | 11.93071 | -117.02457 | 0.005 | 38.2 |
| 2026-01-17T10:00 | 11.93080 | -117.02453 | 0.036 | 26.5 |
| 2026-01-17T10:10 | 11.93077 | -117.02462 | 0.035 | 251.9 |
| 2026-01-17T10:20 | 11.93071 | -117.02455 | 0.034 | 132.9 |
| 2026-01-17T10:30 | 11.93077 | -117.02457 | 0.023 | 342.7 |
| 2026-01-17T10:40 | 11.93073 | -117.02457 | 0.012 | 173.2 |
| 2026-01-17T10:50 | 11.93078 | -117.02454 | 0.021 | 30.1 |
| 2026-01-17T11:00 | 11.93075 | -117.02462 | 0.031 | 249.2 |
| 2026-01-17T11:10 | 11.93071 | -117.02462 | 0.014 | 177.1 |
| 2026-01-17T11:20 | 11.93082 | -117.02460 | 0.040 | 7.7 |
| 2026-01-17T11:30 | 11.93070 | -117.02448 | 0.061 | 136.6 |
| 2026-01-17T11:40 | 11.93074 | -117.02455 | 0.029 | 302.3 |
| 2026-01-17T11:50 | 11.93074 | -117.02452 | 0.011 | 91.8 |
| 2026-01-17T12:00 | 11.93075 | -117.02455 | 0.009 | 281.5 |
| 2026-01-17T12:10 | 11.93075 | -117.02455 | 0.003 | 8.0 |
| 2026-01-17T12:20 | 11.93074 | -117.02455 | 0.006 | 180.0 |
| 2026-01-17T12:30 | 11.93076 | -117.02454 | 0.008 | 8.0 |
| 2026-01-17T12:40 | 11.93074 | -117.02457 | 0.011 | 225.8 |
| 2026-01-17T12:50 | 11.93074 | -117.02455 | 0.006 | 90.0 |
| 2026-01-17T13:00 | 11.93076 | -117.02452 | 0.013 | 61.0 |
| 2026-01-17T13:10 | 11.93075 | -117.02451 | 0.004 | 121.3 |
| 2026-01-17T13:20 | 11.93074 | -117.02450 | 0.004 | 163.5 |
| 2026-01-17T13:30 | 11.93072 | -117.02450 | 0.007 | 180.0 |
| 2026-01-17T13:40 | 11.93076 | -117.02452 | 0.014 | 335.1 |
| 2026-01-17T13:50 | 11.93068 | -117.02446 | 0.034 | 140.5 |
| 2026-01-17T14:00 | 11.93045 | -117.02435 | 0.093 | 156.5 |
| 2026-01-17T14:10 | 11.93042 | -117.02438 | 0.012 | 228.1 |
| 2026-01-17T14:20 | 11.93038 | -117.02437 | 0.016 | 170.9 |
| 2026-01-17T14:30 | 11.93043 | -117.02433 | 0.022 | 38.1 |
| 2026-01-17T14:40 | 11.93033 | -117.02435 | 0.035 | 191.0 |
| 2026-01-17T14:50 | 11.93049 | -117.02436 | 0.057 | 356.1 |
| 2026-01-17T15:00 | 11.93048 | -117.02438 | 0.009 | 245.2 |
| 2026-01-17T15:10 | 11.93046 | -117.02433 | 0.019 | 108.7 |
| 2026-01-17T15:20 | 11.93055 | -117.02437 | 0.034 | 337.0 |
| 2026-01-17T15:30 | 11.93043 | -117.02434 | 0.044 | 163.4 |
| 2026-01-17T15:40 | 11.93046 | -117.02436 | 0.014 | 314.4 |
| 2026-01-17T15:50 | 11.93044 | -117.02435 | 0.010 | 139.8 |
| 2026-01-17T16:00 | 11.93049 | -117.02445 | 0.042 | 295.8 |
| 2026-01-17T16:10 | 11.93078 | -117.02497 | 0.210 | 299.7 |
| 2026-01-17T16:20 | 11.93119 | -117.02569 | 0.293 | 300.4 |
| 2026-01-17T16:30 | 11.93161 | -117.02643 | 0.302 | 299.6 |
| 2026-01-17T16:40 | 11.93202 | -117.02717 | 0.299 | 299.3 |
| 2026-01-17T16:50 | 11.93244 | -117.02790 | 0.299 | 300.4 |
| 2026-01-17T17:00 | 11.93245 | -117.02789 | 0.004 | 65.2 |
| 2026-01-17T17:10 | 11.93241 | -117.02789 | 0.012 | 170.1 |
| 2026-01-17T17:20 | 11.93251 | -117.02844 | 0.198 | 280.4 |
| 2026-01-17T17:30 | 11.93256 | -117.02836 | 0.031 | 57.5 |
| 2026-01-17T17:40 | 11.93255 | -117.02836 | 0.003 | 180.0 |
| 2026-01-17T17:50 | 11.93256 | -117.02837 | 0.005 | 324.4 |
| 2026-01-17T18:00 | 11.93253 | -117.02836 | 0.012 | 168.2 |
| 2026-01-17T18:10 | 11.93253 | -117.02835 | 0.007 | 101.5 |
| 2026-01-17T18:20 | 11.93254 | -117.02835 | 0.005 | 328.8 |
| 2026-01-17T18:30 | 11.93249 | -117.02835 | 0.016 | 178.8 |
| 2026-01-17T18:40 | 11.93255 | -117.02840 | 0.027 | 318.1 |
| 2026-01-17T18:50 | 11.93251 | -117.02836 | 0.020 | 137.6 |
| 2026-01-17T19:00 | 11.93264 | -117.02848 | 0.063 | 319.8 |
| 2026-01-17T19:10 | 11.93266 | -117.02850 | 0.009 | 313.9 |
| 2026-01-17T19:20 | 11.93267 | -117.02841 | 0.029 | 83.7 |
| 2026-01-17T19:30 | 11.93262 | -117.02840 | 0.018 | 158.9 |
| 2026-01-17T19:40 | 11.93264 | -117.02840 | 0.007 | 357.2 |
| 2026-01-17T19:50 | 11.93265 | -117.02840 | 0.001 | 346.2 |
| 2026-01-17T20:00 | 11.93263 | -117.02839 | 0.008 | 150.3 |
| 2026-01-17T20:10 | 11.93267 | -117.02838 | 0.016 | 7.7 |
| 2026-01-17T20:20 | 11.93264 | -117.02840 | 0.013 | 200.6 |
| 2026-01-17T20:30 | 11.93261 | -117.02839 | 0.010 | 170.0 |
| 2026-01-17T20:40 | 11.93266 | -117.02835 | 0.023 | 43.3 |
| 2026-01-17T20:50 | 11.93265 | -117.02842 | 0.027 | 265.5 |
| 2026-01-17T21:00 | 11.93265 | -117.02840 | 0.008 | 103.6 |
| 2026-01-17T21:10 | 11.93264 | -117.02840 | 0.002 | 180.0 |
| 2026-01-17T21:20 | 11.93264 | -117.02840 | 0.001 | 193.8 |
| 2026-01-17T21:30 | 11.93262 | -117.02839 | 0.005 | 141.1 |
| 2026-01-17T21:40 | 11.93262 | -117.02841 | 0.004 | 251.3 |
| 2026-01-17T21:50 | 11.93262 | -117.02840 | 0.002 | 99.6 |
| 2026-01-17T22:00 | 11.93262 | -117.02841 | 0.003 | 286.2 |
| 2026-01-17T22:10 | 11.93262 | -117.02841 | 0.001 | 326.7 |
| 2026-01-17T22:20 | 11.93262 | -117.02841 | 0.003 | 215.1 |
| 2026-01-17T22:30 | 11.93263 | -117.02841 | 0.003 | 0.0 |
| 2026-01-17T22:40 | 11.93263 | -117.02841 | 0.001 | 71.3 |
| 2026-01-17T22:50 | 11.93262 | -117.02839 | 0.007 | 127.3 |
| 2026-01-17T23:00 | 11.93262 | -117.02840 | 0.001 | 270.0 |
| 2026-01-17T23:10 | 11.93262 | -117.02840 | 0.001 | 333.8 |
| 2026-01-17T23:20 | 11.93262 | -117.02842 | 0.010 | 284.8 |
| 2026-01-17T23:30 | 11.93260 | -117.02841 | 0.011 | 143.6 |
| 2026-01-17T23:40 | 11.93261 | -117.02841 | 0.003 | 311.0 |
| 2026-01-17T23:50 | 11.93261 | -117.02841 | 0.002 | 26.2 |
| 2026-01-18T00:00 | 11.93263 | -117.02840 | 0.009 | 32.6 |
| 2026-01-18T00:10 | 11.93261 | -117.02840 | 0.008 | 182.4 |
| 2026-01-18T00:20 | 11.93261 | -117.02840 | 0.001 | 18.2 |
| 2026-01-18T00:30 | 11.93261 | -117.02842 | 0.007 | 278.7 |
| 2026-01-18T00:40 | 11.93256 | -117.02837 | 0.025 | 136.0 |
| 2026-01-18T00:50 | 11.93238 | -117.02832 | 0.068 | 164.1 |
| 2026-01-18T01:00 | 11.93241 | -117.02831 | 0.012 | 8.8 |
| 2026-01-18T01:10 | 11.93242 | -117.02830 | 0.005 | 68.7 |
| 2026-01-18T01:20 | 11.93239 | -117.02827 | 0.013 | 137.7 |
| 2026-01-18T01:30 | 11.93207 | -117.02872 | 0.193 | 233.6 |
| 2026-01-18T01:40 | 11.93025 | -117.03066 | 0.949 | 226.5 |
| 2026-01-18T01:50 | 11.92526 | -117.02943 | 1.839 | 166.3 |
| 2026-01-18T02:00 | 11.89756 | -117.04239 | 10.925 | 204.7 |
| 2026-01-18T02:10 | 11.86873 | -117.05552 | 11.318 | 204.2 |
| 2026-01-18T02:20 | 11.84584 | -117.06032 | 8.371 | 191.7 |
| 2026-01-18T02:30 | 11.84713 | -117.05743 | 1.119 | 65.7 |
| 2026-01-18T02:40 | 11.84703 | -117.05747 | 0.036 | 198.4 |
| 2026-01-18T02:50 | 11.84715 | -117.05747 | 0.043 | 359.5 |
| 2026-01-18T03:00 | 11.84707 | -117.05745 | 0.030 | 165.0 |
| 2026-01-18T03:10 | 11.84705 | -117.05749 | 0.018 | 242.6 |
| 2026-01-18T03:20 | 11.84714 | -117.05757 | 0.044 | 318.4 |
| 2026-01-18T03:30 | 11.84711 | -117.05755 | 0.015 | 135.4 |
| 2026-01-18T03:40 | 11.84733 | -117.05760 | 0.082 | 346.1 |
| 2026-01-18T03:50 | 11.84724 | -117.05756 | 0.035 | 156.9 |
| 2026-01-18T04:00 | 11.84713 | -117.05757 | 0.039 | 182.6 |
| 2026-01-18T04:10 | 11.84720 | -117.05756 | 0.022 | 4.5 |
| 2026-01-18T04:20 | 11.84718 | -117.05759 | 0.010 | 237.6 |
| 2026-01-18T04:30 | 11.84734 | -117.05757 | 0.058 | 4.9 |
| 2026-01-18T04:40 | 11.84731 | -117.05755 | 0.016 | 145.9 |
| 2026-01-18T04:50 | 11.84733 | -117.05753 | 0.011 | 36.5 |
| 2026-01-18T05:00 | 11.84718 | -117.05760 | 0.061 | 203.7 |
| 2026-01-18T05:10 | 11.84727 | -117.05751 | 0.045 | 43.6 |
| 2026-01-18T05:20 | 11.84722 | -117.05758 | 0.030 | 232.8 |
| 2026-01-18T05:30 | 11.84717 | -117.05761 | 0.020 | 213.8 |
| 2026-01-18T05:40 | 11.84730 | -117.05755 | 0.052 | 23.4 |
| 2026-01-18T05:50 | 11.84722 | -117.05759 | 0.033 | 202.7 |
| 2026-01-18T06:00 | 11.84706 | -117.05751 | 0.064 | 155.5 |
| 2026-01-18T06:10 | 11.84621 | -117.05715 | 0.328 | 156.9 |
| 2026-01-18T06:20 | 11.84502 | -117.05664 | 0.463 | 157.3 |
| 2026-01-18T06:30 | 11.84497 | -117.05665 | 0.020 | 194.3 |
| 2026-01-18T06:40 | 11.84493 | -117.05667 | 0.015 | 203.8 |
| 2026-01-18T06:50 | 11.84501 | -117.05663 | 0.033 | 27.1 |
| 2026-01-18T07:00 | 11.84497 | -117.05658 | 0.023 | 127.8 |
| 2026-01-18T07:10 | 11.84493 | -117.05660 | 0.016 | 213.7 |
| 2026-01-18T07:20 | 11.84497 | -117.05659 | 0.013 | 24.9 |
| 2026-01-18T07:30 | 11.84497 | -117.05659 | 0.003 | 315.4 |
| 2026-01-18T07:40 | 11.84502 | -117.05670 | 0.040 | 291.4 |
| 2026-01-18T07:50 | 11.84493 | -117.05664 | 0.037 | 147.6 |
| 2026-01-18T08:00 | 11.84502 | -117.05666 | 0.033 | 350.3 |
| 2026-01-18T08:10 | 11.84493 | -117.05664 | 0.033 | 167.8 |
| 2026-01-18T08:20 | 11.84499 | -117.05670 | 0.032 | 315.9 |
| 2026-01-18T08:30 | 11.84505 | -117.05666 | 0.024 | 39.8 |
| 2026-01-18T08:40 | 11.84497 | -117.05664 | 0.027 | 168.1 |
| 2026-01-18T08:50 | 11.84500 | -117.05660 | 0.018 | 60.6 |
| 2026-01-18T09:00 | 11.84508 | -117.05663 | 0.032 | 338.4 |
| 2026-01-18T09:10 | 11.84500 | -117.05670 | 0.039 | 222.7 |
| 2026-01-18T09:20 | 11.84497 | -117.05668 | 0.012 | 135.4 |
| 2026-01-18T09:30 | 11.84520 | -117.05614 | 0.208 | 66.9 |
| 2026-01-18T09:40 | 11.84551 | -117.05556 | 0.231 | 61.7 |
| 2026-01-18T09:50 | 11.84541 | -117.05562 | 0.040 | 210.5 |
| 2026-01-18T10:00 | 11.84543 | -117.05561 | 0.009 | 16.0 |
| 2026-01-18T10:10 | 11.84542 | -117.05567 | 0.019 | 260.4 |
| 2026-01-18T10:20 | 11.84541 | -117.05567 | 0.005 | 206.2 |
| 2026-01-18T10:30 | 11.84544 | -117.05558 | 0.033 | 75.6 |
| 2026-01-18T10:40 | 11.84543 | -117.05563 | 0.017 | 261.6 |
| 2026-01-18T10:50 | 11.84543 | -117.05570 | 0.026 | 272.4 |
| 2026-01-18T11:00 | 11.84541 | -117.05572 | 0.009 | 216.9 |
| 2026-01-18T11:10 | 11.84545 | -117.05554 | 0.063 | 76.2 |
| 2026-01-18T11:20 | 11.84550 | -117.05563 | 0.036 | 296.9 |
| 2026-01-18T11:30 | 11.84538 | -117.05563 | 0.043 | 178.1 |
| 2026-01-18T11:40 | 11.84539 | -117.05555 | 0.028 | 78.4 |
| 2026-01-18T11:50 | 11.84544 | -117.05566 | 0.042 | 295.2 |
| 2026-01-18T12:00 | 11.84547 | -117.05562 | 0.019 | 53.6 |
| 2026-01-18T12:10 | 11.84550 | -117.05563 | 0.011 | 329.7 |
| 2026-01-18T12:20 | 11.84546 | -117.05554 | 0.035 | 115.9 |
| 2026-01-18T12:30 | 11.84542 | -117.05559 | 0.020 | 229.5 |
| 2026-01-18T12:40 | 11.84545 | -117.05558 | 0.010 | 12.8 |
| 2026-01-18T12:50 | 11.84573 | -117.05582 | 0.132 | 320.8 |
| 2026-01-18T13:00 | 11.84703 | -117.05696 | 0.616 | 319.0 |
| 2026-01-18T13:10 | 11.84730 | -117.05721 | 0.131 | 318.3 |
| 2026-01-18T13:20 | 11.84732 | -117.05721 | 0.007 | 351.6 |
| 2026-01-18T13:30 | 11.84734 | -117.05719 | 0.009 | 43.0 |
| 2026-01-18T13:40 | 11.84736 | -117.05717 | 0.009 | 49.5 |
| 2026-01-18T13:50 | 11.84736 | -117.05719 | 0.007 | 285.0 |
| 2026-01-18T14:00 | 11.84737 | -117.05717 | 0.008 | 77.5 |
| 2026-01-18T14:10 | 11.84734 | -117.05722 | 0.020 | 237.1 |
| 2026-01-18T14:20 | 11.84616 | -117.05716 | 0.424 | 177.6 |
| 2026-01-18T14:30 | 11.84444 | -117.05712 | 0.616 | 178.5 |
| 2026-01-18T14:40 | 11.84447 | -117.05712 | 0.011 | 0.0 |
| 2026-01-18T14:50 | 11.84445 | -117.05711 | 0.006 | 150.6 |
| 2026-01-18T15:00 | 11.84447 | -117.05709 | 0.010 | 50.3 |
| 2026-01-18T15:10 | 11.84448 | -117.05708 | 0.003 | 49.0 |
| 2026-01-18T15:20 | 11.84450 | -117.05709 | 0.011 | 338.8 |
| 2026-01-18T15:30 | 11.84451 | -117.05711 | 0.006 | 289.7 |
| 2026-01-18T15:40 | 11.84443 | -117.05713 | 0.031 | 191.8 |
| 2026-01-18T15:50 | 11.84447 | -117.05713 | 0.014 | 357.2 |
| 2026-01-18T16:00 | 11.84447 | -117.05710 | 0.013 | 78.5 |
| 2026-01-18T16:10 | 11.84446 | -117.05708 | 0.007 | 129.1 |
| 2026-01-18T16:20 | 11.84443 | -117.05713 | 0.021 | 238.8 |
| 2026-01-18T16:30 | 11.84445 | -117.05708 | 0.018 | 69.5 |
| 2026-01-18T16:40 | 11.84443 | -117.05708 | 0.008 | 172.3 |
| 2026-01-18T16:50 | 11.84440 | -117.05714 | 0.022 | 245.6 |
| 2026-01-18T17:00 | 11.84444 | -117.05713 | 0.014 | 7.0 |
| 2026-01-18T17:10 | 11.84444 | -117.05708 | 0.017 | 91.2 |
| 2026-01-18T17:20 | 11.84443 | -117.05711 | 0.010 | 246.8 |
| 2026-01-18T17:30 | 11.84439 | -117.05714 | 0.018 | 213.0 |
| 2026-01-18T17:40 | 11.84441 | -117.05709 | 0.017 | 58.9 |
| 2026-01-18T17:50 | 11.84441 | -117.05715 | 0.018 | 264.3 |
| 2026-01-18T18:00 | 11.84442 | -117.05709 | 0.021 | 74.3 |
| 2026-01-18T18:10 | 11.84448 | -117.05675 | 0.120 | 79.7 |
| 2026-01-18T18:20 | 11.84463 | -117.05535 | 0.497 | 84.0 |
| 2026-01-18T18:30 | 11.84470 | -117.05442 | 0.331 | 85.7 |
| 2026-01-18T18:40 | 11.84474 | -117.05436 | 0.023 | 56.2 |
| 2026-01-18T18:50 | 11.84470 | -117.05439 | 0.016 | 217.5 |
| 2026-01-18T19:00 | 11.84465 | -117.05443 | 0.020 | 218.9 |
| 2026-01-18T19:10 | 11.84468 | -117.05443 | 0.010 | 2.1 |
| 2026-01-18T19:20 | 11.84470 | -117.05440 | 0.013 | 54.6 |
| 2026-01-18T19:30 | 11.84468 | -117.05437 | 0.013 | 127.9 |
| 2026-01-18T19:40 | 11.84473 | -117.05439 | 0.020 | 335.6 |
| 2026-01-18T19:50 | 11.84465 | -117.05439 | 0.028 | 180.0 |
| 2026-01-18T20:00 | 11.84467 | -117.05441 | 0.008 | 304.1 |
| 2026-01-18T20:10 | 11.84472 | -117.05440 | 0.020 | 4.9 |
| 2026-01-18T20:20 | 11.84472 | -117.05438 | 0.010 | 100.7 |
| 2026-01-18T20:30 | 11.84473 | -117.05439 | 0.005 | 298.7 |
| 2026-01-18T20:40 | 11.84466 | -117.05437 | 0.025 | 164.4 |
| 2026-01-18T20:50 | 11.84473 | -117.05440 | 0.027 | 338.2 |
| 2026-01-18T21:00 | 11.84470 | -117.05436 | 0.019 | 126.2 |
| 2026-01-18T21:10 | 11.84465 | -117.05442 | 0.029 | 230.6 |
| 2026-01-18T21:20 | 11.84467 | -117.05439 | 0.012 | 44.6 |
| 2026-01-18T21:30 | 11.84465 | -117.05442 | 0.011 | 228.6 |
| 2026-01-18T21:40 | 11.84478 | -117.05437 | 0.049 | 22.1 |
| 2026-01-18T21:50 | 11.84473 | -117.05441 | 0.024 | 219.7 |
| 2026-01-18T22:00 | 11.84477 | -117.05435 | 0.026 | 51.2 |
| 2026-01-18T22:10 | 11.84470 | -117.05442 | 0.035 | 226.2 |
| 2026-01-18T22:20 | 11.84465 | -117.05400 | 0.152 | 97.5 |
| 2026-01-18T22:30 | 11.85204 | -117.03518 | 7.149 | 68.2 |
| 2026-01-18T22:40 | 11.86213 | -117.01011 | 9.552 | 67.8 |
| 2026-01-18T22:50 | 11.86608 | -117.00203 | 3.182 | 63.6 |
| 2026-01-18T23:00 | 11.86617 | -117.00158 | 0.164 | 78.0 |
| 2026-01-18T23:10 | 11.86615 | -117.00160 | 0.012 | 230.4 |
| 2026-01-18T23:20 | 11.86616 | -117.00161 | 0.004 | 331.3 |
| 2026-01-18T23:30 | 11.86617 | -117.00160 | 0.003 | 31.6 |
| 2026-01-18T23:40 | 11.86616 | -117.00163 | 0.009 | 249.2 |
| 2026-01-18T23:50 | 11.86615 | -117.00163 | 0.002 | 161.8 |
| 2026-01-19T00:00 | 11.86620 | -117.00162 | 0.018 | 5.6 |
| 2026-01-19T00:10 | 11.86618 | -117.00162 | 0.010 | 165.2 |
| 2026-01-19T00:20 | 11.86616 | -117.00163 | 0.008 | 226.4 |
| 2026-01-19T00:30 | 11.86615 | -117.00163 | 0.002 | 206.2 |
| 2026-01-19T00:40 | 11.86618 | -117.00163 | 0.007 | 2.8 |
| 2026-01-19T00:50 | 11.86621 | -117.00160 | 0.016 | 39.0 |
| 2026-01-19T01:00 | 11.86617 | -117.00159 | 0.016 | 160.6 |
| 2026-01-19T01:10 | 11.86619 | -117.00160 | 0.009 | 339.7 |
| 2026-01-19T01:20 | 11.86614 | -117.00161 | 0.017 | 192.1 |
| 2026-01-19T01:30 | 11.86614 | -117.00163 | 0.008 | 262.5 |
| 2026-01-19T01:40 | 11.86626 | -117.00160 | 0.042 | 15.6 |
| 2026-01-19T01:50 | 11.86640 | -117.00158 | 0.053 | 7.3 |
| 2026-01-19T02:00 | 11.86652 | -117.00154 | 0.045 | 19.9 |
| 2026-01-19T02:10 | 11.86652 | -117.00160 | 0.022 | 271.9 |
| 2026-01-19T02:20 | 11.86636 | -117.00161 | 0.056 | 184.3 |
| 2026-01-19T02:30 | 11.85858 | -117.00803 | 3.590 | 219.1 |
| 2026-01-19T02:40 | 11.84371 | -117.03387 | 10.559 | 239.7 |
| 2026-01-19T02:50 | 11.84279 | -117.04036 | 2.316 | 261.8 |
| 2026-01-19T03:00 | 11.84284 | -117.04023 | 0.050 | 69.1 |
| 2026-01-19T03:10 | 11.84274 | -117.04025 | 0.037 | 189.8 |
| 2026-01-19T03:20 | 11.84268 | -117.04034 | 0.038 | 241.4 |
| 2026-01-19T03:30 | 11.84266 | -117.04034 | 0.010 | 176.1 |
| 2026-01-19T03:40 | 11.84268 | -117.04033 | 0.008 | 25.1 |
| 2026-01-19T03:50 | 11.84266 | -117.04038 | 0.018 | 249.6 |
| 2026-01-19T04:00 | 11.84282 | -117.04044 | 0.060 | 340.8 |
| 2026-01-19T04:10 | 11.84285 | -117.04037 | 0.024 | 64.6 |
| 2026-01-19T04:20 | 11.84278 | -117.03984 | 0.191 | 96.9 |
| 2026-01-19T04:30 | 11.84277 | -117.03842 | 0.499 | 90.4 |
| 2026-01-19T04:40 | 11.84277 | -117.03701 | 0.499 | 90.1 |
| 2026-01-19T04:50 | 11.84277 | -117.03559 | 0.500 | 89.9 |
| 2026-01-19T05:00 | 11.84276 | -117.03416 | 0.505 | 90.3 |
| 2026-01-19T05:10 | 11.84277 | -117.03276 | 0.495 | 90.0 |
| 2026-01-19T05:20 | 11.84277 | -117.03134 | 0.501 | 89.9 |
| 2026-01-19T05:30 | 11.84279 | -117.02993 | 0.498 | 89.1 |
| 2026-01-19T05:40 | 11.84279 | -117.02851 | 0.500 | 90.0 |
| 2026-01-19T05:50 | 11.84278 | -117.02843 | 0.028 | 95.1 |
| 2026-01-19T06:00 | 11.84282 | -117.02836 | 0.027 | 60.7 |
| 2026-01-19T06:10 | 11.84358 | -117.02848 | 0.275 | 351.8 |
| 2026-01-19T06:20 | 11.84496 | -117.02858 | 0.497 | 355.8 |
| 2026-01-19T06:30 | 11.84528 | -117.02871 | 0.120 | 338.5 |
| 2026-01-19T06:40 | 11.84540 | -117.03009 | 0.490 | 275.0 |
| 2026-01-19T06:50 | 11.84517 | -117.03149 | 0.503 | 260.6 |
| 2026-01-19T07:00 | 11.84510 | -117.03169 | 0.072 | 251.7 |
| 2026-01-19T07:10 | 11.84521 | -117.03168 | 0.037 | 2.2 |
| 2026-01-19T07:20 | 11.84509 | -117.03166 | 0.043 | 167.2 |
| 2026-01-19T07:30 | 11.84510 | -117.03167 | 0.007 | 306.7 |
| 2026-01-19T07:40 | 11.84511 | -117.03167 | 0.003 | 20.3 |
| 2026-01-19T07:50 | 11.84520 | -117.03182 | 0.064 | 301.6 |
| 2026-01-19T08:00 | 11.84522 | -117.03321 | 0.489 | 271.0 |
| 2026-01-19T08:10 | 11.84516 | -117.03464 | 0.506 | 267.4 |
| 2026-01-19T08:20 | 11.84515 | -117.03606 | 0.500 | 269.7 |
| 2026-01-19T08:30 | 11.84514 | -117.03747 | 0.499 | 269.3 |
| 2026-01-19T08:40 | 11.84512 | -117.03889 | 0.502 | 269.5 |
| 2026-01-19T08:50 | 11.84511 | -117.04031 | 0.498 | 269.4 |
| 2026-01-19T09:00 | 11.84511 | -117.04063 | 0.115 | 269.8 |
| 2026-01-19T09:10 | 11.84511 | -117.04067 | 0.012 | 264.9 |
| 2026-01-19T09:20 | 11.84576 | -117.04065 | 0.235 | 1.0 |
| 2026-01-19T09:30 | 11.84716 | -117.04079 | 0.504 | 354.4 |
| 2026-01-19T09:40 | 11.84740 | -117.04076 | 0.084 | 7.2 |
| 2026-01-19T09:50 | 11.84740 | -117.04069 | 0.027 | 84.6 |
| 2026-01-19T10:00 | 11.84740 | -117.03926 | 0.503 | 90.2 |
| 2026-01-19T10:10 | 11.84737 | -117.03785 | 0.500 | 91.2 |
| 2026-01-19T10:20 | 11.84731 | -117.03642 | 0.505 | 92.6 |
| 2026-01-19T10:30 | 11.84726 | -117.03501 | 0.497 | 91.7 |
| 2026-01-19T10:40 | 11.84724 | -117.03359 | 0.502 | 90.7 |
| 2026-01-19T10:50 | 11.84722 | -117.03218 | 0.498 | 91.0 |
| 2026-01-19T11:00 | 11.84722 | -117.03076 | 0.501 | 89.8 |
| 2026-01-19T11:10 | 11.84723 | -117.02934 | 0.501 | 89.8 |
| 2026-01-19T11:20 | 11.84726 | -117.02848 | 0.304 | 87.9 |
| 2026-01-19T11:30 | 11.84726 | -117.02840 | 0.027 | 93.8 |
| 2026-01-19T11:40 | 11.84717 | -117.02840 | 0.029 | 184.1 |
| 2026-01-19T11:50 | 11.84719 | -117.02842 | 0.008 | 315.4 |
| 2026-01-19T12:00 | 11.84842 | -117.02845 | 0.441 | 358.6 |
| 2026-01-19T12:10 | 11.84972 | -117.02846 | 0.464 | 359.5 |
| 2026-01-19T12:20 | 11.84958 | -117.02843 | 0.051 | 168.1 |
| 2026-01-19T12:30 | 11.84959 | -117.03000 | 0.555 | 270.4 |
| 2026-01-19T12:40 | 11.84952 | -117.03141 | 0.497 | 267.0 |
| 2026-01-19T12:50 | 11.84949 | -117.03283 | 0.500 | 269.1 |
| 2026-01-19T13:00 | 11.84949 | -117.03426 | 0.507 | 269.8 |
| 2026-01-19T13:10 | 11.84949 | -117.03566 | 0.495 | 270.1 |
| 2026-01-19T13:20 | 11.84949 | -117.03709 | 0.502 | 270.0 |
| 2026-01-19T13:30 | 11.84949 | -117.03851 | 0.501 | 269.9 |
| 2026-01-19T13:40 | 11.84947 | -117.03990 | 0.491 | 269.4 |
| 2026-01-19T13:50 | 11.84946 | -117.04131 | 0.498 | 269.6 |
| 2026-01-19T14:00 | 11.84942 | -117.04197 | 0.234 | 266.0 |
| 2026-01-19T14:10 | 11.85102 | -117.04109 | 0.655 | 28.3 |
| 2026-01-19T14:20 | 11.85288 | -117.04039 | 0.710 | 20.6 |
| 2026-01-19T14:30 | 11.85189 | -117.04036 | 0.354 | 178.5 |
| 2026-01-19T14:40 | 11.85180 | -117.03915 | 0.429 | 94.2 |
| 2026-01-19T14:50 | 11.85166 | -117.03774 | 0.497 | 95.8 |
| 2026-01-19T15:00 | 11.85163 | -117.03632 | 0.503 | 91.3 |
| 2026-01-19T15:10 | 11.85155 | -117.03490 | 0.503 | 93.5 |
| 2026-01-19T15:20 | 11.85147 | -117.03348 | 0.499 | 93.0 |
| 2026-01-19T15:30 | 11.85140 | -117.03208 | 0.498 | 93.1 |
| 2026-01-19T15:40 | 11.85144 | -117.03066 | 0.499 | 88.3 |
| 2026-01-19T15:50 | 11.85146 | -117.02925 | 0.499 | 89.3 |
| 2026-01-19T16:00 | 11.85151 | -117.02783 | 0.499 | 87.8 |
| 2026-01-19T16:10 | 11.85157 | -117.02641 | 0.501 | 87.5 |
| 2026-01-19T16:20 | 11.85191 | -117.02572 | 0.273 | 63.1 |
| 2026-01-19T16:30 | 11.85198 | -117.02575 | 0.026 | 339.4 |
| 2026-01-19T16:40 | 11.85193 | -117.02569 | 0.026 | 133.2 |
| 2026-01-19T16:50 | 11.85193 | -117.02573 | 0.011 | 270.0 |
| 2026-01-19T17:00 | 11.85200 | -117.02575 | 0.024 | 339.4 |
| 2026-01-19T17:10 | 11.85188 | -117.02573 | 0.042 | 172.3 |
| 2026-01-19T17:20 | 11.85197 | -117.02575 | 0.034 | 350.4 |
| 2026-01-19T17:30 | 11.85198 | -117.02577 | 0.008 | 299.2 |
| 2026-01-19T17:40 | 11.85194 | -117.02583 | 0.026 | 233.3 |
| 2026-01-19T17:50 | 11.86030 | -117.02526 | 3.003 | 3.9 |
| 2026-01-19T18:00 | 11.89028 | -117.02786 | 10.775 | 355.1 |
| 2026-01-19T18:10 | 11.91886 | -117.03105 | 10.300 | 353.7 |
| 2026-01-19T18:20 | 11.92954 | -117.03135 | 3.828 | 358.4 |
| 2026-01-19T18:30 | 11.92991 | -117.03145 | 0.136 | 345.0 |
| 2026-01-19T18:40 | 11.92992 | -117.03139 | 0.021 | 82.0 |
| 2026-01-19T18:50 | 11.92988 | -117.03142 | 0.016 | 216.2 |
| 2026-01-19T19:00 | 11.92979 | -117.03139 | 0.037 | 165.5 |
| 2026-01-19T19:10 | 11.92989 | -117.03143 | 0.041 | 341.8 |
| 2026-01-19T19:20 | 11.92988 | -117.03141 | 0.007 | 129.1 |
| 2026-01-19T19:30 | 11.92986 | -117.03141 | 0.007 | 162.7 |
| 2026-01-19T19:40 | 11.92983 | -117.03142 | 0.012 | 210.6 |
| 2026-01-19T19:50 | 11.92984 | -117.03149 | 0.022 | 278.5 |
| 2026-01-19T20:00 | 11.92985 | -117.03140 | 0.030 | 83.9 |
| 2026-01-19T20:10 | 11.92992 | -117.03141 | 0.026 | 350.6 |
| 2026-01-19T20:20 | 11.92991 | -117.03147 | 0.022 | 255.8 |
| 2026-01-19T20:30 | 11.92990 | -117.03150 | 0.010 | 265.7 |
| 2026-01-19T20:40 | 11.92997 | -117.03140 | 0.042 | 55.0 |
| 2026-01-19T20:50 | 11.92992 | -117.03141 | 0.019 | 184.2 |
| 2026-01-19T21:00 | 11.92995 | -117.03148 | 0.027 | 293.8 |
| 2026-01-19T21:10 | 11.92993 | -117.03143 | 0.017 | 112.6 |
| 2026-01-19T21:20 | 11.92996 | -117.03143 | 0.012 | 358.3 |
| 2026-01-19T21:30 | 11.93001 | -117.03146 | 0.021 | 332.9 |
| 2026-01-19T21:40 | 11.93005 | -117.03139 | 0.028 | 66.4 |
| 2026-01-19T21:50 | 11.93004 | -117.02998 | 0.497 | 90.1 |
| 2026-01-19T22:00 | 11.93006 | -117.02857 | 0.498 | 89.3 |
| 2026-01-19T22:10 | 11.93008 | -117.02715 | 0.502 | 89.4 |
| 2026-01-19T22:20 | 11.93010 | -117.02572 | 0.501 | 89.1 |
| 2026-01-19T22:30 | 11.93016 | -117.02433 | 0.494 | 87.5 |
| 2026-01-19T22:40 | 11.93033 | -117.02292 | 0.500 | 82.9 |
| 2026-01-19T22:50 | 11.93061 | -117.02156 | 0.491 | 78.3 |
| 2026-01-19T23:00 | 11.93072 | -117.02070 | 0.306 | 82.5 |
| 2026-01-19T23:10 | 11.93062 | -117.02013 | 0.204 | 99.8 |
| 2026-01-19T23:20 | 11.93060 | -117.02131 | 0.418 | 269.0 |
| 2026-01-19T23:30 | 11.93038 | -117.02271 | 0.497 | 261.1 |
| 2026-01-19T23:40 | 11.93009 | -117.02408 | 0.498 | 257.7 |
| 2026-01-19T23:50 | 11.93002 | -117.02549 | 0.497 | 267.0 |
| 2026-01-20T00:00 | 11.93012 | -117.02690 | 0.500 | 274.3 |
| 2026-01-20T00:10 | 11.93023 | -117.02832 | 0.503 | 274.7 |
| 2026-01-20T00:20 | 11.93032 | -117.02974 | 0.501 | 273.5 |
| 2026-01-20T00:30 | 11.93036 | -117.03117 | 0.503 | 271.6 |
| 2026-01-20T00:40 | 11.93030 | -117.03260 | 0.504 | 267.6 |
| 2026-01-20T00:50 | 11.93023 | -117.03289 | 0.107 | 255.7 |
| 2026-01-20T01:00 | 11.93078 | -117.03096 | 0.710 | 74.0 |
| 2026-01-20T01:10 | 11.93086 | -117.02901 | 0.688 | 87.6 |
| 2026-01-20T01:20 | 11.93088 | -117.02751 | 0.527 | 89.1 |
| 2026-01-20T01:30 | 11.93089 | -117.02611 | 0.497 | 89.4 |
| 2026-01-20T01:40 | 11.93088 | -117.02472 | 0.490 | 90.6 |
| 2026-01-20T01:50 | 11.93081 | -117.02329 | 0.502 | 92.7 |
| 2026-01-20T02:00 | 11.93074 | -117.02187 | 0.502 | 93.1 |
| 2026-01-20T02:10 | 11.93064 | -117.02046 | 0.501 | 93.9 |
| 2026-01-20T02:20 | 11.93056 | -117.01939 | 0.378 | 94.2 |
| 2026-01-20T02:30 | 11.93093 | -117.02130 | 0.687 | 280.9 |
| 2026-01-20T02:40 | 11.93133 | -117.02304 | 0.632 | 283.2 |
| 2026-01-20T02:50 | 11.93142 | -117.02474 | 0.598 | 272.9 |
| 2026-01-20T03:00 | 11.93128 | -117.02621 | 0.520 | 264.6 |
| 2026-01-20T03:10 | 11.93109 | -117.02761 | 0.499 | 261.9 |
| 2026-01-20T03:20 | 11.93089 | -117.02901 | 0.500 | 262.0 |
| 2026-01-20T03:30 | 11.93077 | -117.03041 | 0.497 | 265.2 |
| 2026-01-20T03:40 | 11.93083 | -117.03184 | 0.504 | 272.4 |
| 2026-01-20T03:50 | 11.93101 | -117.03303 | 0.425 | 278.4 |
| 2026-01-20T04:00 | 11.93117 | -117.03308 | 0.060 | 344.9 |
| 2026-01-20T04:10 | 11.93117 | -117.03306 | 0.005 | 76.8 |
| 2026-01-20T04:20 | 11.93121 | -117.03308 | 0.018 | 340.0 |
| 2026-01-20T04:30 | 11.93117 | -117.03307 | 0.017 | 165.6 |
| 2026-01-20T04:40 | 11.93122 | -117.03306 | 0.019 | 6.5 |
| 2026-01-20T04:50 | 11.93118 | -117.03302 | 0.021 | 128.6 |
| 2026-01-20T05:00 | 11.93118 | -117.03311 | 0.031 | 266.7 |
| 2026-01-20T05:10 | 11.93126 | -117.03303 | 0.039 | 45.3 |
| 2026-01-20T05:20 | 11.93118 | -117.03304 | 0.028 | 187.9 |
| 2026-01-20T05:30 | 11.93117 | -117.03310 | 0.022 | 264.4 |
| 2026-01-20T05:40 | 11.93010 | -117.03212 | 0.518 | 138.0 |
| 2026-01-20T05:50 | 11.91183 | -117.01652 | 8.550 | 139.9 |
| 2026-01-20T06:00 | 11.89063 | -116.99850 | 9.902 | 140.1 |
| 2026-01-20T06:10 | 11.86988 | -116.98076 | 9.716 | 139.9 |
| 2026-01-20T06:20 | 11.84826 | -116.96233 | 10.113 | 140.0 |
| 2026-01-20T06:30 | 11.82622 | -116.94369 | 10.275 | 140.2 |
| 2026-01-20T06:40 | 11.80449 | -116.92519 | 10.157 | 140.0 |
| 2026-01-20T06:50 | 11.78296 | -116.90679 | 10.080 | 139.9 |
| 2026-01-20T07:00 | 11.76156 | -116.88887 | 9.940 | 140.5 |
| 2026-01-20T07:10 | 11.74143 | -116.87283 | 9.166 | 141.9 |
| 2026-01-20T07:20 | 11.73995 | -116.87070 | 0.921 | 125.2 |
| 2026-01-20T07:30 | 11.73958 | -116.87016 | 0.231 | 124.4 |
| 2026-01-20T07:40 | 11.73925 | -116.86956 | 0.242 | 119.7 |
| 2026-01-20T07:50 | 11.73904 | -116.86951 | 0.078 | 165.1 |
| 2026-01-20T08:00 | 11.73913 | -116.86956 | 0.037 | 332.3 |
| 2026-01-20T08:10 | 11.73907 | -116.86954 | 0.024 | 166.6 |
| 2026-01-20T08:20 | 11.73910 | -116.86956 | 0.014 | 334.4 |
| 2026-01-20T08:30 | 11.73900 | -116.86956 | 0.036 | 183.9 |
| 2026-01-20T08:40 | 11.73900 | -116.86956 | 0.002 | 121.3 |
| 2026-01-20T08:50 | 11.73909 | -116.86953 | 0.037 | 18.4 |
| 2026-01-20T09:00 | 11.73913 | -116.86953 | 0.014 | 353.0 |
| 2026-01-20T09:10 | 11.73907 | -116.86950 | 0.025 | 157.0 |
| 2026-01-20T09:20 | 11.73910 | -116.86952 | 0.014 | 326.7 |
| 2026-01-20T09:30 | 11.73910 | -116.86956 | 0.013 | 265.3 |
| 2026-01-20T09:40 | 11.73903 | -116.86957 | 0.026 | 188.6 |
| 2026-01-20T09:50 | 11.73910 | -116.86951 | 0.034 | 41.6 |
| 2026-01-20T10:00 | 11.73913 | -116.86951 | 0.011 | 1.8 |
| 2026-01-20T10:10 | 11.73981 | -116.86411 | 1.921 | 82.7 |
| 2026-01-20T10:20 | 11.73988 | -116.83940 | 8.723 | 89.8 |
| 2026-01-20T10:30 | 11.74024 | -116.81391 | 8.995 | 89.2 |
| 2026-01-20T10:40 | 11.74050 | -116.80640 | 2.655 | 88.0 |
| 2026-01-20T10:50 | 11.74053 | -116.80581 | 0.207 | 86.9 |
| 2026-01-20T11:00 | 11.74054 | -116.80583 | 0.008 | 272.6 |
| 2026-01-20T11:10 | 11.74057 | -116.80585 | 0.013 | 338.5 |
| 2026-01-20T11:20 | 11.74054 | -116.80586 | 0.011 | 202.2 |
| 2026-01-20T11:30 | 11.74055 | -116.80593 | 0.025 | 275.8 |
| 2026-01-20T11:40 | 11.74059 | -116.80585 | 0.034 | 61.8 |
| 2026-01-20T11:50 | 11.74047 | -116.80584 | 0.045 | 178.7 |
| 2026-01-20T12:00 | 11.74060 | -116.80588 | 0.049 | 344.2 |
| 2026-01-20T12:10 | 11.74054 | -116.80591 | 0.024 | 205.5 |
| 2026-01-20T12:20 | 11.74059 | -116.80586 | 0.024 | 42.2 |
| 2026-01-20T12:30 | 11.74056 | -116.80583 | 0.014 | 133.4 |
| 2026-01-20T12:40 | 11.74059 | -116.80584 | 0.009 | 348.4 |
| 2026-01-20T12:50 | 11.74051 | -116.80581 | 0.028 | 160.2 |
| 2026-01-20T13:00 | 11.74058 | -116.80585 | 0.028 | 328.5 |
| 2026-01-20T13:10 | 11.74050 | -116.80592 | 0.037 | 219.9 |
| 2026-01-20T13:20 | 11.74049 | -116.80589 | 0.012 | 101.8 |
| 2026-01-20T13:30 | 11.74049 | -116.80590 | 0.005 | 256.8 |
| 2026-01-20T13:40 | 11.74083 | -116.80548 | 0.193 | 50.8 |
| 2026-01-20T13:50 | 11.74118 | -116.80518 | 0.162 | 40.1 |
| 2026-01-20T14:00 | 11.74115 | -116.80515 | 0.014 | 137.5 |
| 2026-01-20T14:10 | 11.74112 | -116.80511 | 0.017 | 123.8 |
| 2026-01-20T14:20 | 11.74107 | -116.80509 | 0.021 | 157.8 |
| 2026-01-20T14:30 | 11.74109 | -116.80512 | 0.011 | 305.1 |
| 2026-01-20T14:40 | 11.74102 | -116.80508 | 0.026 | 152.0 |
| 2026-01-20T14:50 | 11.74117 | -116.80508 | 0.051 | 3.2 |
| 2026-01-20T15:00 | 11.74105 | -116.80508 | 0.041 | 181.0 |
| 2026-01-20T15:10 | 11.74109 | -116.80511 | 0.017 | 322.3 |
| 2026-01-20T15:20 | 11.74129 | -116.80508 | 0.074 | 7.7 |
| 2026-01-20T15:30 | 11.74093 | -116.80503 | 0.132 | 173.0 |
| 2026-01-20T15:40 | 11.74110 | -116.80505 | 0.063 | 355.2 |
| 2026-01-20T15:50 | 11.74115 | -116.80504 | 0.018 | 7.7 |
| 2026-01-20T16:00 | 11.74109 | -116.80501 | 0.026 | 152.0 |
| 2026-01-20T16:10 | 11.74108 | -116.80503 | 0.008 | 233.2 |
| 2026-01-20T16:20 | 11.74108 | -116.80503 | 0.002 | 333.8 |
| 2026-01-20T16:30 | 11.74113 | -116.80502 | 0.017 | 13.0 |
| 2026-01-20T16:40 | 11.74107 | -116.80504 | 0.022 | 199.3 |
| 2026-01-20T16:50 | 11.74109 | -116.80506 | 0.013 | 315.4 |
| 2026-01-20T17:00 | 11.74110 | -116.80500 | 0.023 | 83.0 |
| 2026-01-20T17:10 | 11.73964 | -116.80761 | 1.061 | 240.4 |
| 2026-01-20T17:20 | 11.73880 | -116.83546 | 9.836 | 268.2 |
| 2026-01-20T17:30 | 11.73771 | -116.86404 | 10.092 | 267.8 |
| 2026-01-20T17:40 | 11.74090 | -116.87087 | 2.669 | 295.4 |
| 2026-01-20T17:50 | 11.74062 | -116.87050 | 0.166 | 127.8 |
| 2026-01-20T18:00 | 11.73941 | -116.86995 | 0.474 | 156.0 |
| 2026-01-20T18:10 | 11.73903 | -116.86992 | 0.136 | 175.5 |
| 2026-01-20T18:20 | 11.73893 | -116.86987 | 0.039 | 155.7 |
| 2026-01-20T18:30 | 11.73896 | -116.86991 | 0.015 | 299.9 |
| 2026-01-20T18:40 | 11.73895 | -116.86987 | 0.016 | 98.8 |
| 2026-01-20T18:50 | 11.73893 | -116.86991 | 0.018 | 248.1 |
| 2026-01-20T19:00 | 11.73897 | -116.86986 | 0.024 | 52.4 |
| 2026-01-20T19:10 | 11.73902 | -116.86991 | 0.025 | 316.0 |
| 2026-01-20T19:20 | 11.73897 | -116.86986 | 0.025 | 138.9 |
| 2026-01-20T19:30 | 11.73897 | -116.86984 | 0.009 | 85.5 |
| 2026-01-20T19:40 | 11.73896 | -116.86986 | 0.009 | 249.9 |
| 2026-01-20T19:50 | 11.73898 | -116.86987 | 0.006 | 336.7 |
| 2026-01-20T20:00 | 11.73902 | -116.86986 | 0.017 | 17.0 |
| 2026-01-20T20:10 | 11.73904 | -116.86987 | 0.008 | 320.9 |
| 2026-01-20T20:20 | 11.73901 | -116.86985 | 0.013 | 155.9 |
| 2026-01-20T20:30 | 11.73886 | -116.86985 | 0.052 | 177.3 |
| 2026-01-20T20:40 | 11.75540 | -116.85958 | 6.944 | 31.4 |
| 2026-01-20T20:50 | 11.77744 | -116.84426 | 9.571 | 34.4 |
| 2026-01-20T21:00 | 11.78708 | -116.83520 | 4.705 | 42.8 |
| 2026-01-20T21:10 | 11.78753 | -116.83384 | 0.506 | 71.4 |
| 2026-01-20T21:20 | 11.78732 | -116.83338 | 0.179 | 114.9 |
| 2026-01-20T21:30 | 11.78737 | -116.83342 | 0.024 | 317.8 |
| 2026-01-20T21:40 | 11.78730 | -116.83339 | 0.027 | 153.8 |
| 2026-01-20T21:50 | 11.78739 | -116.83333 | 0.038 | 31.7 |
| 2026-01-20T22:00 | 11.78741 | -116.83337 | 0.014 | 291.5 |
| 2026-01-20T22:10 | 11.78741 | -116.83334 | 0.012 | 91.8 |
| 2026-01-20T22:20 | 11.78741 | -116.83334 | 0.001 | 346.2 |
| 2026-01-20T22:30 | 11.78740 | -116.83331 | 0.012 | 113.1 |
| 2026-01-20T22:40 | 11.78742 | -116.83334 | 0.016 | 302.0 |
| 2026-01-20T22:50 | 11.78737 | -116.83339 | 0.025 | 218.8 |
| 2026-01-20T23:00 | 11.78740 | -116.83334 | 0.020 | 55.9 |
| 2026-01-20T23:10 | 11.78739 | -116.83334 | 0.005 | 183.8 |
| 2026-01-20T23:20 | 11.78744 | -116.83332 | 0.021 | 24.0 |
| 2026-01-20T23:30 | 11.78738 | -116.83334 | 0.025 | 202.9 |
| 2026-01-20T23:40 | 11.78738 | -116.83333 | 0.006 | 67.3 |
| 2026-01-20T23:50 | 11.78739 | -116.83343 | 0.035 | 277.2 |
| 2026-01-21T00:00 | 11.78736 | -116.83334 | 0.031 | 112.1 |
| 2026-01-21T00:10 | 11.78740 | -116.83336 | 0.014 | 330.4 |
| 2026-01-21T00:20 | 11.78740 | -116.83335 | 0.007 | 74.2 |
| 2026-01-21T00:30 | 11.78740 | -116.83338 | 0.011 | 266.4 |
| 2026-01-21T00:40 | 11.78742 | -116.83337 | 0.009 | 13.8 |
| 2026-01-21T00:50 | 11.78736 | -116.83344 | 0.033 | 227.6 |
| 2026-01-21T01:00 | 11.78743 | -116.83338 | 0.033 | 45.0 |
| 2026-01-21T01:10 | 11.78735 | -116.83339 | 0.027 | 189.9 |
| 2026-01-21T01:20 | 11.78736 | -116.83339 | 0.003 | 326.7 |
| 2026-01-21T01:30 | 11.78738 | -116.83348 | 0.032 | 286.4 |
| 2026-01-21T01:40 | 11.78737 | -116.83343 | 0.019 | 108.7 |
| 2026-01-21T01:50 | 11.78736 | -116.83344 | 0.003 | 255.8 |
| 2026-01-21T02:00 | 11.78735 | -116.83341 | 0.009 | 121.0 |
| 2026-01-21T02:10 | 11.78730 | -116.83342 | 0.018 | 187.7 |
| 2026-01-21T02:20 | 11.78758 | -116.83339 | 0.102 | 7.0 |
| 2026-01-21T02:30 | 11.78759 | -116.83340 | 0.005 | 295.1 |
| 2026-01-21T02:40 | 11.78759 | -116.83342 | 0.006 | 273.4 |
| 2026-01-21T02:50 | 11.78759 | -116.83352 | 0.036 | 270.6 |
| 2026-01-21T03:00 | 11.78753 | -116.83351 | 0.022 | 174.5 |
| 2026-01-21T03:10 | 11.78752 | -116.83350 | 0.006 | 137.9 |
| 2026-01-21T03:20 | 11.78760 | -116.83347 | 0.032 | 18.6 |
| 2026-01-21T03:30 | 11.78756 | -116.83348 | 0.017 | 195.2 |
| 2026-01-21T03:40 | 11.78754 | -116.83352 | 0.012 | 242.3 |
| 2026-01-21T03:50 | 11.78758 | -116.83345 | 0.026 | 58.9 |
| 2026-01-21T04:00 | 11.78763 | -116.83347 | 0.020 | 346.7 |
| 2026-01-21T04:10 | 11.78349 | -116.83358 | 1.484 | 181.5 |
| 2026-01-21T04:20 | 11.76239 | -116.83738 | 7.675 | 190.1 |
| 2026-01-21T04:30 | 11.76183 | -116.83678 | 0.292 | 133.7 |
| 2026-01-21T04:40 | 11.76183 | -116.83677 | 0.004 | 90.0 |
| 2026-01-21T04:50 | 11.76180 | -116.83678 | 0.010 | 208.9 |
| 2026-01-21T05:00 | 11.76177 | -116.83677 | 0.014 | 166.5 |
| 2026-01-21T05:10 | 11.76178 | -116.83672 | 0.021 | 73.8 |
| 2026-01-21T05:20 | 11.76140 | -116.83597 | 0.298 | 117.5 |
| 2026-01-21T05:30 | 11.76135 | -116.83582 | 0.056 | 109.7 |
| 2026-01-21T05:40 | 11.76135 | -116.83585 | 0.012 | 282.5 |
| 2026-01-21T05:50 | 11.76132 | -116.83584 | 0.012 | 165.0 |
| 2026-01-21T06:00 | 11.76178 | -116.83523 | 0.273 | 52.7 |
| 2026-01-21T06:10 | 11.76330 | -116.83294 | 0.973 | 55.9 |
| 2026-01-21T06:20 | 11.76492 | -116.83066 | 0.993 | 54.3 |
| 2026-01-21T06:30 | 11.76652 | -116.82833 | 1.001 | 55.0 |
| 2026-01-21T06:40 | 11.76813 | -116.82602 | 0.998 | 54.9 |
| 2026-01-21T06:50 | 11.76974 | -116.82373 | 0.993 | 54.5 |
| 2026-01-21T07:00 | 11.77135 | -116.82143 | 0.998 | 54.5 |
| 2026-01-21T07:10 | 11.77280 | -116.81934 | 0.900 | 54.9 |
| 2026-01-21T07:20 | 11.77383 | -116.81785 | 0.645 | 55.0 |
| 2026-01-21T07:30 | 11.77383 | -116.81786 | 0.007 | 266.9 |
| 2026-01-21T07:40 | 11.77388 | -116.81783 | 0.024 | 33.2 |
| 2026-01-21T07:50 | 11.77450 | -116.81687 | 0.406 | 56.7 |
| 2026-01-21T08:00 | 11.77448 | -116.81693 | 0.024 | 250.2 |
| 2026-01-21T08:10 | 11.77448 | -116.81687 | 0.023 | 95.3 |
| 2026-01-21T08:20 | 11.77454 | -116.81688 | 0.022 | 349.8 |
| 2026-01-21T08:30 | 11.77447 | -116.81690 | 0.026 | 199.9 |
| 2026-01-21T08:40 | 11.77449 | -116.81692 | 0.011 | 315.4 |
| 2026-01-21T08:50 | 11.77453 | -116.81689 | 0.018 | 42.2 |
| 2026-01-21T09:00 | 11.77453 | -116.81694 | 0.018 | 273.5 |
| 2026-01-21T09:10 | 11.77450 | -116.81689 | 0.021 | 123.0 |
| 2026-01-21T09:20 | 11.77455 | -116.81691 | 0.021 | 339.4 |
| 2026-01-21T09:30 | 11.77445 | -116.81696 | 0.040 | 205.6 |
| 2026-01-21T09:40 | 11.77448 | -116.81688 | 0.028 | 70.8 |
| 2026-01-21T09:50 | 11.77445 | -116.81688 | 0.010 | 180.0 |
| 2026-01-21T10:00 | 11.77453 | -116.81695 | 0.037 | 319.3 |
| 2026-01-21T10:10 | 11.77454 | -116.81686 | 0.031 | 78.7 |
| 2026-01-21T10:20 | 11.77460 | -116.81696 | 0.040 | 301.2 |
| 2026-01-21T10:30 | 11.77463 | -116.81694 | 0.015 | 38.7 |
| 2026-01-21T10:40 | 11.77466 | -116.81699 | 0.022 | 291.4 |
| 2026-01-21T10:50 | 11.77590 | -116.81710 | 0.447 | 355.2 |
| 2026-01-21T11:00 | 11.77743 | -116.81721 | 0.549 | 355.9 |
| 2026-01-21T11:10 | 11.77260 | -116.81929 | 1.880 | 202.9 |
| 2026-01-21T11:20 | 11.74957 | -116.83122 | 9.260 | 207.1 |
| 2026-01-21T11:30 | 11.72604 | -116.84343 | 9.467 | 207.1 |
| 2026-01-21T11:40 | 11.72033 | -116.84637 | 2.294 | 206.8 |
| 2026-01-21T11:50 | 11.72026 | -116.84563 | 0.259 | 95.4 |
| 2026-01-21T12:00 | 11.72244 | -116.84566 | 0.783 | 359.4 |
| 2026-01-21T12:10 | 11.72346 | -116.84563 | 0.366 | 1.7 |
| 2026-01-21T12:20 | 11.72388 | -116.84562 | 0.149 | 0.9 |
| 2026-01-21T12:30 | 11.72394 | -116.84563 | 0.022 | 352.8 |
| 2026-01-21T12:40 | 11.72391 | -116.84560 | 0.015 | 137.3 |
| 2026-01-21T12:50 | 11.72386 | -116.84561 | 0.018 | 198.6 |
| 2026-01-21T13:00 | 11.72388 | -116.84565 | 0.013 | 299.1 |
| 2026-01-21T13:10 | 11.72397 | -116.84562 | 0.032 | 16.2 |
| 2026-01-21T13:20 | 11.72387 | -116.84562 | 0.033 | 181.8 |
| 2026-01-21T13:30 | 11.72446 | -116.84488 | 0.335 | 51.3 |
| 2026-01-21T13:40 | 11.72610 | -116.84260 | 0.997 | 53.9 |
| 2026-01-21T13:50 | 11.72785 | -116.84012 | 1.076 | 54.4 |
| 2026-01-21T14:00 | 11.72948 | -116.83784 | 0.995 | 54.2 |
| 2026-01-21T14:10 | 11.73111 | -116.83554 | 1.002 | 54.2 |
| 2026-01-21T14:20 | 11.73275 | -116.83323 | 1.003 | 54.1 |
| 2026-01-21T14:30 | 11.73438 | -116.83096 | 0.992 | 54.0 |
| 2026-01-21T14:40 | 11.73447 | -116.83085 | 0.049 | 49.3 |
| 2026-01-21T14:50 | 11.73443 | -116.83088 | 0.015 | 210.4 |
| 2026-01-21T15:00 | 11.73447 | -116.83087 | 0.014 | 13.5 |
| 2026-01-21T15:10 | 11.73446 | -116.83090 | 0.012 | 250.8 |
| 2026-01-21T15:20 | 11.73447 | -116.83086 | 0.014 | 72.2 |
| 2026-01-21T15:30 | 11.73446 | -116.83087 | 0.004 | 216.5 |
| 2026-01-21T15:40 | 11.73447 | -116.83085 | 0.006 | 86.4 |
| 2026-01-21T15:50 | 11.73443 | -116.83086 | 0.014 | 187.4 |
| 2026-01-21T16:00 | 11.73450 | -116.83083 | 0.029 | 20.9 |
| 2026-01-21T16:10 | 11.73449 | -116.83089 | 0.023 | 262.0 |
| 2026-01-21T16:20 | 11.73449 | -116.83089 | 0.003 | 139.8 |
| 2026-01-21T16:30 | 11.73450 | -116.83088 | 0.005 | 22.9 |
| 2026-01-21T16:40 | 11.73453 | -116.83093 | 0.022 | 303.3 |
| 2026-01-21T16:50 | 11.73448 | -116.83092 | 0.018 | 169.9 |
| 2026-01-21T17:00 | 11.73450 | -116.83086 | 0.024 | 75.1 |
| 2026-01-21T17:10 | 11.73449 | -116.83089 | 0.013 | 257.6 |
| 2026-01-21T17:20 | 11.73551 | -116.83107 | 0.369 | 350.2 |
| 2026-01-21T17:30 | 11.73558 | -116.83032 | 0.266 | 84.8 |
| 2026-01-21T17:40 | 11.73602 | -116.82931 | 0.389 | 66.1 |
| 2026-01-21T17:50 | 11.74315 | -116.82926 | 2.557 | 0.4 |
| 2026-01-21T18:00 | 11.76319 | -116.85213 | 10.800 | 311.6 |
| 2026-01-21T18:10 | 11.77612 | -116.86194 | 5.782 | 323.2 |
| 2026-01-21T18:20 | 11.77624 | -116.86195 | 0.045 | 354.1 |
| 2026-01-21T18:30 | 11.77594 | -116.86139 | 0.225 | 118.7 |
| 2026-01-21T18:40 | 11.77588 | -116.86130 | 0.039 | 125.8 |
| 2026-01-21T18:50 | 11.77582 | -116.86130 | 0.020 | 181.0 |
| 2026-01-21T19:00 | 11.77590 | -116.86129 | 0.028 | 9.3 |
| 2026-01-21T19:10 | 11.77585 | -116.86132 | 0.022 | 210.8 |
| 2026-01-21T19:20 | 11.77591 | -116.86128 | 0.027 | 28.6 |
| 2026-01-21T19:30 | 11.77586 | -116.86124 | 0.023 | 143.7 |
| 2026-01-21T19:40 | 11.77595 | -116.86128 | 0.035 | 337.9 |
| 2026-01-21T19:50 | 11.77595 | -116.86123 | 0.019 | 87.9 |
| 2026-01-21T20:00 | 11.77593 | -116.86128 | 0.022 | 243.9 |
| 2026-01-21T20:10 | 11.77599 | -116.86129 | 0.022 | 354.5 |
| 2026-01-21T20:20 | 11.77588 | -116.86123 | 0.042 | 152.3 |
| 2026-01-21T20:30 | 11.77587 | -116.86125 | 0.006 | 239.9 |
| 2026-01-21T20:40 | 11.77594 | -116.86124 | 0.024 | 5.1 |
| 2026-01-21T20:50 | 11.77595 | -116.86131 | 0.024 | 279.3 |
| 2026-01-21T21:00 | 11.77583 | -116.86138 | 0.051 | 211.2 |
| 2026-01-21T21:10 | 11.79307 | -116.85166 | 7.065 | 29.1 |
| 2026-01-21T21:20 | 11.80862 | -116.84430 | 6.144 | 25.0 |
| 2026-01-21T21:30 | 11.80893 | -116.84136 | 1.046 | 83.8 |
| 2026-01-21T21:40 | 11.80877 | -116.84070 | 0.238 | 104.1 |
| 2026-01-21T21:50 | 11.80885 | -116.84070 | 0.028 | 3.6 |
| 2026-01-21T22:00 | 11.80883 | -116.84069 | 0.009 | 166.7 |
| 2026-01-21T22:10 | 11.80874 | -116.84071 | 0.030 | 190.1 |
| 2026-01-21T22:20 | 11.80882 | -116.84070 | 0.028 | 4.4 |
| 2026-01-21T22:30 | 11.80881 | -116.84071 | 0.005 | 206.2 |
| 2026-01-21T22:40 | 11.80881 | -116.84073 | 0.006 | 266.8 |
| 2026-01-21T22:50 | 11.80870 | -116.84071 | 0.038 | 172.4 |
| 2026-01-21T23:00 | 11.80881 | -116.84072 | 0.040 | 353.5 |
| 2026-01-21T23:10 | 11.80874 | -116.84075 | 0.029 | 196.4 |
| 2026-01-21T23:20 | 11.80875 | -116.84074 | 0.004 | 44.6 |
| 2026-01-21T23:30 | 11.80872 | -116.84069 | 0.018 | 118.0 |
| 2026-01-21T23:40 | 11.80876 | -116.84077 | 0.029 | 297.5 |
| 2026-01-21T23:50 | 11.80869 | -116.84074 | 0.026 | 158.6 |
| 2026-01-22T00:00 | 11.80877 | -116.84073 | 0.027 | 11.2 |
| 2026-01-22T00:10 | 11.80868 | -116.84070 | 0.033 | 162.2 |
| 2026-01-22T00:20 | 11.80878 | -116.84071 | 0.035 | 353.7 |
| 2026-01-22T00:30 | 11.80875 | -116.84072 | 0.009 | 196.0 |
| 2026-01-22T00:40 | 11.80868 | -116.84071 | 0.028 | 177.8 |
| 2026-01-22T00:50 | 11.80862 | -116.84042 | 0.106 | 100.9 |
| 2026-01-22T01:00 | 11.80846 | -116.84018 | 0.101 | 124.1 |
| 2026-01-22T01:10 | 11.80859 | -116.84010 | 0.056 | 31.0 |
| 2026-01-22T01:20 | 11.80852 | -116.84020 | 0.046 | 233.3 |
| 2026-01-22T01:30 | 11.80860 | -116.84013 | 0.041 | 40.0 |
| 2026-01-22T01:40 | 11.80863 | -116.84020 | 0.026 | 287.9 |
| 2026-01-22T01:50 | 11.80867 | -116.84016 | 0.021 | 44.6 |
| 2026-01-22T02:00 | 11.80861 | -116.84014 | 0.023 | 169.4 |
| 2026-01-22T02:10 | 11.80860 | -116.84016 | 0.007 | 237.6 |
| 2026-01-22T02:20 | 11.80860 | -116.84020 | 0.013 | 283.9 |
| 2026-01-22T02:30 | 11.80856 | -116.84015 | 0.024 | 130.7 |
| 2026-01-22T02:40 | 11.80856 | -116.84016 | 0.005 | 273.9 |
| 2026-01-22T02:50 | 11.80859 | -116.84014 | 0.013 | 39.2 |
| 2026-01-22T03:00 | 11.80870 | -116.84008 | 0.044 | 25.6 |
| 2026-01-22T03:10 | 11.80867 | -116.84009 | 0.010 | 200.1 |
| 2026-01-22T03:20 | 11.80855 | -116.84011 | 0.044 | 190.1 |
| 2026-01-22T03:30 | 11.80674 | -116.83823 | 0.929 | 134.2 |
| 2026-01-22T03:40 | 11.78857 | -116.85657 | 9.180 | 224.8 |
| 2026-01-22T03:50 | 11.77600 | -116.86165 | 4.847 | 201.7 |
| 2026-01-22T04:00 | 11.77557 | -116.86074 | 0.355 | 115.2 |
| 2026-01-22T04:10 | 11.77560 | -116.86080 | 0.023 | 289.3 |
| 2026-01-22T04:20 | 11.77558 | -116.86074 | 0.023 | 106.4 |
| 2026-01-22T04:30 | 11.77556 | -116.86075 | 0.008 | 217.5 |
| 2026-01-22T04:40 | 11.77559 | -116.86078 | 0.014 | 322.4 |
| 2026-01-22T04:50 | 11.77560 | -116.86080 | 0.006 | 289.7 |
| 2026-01-22T05:00 | 11.77550 | -116.86073 | 0.042 | 148.4 |
| 2026-01-22T05:10 | 11.77560 | -116.86074 | 0.036 | 355.0 |
| 2026-01-22T05:20 | 11.77554 | -116.86080 | 0.030 | 225.5 |
| 2026-01-22T05:30 | 11.77558 | -116.86082 | 0.015 | 343.9 |
| 2026-01-22T05:40 | 11.77558 | -116.86080 | 0.006 | 83.2 |
| 2026-01-22T05:50 | 11.77563 | -116.86077 | 0.021 | 30.6 |
| 2026-01-22T06:00 | 11.77557 | -116.86077 | 0.022 | 179.1 |
| 2026-01-22T06:10 | 11.77556 | -116.86081 | 0.015 | 254.8 |
| 2026-01-22T06:20 | 11.77561 | -116.86078 | 0.022 | 27.4 |
| 2026-01-22T06:30 | 11.77558 | -116.86081 | 0.018 | 220.6 |
| 2026-01-22T06:40 | 11.77563 | -116.86076 | 0.029 | 43.6 |
| 2026-01-22T06:50 | 11.77443 | -116.85919 | 0.703 | 128.1 |
| 2026-01-22T07:00 | 11.77331 | -116.85721 | 0.805 | 119.8 |
| 2026-01-22T07:10 | 11.76856 | -116.85221 | 2.449 | 133.9 |
| 2026-01-22T07:20 | 11.75153 | -116.84601 | 6.483 | 160.2 |
| 2026-01-22T07:30 | 11.75113 | -116.84563 | 0.193 | 137.1 |
| 2026-01-22T07:40 | 11.75047 | -116.84484 | 0.367 | 130.3 |
| 2026-01-22T07:50 | 11.74982 | -116.84406 | 0.362 | 130.2 |
| 2026-01-22T08:00 | 11.74972 | -116.84381 | 0.094 | 111.0 |
| 2026-01-22T08:10 | 11.74970 | -116.84382 | 0.009 | 206.2 |
| 2026-01-22T08:20 | 11.74974 | -116.84378 | 0.020 | 49.5 |
| 2026-01-22T08:30 | 11.74970 | -116.84379 | 0.015 | 202.0 |
| 2026-01-22T08:40 | 11.74978 | -116.84390 | 0.046 | 307.6 |
| 2026-01-22T08:50 | 11.74977 | -116.84392 | 0.011 | 243.1 |
| 2026-01-22T09:00 | 11.74980 | -116.84391 | 0.012 | 18.7 |
| 2026-01-22T09:10 | 11.75007 | -116.84361 | 0.144 | 47.4 |
| 2026-01-22T09:20 | 11.75107 | -116.84260 | 0.504 | 45.0 |
| 2026-01-22T09:30 | 11.75206 | -116.84163 | 0.494 | 44.1 |
| 2026-01-22T09:40 | 11.75306 | -116.84066 | 0.497 | 43.5 |
| 2026-01-22T09:50 | 11.75405 | -116.83966 | 0.500 | 44.9 |
| 2026-01-22T10:00 | 11.75505 | -116.83867 | 0.500 | 44.3 |
| 2026-01-22T10:10 | 11.75601 | -116.83765 | 0.499 | 46.2 |
| 2026-01-22T10:20 | 11.75701 | -116.83666 | 0.499 | 44.6 |
| 2026-01-22T10:30 | 11.75798 | -116.83567 | 0.493 | 44.8 |
| 2026-01-22T10:40 | 11.75898 | -116.83464 | 0.510 | 45.3 |
| 2026-01-22T10:50 | 11.75996 | -116.83364 | 0.499 | 45.2 |
| 2026-01-22T11:00 | 11.76096 | -116.83265 | 0.499 | 44.6 |
| 2026-01-22T11:10 | 11.76194 | -116.83165 | 0.498 | 45.0 |
| 2026-01-22T11:20 | 11.76281 | -116.83079 | 0.436 | 44.0 |
| 2026-01-22T11:30 | 11.76279 | -116.83078 | 0.010 | 145.6 |
| 2026-01-22T11:40 | 11.76282 | -116.83079 | 0.013 | 331.6 |
| 2026-01-22T11:50 | 11.76311 | -116.83046 | 0.157 | 49.2 |
| 2026-01-22T12:00 | 11.76315 | -116.83076 | 0.107 | 278.1 |
| 2026-01-22T12:10 | 11.76333 | -116.83211 | 0.483 | 277.6 |
| 2026-01-22T12:20 | 11.76342 | -116.83353 | 0.501 | 273.9 |
| 2026-01-22T12:30 | 11.76375 | -116.83490 | 0.498 | 283.8 |
| 2026-01-22T12:40 | 11.76412 | -116.83625 | 0.494 | 285.2 |
| 2026-01-22T12:50 | 11.76448 | -116.83762 | 0.502 | 285.1 |
| 2026-01-22T13:00 | 11.76486 | -116.83899 | 0.501 | 285.6 |
| 2026-01-22T13:10 | 11.76524 | -116.84035 | 0.500 | 286.0 |
| 2026-01-22T13:20 | 11.76562 | -116.84172 | 0.504 | 285.8 |
| 2026-01-22T13:30 | 11.76615 | -116.84301 | 0.491 | 292.6 |
| 2026-01-22T13:40 | 11.76678 | -116.84428 | 0.501 | 296.5 |
| 2026-01-22T13:50 | 11.76736 | -116.84557 | 0.502 | 294.7 |
| 2026-01-22T14:00 | 11.76788 | -116.84688 | 0.498 | 292.0 |
| 2026-01-22T14:10 | 11.76825 | -116.84824 | 0.497 | 285.3 |
| 2026-01-22T14:20 | 11.76850 | -116.84940 | 0.421 | 282.6 |
| 2026-01-22T14:30 | 11.76814 | -116.84901 | 0.188 | 133.5 |
| 2026-01-22T14:40 | 11.76803 | -116.84857 | 0.162 | 104.1 |
| 2026-01-22T14:50 | 11.76870 | -116.84704 | 0.591 | 66.1 |
| 2026-01-22T15:00 | 11.76978 | -116.84614 | 0.498 | 39.2 |
| 2026-01-22T15:10 | 11.77081 | -116.84521 | 0.495 | 41.7 |
| 2026-01-22T15:20 | 11.77186 | -116.84431 | 0.493 | 40.1 |
| 2026-01-22T15:30 | 11.77292 | -116.84338 | 0.500 | 41.1 |
| 2026-01-22T15:40 | 11.77396 | -116.84242 | 0.504 | 42.0 |
| 2026-01-22T15:50 | 11.77494 | -116.84144 | 0.493 | 44.6 |
| 2026-01-22T16:00 | 11.77595 | -116.84048 | 0.497 | 43.1 |
| 2026-01-22T16:10 | 11.77695 | -116.83949 | 0.500 | 44.5 |
| 2026-01-22T16:20 | 11.77795 | -116.83851 | 0.499 | 43.8 |
| 2026-01-22T16:30 | 11.77889 | -116.83747 | 0.496 | 47.7 |
| 2026-01-22T16:40 | 11.77981 | -116.83640 | 0.503 | 48.6 |
| 2026-01-22T16:50 | 11.78077 | -116.83538 | 0.496 | 46.4 |
| 2026-01-22T17:00 | 11.78176 | -116.83437 | 0.502 | 45.1 |
| 2026-01-22T17:10 | 11.78281 | -116.83348 | 0.492 | 40.0 |
| 2026-01-22T17:20 | 11.78406 | -116.83306 | 0.470 | 18.3 |
| 2026-01-22T17:30 | 11.78419 | -116.83299 | 0.054 | 25.4 |
| 2026-01-22T17:40 | 11.78407 | -116.83298 | 0.044 | 172.7 |
| 2026-01-22T17:50 | 11.78420 | -116.83300 | 0.048 | 352.4 |
| 2026-01-22T18:00 | 11.78416 | -116.83300 | 0.016 | 180.0 |
| 2026-01-22T18:10 | 11.78415 | -116.83300 | 0.004 | 228.4 |
| 2026-01-22T18:20 | 11.78406 | -116.83298 | 0.032 | 168.0 |
| 2026-01-22T18:30 | 11.78413 | -116.83303 | 0.028 | 326.3 |
| 2026-01-22T18:40 | 11.78413 | -116.83303 | 0.003 | 26.2 |
| 2026-01-22T18:50 | 11.78407 | -116.83300 | 0.025 | 162.8 |
| 2026-01-22T19:00 | 11.78392 | -116.82537 | 2.696 | 91.1 |
| 2026-01-22T19:10 | 11.78582 | -116.80421 | 7.496 | 84.8 |
| 2026-01-22T19:20 | 11.78585 | -116.80237 | 0.650 | 89.2 |
| 2026-01-22T19:30 | 11.78587 | -116.80178 | 0.212 | 87.9 |
| 2026-01-22T19:40 | 11.78600 | -116.80181 | 0.048 | 343.4 |
| 2026-01-22T19:50 | 11.78591 | -116.80178 | 0.034 | 162.6 |
| 2026-01-22T20:00 | 11.78600 | -116.80182 | 0.036 | 339.3 |
| 2026-01-22T20:10 | 11.78594 | -116.80176 | 0.032 | 137.7 |
| 2026-01-22T20:20 | 11.78595 | -116.80182 | 0.022 | 285.8 |
| 2026-01-22T20:30 | 11.78588 | -116.80177 | 0.032 | 142.2 |
| 2026-01-22T20:40 | 11.78592 | -116.80181 | 0.020 | 311.0 |
| 2026-01-22T20:50 | 11.78592 | -116.80180 | 0.003 | 82.8 |
| 2026-01-22T21:00 | 11.78593 | -116.80174 | 0.020 | 77.3 |
| 2026-01-22T21:10 | 11.78590 | -116.80177 | 0.015 | 215.9 |
| 2026-01-22T21:20 | 11.78596 | -116.80177 | 0.021 | 0.0 |
| 2026-01-22T21:30 | 11.78597 | -116.80181 | 0.014 | 293.7 |
| 2026-01-22T21:40 | 11.78592 | -116.80178 | 0.020 | 157.4 |
| 2026-01-22T21:50 | 11.78600 | -116.80180 | 0.030 | 347.1 |
| 2026-01-22T22:00 | 11.78590 | -116.80180 | 0.035 | 177.7 |
| 2026-01-22T22:10 | 11.78627 | -116.80260 | 0.311 | 294.5 |
| 2026-01-22T22:20 | 11.78637 | -116.80277 | 0.068 | 302.2 |
| 2026-01-22T22:30 | 11.78631 | -116.80282 | 0.027 | 223.0 |
| 2026-01-22T22:40 | 11.78636 | -116.80272 | 0.041 | 64.0 |
| 2026-01-22T22:50 | 11.78639 | -116.80271 | 0.009 | 8.6 |
| 2026-01-22T23:00 | 11.78636 | -116.80276 | 0.019 | 242.6 |
| 2026-01-22T23:10 | 11.78635 | -116.80272 | 0.013 | 109.2 |
| 2026-01-22T23:20 | 11.78639 | -116.80276 | 0.020 | 319.8 |
| 2026-01-22T23:30 | 11.78627 | -116.80274 | 0.044 | 171.3 |
| 2026-01-22T23:40 | 11.78638 | -116.80279 | 0.044 | 335.2 |
| 2026-01-22T23:50 | 11.78636 | -116.80276 | 0.014 | 132.3 |
| 2026-01-23T00:00 | 11.78641 | -116.80275 | 0.021 | 18.5 |
| 2026-01-23T00:10 | 11.78633 | -116.80270 | 0.032 | 149.0 |
| 2026-01-23T00:20 | 11.78641 | -116.80269 | 0.028 | 5.1 |
| 2026-01-23T00:30 | 11.78648 | -116.80267 | 0.026 | 13.3 |
| 2026-01-23T00:40 | 11.78642 | -116.80268 | 0.022 | 181.8 |
| 2026-01-23T00:50 | 11.78638 | -116.80263 | 0.021 | 134.0 |
| 2026-01-23T01:00 | 11.78643 | -116.80271 | 0.033 | 303.1 |
| 2026-01-23T01:10 | 11.78648 | -116.80270 | 0.019 | 17.5 |
| 2026-01-23T01:20 | 11.78646 | -116.80267 | 0.011 | 129.1 |
| 2026-01-23T01:30 | 11.78652 | -116.80266 | 0.022 | 14.7 |
| 2026-01-23T01:40 | 11.78702 | -116.81133 | 3.065 | 273.4 |
| 2026-01-23T01:50 | 11.79912 | -116.83906 | 10.703 | 293.9 |
| 2026-01-23T02:00 | 11.81154 | -116.86888 | 11.425 | 292.9 |
| 2026-01-23T02:10 | 11.82399 | -116.89856 | 11.380 | 293.1 |
| 2026-01-23T02:20 | 11.83632 | -116.92837 | 11.409 | 292.8 |
| 2026-01-23T02:30 | 11.84890 | -116.95839 | 11.513 | 293.0 |
| 2026-01-23T02:40 | 11.85941 | -116.98927 | 11.525 | 289.1 |
| 2026-01-23T02:50 | 11.86747 | -117.00354 | 5.805 | 299.9 |
| 2026-01-23T03:00 | 11.86697 | -117.00109 | 0.883 | 101.7 |
| 2026-01-23T03:10 | 11.86698 | -117.00104 | 0.016 | 78.0 |
| 2026-01-23T03:20 | 11.86698 | -117.00103 | 0.005 | 124.1 |
| 2026-01-23T03:30 | 11.86700 | -117.00101 | 0.011 | 40.6 |
| 2026-01-23T03:40 | 11.86691 | -117.00105 | 0.035 | 204.1 |
| 2026-01-23T03:50 | 11.86717 | -117.00098 | 0.096 | 16.0 |
| 2026-01-23T04:00 | 11.86711 | -117.00097 | 0.022 | 175.3 |
| 2026-01-23T04:10 | 11.86698 | -117.00105 | 0.053 | 213.8 |
| 2026-01-23T04:20 | 11.86703 | -117.00107 | 0.017 | 341.4 |
| 2026-01-23T04:30 | 11.86705 | -117.00110 | 0.012 | 309.6 |
| 2026-01-23T04:40 | 11.86705 | -117.00106 | 0.011 | 93.6 |
| 2026-01-23T04:50 | 11.86699 | -117.00104 | 0.024 | 155.7 |
| 2026-01-23T05:00 | 11.86703 | -117.00107 | 0.018 | 326.4 |
| 2026-01-23T05:10 | 11.86704 | -117.00110 | 0.011 | 291.1 |
| 2026-01-23T05:20 | 11.86702 | -117.00108 | 0.008 | 139.0 |
| 2026-01-23T05:30 | 11.86702 | -117.00106 | 0.007 | 107.8 |
| 2026-01-23T05:40 | 11.86705 | -117.00110 | 0.018 | 307.5 |
| 2026-01-23T05:50 | 11.86706 | -117.00101 | 0.031 | 81.4 |
| 2026-01-23T06:00 | 11.86708 | -117.00110 | 0.029 | 283.6 |
| 2026-01-23T06:10 | 11.86703 | -117.00106 | 0.022 | 141.9 |
| 2026-01-23T06:20 | 11.86702 | -117.00107 | 0.006 | 240.3 |
| 2026-01-23T06:30 | 11.86699 | -117.00104 | 0.017 | 129.5 |
| 2026-01-23T06:40 | 11.86701 | -117.00066 | 0.134 | 88.2 |
| 2026-01-23T06:50 | 11.86705 | -117.00064 | 0.017 | 14.4 |
| 2026-01-23T07:00 | 11.86702 | -117.00059 | 0.023 | 118.1 |
| 2026-01-23T07:10 | 11.86701 | -117.00064 | 0.020 | 260.7 |
| 2026-01-23T07:20 | 11.86703 | -117.00062 | 0.010 | 47.4 |
| 2026-01-23T07:30 | 11.86701 | -117.00062 | 0.009 | 166.7 |
| 2026-01-23T07:40 | 11.86717 | -117.00062 | 0.057 | 357.9 |
| 2026-01-23T07:50 | 11.86729 | -117.00063 | 0.044 | 358.1 |
| 2026-01-23T08:00 | 11.86720 | -117.00061 | 0.033 | 169.7 |
| 2026-01-23T08:10 | 11.86720 | -117.00060 | 0.004 | 79.5 |
| 2026-01-23T08:20 | 11.86727 | -117.00062 | 0.027 | 344.2 |
| 2026-01-23T08:30 | 11.86735 | -117.00065 | 0.030 | 335.3 |
| 2026-01-23T08:40 | 11.86736 | -117.00062 | 0.012 | 68.5 |
| 2026-01-23T08:50 | 11.86733 | -117.00059 | 0.016 | 127.3 |
| 2026-01-23T09:00 | 11.86737 | -117.00062 | 0.017 | 324.0 |
| 2026-01-23T09:10 | 11.86736 | -117.00062 | 0.004 | 206.2 |
| 2026-01-23T09:20 | 11.86736 | -117.00063 | 0.002 | 270.0 |
| 2026-01-23T09:30 | 11.86735 | -117.00062 | 0.005 | 171.4 |
| 2026-01-23T09:40 | 11.86737 | -117.00063 | 0.006 | 353.8 |
| 2026-01-23T09:50 | 11.86736 | -117.00066 | 0.011 | 254.8 |
| 2026-01-23T10:00 | 11.86736 | -117.00062 | 0.014 | 90.0 |
| 2026-01-23T10:10 | 11.86739 | -117.00062 | 0.013 | 3.2 |
| 2026-01-23T10:20 | 11.86737 | -117.00062 | 0.007 | 191.7 |
| 2026-01-23T10:30 | 11.86737 | -117.00063 | 0.004 | 245.2 |
| 2026-01-23T10:40 | 11.86739 | -117.00064 | 0.006 | 343.8 |
| 2026-01-23T10:50 | 11.86737 | -117.00062 | 0.009 | 138.8 |
| 2026-01-23T11:00 | 11.86739 | -117.00062 | 0.007 | 350.7 |
| 2026-01-23T11:10 | 11.86737 | -117.00062 | 0.005 | 153.8 |
| 2026-01-23T11:20 | 11.86737 | -117.00062 | 0.000 | 180.0 |
| 2026-01-23T11:30 | 11.86738 | -117.00062 | 0.001 | 326.7 |
| 2026-01-23T11:40 | 11.86728 | -117.00062 | 0.035 | 180.0 |
| 2026-01-23T11:50 | 11.86727 | -117.00062 | 0.004 | 168.9 |
| 2026-01-23T12:00 | 11.86728 | -117.00061 | 0.004 | 44.6 |
| 2026-01-23T12:10 | 11.86727 | -117.00061 | 0.003 | 173.8 |
| 2026-01-23T12:20 | 11.86726 | -117.00061 | 0.002 | 210.6 |
| 2026-01-23T12:30 | 11.86727 | -117.00059 | 0.007 | 75.8 |
| 2026-01-23T12:40 | 11.86726 | -117.00059 | 0.004 | 170.7 |
| 2026-01-23T12:50 | 11.86731 | -117.00063 | 0.023 | 323.7 |
| 2026-01-23T13:00 | 11.86725 | -117.00063 | 0.020 | 181.0 |
| 2026-01-23T13:10 | 11.86726 | -117.00062 | 0.005 | 36.5 |
| 2026-01-23T13:20 | 11.86727 | -117.00062 | 0.003 | 6.2 |
| 2026-01-23T13:30 | 11.86728 | -117.00065 | 0.010 | 278.0 |
| 2026-01-23T13:40 | 11.86728 | -117.00061 | 0.013 | 79.1 |
| 2026-01-23T13:50 | 11.86727 | -117.00059 | 0.009 | 129.1 |
| 2026-01-23T14:00 | 11.86727 | -117.00061 | 0.006 | 266.8 |
| 2026-01-23T14:10 | 11.86751 | -117.00112 | 0.201 | 295.4 |
| 2026-01-23T14:20 | 11.86695 | -117.00111 | 0.199 | 178.7 |
| 2026-01-23T14:30 | 11.86644 | -117.00103 | 0.184 | 171.2 |
| 2026-01-23T14:40 | 11.86646 | -117.00102 | 0.007 | 17.3 |
| 2026-01-23T14:50 | 11.86647 | -117.00104 | 0.005 | 292.9 |
| 2026-01-23T15:00 | 11.86646 | -117.00104 | 0.003 | 261.8 |
| 2026-01-23T15:10 | 11.86644 | -117.00102 | 0.010 | 136.8 |
| 2026-01-23T15:20 | 11.86641 | -117.00104 | 0.015 | 204.3 |
| 2026-01-23T15:30 | 11.86646 | -117.00103 | 0.020 | 8.3 |
| 2026-01-23T15:40 | 11.86642 | -117.00106 | 0.018 | 215.1 |
| 2026-01-23T15:50 | 11.86638 | -117.00106 | 0.013 | 173.9 |
| 2026-01-23T16:00 | 11.86642 | -117.00106 | 0.012 | 356.7 |
| 2026-01-23T16:10 | 11.86642 | -117.00103 | 0.011 | 78.9 |
| 2026-01-23T16:20 | 11.86642 | -117.00106 | 0.011 | 264.6 |
| 2026-01-23T16:30 | 11.86640 | -117.00107 | 0.007 | 206.2 |
| 2026-01-23T16:40 | 11.86643 | -117.00104 | 0.016 | 41.9 |
| 2026-01-23T16:50 | 11.86640 | -117.00107 | 0.015 | 219.7 |
| 2026-01-23T17:00 | 11.86642 | -117.00106 | 0.007 | 8.4 |
| 2026-01-23T17:10 | 11.86639 | -117.00104 | 0.015 | 144.9 |
| 2026-01-23T17:20 | 11.86640 | -117.00104 | 0.004 | 333.8 |
| 2026-01-23T17:30 | 11.86640 | -117.00105 | 0.003 | 263.6 |
| 2026-01-23T17:40 | 11.86637 | -117.00107 | 0.012 | 203.3 |
| 2026-01-23T17:50 | 11.86639 | -117.00107 | 0.010 | 354.2 |
| 2026-01-23T18:00 | 11.86644 | -117.00107 | 0.017 | 4.7 |
| 2026-01-23T18:10 | 11.86641 | -117.00106 | 0.010 | 169.7 |
| 2026-01-23T18:20 | 11.86642 | -117.00106 | 0.003 | 339.7 |
| 2026-01-23T18:30 | 11.86644 | -117.00104 | 0.012 | 52.7 |
| 2026-01-23T18:40 | 11.86637 | -117.00106 | 0.028 | 197.5 |
| 2026-01-23T18:50 | 11.86636 | -117.00107 | 0.005 | 224.6 |
| 2026-01-23T19:00 | 11.86645 | -117.00105 | 0.035 | 11.7 |
| 2026-01-23T19:10 | 11.86642 | -117.00107 | 0.013 | 211.6 |
| 2026-01-23T19:20 | 11.86645 | -117.00104 | 0.015 | 51.1 |
| 2026-01-23T19:30 | 11.86639 | -117.00106 | 0.022 | 201.3 |
| 2026-01-23T19:40 | 11.86638 | -117.00107 | 0.005 | 207.9 |
| 2026-01-23T19:50 | 11.86643 | -117.00136 | 0.106 | 280.6 |
| 2026-01-23T20:00 | 11.86645 | -117.00134 | 0.009 | 46.1 |
| 2026-01-23T20:10 | 11.86642 | -117.00134 | 0.009 | 171.4 |
| 2026-01-23T20:20 | 11.86641 | -117.00134 | 0.004 | 201.5 |
| 2026-01-23T20:30 | 11.86639 | -117.00136 | 0.012 | 213.8 |
| 2026-01-23T20:40 | 11.86642 | -117.00138 | 0.014 | 336.9 |
| 2026-01-23T20:50 | 11.86641 | -117.00135 | 0.012 | 116.9 |
| 2026-01-23T21:00 | 11.86640 | -117.00133 | 0.007 | 108.7 |
| 2026-01-23T21:10 | 11.86639 | -117.00134 | 0.005 | 230.9 |
| 2026-01-23T21:20 | 11.86637 | -117.00135 | 0.009 | 216.4 |
| 2026-01-23T21:30 | 11.86637 | -117.00135 | 0.001 | 166.2 |
| 2026-01-23T21:40 | 11.86640 | -117.00135 | 0.011 | 3.6 |
| 2026-01-23T21:50 | 11.86661 | -117.00138 | 0.075 | 351.1 |
| 2026-01-23T22:00 | 11.86663 | -117.00138 | 0.009 | 2.4 |
| 2026-01-23T22:10 | 11.86663 | -117.00137 | 0.005 | 85.5 |
| 2026-01-23T22:20 | 11.86660 | -117.00138 | 0.010 | 193.8 |
| 2026-01-23T22:30 | 11.86658 | -117.00125 | 0.044 | 100.3 |
| 2026-01-23T22:40 | 11.86690 | -117.00056 | 0.269 | 65.2 |
| 2026-01-23T22:50 | 11.86732 | -117.00001 | 0.247 | 52.0 |
| 2026-01-23T23:00 | 11.86726 | -117.00002 | 0.021 | 191.5 |
| 2026-01-23T23:10 | 11.86728 | -117.00001 | 0.008 | 25.0 |
| 2026-01-23T23:20 | 11.86733 | -117.00002 | 0.015 | 353.3 |
| 2026-01-23T23:30 | 11.86731 | -116.99999 | 0.011 | 116.9 |
| 2026-01-23T23:40 | 11.86732 | -117.00002 | 0.013 | 288.7 |
| 2026-01-23T23:50 | 11.86728 | -117.00003 | 0.017 | 184.7 |
| 2026-01-24T00:00 | 11.86730 | -117.00003 | 0.007 | 0.0 |
| 2026-01-24T00:10 | 11.86726 | -117.00002 | 0.013 | 172.4 |
| 2026-01-24T00:20 | 11.86729 | -116.99997 | 0.023 | 58.6 |
| 2026-01-24T00:30 | 11.86730 | -117.00000 | 0.011 | 286.4 |
| 2026-01-24T00:40 | 11.86733 | -117.00001 | 0.011 | 339.5 |
| 2026-01-24T00:50 | 11.86729 | -116.99999 | 0.015 | 159.2 |
| 2026-01-24T01:00 | 11.86729 | -117.00003 | 0.011 | 270.0 |
| 2026-01-24T01:10 | 11.86729 | -117.00003 | 0.001 | 251.3 |
| 2026-01-24T01:20 | 11.86728 | -117.00002 | 0.003 | 150.6 |
| 2026-01-24T01:30 | 11.86726 | -117.00003 | 0.009 | 193.8 |
| 2026-01-24T01:40 | 11.86733 | -116.99999 | 0.029 | 27.1 |
| 2026-01-24T01:50 | 11.86729 | -117.00019 | 0.072 | 258.5 |
| 2026-01-24T02:00 | 11.86729 | -117.00018 | 0.005 | 116.9 |
| 2026-01-24T02:10 | 11.86728 | -117.00039 | 0.074 | 269.7 |
| 2026-01-24T02:20 | 11.86728 | -117.00037 | 0.009 | 101.0 |
| 2026-01-24T02:30 | 11.86729 | -117.00039 | 0.010 | 281.9 |
| 2026-01-24T02:40 | 11.86729 | -117.00037 | 0.010 | 82.0 |
| 2026-01-24T02:50 | 11.86732 | -117.00038 | 0.012 | 337.6 |
| 2026-01-24T03:00 | 11.86732 | -117.00038 | 0.002 | 348.9 |
| 2026-01-24T03:10 | 11.86730 | -117.00038 | 0.009 | 189.3 |
| 2026-01-24T03:20 | 11.86732 | -117.00035 | 0.012 | 59.2 |
| 2026-01-24T03:30 | 11.86730 | -117.00038 | 0.012 | 238.7 |
| 2026-01-24T03:40 | 11.86732 | -117.00039 | 0.006 | 346.9 |
| 2026-01-24T03:50 | 11.86732 | -117.00038 | 0.004 | 85.2 |
| 2026-01-24T04:00 | 11.86730 | -117.00038 | 0.008 | 177.4 |
| 2026-01-24T04:10 | 11.86730 | -117.00035 | 0.008 | 82.5 |
| 2026-01-24T04:20 | 11.86730 | -117.00037 | 0.006 | 276.4 |
| 2026-01-24T04:30 | 11.86733 | -117.00037 | 0.010 | 8.3 |
| 2026-01-24T04:40 | 11.86734 | -117.00036 | 0.004 | 41.2 |
| 2026-01-24T04:50 | 11.86731 | -117.00035 | 0.009 | 171.0 |
| 2026-01-24T05:00 | 11.86720 | -117.00024 | 0.057 | 136.4 |
| 2026-01-24T05:10 | 11.86722 | -117.00024 | 0.007 | 13.8 |
| 2026-01-24T05:20 | 11.86726 | -117.00024 | 0.015 | 350.4 |
| 2026-01-24T05:30 | 11.86724 | -117.00020 | 0.018 | 115.9 |
| 2026-01-24T05:40 | 11.86725 | -117.00020 | 0.006 | 353.8 |
| 2026-01-24T05:50 | 11.86724 | -117.00023 | 0.010 | 247.5 |
| 2026-01-24T06:00 | 11.86724 | -117.00025 | 0.006 | 260.4 |
| 2026-01-24T06:10 | 11.86724 | -117.00023 | 0.007 | 75.8 |
| 2026-01-24T06:20 | 11.86726 | -117.00021 | 0.009 | 47.9 |
| 2026-01-24T06:30 | 11.86726 | -117.00020 | 0.001 | 63.1 |
| 2026-01-24T06:40 | 11.86722 | -117.00023 | 0.017 | 208.3 |
| 2026-01-24T06:50 | 11.86723 | -117.00020 | 0.010 | 69.4 |
| 2026-01-24T07:00 | 11.86725 | -117.00020 | 0.006 | 350.1 |
| 2026-01-24T07:10 | 11.86724 | -117.00024 | 0.013 | 263.7 |
| 2026-01-24T07:20 | 11.86726 | -117.00022 | 0.010 | 58.6 |
| 2026-01-24T07:30 | 11.86721 | -117.00022 | 0.017 | 189.5 |
| 2026-01-24T07:40 | 11.86725 | -117.00023 | 0.013 | 356.9 |
| 2026-01-24T07:50 | 11.86725 | -117.00022 | 0.003 | 22.9 |
| 2026-01-24T08:00 | 11.86729 | -117.00019 | 0.018 | 37.4 |
| 2026-01-24T08:10 | 11.86731 | -117.00015 | 0.015 | 70.9 |
| 2026-01-24T08:20 | 11.86719 | -117.00016 | 0.042 | 185.8 |
| 2026-01-24T08:30 | 11.86798 | -117.00278 | 0.966 | 286.9 |
| 2026-01-24T08:40 | 11.86832 | -117.00456 | 0.640 | 281.2 |
| 2026-01-24T08:50 | 11.86840 | -117.00453 | 0.029 | 21.9 |
| 2026-01-24T09:00 | 11.86839 | -117.00455 | 0.008 | 244.2 |
| 2026-01-24T09:10 | 11.86826 | -117.00463 | 0.052 | 209.4 |
| 2026-01-24T09:20 | 11.86827 | -117.00463 | 0.004 | 0.0 |
| 2026-01-24T09:30 | 11.86828 | -117.00461 | 0.006 | 58.6 |
| 2026-01-24T09:40 | 11.86824 | -117.00464 | 0.018 | 212.7 |
| 2026-01-24T09:50 | 11.86826 | -117.00459 | 0.018 | 62.6 |
| 2026-01-24T10:00 | 11.86827 | -117.00457 | 0.009 | 80.4 |
| 2026-01-24T10:10 | 11.86830 | -117.00458 | 0.014 | 343.7 |
| 2026-01-24T10:20 | 11.86835 | -117.00459 | 0.017 | 346.8 |
| 2026-01-24T10:30 | 11.86830 | -117.00459 | 0.018 | 177.7 |
| 2026-01-24T10:40 | 11.86831 | -117.00456 | 0.012 | 70.8 |
| 2026-01-24T10:50 | 11.86827 | -117.00461 | 0.024 | 233.8 |
| 2026-01-24T11:00 | 11.86833 | -117.00460 | 0.020 | 8.0 |
| 2026-01-24T11:10 | 11.86834 | -117.00458 | 0.009 | 76.3 |
| 2026-01-24T11:20 | 11.86831 | -117.00456 | 0.010 | 139.8 |
| 2026-01-24T11:30 | 11.86829 | -117.00460 | 0.014 | 241.8 |
| 2026-01-24T11:40 | 11.86814 | -117.00437 | 0.097 | 124.4 |
| 2026-01-24T11:50 | 11.86471 | -116.99902 | 2.253 | 123.1 |
| 2026-01-24T12:00 | 11.86469 | -116.99886 | 0.057 | 98.0 |
| 2026-01-24T12:10 | 11.86470 | -116.99889 | 0.013 | 296.2 |
| 2026-01-24T12:20 | 11.86475 | -116.99883 | 0.027 | 52.7 |
| 2026-01-24T12:30 | 11.86470 | -116.99883 | 0.016 | 178.8 |
| 2026-01-24T12:40 | 11.86474 | -116.99885 | 0.016 | 333.2 |
| 2026-01-24T12:50 | 11.86468 | -116.99888 | 0.025 | 200.5 |
| 2026-01-24T13:00 | 11.86473 | -116.99887 | 0.019 | 10.5 |
| 2026-01-24T13:10 | 11.86477 | -116.99884 | 0.017 | 32.3 |
| 2026-01-24T13:20 | 11.86469 | -116.99884 | 0.028 | 181.4 |
| 2026-01-24T13:30 | 11.86468 | -116.99887 | 0.010 | 238.3 |
| 2026-01-24T13:40 | 11.86468 | -116.99886 | 0.003 | 8.0 |
| 2026-01-24T13:50 | 11.86476 | -116.99886 | 0.029 | 0.7 |
| 2026-01-24T14:00 | 11.86471 | -116.99882 | 0.024 | 143.4 |
| 2026-01-24T14:10 | 11.86472 | -116.99887 | 0.016 | 288.3 |
| 2026-01-24T14:20 | 11.86477 | -116.99887 | 0.015 | 1.3 |
| 2026-01-24T14:30 | 11.86475 | -116.99885 | 0.009 | 125.4 |
| 2026-01-24T14:40 | 11.86466 | -116.99885 | 0.035 | 179.4 |
| 2026-01-24T14:50 | 11.86443 | -116.99981 | 0.350 | 256.4 |
| 2026-01-24T15:00 | 11.86440 | -117.00002 | 0.076 | 261.6 |
| 2026-01-24T15:10 | 11.86443 | -116.99999 | 0.017 | 39.5 |
| 2026-01-24T15:20 | 11.86443 | -116.99999 | 0.001 | 243.1 |
| 2026-01-24T15:30 | 11.86437 | -117.00002 | 0.024 | 209.3 |
| 2026-01-24T15:40 | 11.86432 | -117.00003 | 0.018 | 192.2 |
| 2026-01-24T15:50 | 11.86438 | -117.00005 | 0.022 | 343.0 |
| 2026-01-24T16:00 | 11.86437 | -116.99997 | 0.030 | 98.2 |
| 2026-01-24T16:10 | 11.86430 | -116.99998 | 0.026 | 186.3 |
| 2026-01-24T16:20 | 11.86441 | -116.99997 | 0.040 | 1.5 |
| 2026-01-24T16:30 | 11.86432 | -116.99994 | 0.033 | 161.4 |
| 2026-01-24T16:40 | 11.86434 | -116.99995 | 0.007 | 344.7 |
| 2026-01-24T16:50 | 11.86435 | -117.00001 | 0.022 | 285.4 |
| 2026-01-24T17:00 | 11.86432 | -116.99996 | 0.020 | 129.1 |
| 2026-01-24T17:10 | 11.86435 | -117.00000 | 0.018 | 308.9 |
| 2026-01-24T17:20 | 11.86441 | -116.99997 | 0.024 | 31.4 |
| 2026-01-24T17:30 | 11.86433 | -116.99997 | 0.028 | 184.3 |
| 2026-01-24T17:40 | 11.86439 | -116.99994 | 0.023 | 23.8 |
| 2026-01-24T17:50 | 11.86435 | -116.99999 | 0.021 | 225.3 |
| 2026-01-24T18:00 | 11.86482 | -117.00018 | 0.182 | 338.1 |
| 2026-01-24T18:10 | 11.86552 | -117.00120 | 0.438 | 304.8 |
| 2026-01-24T18:20 | 11.86714 | -117.00362 | 1.034 | 304.2 |
| 2026-01-24T18:30 | 11.86747 | -117.00455 | 0.347 | 289.7 |
| 2026-01-24T18:40 | 11.86745 | -117.00457 | 0.009 | 244.1 |
| 2026-01-24T18:50 | 11.86748 | -117.00458 | 0.007 | 348.9 |
| 2026-01-24T19:00 | 11.86745 | -117.00457 | 0.010 | 165.2 |
| 2026-01-24T19:10 | 11.86742 | -117.00456 | 0.012 | 166.6 |
| 2026-01-24T19:20 | 11.86748 | -117.00461 | 0.029 | 325.4 |
| 2026-01-24T19:30 | 11.86747 | -117.00456 | 0.019 | 108.4 |
| 2026-01-24T19:40 | 11.86744 | -117.00456 | 0.010 | 188.3 |
| 2026-01-24T19:50 | 11.86743 | -117.00459 | 0.012 | 255.8 |
| 2026-01-24T20:00 | 11.86747 | -117.00459 | 0.013 | 10.8 |
| 2026-01-24T20:10 | 11.86745 | -117.00455 | 0.012 | 111.5 |
| 2026-01-24T20:20 | 11.86746 | -117.00460 | 0.015 | 271.4 |
| 2026-01-24T20:30 | 11.86747 | -117.00456 | 0.015 | 71.3 |
| 2026-01-24T20:40 | 11.86741 | -117.00458 | 0.024 | 201.7 |
| 2026-01-24T20:50 | 11.86746 | -117.00456 | 0.020 | 24.4 |
| 2026-01-24T21:00 | 11.86743 | -117.00463 | 0.028 | 246.4 |
| 2026-01-24T21:10 | 11.86745 | -117.00459 | 0.016 | 60.8 |
| 2026-01-24T21:20 | 11.86704 | -117.00208 | 0.898 | 99.5 |
| 2026-01-24T21:30 | 11.86663 | -117.00066 | 0.522 | 106.4 |
| 2026-01-24T21:40 | 11.86670 | -117.00065 | 0.026 | 6.3 |
| 2026-01-24T21:50 | 11.86669 | -117.00067 | 0.008 | 239.6 |
| 2026-01-24T22:00 | 11.86673 | -117.00067 | 0.017 | 1.2 |
| 2026-01-24T22:10 | 11.86670 | -117.00069 | 0.014 | 209.4 |
| 2026-01-24T22:20 | 11.86669 | -117.00069 | 0.005 | 157.7 |
| 2026-01-24T22:30 | 11.86672 | -117.00063 | 0.024 | 57.1 |
| 2026-01-24T22:40 | 11.86664 | -117.00067 | 0.034 | 203.8 |
| 2026-01-24T22:50 | 11.86674 | -117.00064 | 0.037 | 17.8 |
| 2026-01-24T23:00 | 11.86674 | -117.00063 | 0.004 | 52.7 |
| 2026-01-24T23:10 | 11.86672 | -117.00067 | 0.017 | 241.5 |
| 2026-01-24T23:20 | 11.86670 | -117.00065 | 0.010 | 129.4 |
| 2026-01-24T23:30 | 11.86675 | -117.00065 | 0.016 | 358.8 |
| 2026-01-24T23:40 | 11.86668 | -117.00062 | 0.026 | 155.9 |
| 2026-01-24T23:50 | 11.86669 | -117.00066 | 0.016 | 285.5 |
| 2026-01-25T00:00 | 11.86667 | -117.00069 | 0.012 | 232.0 |
| 2026-01-25T00:10 | 11.86674 | -117.00064 | 0.031 | 39.4 |
| 2026-01-25T00:20 | 11.86669 | -117.00064 | 0.017 | 178.8 |
| 2026-01-25T00:30 | 11.86668 | -117.00067 | 0.013 | 257.6 |
| 2026-01-25T00:40 | 11.86665 | -117.00066 | 0.013 | 155.9 |
| 2026-01-25T00:50 | 11.86673 | -117.00063 | 0.028 | 21.1 |
| 2026-01-25T01:00 | 11.86673 | -117.00064 | 0.005 | 306.4 |
| 2026-01-25T01:10 | 11.86710 | -117.00011 | 0.229 | 55.0 |
| 2026-01-25T01:20 | 11.86722 | -116.99993 | 0.076 | 55.6 |
| 2026-01-25T01:30 | 11.86723 | -116.99990 | 0.011 | 62.2 |
| 2026-01-25T01:40 | 11.86725 | -116.99991 | 0.007 | 343.5 |
| 2026-01-25T01:50 | 11.86721 | -116.99992 | 0.015 | 193.2 |
| 2026-01-25T02:00 | 11.86721 | -116.99991 | 0.005 | 76.8 |
| 2026-01-25T02:10 | 11.86720 | -116.99993 | 0.008 | 240.8 |
| 2026-01-25T02:20 | 11.86724 | -116.99991 | 0.016 | 26.8 |
| 2026-01-25T02:30 | 11.86705 | -117.00012 | 0.101 | 228.1 |
| 2026-01-25T02:40 | 11.86659 | -117.00082 | 0.300 | 235.9 |
| 2026-01-25T02:50 | 11.86612 | -117.00150 | 0.291 | 234.9 |
| 2026-01-25T03:00 | 11.86621 | -117.00159 | 0.046 | 313.2 |
| 2026-01-25T03:10 | 11.86620 | -117.00159 | 0.002 | 201.5 |
| 2026-01-25T03:20 | 11.86620 | -117.00160 | 0.003 | 224.6 |
| 2026-01-25T03:30 | 11.86620 | -117.00162 | 0.005 | 281.5 |
| 2026-01-25T03:40 | 11.86620 | -117.00159 | 0.007 | 95.5 |
| 2026-01-25T03:50 | 11.86620 | -117.00159 | 0.001 | 341.8 |
| 2026-01-25T04:00 | 11.86627 | -117.00156 | 0.029 | 28.1 |
| 2026-01-25T04:10 | 11.86623 | -117.00155 | 0.016 | 176.2 |
| 2026-01-25T04:20 | 11.86625 | -117.00154 | 0.010 | 20.8 |
| 2026-01-25T04:30 | 11.86627 | -117.00154 | 0.004 | 9.3 |
| 2026-01-25T04:40 | 11.86624 | -117.00156 | 0.010 | 214.4 |
| 2026-01-25T04:50 | 11.86622 | -117.00156 | 0.008 | 199.0 |
| 2026-01-25T05:00 | 11.86624 | -117.00155 | 0.007 | 44.6 |
| 2026-01-25T05:10 | 11.86625 | -117.00154 | 0.006 | 21.5 |
| 2026-01-25T05:20 | 11.86626 | -117.00155 | 0.003 | 344.3 |
| 2026-01-25T05:30 | 11.86629 | -117.00154 | 0.010 | 6.0 |
| 2026-01-25T05:40 | 11.86631 | -117.00154 | 0.008 | 5.4 |
| 2026-01-25T05:50 | 11.86628 | -117.00157 | 0.015 | 225.5 |
| 2026-01-25T06:00 | 11.86618 | -117.00174 | 0.069 | 238.6 |
| 2026-01-25T06:10 | 11.86617 | -117.00173 | 0.005 | 122.0 |
| 2026-01-25T06:20 | 11.86629 | -117.00155 | 0.075 | 55.5 |
| 2026-01-25T06:30 | 11.86646 | -117.00129 | 0.111 | 56.0 |
| 2026-01-25T06:40 | 11.86645 | -117.00125 | 0.013 | 103.9 |
| 2026-01-25T06:50 | 11.86659 | -117.00103 | 0.091 | 57.8 |
| 2026-01-25T07:00 | 11.86652 | -117.00103 | 0.024 | 175.7 |
| 2026-01-25T07:10 | 11.86684 | -117.00116 | 0.123 | 338.5 |
| 2026-01-25T07:20 | 11.86745 | -117.00141 | 0.234 | 337.5 |
| 2026-01-25T07:30 | 11.86740 | -117.00140 | 0.018 | 169.9 |
| 2026-01-25T07:40 | 11.86742 | -117.00141 | 0.010 | 337.4 |
| 2026-01-25T07:50 | 11.86738 | -117.00143 | 0.015 | 198.6 |
| 2026-01-25T08:00 | 11.86740 | -117.00142 | 0.009 | 6.7 |
| 2026-01-25T08:10 | 11.86742 | -117.00141 | 0.008 | 25.0 |
| 2026-01-25T08:20 | 11.86743 | -117.00143 | 0.006 | 273.4 |
| 2026-01-25T08:30 | 11.86743 | -117.00138 | 0.017 | 85.1 |
| 2026-01-25T08:40 | 11.86744 | -117.00142 | 0.013 | 294.1 |
| 2026-01-25T08:50 | 11.86741 | -117.00141 | 0.012 | 164.5 |
| 2026-01-25T09:00 | 11.86745 | -117.00140 | 0.012 | 16.6 |
| 2026-01-25T09:10 | 11.86741 | -117.00142 | 0.015 | 214.8 |
| 2026-01-25T09:20 | 11.86742 | -117.00140 | 0.011 | 70.7 |
| 2026-01-25T09:30 | 11.86747 | -117.00141 | 0.017 | 345.9 |
| 2026-01-25T09:40 | 11.86739 | -117.00142 | 0.029 | 190.3 |
| 2026-01-25T09:50 | 11.86740 | -117.00090 | 0.185 | 89.0 |
| 2026-01-25T10:00 | 11.86733 | -117.00038 | 0.184 | 97.2 |
| 2026-01-25T10:10 | 11.86734 | -117.00034 | 0.013 | 83.7 |
| 2026-01-25T10:20 | 11.86735 | -117.00037 | 0.011 | 306.2 |
| 2026-01-25T10:30 | 11.86732 | -117.00037 | 0.013 | 183.1 |
| 2026-01-25T10:40 | 11.86739 | -117.00035 | 0.028 | 10.9 |
| 2026-01-25T10:50 | 11.86744 | -117.00036 | 0.015 | 350.7 |
| 2026-01-25T11:00 | 11.86744 | -117.00036 | 0.001 | 71.3 |
| 2026-01-25T11:10 | 11.86745 | -117.00035 | 0.006 | 49.3 |
| 2026-01-25T11:20 | 11.86739 | -117.00035 | 0.020 | 189.0 |
| 2026-01-25T11:30 | 11.86739 | -117.00035 | 0.003 | 98.2 |
| 2026-01-25T11:40 | 11.86737 | -117.00035 | 0.007 | 194.5 |
| 2026-01-25T11:50 | 11.86743 | -117.00034 | 0.022 | 14.7 |
| 2026-01-25T12:00 | 11.86743 | -117.00035 | 0.007 | 248.4 |
| 2026-01-25T12:10 | 11.86744 | -117.00035 | 0.005 | 22.9 |
| 2026-01-25T12:20 | 11.86741 | -117.00036 | 0.011 | 193.4 |
| 2026-01-25T12:30 | 11.86742 | -117.00034 | 0.006 | 60.3 |
| 2026-01-25T12:40 | 11.86742 | -117.00036 | 0.008 | 272.4 |
| 2026-01-25T12:50 | 11.86738 | -117.00036 | 0.014 | 180.0 |
| 2026-01-25T13:00 | 11.86743 | -117.00033 | 0.020 | 33.6 |
| 2026-01-25T13:10 | 11.86742 | -117.00033 | 0.004 | 145.4 |
| 2026-01-25T13:20 | 11.86731 | -117.00041 | 0.048 | 218.6 |
| 2026-01-25T13:30 | 11.86670 | -117.00101 | 0.305 | 223.7 |
| 2026-01-25T13:40 | 11.86662 | -117.00110 | 0.045 | 229.4 |
| 2026-01-25T13:50 | 11.86657 | -117.00110 | 0.015 | 171.8 |
| 2026-01-25T14:00 | 11.86663 | -117.00111 | 0.021 | 348.1 |
| 2026-01-25T14:10 | 11.86660 | -117.00113 | 0.012 | 206.2 |
| 2026-01-25T14:20 | 11.86662 | -117.00109 | 0.015 | 59.4 |
| 2026-01-25T14:30 | 11.86662 | -117.00109 | 0.001 | 26.2 |
| 2026-01-25T14:40 | 11.86658 | -117.00112 | 0.019 | 216.0 |
| 2026-01-25T14:50 | 11.86661 | -117.00083 | 0.104 | 85.2 |
| 2026-01-25T15:00 | 11.86660 | -117.00079 | 0.014 | 97.6 |
| 2026-01-25T15:10 | 11.86684 | -117.00076 | 0.085 | 7.6 |
| 2026-01-25T15:20 | 11.86738 | -117.00066 | 0.197 | 10.1 |
| 2026-01-25T15:30 | 11.86736 | -117.00066 | 0.006 | 200.3 |
| 2026-01-25T15:40 | 11.86732 | -117.00051 | 0.055 | 105.8 |
| 2026-01-25T15:50 | 11.86734 | -117.00053 | 0.011 | 315.4 |
| 2026-01-25T16:00 | 11.86734 | -117.00056 | 0.008 | 257.0 |
| 2026-01-25T16:10 | 11.86735 | -117.00062 | 0.025 | 286.1 |
| 2026-01-25T16:20 | 11.86735 | -117.00061 | 0.005 | 127.3 |
| 2026-01-25T16:30 | 11.86729 | -117.00062 | 0.019 | 193.8 |
| 2026-01-25T16:40 | 11.86731 | -117.00061 | 0.007 | 42.5 |
| 2026-01-25T16:50 | 11.86727 | -117.00062 | 0.014 | 201.0 |
| 2026-01-25T17:00 | 11.86727 | -117.00064 | 0.004 | 274.8 |
| 2026-01-25T17:10 | 11.86733 | -117.00061 | 0.023 | 28.2 |
| 2026-01-25T17:20 | 11.86732 | -117.00061 | 0.005 | 209.9 |
| 2026-01-25T17:30 | 11.86729 | -117.00063 | 0.012 | 213.3 |
| 2026-01-25T17:40 | 11.86729 | -117.00062 | 0.005 | 113.5 |
| 2026-01-25T17:50 | 11.86729 | -117.00064 | 0.008 | 293.5 |
| 2026-01-25T18:00 | 11.86739 | -117.00062 | 0.034 | 8.3 |
| 2026-01-25T18:10 | 11.86740 | -117.00062 | 0.006 | 6.6 |
| 2026-01-25T18:20 | 11.86744 | -117.00060 | 0.014 | 40.5 |
| 2026-01-25T18:30 | 11.86742 | -117.00059 | 0.006 | 150.6 |
| 2026-01-25T18:40 | 11.86743 | -117.00058 | 0.006 | 42.1 |
| 2026-01-25T18:50 | 11.86740 | -117.00063 | 0.024 | 234.9 |
| 2026-01-25T19:00 | 11.86745 | -117.00063 | 0.021 | 5.7 |
| 2026-01-25T19:10 | 11.86745 | -117.00063 | 0.002 | 243.1 |
| 2026-01-25T19:20 | 11.86743 | -117.00058 | 0.019 | 117.4 |
| 2026-01-25T19:30 | 11.86746 | -117.00061 | 0.015 | 326.7 |
| 2026-01-25T19:40 | 11.86746 | -117.00060 | 0.001 | 90.0 |
| 2026-01-25T19:50 | 11.86744 | -117.00058 | 0.011 | 139.4 |
| 2026-01-25T20:00 | 11.86744 | -117.00063 | 0.015 | 271.4 |
| 2026-01-25T20:10 | 11.86746 | -117.00063 | 0.008 | 352.0 |
| 2026-01-25T20:20 | 11.86744 | -117.00059 | 0.017 | 124.4 |
| 2026-01-25T20:30 | 11.86739 | -117.00060 | 0.017 | 193.5 |
| 2026-01-25T20:40 | 11.86745 | -117.00063 | 0.023 | 332.6 |
| 2026-01-25T20:50 | 11.86739 | -117.00060 | 0.024 | 150.7 |
| 2026-01-25T21:00 | 11.86741 | -117.00059 | 0.006 | 19.2 |
| 2026-01-25T21:10 | 11.86741 | -117.00059 | 0.003 | 26.2 |
| 2026-01-25T21:20 | 11.86740 | -117.00060 | 0.005 | 218.9 |
| 2026-01-25T21:30 | 11.86742 | -117.00061 | 0.007 | 328.4 |
| 2026-01-25T21:40 | 11.86742 | -117.00063 | 0.007 | 275.8 |
| 2026-01-25T21:50 | 11.86643 | -117.00078 | 0.359 | 188.9 |
| 2026-01-25T22:00 | 11.85984 | -117.00555 | 2.899 | 215.5 |
| 2026-01-25T22:10 | 11.83960 | -117.01867 | 8.601 | 212.6 |
| 2026-01-25T22:20 | 11.81672 | -117.03158 | 9.375 | 209.1 |
| 2026-01-25T22:30 | 11.79167 | -117.04509 | 10.162 | 208.0 |
| 2026-01-25T22:40 | 11.76697 | -117.05862 | 10.052 | 208.3 |
| 2026-01-25T22:50 | 11.74281 | -117.07235 | 9.921 | 209.2 |
| 2026-01-25T23:00 | 11.71824 | -117.08622 | 10.068 | 209.1 |
| 2026-01-25T23:10 | 11.69388 | -117.09987 | 9.968 | 208.9 |
| 2026-01-25T23:20 | 11.66961 | -117.11221 | 9.723 | 206.6 |
| 2026-01-25T23:30 | 11.65201 | -117.11775 | 6.603 | 197.2 |
| 2026-01-25T23:40 | 11.65023 | -117.10061 | 6.084 | 96.0 |
| 2026-01-25T23:50 | 11.65046 | -117.08407 | 5.839 | 89.2 |
| 2026-01-26T00:00 | 11.65035 | -117.06702 | 6.023 | 90.4 |
| 2026-01-26T00:10 | 11.65032 | -117.04995 | 6.026 | 90.1 |
| 2026-01-26T00:20 | 11.65034 | -117.03296 | 5.999 | 89.9 |
| 2026-01-26T00:30 | 11.65037 | -117.01616 | 5.931 | 89.9 |
| 2026-01-26T00:40 | 11.65026 | -116.99947 | 5.894 | 90.4 |
| 2026-01-26T00:50 | 11.65021 | -116.98271 | 5.918 | 90.1 |
| 2026-01-26T01:00 | 11.65026 | -116.97070 | 4.239 | 89.8 |
| 2026-01-26T01:10 | 11.65046 | -116.96280 | 2.791 | 88.5 |
| 2026-01-26T01:20 | 11.65065 | -116.95459 | 2.899 | 88.6 |
| 2026-01-26T01:30 | 11.64999 | -116.94966 | 1.756 | 97.8 |
| 2026-01-26T01:40 | 11.64991 | -116.94486 | 1.695 | 90.9 |
| 2026-01-26T01:50 | 11.64982 | -116.93805 | 2.405 | 90.8 |
| 2026-01-26T02:00 | 11.64932 | -116.93073 | 2.593 | 93.9 |
| 2026-01-26T02:10 | 11.64955 | -116.92515 | 1.970 | 87.7 |
| 2026-01-26T02:20 | 11.65051 | -116.91847 | 2.384 | 81.7 |
| 2026-01-26T02:30 | 11.65030 | -116.91045 | 2.834 | 91.5 |
| 2026-01-26T02:40 | 11.65023 | -116.90271 | 2.730 | 90.5 |
| 2026-01-26T02:50 | 11.65024 | -116.89506 | 2.702 | 89.9 |
| 2026-01-26T03:00 | 11.65029 | -116.88258 | 4.408 | 89.8 |
| 2026-01-26T03:10 | 11.65033 | -116.86458 | 6.353 | 89.9 |
| 2026-01-26T03:20 | 11.65038 | -116.84763 | 5.985 | 89.8 |
| 2026-01-26T03:30 | 11.65041 | -116.83060 | 6.012 | 89.9 |
| 2026-01-26T03:40 | 11.64018 | -116.82059 | 5.090 | 136.0 |
| 2026-01-26T03:50 | 11.61698 | -116.82046 | 8.310 | 179.7 |
| 2026-01-26T04:00 | 11.59405 | -116.82055 | 8.213 | 180.2 |
| 2026-01-26T04:10 | 11.58774 | -116.83279 | 4.879 | 242.4 |
| 2026-01-26T04:20 | 11.58708 | -116.85027 | 6.177 | 267.8 |
| 2026-01-26T04:30 | 11.58693 | -116.86727 | 6.003 | 269.5 |
| 2026-01-26T04:40 | 11.58699 | -116.88417 | 5.968 | 270.2 |
| 2026-01-26T04:50 | 11.58702 | -116.90175 | 6.211 | 270.1 |
| 2026-01-26T05:00 | 11.58699 | -116.91885 | 6.036 | 269.9 |
| 2026-01-26T05:10 | 11.58694 | -116.93618 | 6.123 | 269.8 |
| 2026-01-26T05:20 | 11.58694 | -116.95402 | 6.297 | 270.0 |
| 2026-01-26T05:30 | 11.58705 | -116.97182 | 6.287 | 270.4 |
| 2026-01-26T05:40 | 11.58714 | -116.98935 | 6.190 | 270.3 |
| 2026-01-26T05:50 | 11.58698 | -117.00688 | 6.194 | 269.5 |
| 2026-01-26T06:00 | 11.58702 | -117.02431 | 6.154 | 270.2 |
| 2026-01-26T06:10 | 11.58701 | -117.04176 | 6.163 | 269.9 |
| 2026-01-26T06:20 | 11.58711 | -117.05905 | 6.106 | 270.4 |
| 2026-01-26T06:30 | 11.58695 | -117.07623 | 6.069 | 269.4 |
| 2026-01-26T06:40 | 11.58703 | -117.09310 | 5.958 | 270.3 |
| 2026-01-26T06:50 | 11.58705 | -117.11099 | 6.318 | 270.1 |
| 2026-01-26T07:00 | 11.57285 | -117.11712 | 5.528 | 203.1 |
| 2026-01-26T07:10 | 11.54922 | -117.11725 | 8.462 | 180.3 |
| 2026-01-26T07:20 | 11.52583 | -117.11595 | 8.392 | 176.9 |
| 2026-01-26T07:30 | 11.52363 | -117.09833 | 6.274 | 97.2 |
| 2026-01-26T07:40 | 11.52356 | -117.08076 | 6.208 | 90.2 |
| 2026-01-26T07:50 | 11.52372 | -117.06278 | 6.352 | 89.5 |
| 2026-01-26T08:00 | 11.52373 | -117.04540 | 6.136 | 90.0 |
| 2026-01-26T08:10 | 11.52384 | -117.02806 | 6.127 | 89.6 |
| 2026-01-26T08:20 | 11.52377 | -117.01079 | 6.099 | 90.2 |
| 2026-01-26T08:30 | 11.52372 | -116.99358 | 6.082 | 90.2 |
| 2026-01-26T08:40 | 11.52374 | -116.97660 | 5.998 | 89.9 |
| 2026-01-26T08:50 | 11.52372 | -116.95946 | 6.052 | 90.1 |
| 2026-01-26T09:00 | 11.52380 | -116.94197 | 6.178 | 89.7 |
| 2026-01-26T09:10 | 11.52376 | -116.92468 | 6.109 | 90.2 |
| 2026-01-26T09:20 | 11.52378 | -116.90735 | 6.121 | 89.9 |
| 2026-01-26T09:30 | 11.52383 | -116.89024 | 6.045 | 89.8 |
| 2026-01-26T09:40 | 11.52373 | -116.87319 | 6.023 | 90.3 |
| 2026-01-26T09:50 | 11.52381 | -116.85590 | 6.106 | 89.7 |
| 2026-01-26T10:00 | 11.52377 | -116.83860 | 6.110 | 90.1 |
| 2026-01-26T10:10 | 11.52435 | -116.82984 | 3.103 | 86.2 |
| 2026-01-26T10:20 | 11.52089 | -116.82628 | 1.764 | 134.6 |
| 2026-01-26T10:30 | 11.49763 | -116.82252 | 8.436 | 170.9 |
| 2026-01-26T10:40 | 11.47146 | -116.82167 | 9.379 | 178.2 |
| 2026-01-26T10:50 | 11.46081 | -116.83089 | 5.014 | 220.5 |
| 2026-01-26T11:00 | 11.46052 | -116.84862 | 6.267 | 269.0 |
| 2026-01-26T11:10 | 11.46046 | -116.86609 | 6.172 | 269.8 |
| 2026-01-26T11:20 | 11.46036 | -116.88296 | 5.961 | 269.7 |
| 2026-01-26T11:30 | 11.47015 | -116.89482 | 5.463 | 309.9 |
| 2026-01-26T11:40 | 11.49660 | -116.90613 | 10.281 | 337.1 |
| 2026-01-26T11:50 | 11.52338 | -116.91769 | 10.428 | 336.9 |
| 2026-01-26T12:00 | 11.55025 | -116.92928 | 10.457 | 337.0 |
| 2026-01-26T12:10 | 11.57839 | -116.94144 | 10.957 | 336.9 |
| 2026-01-26T12:20 | 11.60727 | -116.95389 | 11.238 | 337.0 |
| 2026-01-26T12:30 | 11.63632 | -116.96629 | 11.291 | 337.2 |
| 2026-01-26T12:40 | 11.66532 | -116.97870 | 11.272 | 337.1 |
| 2026-01-26T12:50 | 11.69414 | -116.99125 | 11.235 | 336.8 |
| 2026-01-26T13:00 | 11.72315 | -117.00367 | 11.278 | 337.1 |
| 2026-01-26T13:10 | 11.75176 | -117.01775 | 11.388 | 334.1 |
| 2026-01-26T13:20 | 11.78086 | -117.03205 | 11.580 | 334.2 |
| 2026-01-26T13:30 | 11.80895 | -117.04691 | 11.348 | 332.5 |
| 2026-01-26T13:40 | 11.83475 | -117.06037 | 10.391 | 332.8 |
| 2026-01-26T13:50 | 11.84380 | -117.05921 | 3.265 | 7.2 |
| 2026-01-26T14:00 | 11.84386 | -117.05880 | 0.148 | 80.9 |
| 2026-01-26T14:10 | 11.84385 | -117.05884 | 0.014 | 249.0 |
| 2026-01-26T14:20 | 11.84382 | -117.05887 | 0.015 | 233.3 |
| 2026-01-26T14:30 | 11.84382 | -117.05885 | 0.007 | 109.6 |
| 2026-01-26T14:40 | 11.84403 | -117.05882 | 0.077 | 6.6 |
| 2026-01-26T14:50 | 11.84387 | -117.05881 | 0.058 | 176.2 |
| 2026-01-26T15:00 | 11.84388 | -117.05882 | 0.004 | 315.4 |
| 2026-01-26T15:10 | 11.84387 | -117.05885 | 0.011 | 255.3 |
| 2026-01-26T15:20 | 11.84389 | -117.05885 | 0.007 | 354.1 |
| 2026-01-26T15:30 | 11.84385 | -117.05887 | 0.015 | 204.3 |
| 2026-01-26T15:40 | 11.84386 | -117.05886 | 0.008 | 44.6 |
| 2026-01-26T15:50 | 11.84386 | -117.05888 | 0.008 | 267.6 |
| 2026-01-26T16:00 | 11.84386 | -117.05886 | 0.007 | 106.9 |
| 2026-01-26T16:10 | 11.84388 | -117.05885 | 0.009 | 25.2 |
| 2026-01-26T16:20 | 11.84388 | -117.05883 | 0.008 | 103.6 |
| 2026-01-26T16:30 | 11.84385 | -117.05886 | 0.014 | 225.6 |
| 2026-01-26T16:40 | 11.84384 | -117.05888 | 0.007 | 255.8 |
| 2026-01-26T16:50 | 11.84388 | -117.05885 | 0.016 | 39.2 |
| 2026-01-26T17:00 | 11.84385 | -117.05887 | 0.014 | 223.5 |
| 2026-01-26T17:10 | 11.84387 | -117.05886 | 0.007 | 35.8 |
| 2026-01-26T17:20 | 11.84388 | -117.05885 | 0.006 | 35.1 |
| 2026-01-26T17:30 | 11.84383 | -117.05885 | 0.019 | 175.7 |
| 2026-01-26T17:40 | 11.84394 | -117.05883 | 0.040 | 8.7 |
| 2026-01-26T17:50 | 11.84389 | -117.05883 | 0.015 | 172.0 |
| 2026-01-26T18:00 | 11.84389 | -117.05880 | 0.011 | 105.2 |
| 2026-01-26T18:10 | 11.84390 | -117.05879 | 0.007 | 26.2 |
| 2026-01-26T18:20 | 11.84386 | -117.05878 | 0.016 | 170.1 |
| 2026-01-26T18:30 | 11.84386 | -117.05880 | 0.006 | 262.8 |
| 2026-01-26T18:40 | 11.84388 | -117.05879 | 0.009 | 13.8 |
| 2026-01-26T18:50 | 11.84387 | -117.05880 | 0.005 | 224.6 |
| 2026-01-26T19:00 | 11.84385 | -117.05881 | 0.010 | 213.3 |
| 2026-01-26T19:10 | 11.84379 | -117.05880 | 0.023 | 167.8 |
| 2026-01-26T19:20 | 11.84384 | -117.05880 | 0.021 | 359.0 |
| 2026-01-26T19:30 | 11.84389 | -117.05882 | 0.017 | 333.8 |
| 2026-01-26T19:40 | 11.84387 | -117.05882 | 0.005 | 155.6 |
| 2026-01-26T19:50 | 11.84388 | -117.05882 | 0.002 | 296.9 |
| 2026-01-26T20:00 | 11.84389 | -117.05885 | 0.013 | 299.1 |
| 2026-01-26T20:10 | 11.84388 | -117.05882 | 0.011 | 116.9 |
| 2026-01-26T20:20 | 11.84388 | -117.05882 | 0.001 | 33.3 |
| 2026-01-26T20:30 | 11.84387 | -117.05882 | 0.005 | 160.6 |
| 2026-01-26T20:40 | 11.84389 | -117.05883 | 0.010 | 339.2 |
| 2026-01-26T20:50 | 11.84386 | -117.05883 | 0.011 | 192.9 |
| 2026-01-26T21:00 | 11.84387 | -117.05881 | 0.008 | 63.1 |
| 2026-01-26T21:10 | 11.84386 | -117.05883 | 0.009 | 229.2 |
| 2026-01-26T21:20 | 11.84388 | -117.05883 | 0.007 | 8.4 |
| 2026-01-26T21:30 | 11.84385 | -117.05883 | 0.008 | 174.9 |
| 2026-01-26T21:40 | 11.84383 | -117.05885 | 0.011 | 228.6 |
| 2026-01-26T21:50 | 11.84383 | -117.05884 | 0.004 | 114.8 |
| 2026-01-26T22:00 | 11.84389 | -117.05882 | 0.024 | 14.2 |
| 2026-01-26T22:10 | 11.84383 | -117.05885 | 0.025 | 198.7 |
| 2026-01-26T22:20 | 11.84396 | -117.05884 | 0.047 | 4.3 |
| 2026-01-26T22:30 | 11.84388 | -117.05884 | 0.027 | 180.0 |
| 2026-01-26T22:40 | 11.84373 | -117.05889 | 0.058 | 198.1 |
| 2026-01-26T22:50 | 11.84381 | -117.05891 | 0.031 | 341.8 |
| 2026-01-26T23:00 | 11.84378 | -117.05885 | 0.025 | 115.5 |
| 2026-01-26T23:10 | 11.84377 | -117.05885 | 0.005 | 183.8 |
| 2026-01-26T23:20 | 11.84383 | -117.05884 | 0.022 | 7.5 |
| 2026-01-26T23:30 | 11.84385 | -117.05873 | 0.040 | 78.0 |
| 2026-01-26T23:40 | 11.84342 | -117.05859 | 0.164 | 161.5 |
| 2026-01-26T23:50 | 11.84353 | -117.05858 | 0.042 | 0.5 |
| 2026-01-27T00:00 | 11.84354 | -117.05857 | 0.005 | 53.6 |
| 2026-01-27T00:10 | 11.84345 | -117.05861 | 0.035 | 198.7 |
| 2026-01-27T00:20 | 11.84349 | -117.05854 | 0.027 | 53.6 |
| 2026-01-27T00:30 | 11.84343 | -117.05860 | 0.028 | 220.5 |
| 2026-01-27T00:40 | 11.84354 | -117.05857 | 0.037 | 12.5 |
| 2026-01-27T00:50 | 11.84352 | -117.05859 | 0.008 | 235.9 |
| 2026-01-27T01:00 | 11.84353 | -117.05858 | 0.004 | 63.1 |
| 2026-01-27T01:10 | 11.84357 | -117.05858 | 0.016 | 5.0 |
| 2026-01-27T01:20 | 11.84357 | -117.05854 | 0.013 | 100.9 |
| 2026-01-27T01:30 | 11.84352 | -117.05854 | 0.018 | 180.0 |
| 2026-01-27T01:40 | 11.84357 | -117.05859 | 0.026 | 317.1 |
| 2026-01-27T01:50 | 11.84356 | -117.05859 | 0.004 | 195.0 |
| 2026-01-27T02:00 | 11.84355 | -117.05854 | 0.018 | 96.7 |
| 2026-01-27T02:10 | 11.84354 | -117.05856 | 0.007 | 241.7 |
| 2026-01-27T02:20 | 11.84351 | -117.05858 | 0.015 | 203.8 |
| 2026-01-27T02:30 | 11.84353 | -117.05859 | 0.012 | 331.5 |
| 2026-01-27T02:40 | 11.84349 | -117.05859 | 0.017 | 175.1 |
| 2026-01-27T02:50 | 11.84352 | -117.05857 | 0.014 | 31.3 |
| 2026-01-27T03:00 | 11.84351 | -117.05856 | 0.005 | 135.4 |
| 2026-01-27T03:10 | 11.84353 | -117.05856 | 0.007 | 354.4 |
| 2026-01-27T03:20 | 11.84353 | -117.05859 | 0.012 | 259.5 |
| 2026-01-27T03:30 | 11.84351 | -117.05856 | 0.014 | 122.1 |
| 2026-01-27T03:40 | 11.84396 | -117.05897 | 0.217 | 318.1 |
| 2026-01-27T03:50 | 11.84394 | -117.05895 | 0.010 | 132.4 |
| 2026-01-27T04:00 | 11.84389 | -117.05897 | 0.018 | 200.0 |
| 2026-01-27T04:10 | 11.84366 | -117.05864 | 0.143 | 126.4 |
| 2026-01-27T04:20 | 11.84366 | -117.05864 | 0.003 | 0.0 |
| 2026-01-27T04:30 | 11.84364 | -117.05864 | 0.009 | 175.3 |
| 2026-01-27T04:40 | 11.84363 | -117.05862 | 0.007 | 108.7 |
| 2026-01-27T04:50 | 11.84371 | -117.05867 | 0.033 | 330.2 |
| 2026-01-27T05:00 | 11.84376 | -117.05868 | 0.016 | 338.3 |
| 2026-01-27T05:10 | 11.84372 | -117.05870 | 0.015 | 207.5 |
| 2026-01-27T05:20 | 11.84374 | -117.05867 | 0.014 | 67.6 |
| 2026-01-27T05:30 | 11.84375 | -117.05867 | 0.006 | 353.4 |
| 2026-01-27T05:40 | 11.84378 | -117.05869 | 0.011 | 319.4 |
| 2026-01-27T05:50 | 11.84375 | -117.05866 | 0.013 | 130.0 |
| 2026-01-27T06:00 | 11.84375 | -117.05865 | 0.002 | 108.7 |
| 2026-01-27T06:10 | 11.84378 | -117.05870 | 0.019 | 303.5 |
| 2026-01-27T06:20 | 11.84372 | -117.05870 | 0.021 | 181.9 |
| 2026-01-27T06:30 | 11.84348 | -117.05868 | 0.086 | 175.5 |
| 2026-01-27T06:40 | 11.84349 | -117.05866 | 0.007 | 69.5 |
| 2026-01-27T06:50 | 11.84350 | -117.05864 | 0.009 | 65.2 |
| 2026-01-27T07:00 | 11.84347 | -117.05868 | 0.016 | 232.7 |
| 2026-01-27T07:10 | 11.84352 | -117.05866 | 0.018 | 20.0 |
| 2026-01-27T07:20 | 11.84354 | -117.05869 | 0.012 | 305.9 |
| 2026-01-27T07:30 | 11.84353 | -117.05869 | 0.003 | 164.3 |
| 2026-01-27T07:40 | 11.84350 | -117.05864 | 0.020 | 129.6 |
| 2026-01-27T07:50 | 11.84354 | -117.05865 | 0.014 | 351.6 |
| 2026-01-27T08:00 | 11.84352 | -117.05868 | 0.013 | 245.2 |
| 2026-01-27T08:10 | 11.84355 | -117.05865 | 0.018 | 47.8 |
| 2026-01-27T08:20 | 11.84352 | -117.05859 | 0.022 | 118.2 |
| 2026-01-27T08:30 | 11.84353 | -117.05857 | 0.007 | 59.2 |
| 2026-01-27T08:40 | 11.84355 | -117.05858 | 0.005 | 318.2 |
| 2026-01-27T08:50 | 11.84356 | -117.05858 | 0.006 | 20.3 |
| 2026-01-27T09:00 | 11.84353 | -117.05857 | 0.012 | 165.0 |
| 2026-01-27T09:10 | 11.84354 | -117.05857 | 0.003 | 352.0 |
| 2026-01-27T09:20 | 11.84352 | -117.05856 | 0.005 | 148.8 |
| 2026-01-27T09:30 | 11.84372 | -117.05873 | 0.090 | 320.2 |
| 2026-01-27T09:40 | 11.84398 | -117.05884 | 0.101 | 336.7 |
| 2026-01-27T09:50 | 11.84404 | -117.05887 | 0.028 | 334.4 |
| 2026-01-27T10:00 | 11.84403 | -117.05893 | 0.019 | 252.7 |
| 2026-01-27T10:10 | 11.84404 | -117.05886 | 0.024 | 79.0 |
| 2026-01-27T10:20 | 11.84405 | -117.05892 | 0.022 | 281.5 |
| 2026-01-27T10:30 | 11.84405 | -117.05887 | 0.016 | 96.4 |
| 2026-01-27T10:40 | 11.84401 | -117.05888 | 0.014 | 185.6 |
| 2026-01-27T10:50 | 11.84400 | -117.05889 | 0.005 | 238.0 |
| 2026-01-27T11:00 | 11.84417 | -117.05901 | 0.073 | 324.5 |
| 2026-01-27T11:10 | 11.84414 | -117.05894 | 0.026 | 114.1 |
| 2026-01-27T11:20 | 11.84414 | -117.05905 | 0.037 | 271.1 |
| 2026-01-27T11:30 | 11.84420 | -117.05898 | 0.031 | 46.0 |
| 2026-01-27T11:40 | 11.84406 | -117.05886 | 0.067 | 140.6 |
| 2026-01-27T11:50 | 11.84408 | -117.05889 | 0.014 | 313.4 |
| 2026-01-27T12:00 | 11.84404 | -117.05890 | 0.015 | 189.3 |
| 2026-01-27T12:10 | 11.84408 | -117.05888 | 0.017 | 24.1 |
| 2026-01-27T12:20 | 11.84409 | -117.05893 | 0.018 | 274.6 |
| 2026-01-27T12:30 | 11.84411 | -117.05890 | 0.012 | 47.1 |
| 2026-01-27T12:40 | 11.84410 | -117.05889 | 0.006 | 118.4 |
| 2026-01-27T12:50 | 11.84406 | -117.05896 | 0.027 | 239.4 |
| 2026-01-27T13:00 | 11.84403 | -117.05890 | 0.022 | 123.6 |
| 2026-01-27T13:10 | 11.84405 | -117.05891 | 0.007 | 339.0 |
| 2026-01-27T13:20 | 11.84405 | -117.05888 | 0.013 | 83.6 |
| 2026-01-27T13:30 | 11.84400 | -117.05887 | 0.018 | 177.8 |
| 2026-01-27T13:40 | 11.84402 | -117.05889 | 0.010 | 326.7 |
| 2026-01-27T13:50 | 11.84397 | -117.05863 | 0.094 | 101.2 |
| 2026-01-27T14:00 | 11.84413 | -117.05852 | 0.068 | 34.0 |
| 2026-01-27T14:10 | 11.84497 | -117.05656 | 0.755 | 66.5 |
| 2026-01-27T14:20 | 11.84600 | -117.05415 | 0.927 | 66.4 |
| 2026-01-27T14:30 | 11.84598 | -117.05421 | 0.023 | 244.7 |
| 2026-01-27T14:40 | 11.84593 | -117.05428 | 0.031 | 239.2 |
| 2026-01-27T14:50 | 11.84594 | -117.05426 | 0.009 | 87.7 |
| 2026-01-27T15:00 | 11.84590 | -117.05425 | 0.015 | 166.2 |
| 2026-01-27T15:10 | 11.84586 | -117.05417 | 0.030 | 117.2 |
| 2026-01-27T15:20 | 11.84589 | -117.05418 | 0.013 | 338.8 |
| 2026-01-27T15:30 | 11.84613 | -117.05439 | 0.114 | 319.7 |
| 2026-01-27T15:40 | 11.84609 | -117.05426 | 0.049 | 110.5 |
| 2026-01-27T15:50 | 11.84612 | -117.05426 | 0.012 | 9.9 |
| 2026-01-27T16:00 | 11.84606 | -117.05422 | 0.024 | 143.9 |
| 2026-01-27T16:10 | 11.84604 | -117.05423 | 0.011 | 203.6 |
| 2026-01-27T16:20 | 11.84609 | -117.05424 | 0.019 | 348.4 |
| 2026-01-27T16:30 | 11.84605 | -117.05423 | 0.017 | 162.6 |
| 2026-01-27T16:40 | 11.84602 | -117.05430 | 0.029 | 251.3 |
| 2026-01-27T16:50 | 11.84607 | -117.05425 | 0.027 | 47.8 |
| 2026-01-27T17:00 | 11.84608 | -117.05437 | 0.043 | 273.3 |
| 2026-01-27T17:10 | 11.84601 | -117.05685 | 0.875 | 268.5 |
| 2026-01-27T17:20 | 11.84634 | -117.05731 | 0.200 | 305.7 |
| 2026-01-27T17:30 | 11.84638 | -117.05721 | 0.039 | 71.1 |
| 2026-01-27T17:40 | 11.84588 | -117.05851 | 0.493 | 248.9 |
| 2026-01-27T17:50 | 11.84625 | -117.05782 | 0.277 | 61.7 |
| 2026-01-27T18:00 | 11.84649 | -117.05720 | 0.236 | 68.3 |
| 2026-01-27T18:10 | 11.84648 | -117.05715 | 0.017 | 100.6 |
| 2026-01-27T18:20 | 11.84647 | -117.05718 | 0.013 | 245.2 |
| 2026-01-27T18:30 | 11.84649 | -117.05711 | 0.028 | 69.4 |
| 2026-01-27T18:40 | 11.84644 | -117.05712 | 0.019 | 193.8 |
| 2026-01-27T18:50 | 11.84642 | -117.05708 | 0.017 | 115.3 |
| 2026-01-27T19:00 | 11.84652 | -117.05703 | 0.038 | 26.5 |
| 2026-01-27T19:10 | 11.84641 | -117.05711 | 0.048 | 214.0 |
| 2026-01-27T19:20 | 11.84639 | -117.05712 | 0.006 | 227.1 |
| 2026-01-27T19:30 | 11.84646 | -117.05715 | 0.027 | 332.4 |
| 2026-01-27T19:40 | 11.84643 | -117.05714 | 0.010 | 153.8 |
| 2026-01-27T19:50 | 11.84649 | -117.05709 | 0.027 | 45.1 |
| 2026-01-27T20:00 | 11.84641 | -117.05715 | 0.034 | 218.1 |
| 2026-01-27T20:10 | 11.84639 | -117.05709 | 0.021 | 112.6 |
| 2026-01-27T20:20 | 11.84645 | -117.05709 | 0.020 | 357.0 |
| 2026-01-27T20:30 | 11.84639 | -117.05712 | 0.021 | 207.9 |
| 2026-01-27T20:40 | 11.84642 | -117.05707 | 0.020 | 61.7 |
| 2026-01-27T20:50 | 11.84638 | -117.05711 | 0.020 | 225.3 |
| 2026-01-27T21:00 | 11.84648 | -117.05706 | 0.040 | 23.0 |
| 2026-01-27T21:10 | 11.84579 | -117.05561 | 0.572 | 115.9 |
| 2026-01-27T21:20 | 11.84586 | -117.05555 | 0.032 | 39.1 |
| 2026-01-27T21:30 | 11.84593 | -117.05554 | 0.026 | 7.7 |
| 2026-01-27T21:40 | 11.84594 | -117.05559 | 0.019 | 279.6 |
| 2026-01-27T21:50 | 11.84589 | -117.05554 | 0.026 | 133.8 |
| 2026-01-27T22:00 | 11.84593 | -117.05550 | 0.021 | 43.2 |
| 2026-01-27T22:10 | 11.84598 | -117.05558 | 0.034 | 302.1 |
| 2026-01-27T22:20 | 11.84610 | -117.05558 | 0.043 | 2.4 |
| 2026-01-27T22:30 | 11.84608 | -117.05560 | 0.013 | 231.4 |
| 2026-01-27T22:40 | 11.84610 | -117.05560 | 0.008 | 4.9 |
| 2026-01-27T22:50 | 11.84605 | -117.05556 | 0.024 | 140.2 |
| 2026-01-27T23:00 | 11.84611 | -117.05559 | 0.025 | 329.1 |
| 2026-01-27T23:10 | 11.84607 | -117.05562 | 0.018 | 215.8 |
| 2026-01-27T23:20 | 11.84610 | -117.05560 | 0.014 | 39.4 |
| 2026-01-27T23:30 | 11.84639 | -117.05621 | 0.241 | 295.9 |
| 2026-01-27T23:40 | 11.84674 | -117.05665 | 0.196 | 308.6 |
| 2026-01-27T23:50 | 11.84605 | -117.05628 | 0.277 | 151.9 |
| 2026-01-28T00:00 | 11.84563 | -117.05621 | 0.151 | 171.3 |
| 2026-01-28T00:10 | 11.84561 | -117.05486 | 0.476 | 91.2 |
| 2026-01-28T00:20 | 11.84562 | -117.05479 | 0.025 | 76.8 |
| 2026-01-28T00:30 | 11.84573 | -117.05479 | 0.037 | 0.6 |
| 2026-01-28T00:40 | 11.84567 | -117.05477 | 0.020 | 154.2 |
| 2026-01-28T00:50 | 11.84571 | -117.05470 | 0.027 | 62.8 |
| 2026-01-28T01:00 | 11.84565 | -117.05475 | 0.028 | 220.4 |
| 2026-01-28T01:10 | 11.84571 | -117.05480 | 0.029 | 320.9 |
| 2026-01-28T01:20 | 11.84572 | -117.05475 | 0.019 | 85.7 |
| 2026-01-28T01:30 | 11.84568 | -117.05473 | 0.015 | 157.5 |
| 2026-01-28T01:40 | 11.84576 | -117.05471 | 0.029 | 16.2 |
| 2026-01-28T01:50 | 11.84570 | -117.05469 | 0.022 | 166.2 |
| 2026-01-28T02:00 | 11.84571 | -117.05481 | 0.039 | 275.2 |
| 2026-01-28T02:10 | 11.84568 | -117.05479 | 0.010 | 151.1 |
| 2026-01-28T02:20 | 11.84572 | -117.05479 | 0.012 | 356.7 |
| 2026-01-28T02:30 | 11.84567 | -117.05471 | 0.034 | 122.6 |
| 2026-01-28T02:40 | 11.84575 | -117.05476 | 0.034 | 328.7 |
| 2026-01-28T02:50 | 11.84573 | -117.05467 | 0.034 | 100.8 |
| 2026-01-28T03:00 | 11.84561 | -117.05467 | 0.042 | 181.9 |
| 2026-01-28T03:10 | 11.84445 | -117.05773 | 1.157 | 248.9 |
| 2026-01-28T03:20 | 11.84371 | -117.05888 | 0.485 | 236.7 |
| 2026-01-28T03:30 | 11.84369 | -117.05893 | 0.020 | 249.7 |
| 2026-01-28T03:40 | 11.84369 | -117.05890 | 0.012 | 93.4 |
| 2026-01-28T03:50 | 11.84374 | -117.05889 | 0.019 | 6.2 |
| 2026-01-28T04:00 | 11.84372 | -117.05895 | 0.024 | 250.0 |
| 2026-01-28T04:10 | 11.84366 | -117.05891 | 0.026 | 140.4 |
| 2026-01-28T04:20 | 11.84377 | -117.05885 | 0.045 | 26.8 |
| 2026-01-28T04:30 | 11.84372 | -117.05892 | 0.030 | 235.5 |
| 2026-01-28T04:40 | 11.84374 | -117.05885 | 0.024 | 80.7 |
| 2026-01-28T04:50 | 11.84374 | -117.05887 | 0.005 | 295.1 |
| 2026-01-28T05:00 | 11.84378 | -117.05890 | 0.018 | 316.2 |
| 2026-01-28T05:10 | 11.84368 | -117.05889 | 0.034 | 175.3 |
| 2026-01-28T05:20 | 11.84372 | -117.05886 | 0.019 | 40.1 |
| 2026-01-28T05:30 | 11.84378 | -117.05890 | 0.025 | 328.0 |
| 2026-01-28T05:40 | 11.84375 | -117.05896 | 0.027 | 239.3 |
| 2026-01-28T05:50 | 11.84377 | -117.05885 | 0.041 | 75.8 |
| 2026-01-28T06:00 | 11.84372 | -117.05889 | 0.025 | 217.7 |
| 2026-01-28T06:10 | 11.84376 | -117.05890 | 0.014 | 350.0 |
| 2026-01-28T06:20 | 11.84375 | -117.05886 | 0.014 | 100.1 |
| 2026-01-28T06:30 | 11.84378 | -117.05891 | 0.022 | 296.5 |
| 2026-01-28T06:40 | 11.84371 | -117.05890 | 0.024 | 164.5 |
| 2026-01-28T06:50 | 11.84374 | -117.05893 | 0.014 | 310.2 |
| 2026-01-28T07:00 | 11.84370 | -117.05890 | 0.018 | 148.6 |
| 2026-01-28T07:10 | 11.84378 | -117.05892 | 0.030 | 346.3 |
| 2026-01-28T07:20 | 11.84371 | -117.05887 | 0.031 | 141.5 |
| 2026-01-28T07:30 | 11.84379 | -117.05891 | 0.033 | 333.2 |
| 2026-01-28T07:40 | 11.84381 | -117.05886 | 0.018 | 67.1 |
| 2026-01-28T07:50 | 11.84376 | -117.05890 | 0.021 | 218.2 |
| 2026-01-28T08:00 | 11.84377 | -117.05887 | 0.009 | 73.5 |
| 2026-01-28T08:10 | 11.84381 | -117.05888 | 0.014 | 345.8 |
| 2026-01-28T08:20 | 11.84375 | -117.05886 | 0.023 | 164.0 |
| 2026-01-28T08:30 | 11.84378 | -117.05885 | 0.013 | 20.6 |
| 2026-01-28T08:40 | 11.84381 | -117.05891 | 0.022 | 297.3 |
| 2026-01-28T08:50 | 11.84379 | -117.05885 | 0.021 | 109.3 |
| 2026-01-28T09:00 | 11.84378 | -117.05887 | 0.007 | 243.1 |
| 2026-01-28T09:10 | 11.84380 | -117.05892 | 0.018 | 289.1 |
| 2026-01-28T09:20 | 11.84379 | -117.05889 | 0.012 | 113.1 |
| 2026-01-28T09:30 | 11.84375 | -117.05884 | 0.021 | 134.0 |
| 2026-01-28T09:40 | 11.84400 | -117.05895 | 0.097 | 336.4 |
| 2026-01-28T09:50 | 11.84383 | -117.05893 | 0.059 | 172.9 |
| 2026-01-28T10:00 | 11.84390 | -117.05894 | 0.024 | 354.2 |
| 2026-01-28T10:10 | 11.84386 | -117.05893 | 0.014 | 168.0 |
| 2026-01-28T10:20 | 11.84386 | -117.05892 | 0.004 | 80.4 |
| 2026-01-28T10:30 | 11.84390 | -117.05890 | 0.013 | 28.2 |
| 2026-01-28T10:40 | 11.84387 | -117.05890 | 0.009 | 171.0 |
| 2026-01-28T10:50 | 11.84387 | -117.05889 | 0.004 | 119.0 |
| 2026-01-28T11:00 | 11.84392 | -117.05889 | 0.019 | 354.8 |
| 2026-01-28T11:10 | 11.84391 | -117.05896 | 0.026 | 262.8 |
| 2026-01-28T11:20 | 11.84392 | -117.05891 | 0.019 | 82.2 |
| 2026-01-28T11:30 | 11.84388 | -117.05892 | 0.016 | 185.1 |
| 2026-01-28T11:40 | 11.84388 | -117.05888 | 0.014 | 87.0 |
| 2026-01-28T11:50 | 11.84393 | -117.05894 | 0.028 | 310.8 |
| 2026-01-28T12:00 | 11.84392 | -117.05891 | 0.012 | 108.1 |
| 2026-01-28T12:10 | 11.84389 | -117.05889 | 0.013 | 151.8 |
| 2026-01-28T12:20 | 11.84392 | -117.05893 | 0.020 | 313.3 |
| 2026-01-28T12:30 | 11.84388 | -117.05892 | 0.016 | 165.5 |
| 2026-01-28T12:40 | 11.84392 | -117.05893 | 0.015 | 342.2 |
| 2026-01-28T12:50 | 11.84389 | -117.05889 | 0.019 | 126.2 |
| 2026-01-28T13:00 | 11.84388 | -117.05893 | 0.016 | 252.6 |
| 2026-01-28T13:10 | 11.84373 | -117.05893 | 0.053 | 180.8 |
| 2026-01-28T13:20 | 11.84376 | -117.05895 | 0.013 | 337.9 |
| 2026-01-28T13:30 | 11.84378 | -117.05894 | 0.007 | 5.9 |
| 2026-01-28T13:40 | 11.84378 | -117.05894 | 0.002 | 108.7 |
| 2026-01-28T13:50 | 11.84379 | -117.05896 | 0.007 | 287.8 |
| 2026-01-28T14:00 | 11.84379 | -117.05894 | 0.006 | 86.4 |
| 2026-01-28T14:10 | 11.84379 | -117.05895 | 0.003 | 294.3 |
| 2026-01-28T14:20 | 11.84378 | -117.05896 | 0.005 | 221.8 |
| 2026-01-28T14:30 | 11.84381 | -117.05893 | 0.015 | 48.5 |
| 2026-01-28T14:40 | 11.84380 | -117.05892 | 0.003 | 135.4 |
| 2026-01-28T14:50 | 11.84358 | -117.05891 | 0.081 | 176.0 |
| 2026-01-28T15:00 | 11.84359 | -117.05889 | 0.007 | 53.3 |
| 2026-01-28T15:10 | 11.84359 | -117.05888 | 0.005 | 59.4 |
| 2026-01-28T15:20 | 11.84362 | -117.05890 | 0.014 | 321.5 |
| 2026-01-28T15:30 | 11.84356 | -117.05892 | 0.025 | 193.8 |
| 2026-01-28T15:40 | 11.84365 | -117.05891 | 0.032 | 9.4 |
| 2026-01-28T15:50 | 11.84361 | -117.05896 | 0.024 | 231.3 |
| 2026-01-28T16:00 | 11.84357 | -117.05890 | 0.024 | 118.1 |
| 2026-01-28T16:10 | 11.84371 | -117.05894 | 0.052 | 342.1 |
| 2026-01-28T16:20 | 11.84368 | -117.05892 | 0.015 | 148.2 |
| 2026-01-28T16:30 | 11.84366 | -117.05889 | 0.013 | 122.4 |
| 2026-01-28T16:40 | 11.84374 | -117.05897 | 0.039 | 315.8 |
| 2026-01-28T16:50 | 11.84635 | -117.05382 | 2.046 | 62.7 |
| 2026-01-28T17:00 | 11.85415 | -117.03010 | 8.820 | 71.5 |
| 2026-01-28T17:10 | 11.85905 | -117.01423 | 5.868 | 72.6 |
| 2026-01-28T17:20 | 11.85919 | -117.01382 | 0.152 | 72.0 |
| 2026-01-28T17:30 | 11.85918 | -117.01384 | 0.006 | 249.2 |
| 2026-01-28T17:40 | 11.85920 | -117.01378 | 0.023 | 67.4 |
| 2026-01-28T17:50 | 11.85979 | -117.01355 | 0.226 | 21.4 |
| 2026-01-28T18:00 | 11.85984 | -117.01352 | 0.021 | 30.1 |
| 2026-01-28T18:10 | 11.85984 | -117.01344 | 0.026 | 93.9 |
| 2026-01-28T18:20 | 11.85988 | -117.01347 | 0.019 | 322.3 |
| 2026-01-28T18:30 | 11.85983 | -117.01345 | 0.020 | 155.6 |
| 2026-01-28T18:40 | 11.85987 | -117.01348 | 0.018 | 325.8 |
| 2026-01-28T18:50 | 11.85983 | -117.01346 | 0.016 | 155.5 |
| 2026-01-28T19:00 | 11.85981 | -117.01346 | 0.009 | 175.3 |
| 2026-01-28T19:10 | 11.85988 | -117.01348 | 0.026 | 343.5 |
| 2026-01-28T19:20 | 11.85984 | -117.01342 | 0.024 | 121.8 |
| 2026-01-28T19:30 | 11.85982 | -117.01347 | 0.018 | 244.7 |
| 2026-01-28T19:40 | 11.85987 | -117.01349 | 0.020 | 341.2 |
| 2026-01-28T19:50 | 11.85980 | -117.01346 | 0.027 | 160.4 |
| 2026-01-28T20:00 | 11.85985 | -117.01344 | 0.021 | 22.4 |
| 2026-01-28T20:10 | 11.85987 | -117.01349 | 0.019 | 286.6 |
| 2026-01-28T20:20 | 11.85985 | -117.01347 | 0.009 | 143.1 |
| 2026-01-28T20:30 | 11.85984 | -117.01344 | 0.013 | 107.7 |
| 2026-01-28T20:40 | 11.85985 | -117.01347 | 0.015 | 291.3 |
| 2026-01-28T20:50 | 11.86097 | -117.01596 | 0.965 | 294.5 |
| 2026-01-28T21:00 | 11.85454 | -117.03033 | 5.566 | 245.6 |
| 2026-01-28T21:10 | 11.84490 | -117.05389 | 9.004 | 247.4 |
| 2026-01-28T21:20 | 11.84636 | -117.05737 | 1.333 | 293.1 |
| 2026-01-28T21:30 | 11.84663 | -117.05629 | 0.391 | 75.7 |
| 2026-01-28T21:40 | 11.84663 | -117.05624 | 0.019 | 83.4 |
| 2026-01-28T21:50 | 11.84662 | -117.05621 | 0.012 | 111.5 |
| 2026-01-28T22:00 | 11.84663 | -117.05623 | 0.007 | 294.3 |
| 2026-01-28T22:10 | 11.84662 | -117.05622 | 0.005 | 116.9 |
| 2026-01-28T22:20 | 11.84661 | -117.05624 | 0.011 | 235.4 |
| 2026-01-28T22:30 | 11.84668 | -117.05621 | 0.030 | 22.3 |
| 2026-01-28T22:40 | 11.84665 | -117.05624 | 0.015 | 228.4 |
| 2026-01-28T22:50 | 11.84663 | -117.05624 | 0.009 | 177.8 |
| 2026-01-28T23:00 | 11.84664 | -117.05625 | 0.004 | 329.4 |
| 2026-01-28T23:10 | 11.84658 | -117.05626 | 0.021 | 192.9 |
| 2026-01-28T23:20 | 11.84661 | -117.05626 | 0.011 | 350.7 |
| 2026-01-28T23:30 | 11.84666 | -117.05626 | 0.018 | 5.5 |
| 2026-01-28T23:40 | 11.84663 | -117.05628 | 0.014 | 217.3 |
| 2026-01-28T23:50 | 11.84657 | -117.05629 | 0.022 | 182.8 |
| 2026-01-29T00:00 | 11.84659 | -117.05626 | 0.012 | 54.5 |
| 2026-01-29T00:10 | 11.84666 | -117.05626 | 0.026 | 355.4 |
| 2026-01-29T00:20 | 11.84667 | -117.05576 | 0.179 | 89.0 |
| 2026-01-29T00:30 | 11.84681 | -117.05501 | 0.268 | 79.0 |
| 2026-01-29T00:40 | 11.84680 | -117.05496 | 0.018 | 109.1 |
| 2026-01-29T00:50 | 11.84679 | -117.05499 | 0.009 | 255.8 |
| 2026-01-29T01:00 | 11.84672 | -117.05496 | 0.027 | 161.8 |
| 2026-01-29T01:10 | 11.84678 | -117.05496 | 0.022 | 2.7 |
| 2026-01-29T01:20 | 11.84671 | -117.05499 | 0.028 | 204.2 |
| 2026-01-29T01:30 | 11.84678 | -117.05500 | 0.026 | 357.6 |
| 2026-01-29T01:40 | 11.84671 | -117.05494 | 0.033 | 139.8 |
| 2026-01-29T01:50 | 11.84681 | -117.05499 | 0.040 | 331.8 |
| 2026-01-29T02:00 | 11.84680 | -117.05498 | 0.008 | 137.3 |
| 2026-01-29T02:10 | 11.84681 | -117.05498 | 0.006 | 343.8 |
| 2026-01-29T02:20 | 11.84677 | -117.05496 | 0.018 | 154.3 |
| 2026-01-29T02:30 | 11.84679 | -117.05496 | 0.008 | 349.4 |
| 2026-01-29T02:40 | 11.84681 | -117.05495 | 0.009 | 41.4 |
| 2026-01-29T02:50 | 11.84680 | -117.05498 | 0.013 | 263.6 |
| 2026-01-29T03:00 | 11.84679 | -117.05499 | 0.006 | 209.4 |
| 2026-01-29T03:10 | 11.84680 | -117.05498 | 0.004 | 55.9 |
| 2026-01-29T03:20 | 11.84681 | -117.05499 | 0.005 | 341.8 |
| 2026-01-29T03:30 | 11.84523 | -117.05836 | 1.318 | 244.6 |
| 2026-01-29T03:40 | 11.84396 | -117.05932 | 0.567 | 216.5 |
| 2026-01-29T03:50 | 11.84389 | -117.05920 | 0.048 | 122.8 |
| 2026-01-29T04:00 | 11.84387 | -117.05925 | 0.017 | 249.0 |
| 2026-01-29T04:10 | 11.84390 | -117.05920 | 0.021 | 61.3 |
| 2026-01-29T04:20 | 11.84387 | -117.05921 | 0.011 | 217.9 |
| 2026-01-29T04:30 | 11.84430 | -117.05919 | 0.152 | 2.9 |
| 2026-01-29T04:40 | 11.84459 | -117.05918 | 0.105 | 2.3 |
| 2026-01-29T04:50 | 11.84459 | -117.05915 | 0.010 | 74.7 |
| 2026-01-29T05:00 | 11.84456 | -117.05916 | 0.012 | 186.8 |
| 2026-01-29T05:10 | 11.84387 | -117.05923 | 0.251 | 186.1 |
| 2026-01-29T05:20 | 11.84386 | -117.05925 | 0.005 | 239.4 |
| 2026-01-29T05:30 | 11.84385 | -117.05925 | 0.002 | 230.9 |
| 2026-01-29T05:40 | 11.84385 | -117.05921 | 0.015 | 99.6 |
| 2026-01-29T05:50 | 11.84386 | -117.05923 | 0.010 | 291.3 |
| 2026-01-29T06:00 | 11.84386 | -117.05921 | 0.010 | 81.8 |
| 2026-01-29T06:10 | 11.84409 | -117.05920 | 0.080 | 1.8 |
| 2026-01-29T06:20 | 11.84461 | -117.05921 | 0.189 | 359.1 |
| 2026-01-29T06:30 | 11.84458 | -117.05924 | 0.017 | 222.9 |
| 2026-01-29T06:40 | 11.84458 | -117.05919 | 0.018 | 92.2 |
| 2026-01-29T06:50 | 11.84457 | -117.05919 | 0.002 | 243.1 |
| 2026-01-29T07:00 | 11.84458 | -117.05917 | 0.008 | 71.3 |
| 2026-01-29T07:10 | 11.84433 | -117.05887 | 0.139 | 130.1 |
| 2026-01-29T07:20 | 11.84426 | -117.05877 | 0.045 | 124.5 |
| 2026-01-29T07:30 | 11.84427 | -117.05877 | 0.003 | 326.7 |
| 2026-01-29T07:40 | 11.84398 | -117.05833 | 0.185 | 123.3 |
| 2026-01-29T07:50 | 11.84398 | -117.05821 | 0.043 | 89.0 |
| 2026-01-29T08:00 | 11.84399 | -117.05827 | 0.020 | 279.1 |
| 2026-01-29T08:10 | 11.84396 | -117.05828 | 0.011 | 193.4 |
| 2026-01-29T08:20 | 11.84403 | -117.05824 | 0.025 | 25.9 |
| 2026-01-29T08:30 | 11.84401 | -117.05827 | 0.011 | 230.9 |
| 2026-01-29T08:40 | 11.84396 | -117.05876 | 0.173 | 264.8 |
| 2026-01-29T08:50 | 11.84389 | -117.05906 | 0.109 | 257.1 |
| 2026-01-29T09:00 | 11.84391 | -117.05908 | 0.009 | 307.7 |
| 2026-01-29T09:10 | 11.84396 | -117.05907 | 0.018 | 11.4 |
| 2026-01-29T09:20 | 11.84398 | -117.05907 | 0.008 | 10.2 |
| 2026-01-29T09:30 | 11.84396 | -117.05907 | 0.007 | 180.0 |
| 2026-01-29T09:40 | 11.84398 | -117.05907 | 0.006 | 333.8 |
| 2026-01-29T09:50 | 11.84391 | -117.05909 | 0.024 | 196.3 |
| 2026-01-29T10:00 | 11.84394 | -117.05907 | 0.013 | 29.0 |
| 2026-01-29T10:10 | 11.84396 | -117.05909 | 0.008 | 322.5 |
| 2026-01-29T10:20 | 11.84361 | -117.05869 | 0.190 | 131.7 |
| 2026-01-29T10:30 | 11.84364 | -117.05872 | 0.015 | 313.5 |
| 2026-01-29T10:40 | 11.84364 | -117.05869 | 0.010 | 80.1 |
| 2026-01-29T10:50 | 11.84377 | -117.05870 | 0.044 | 356.8 |
| 2026-01-29T11:00 | 11.84369 | -117.05876 | 0.037 | 219.1 |
| 2026-01-29T11:10 | 11.84342 | -117.05911 | 0.155 | 232.2 |
| 2026-01-29T11:20 | 11.84343 | -117.05908 | 0.010 | 79.7 |
| 2026-01-29T11:30 | 11.84345 | -117.05907 | 0.011 | 29.6 |
| 2026-01-29T11:40 | 11.84344 | -117.05907 | 0.006 | 197.1 |
| 2026-01-29T11:50 | 11.84347 | -117.05907 | 0.010 | 355.8 |
| 2026-01-29T12:00 | 11.84353 | -117.05911 | 0.026 | 327.1 |
| 2026-01-29T12:10 | 11.84351 | -117.05908 | 0.011 | 124.1 |
| 2026-01-29T12:20 | 11.84350 | -117.05911 | 0.010 | 259.4 |
| 2026-01-29T12:30 | 11.84351 | -117.05911 | 0.004 | 5.1 |
| 2026-01-29T12:40 | 11.84352 | -117.05912 | 0.004 | 325.4 |
| 2026-01-29T12:50 | 11.84350 | -117.05907 | 0.018 | 113.8 |
| 2026-01-29T13:00 | 11.84356 | -117.05913 | 0.029 | 309.4 |
| 2026-01-29T13:10 | 11.84353 | -117.05912 | 0.011 | 140.9 |
| 2026-01-29T13:20 | 11.84352 | -117.05913 | 0.008 | 221.0 |
| 2026-01-29T13:30 | 11.84354 | -117.05911 | 0.014 | 41.5 |
| 2026-01-29T13:40 | 11.84400 | -117.05885 | 0.185 | 28.8 |
| 2026-01-29T13:50 | 11.84407 | -117.05885 | 0.025 | 6.4 |
| 2026-01-29T14:00 | 11.84409 | -117.05883 | 0.010 | 34.9 |
| 2026-01-29T14:10 | 11.84411 | -117.05882 | 0.006 | 19.2 |
| 2026-01-29T14:20 | 11.84410 | -117.05880 | 0.007 | 111.5 |
| 2026-01-29T14:30 | 11.84409 | -117.05879 | 0.008 | 127.8 |
| 2026-01-29T14:40 | 11.84407 | -117.05883 | 0.017 | 246.3 |
| 2026-01-29T14:50 | 11.84407 | -117.05885 | 0.007 | 264.2 |
| 2026-01-29T15:00 | 11.84409 | -117.05880 | 0.020 | 68.7 |
| 2026-01-29T15:10 | 11.84406 | -117.05883 | 0.014 | 224.6 |
| 2026-01-29T15:20 | 11.84411 | -117.05883 | 0.020 | 0.0 |
| 2026-01-29T15:30 | 11.84393 | -117.05926 | 0.166 | 246.6 |
| 2026-01-29T15:40 | 11.84399 | -117.05925 | 0.022 | 12.1 |
| 2026-01-29T15:50 | 11.84398 | -117.05920 | 0.017 | 103.1 |
| 2026-01-29T16:00 | 11.84396 | -117.05925 | 0.022 | 247.7 |
| 2026-01-29T16:10 | 11.84395 | -117.05919 | 0.023 | 93.5 |
| 2026-01-29T16:20 | 11.84395 | -117.05925 | 0.023 | 272.7 |
| 2026-01-29T16:30 | 11.84398 | -117.05925 | 0.009 | 357.8 |
| 2026-01-29T16:40 | 11.84393 | -117.05921 | 0.023 | 137.3 |
| 2026-01-29T16:50 | 11.84398 | -117.05926 | 0.024 | 312.4 |
| 2026-01-29T17:00 | 11.84406 | -117.05928 | 0.031 | 346.6 |
| 2026-01-29T17:10 | 11.84407 | -117.05926 | 0.007 | 75.0 |
| 2026-01-29T17:20 | 11.84411 | -117.05930 | 0.020 | 318.3 |
| 2026-01-29T17:30 | 11.84424 | -117.05928 | 0.048 | 5.5 |
| 2026-01-29T17:40 | 11.84428 | -117.05928 | 0.014 | 7.4 |
| 2026-01-29T17:50 | 11.84397 | -117.05923 | 0.111 | 171.8 |
| 2026-01-29T18:00 | 11.84396 | -117.05924 | 0.005 | 221.8 |
| 2026-01-29T18:10 | 11.84418 | -117.05926 | 0.079 | 355.9 |
| 2026-01-29T18:20 | 11.84430 | -117.05926 | 0.042 | 0.5 |
| 2026-01-29T18:30 | 11.84425 | -117.05929 | 0.023 | 212.1 |
| 2026-01-29T18:40 | 11.84420 | -117.05926 | 0.020 | 140.5 |
| 2026-01-29T18:50 | 11.84424 | -117.05923 | 0.016 | 31.2 |
| 2026-01-29T19:00 | 11.84424 | -117.05921 | 0.007 | 96.1 |
| 2026-01-29T19:10 | 11.84423 | -117.05924 | 0.009 | 245.2 |
| 2026-01-29T19:20 | 11.84428 | -117.05929 | 0.027 | 311.1 |
| 2026-01-29T19:30 | 11.84422 | -117.05922 | 0.032 | 129.5 |
| 2026-01-29T19:40 | 11.84426 | -117.05925 | 0.017 | 329.4 |
| 2026-01-29T19:50 | 11.84373 | -117.05930 | 0.190 | 185.0 |
| 2026-01-29T20:00 | 11.84376 | -117.05924 | 0.022 | 62.3 |
| 2026-01-29T20:10 | 11.84373 | -117.05932 | 0.029 | 248.8 |
| 2026-01-29T20:20 | 11.84372 | -117.05926 | 0.019 | 98.7 |
| 2026-01-29T20:30 | 11.84374 | -117.05908 | 0.065 | 86.5 |
| 2026-01-29T20:40 | 11.84371 | -117.05908 | 0.010 | 178.1 |
| 2026-01-29T20:50 | 11.84375 | -117.05912 | 0.021 | 320.2 |
| 2026-01-29T21:00 | 11.84375 | -117.05907 | 0.016 | 97.5 |
| 2026-01-29T21:10 | 11.84373 | -117.05902 | 0.018 | 113.8 |
| 2026-01-29T21:20 | 11.84369 | -117.05911 | 0.034 | 248.5 |
| 2026-01-29T21:30 | 11.84375 | -117.05905 | 0.030 | 46.5 |
| 2026-01-29T21:40 | 11.84374 | -117.05906 | 0.005 | 206.2 |
| 2026-01-29T21:50 | 11.84387 | -117.05893 | 0.068 | 43.3 |
| 2026-01-29T22:00 | 11.84386 | -117.05895 | 0.010 | 236.5 |
| 2026-01-29T22:10 | 11.84383 | -117.05891 | 0.017 | 128.0 |
| 2026-01-29T22:20 | 11.84386 | -117.05897 | 0.022 | 297.8 |
| 2026-01-29T22:30 | 11.84387 | -117.05895 | 0.007 | 49.0 |
| 2026-01-29T22:40 | 11.84381 | -117.05896 | 0.020 | 185.1 |
| 2026-01-29T22:50 | 11.84389 | -117.05897 | 0.027 | 351.0 |
| 2026-01-29T23:00 | 11.84382 | -117.05892 | 0.029 | 143.4 |
| 2026-01-29T23:10 | 11.84386 | -117.05890 | 0.014 | 19.9 |
| 2026-01-29T23:20 | 11.84385 | -117.05899 | 0.030 | 258.9 |
| 2026-01-29T23:30 | 11.84386 | -117.05889 | 0.034 | 83.3 |
| 2026-01-29T23:40 | 11.84384 | -117.05894 | 0.019 | 246.1 |
| 2026-01-29T23:50 | 11.84384 | -117.05892 | 0.006 | 76.6 |
| 2026-01-30T00:00 | 11.84382 | -117.05890 | 0.012 | 134.2 |
| 2026-01-30T00:10 | 11.84381 | -117.05894 | 0.016 | 267.4 |
| 2026-01-30T00:20 | 11.84384 | -117.05894 | 0.009 | 11.1 |
| 2026-01-30T00:30 | 11.84380 | -117.05895 | 0.013 | 190.6 |
| 2026-01-30T00:40 | 11.84386 | -117.05889 | 0.029 | 44.6 |
| 2026-01-30T00:50 | 11.84389 | -117.05885 | 0.017 | 59.9 |
| 2026-01-30T01:00 | 11.84390 | -117.05885 | 0.005 | 341.8 |
| 2026-01-30T01:10 | 11.84389 | -117.05885 | 0.002 | 112.1 |
| 2026-01-30T01:20 | 11.84389 | -117.05886 | 0.007 | 266.9 |
| 2026-01-30T01:30 | 11.84389 | -117.05880 | 0.023 | 92.6 |
| 2026-01-30T01:40 | 11.84392 | -117.05885 | 0.021 | 294.7 |
| 2026-01-30T01:50 | 11.84389 | -117.05880 | 0.019 | 118.8 |
| 2026-01-30T02:00 | 11.84388 | -117.05881 | 0.004 | 241.0 |
| 2026-01-30T02:10 | 11.84394 | -117.05883 | 0.020 | 341.2 |
| 2026-01-30T02:20 | 11.84390 | -117.05881 | 0.014 | 144.7 |
| 2026-01-30T02:30 | 11.84390 | -117.05883 | 0.008 | 275.3 |
| 2026-01-30T02:40 | 11.84390 | -117.05881 | 0.009 | 108.0 |
| 2026-01-30T02:50 | 11.84386 | -117.05884 | 0.017 | 225.4 |
| 2026-01-30T03:00 | 11.84387 | -117.05881 | 0.011 | 70.1 |
| 2026-01-30T03:10 | 11.84388 | -117.05880 | 0.006 | 52.0 |
| 2026-01-30T03:20 | 11.84385 | -117.05881 | 0.010 | 191.9 |
| 2026-01-30T03:30 | 11.84389 | -117.05881 | 0.014 | 351.4 |
| 2026-01-30T03:40 | 11.84387 | -117.05881 | 0.010 | 182.1 |
| 2026-01-30T03:50 | 11.84389 | -117.05883 | 0.009 | 323.1 |
| 2026-01-30T04:00 | 11.84387 | -117.05879 | 0.016 | 115.8 |
| 2026-01-30T04:10 | 11.84387 | -117.05882 | 0.013 | 274.6 |
| 2026-01-30T04:20 | 11.84383 | -117.05908 | 0.091 | 261.4 |
| 2026-01-30T04:30 | 11.84376 | -117.05917 | 0.041 | 233.4 |
| 2026-01-30T04:40 | 11.84378 | -117.05918 | 0.005 | 337.7 |
| 2026-01-30T04:50 | 11.84381 | -117.05920 | 0.016 | 327.1 |
| 2026-01-30T05:00 | 11.84380 | -117.05916 | 0.016 | 109.9 |
| 2026-01-30T05:10 | 11.84388 | -117.05919 | 0.031 | 338.1 |
| 2026-01-30T05:20 | 11.84399 | -117.05910 | 0.050 | 40.8 |
| 2026-01-30T05:30 | 11.84400 | -117.05908 | 0.009 | 42.9 |
| 2026-01-30T05:40 | 11.84404 | -117.05910 | 0.013 | 341.3 |
| 2026-01-30T05:50 | 11.84402 | -117.05909 | 0.007 | 164.7 |
| 2026-01-30T06:00 | 11.84401 | -117.05911 | 0.009 | 234.6 |
| 2026-01-30T06:10 | 11.84408 | -117.05908 | 0.029 | 25.9 |
| 2026-01-30T06:20 | 11.84403 | -117.05910 | 0.021 | 203.2 |
| 2026-01-30T06:30 | 11.84400 | -117.05905 | 0.019 | 125.0 |
| 2026-01-30T06:40 | 11.84407 | -117.05910 | 0.031 | 325.6 |
| 2026-01-30T06:50 | 11.84399 | -117.05912 | 0.027 | 189.8 |
| 2026-01-30T07:00 | 11.84400 | -117.05907 | 0.017 | 81.6 |
| 2026-01-30T07:10 | 11.84406 | -117.05913 | 0.031 | 314.5 |
| 2026-01-30T07:20 | 11.84411 | -117.05909 | 0.022 | 40.1 |
| 2026-01-30T07:30 | 11.84405 | -117.05913 | 0.025 | 217.1 |
| 2026-01-30T07:40 | 11.84403 | -117.05909 | 0.015 | 119.3 |
| 2026-01-30T07:50 | 11.84403 | -117.05905 | 0.016 | 90.0 |
| 2026-01-30T08:00 | 11.84411 | -117.05909 | 0.032 | 333.5 |
| 2026-01-30T08:10 | 11.84413 | -117.05912 | 0.012 | 305.9 |
| 2026-01-30T08:20 | 11.84410 | -117.05904 | 0.029 | 117.2 |
| 2026-01-30T08:30 | 11.84402 | -117.05904 | 0.027 | 179.2 |
| 2026-01-30T08:40 | 11.84389 | -117.05904 | 0.049 | 179.2 |
| 2026-01-30T08:50 | 11.84398 | -117.05899 | 0.037 | 29.6 |
| 2026-01-30T09:00 | 11.84389 | -117.05902 | 0.035 | 199.1 |
| 2026-01-30T09:10 | 11.84411 | -117.05897 | 0.082 | 13.2 |
| 2026-01-30T09:20 | 11.84431 | -117.05902 | 0.076 | 346.2 |
| 2026-01-30T09:30 | 11.84677 | -117.05113 | 2.919 | 72.5 |
| 2026-01-30T09:40 | 11.85354 | -117.03132 | 7.399 | 70.9 |
| 2026-01-30T09:50 | 11.85919 | -117.01597 | 5.780 | 69.5 |
| 2026-01-30T10:00 | 11.85946 | -117.01459 | 0.497 | 78.8 |
| 2026-01-30T10:10 | 11.85957 | -117.01414 | 0.163 | 76.2 |
| 2026-01-30T10:20 | 11.85986 | -117.01377 | 0.167 | 51.1 |
| 2026-01-30T10:30 | 11.85989 | -117.01373 | 0.020 | 49.6 |
| 2026-01-30T10:40 | 11.85987 | -117.01374 | 0.011 | 197.0 |
| 2026-01-30T10:50 | 11.85980 | -117.01375 | 0.026 | 188.7 |
| 2026-01-30T11:00 | 11.85984 | -117.01372 | 0.019 | 40.8 |
| 2026-01-30T11:10 | 11.85979 | -117.01373 | 0.018 | 193.3 |
| 2026-01-30T11:20 | 11.85989 | -117.01373 | 0.037 | 358.4 |
| 2026-01-30T11:30 | 11.85987 | -117.01375 | 0.009 | 222.9 |
| 2026-01-30T11:40 | 11.85977 | -117.01373 | 0.036 | 167.0 |
| 2026-01-30T11:50 | 11.85981 | -117.01368 | 0.021 | 55.1 |
| 2026-01-30T12:00 | 11.85982 | -117.01373 | 0.019 | 283.2 |
| 2026-01-30T12:10 | 11.85987 | -117.01375 | 0.021 | 336.9 |
| 2026-01-30T12:20 | 11.85985 | -117.01371 | 0.016 | 114.7 |
| 2026-01-30T12:30 | 11.85982 | -117.01369 | 0.013 | 151.0 |
| 2026-01-30T12:40 | 11.85984 | -117.01370 | 0.006 | 341.8 |
| 2026-01-30T12:50 | 11.85981 | -117.01374 | 0.017 | 243.1 |
| 2026-01-30T13:00 | 11.85987 | -117.01374 | 0.022 | 4.7 |
| 2026-01-30T13:10 | 11.85978 | -117.01374 | 0.032 | 181.3 |
| 2026-01-30T13:20 | 11.85983 | -117.01380 | 0.026 | 309.3 |
| 2026-01-30T13:30 | 11.85987 | -117.01375 | 0.022 | 52.5 |
| 2026-01-30T13:40 | 11.85984 | -117.01369 | 0.022 | 115.6 |
| 2026-01-30T13:50 | 11.86419 | -117.00956 | 2.133 | 43.2 |
| 2026-01-30T14:00 | 11.86692 | -117.00433 | 2.088 | 62.0 |
| 2026-01-30T14:10 | 11.86688 | -117.00398 | 0.126 | 97.5 |
| 2026-01-30T14:20 | 11.86687 | -117.00396 | 0.007 | 129.1 |
| 2026-01-30T14:30 | 11.86680 | -117.00401 | 0.030 | 214.8 |
| 2026-01-30T14:40 | 11.86681 | -117.00394 | 0.024 | 81.5 |
| 2026-01-30T14:50 | 11.86677 | -117.00398 | 0.019 | 229.1 |
| 2026-01-30T15:00 | 11.86682 | -117.00394 | 0.021 | 40.5 |
| 2026-01-30T15:10 | 11.86685 | -117.00396 | 0.015 | 333.2 |
| 2026-01-30T15:20 | 11.86685 | -117.00399 | 0.010 | 266.0 |
| 2026-01-30T15:30 | 11.86695 | -117.00399 | 0.035 | 359.4 |
| 2026-01-30T15:40 | 11.86690 | -117.00403 | 0.024 | 215.4 |
| 2026-01-30T15:50 | 11.86691 | -117.00399 | 0.015 | 76.1 |
| 2026-01-30T16:00 | 11.86696 | -117.00403 | 0.024 | 325.8 |
| 2026-01-30T16:10 | 11.86697 | -117.00402 | 0.006 | 52.0 |
| 2026-01-30T16:20 | 11.86694 | -117.00405 | 0.016 | 222.7 |
| 2026-01-30T16:30 | 11.86696 | -117.00402 | 0.011 | 46.6 |
| 2026-01-30T16:40 | 11.86690 | -117.00400 | 0.023 | 162.2 |
| 2026-01-30T16:50 | 11.86691 | -117.00400 | 0.003 | 353.0 |
| 2026-01-30T17:00 | 11.86689 | -117.00400 | 0.008 | 180.0 |
| 2026-01-30T17:10 | 11.87353 | -116.99535 | 3.869 | 52.1 |
| 2026-01-30T17:20 | 11.89042 | -116.97491 | 9.413 | 50.0 |
| 2026-01-30T17:30 | 11.89630 | -116.96683 | 3.545 | 53.6 |
| 2026-01-30T17:40 | 11.88878 | -116.96873 | 2.775 | 194.0 |
| 2026-01-30T17:50 | 11.86991 | -116.98940 | 9.942 | 227.2 |
| 2026-01-30T18:00 | 11.85024 | -117.00953 | 10.003 | 225.2 |
| 2026-01-30T18:10 | 11.84309 | -117.01955 | 4.365 | 234.1 |
| 2026-01-30T18:20 | 11.84577 | -117.02141 | 1.162 | 325.6 |
| 2026-01-30T18:30 | 11.86404 | -117.00658 | 8.380 | 38.6 |
| 2026-01-30T18:40 | 11.86660 | -117.00403 | 1.286 | 44.5 |
| 2026-01-30T18:50 | 11.86684 | -117.00400 | 0.086 | 7.3 |
| 2026-01-30T19:00 | 11.86680 | -117.00400 | 0.016 | 186.4 |
| 2026-01-30T19:10 | 11.86679 | -117.00398 | 0.008 | 92.4 |
| 2026-01-30T19:20 | 11.86676 | -117.00396 | 0.015 | 156.8 |
| 2026-01-30T19:30 | 11.86682 | -117.00397 | 0.023 | 350.4 |
| 2026-01-30T19:40 | 11.86693 | -117.00387 | 0.052 | 42.6 |
| 2026-01-30T19:50 | 11.86698 | -117.00390 | 0.021 | 328.3 |
| 2026-01-30T20:00 | 11.86693 | -117.00389 | 0.017 | 169.1 |
| 2026-01-30T20:10 | 11.86698 | -117.00388 | 0.019 | 18.2 |
| 2026-01-30T20:20 | 11.86695 | -117.00387 | 0.012 | 164.5 |
| 2026-01-30T20:30 | 11.86698 | -117.00389 | 0.015 | 325.2 |
| 2026-01-30T20:40 | 11.86692 | -117.00388 | 0.023 | 172.1 |
| 2026-01-30T20:50 | 11.86698 | -117.00383 | 0.028 | 42.0 |
| 2026-01-30T21:00 | 11.86692 | -117.00386 | 0.024 | 206.2 |
| 2026-01-30T21:10 | 11.86696 | -117.00390 | 0.021 | 314.7 |
| 2026-01-30T21:20 | 11.86696 | -117.00384 | 0.023 | 87.3 |
| 2026-01-30T21:30 | 11.86692 | -117.00365 | 0.067 | 103.7 |
| 2026-01-30T21:40 | 11.86646 | -117.00195 | 0.624 | 105.5 |
| 2026-01-30T21:50 | 11.86646 | -117.00193 | 0.007 | 69.5 |
| 2026-01-30T22:00 | 11.86645 | -117.00192 | 0.005 | 127.3 |
| 2026-01-30T22:10 | 11.86646 | -117.00197 | 0.020 | 272.1 |
| 2026-01-30T22:20 | 11.86644 | -117.00197 | 0.004 | 155.9 |
| 2026-01-30T22:30 | 11.86641 | -117.00192 | 0.020 | 127.3 |
| 2026-01-30T22:40 | 11.86647 | -117.00192 | 0.021 | 6.8 |
| 2026-01-30T22:50 | 11.86646 | -117.00196 | 0.016 | 259.5 |
| 2026-01-30T23:00 | 11.86643 | -117.00191 | 0.019 | 121.7 |
| 2026-01-30T23:10 | 11.86648 | -117.00196 | 0.021 | 316.1 |
| 2026-01-30T23:20 | 11.86641 | -117.00195 | 0.024 | 176.6 |
| 2026-01-30T23:30 | 11.86647 | -117.00193 | 0.023 | 22.3 |
| 2026-01-30T23:40 | 11.86648 | -117.00191 | 0.006 | 46.9 |
| 2026-01-30T23:50 | 11.86642 | -117.00192 | 0.023 | 182.7 |
| 2026-01-31T00:00 | 11.86641 | -117.00195 | 0.011 | 247.9 |
| 2026-01-31T00:10 | 11.86648 | -117.00196 | 0.026 | 352.3 |
| 2026-01-31T00:20 | 11.86645 | -117.00193 | 0.013 | 139.8 |
| 2026-01-31T00:30 | 11.86593 | -117.00165 | 0.212 | 151.7 |
| 2026-01-31T00:40 | 11.86471 | -117.00101 | 0.490 | 152.8 |
| 2026-01-31T00:50 | 11.86474 | -117.00095 | 0.025 | 64.2 |
| 2026-01-31T01:00 | 11.86470 | -117.00102 | 0.028 | 240.2 |
| 2026-01-31T01:10 | 11.86470 | -117.00099 | 0.010 | 96.0 |
| 2026-01-31T01:20 | 11.86482 | -117.00094 | 0.045 | 20.8 |
| 2026-01-31T01:30 | 11.86478 | -117.00095 | 0.014 | 185.9 |
| 2026-01-31T01:40 | 11.86480 | -117.00095 | 0.007 | 351.2 |
| 2026-01-31T01:50 | 11.86487 | -117.00095 | 0.025 | 358.4 |
| 2026-01-31T02:00 | 11.86482 | -117.00092 | 0.018 | 148.8 |
| 2026-01-31T02:10 | 11.86484 | -117.00089 | 0.012 | 66.9 |
| 2026-01-31T02:20 | 11.86479 | -117.00094 | 0.025 | 222.9 |
| 2026-01-31T02:30 | 11.86476 | -117.00092 | 0.014 | 137.5 |
| 2026-01-31T02:40 | 11.86484 | -117.00090 | 0.030 | 13.7 |
| 2026-01-31T02:50 | 11.86477 | -117.00094 | 0.029 | 211.2 |
| 2026-01-31T03:00 | 11.86480 | -117.00090 | 0.018 | 49.3 |
| 2026-01-31T03:10 | 11.86487 | -117.00095 | 0.029 | 322.9 |
| 2026-01-31T03:20 | 11.86485 | -117.00093 | 0.010 | 126.4 |
| 2026-01-31T03:30 | 11.86481 | -117.00089 | 0.022 | 138.1 |
| 2026-01-31T03:40 | 11.86607 | -117.00265 | 0.770 | 306.2 |
| 2026-01-31T03:50 | 11.86607 | -117.00268 | 0.010 | 258.1 |
| 2026-01-31T04:00 | 11.86601 | -117.00272 | 0.025 | 217.1 |
| 2026-01-31T04:10 | 11.86602 | -117.00266 | 0.020 | 84.9 |
| 2026-01-31T04:20 | 11.86601 | -117.00266 | 0.004 | 138.8 |
| 2026-01-31T04:30 | 11.86607 | -117.00265 | 0.021 | 6.7 |
| 2026-01-31T04:40 | 11.86605 | -117.00266 | 0.005 | 213.3 |
| 2026-01-31T04:50 | 11.86602 | -117.00270 | 0.020 | 225.3 |
| 2026-01-31T05:00 | 11.86610 | -117.00263 | 0.039 | 38.2 |
| 2026-01-31T05:10 | 11.86605 | -117.00265 | 0.019 | 199.9 |
| 2026-01-31T05:20 | 11.86603 | -117.00267 | 0.012 | 227.1 |
| 2026-01-31T05:30 | 11.86601 | -117.00269 | 0.009 | 226.1 |
| 2026-01-31T05:40 | 11.86603 | -117.00272 | 0.011 | 306.2 |
| 2026-01-31T05:50 | 11.86599 | -117.00268 | 0.018 | 141.9 |
| 2026-01-31T06:00 | 11.86603 | -117.00270 | 0.016 | 345.5 |
| 2026-01-31T06:10 | 11.86605 | -117.00266 | 0.013 | 63.8 |
| 2026-01-31T06:20 | 11.86598 | -117.00268 | 0.025 | 197.2 |
| 2026-01-31T06:30 | 11.86600 | -117.00270 | 0.008 | 313.6 |
| 2026-01-31T06:40 | 11.86604 | -117.00100 | 0.601 | 88.4 |
| 2026-01-31T06:50 | 11.86575 | -117.00029 | 0.271 | 112.6 |
| 2026-01-31T07:00 | 11.86580 | -117.00028 | 0.017 | 3.7 |
| 2026-01-31T07:10 | 11.86573 | -117.00030 | 0.026 | 190.8 |
| 2026-01-31T07:20 | 11.86575 | -117.00028 | 0.011 | 48.6 |
| 2026-01-31T07:30 | 11.86574 | -117.00031 | 0.012 | 263.0 |
| 2026-01-31T07:40 | 11.86578 | -117.00030 | 0.013 | 9.3 |
| 2026-01-31T07:50 | 11.86587 | -117.00030 | 0.032 | 0.6 |
| 2026-01-31T08:00 | 11.86581 | -117.00024 | 0.029 | 133.0 |
| 2026-01-31T08:10 | 11.86580 | -117.00025 | 0.007 | 214.1 |
| 2026-01-31T08:20 | 11.86577 | -117.00027 | 0.011 | 211.8 |
| 2026-01-31T08:30 | 11.86586 | -117.00027 | 0.031 | 1.3 |
| 2026-01-31T08:40 | 11.86579 | -117.00028 | 0.025 | 189.6 |
| 2026-01-31T08:50 | 11.86585 | -117.00024 | 0.025 | 30.9 |
| 2026-01-31T09:00 | 11.86587 | -117.00028 | 0.017 | 303.4 |
| 2026-01-31T09:10 | 11.86586 | -117.00030 | 0.009 | 243.1 |
| 2026-01-31T09:20 | 11.86591 | -117.00030 | 0.016 | 358.8 |
| 2026-01-31T09:30 | 11.86586 | -117.00029 | 0.018 | 160.0 |
| 2026-01-31T09:40 | 11.86618 | -117.00106 | 0.295 | 293.1 |
| 2026-01-31T09:50 | 11.86726 | -117.00301 | 0.790 | 299.3 |
| 2026-01-31T10:00 | 11.86753 | -117.00314 | 0.105 | 334.6 |
| 2026-01-31T10:10 | 11.86755 | -117.00315 | 0.009 | 315.4 |
| 2026-01-31T10:20 | 11.86758 | -117.00313 | 0.016 | 35.7 |
| 2026-01-31T10:30 | 11.86757 | -117.00316 | 0.014 | 250.4 |
| 2026-01-31T10:40 | 11.86755 | -117.00308 | 0.029 | 102.7 |
| 2026-01-31T10:50 | 11.86763 | -117.00317 | 0.042 | 313.7 |
| 2026-01-31T11:00 | 11.86756 | -117.00312 | 0.030 | 146.9 |
| 2026-01-31T11:10 | 11.86763 | -117.00317 | 0.029 | 321.9 |
| 2026-01-31T11:20 | 11.86762 | -117.00319 | 0.008 | 253.8 |
| 2026-01-31T11:30 | 11.86756 | -117.00316 | 0.023 | 152.2 |
| 2026-01-31T11:40 | 11.86758 | -117.00317 | 0.007 | 335.1 |
| 2026-01-31T11:50 | 11.86758 | -117.00311 | 0.022 | 93.7 |
| 2026-01-31T12:00 | 11.86761 | -117.00310 | 0.011 | 7.2 |
| 2026-01-31T12:10 | 11.86763 | -117.00314 | 0.013 | 300.3 |
| 2026-01-31T12:20 | 11.86757 | -117.00316 | 0.024 | 202.8 |
| 2026-01-31T12:30 | 11.86757 | -117.00311 | 0.017 | 81.6 |
| 2026-01-31T12:40 | 11.86862 | -117.00213 | 0.511 | 42.6 |
| 2026-01-31T12:50 | 11.87351 | -117.02013 | 6.587 | 285.4 |
| 2026-01-31T13:00 | 11.87396 | -117.05063 | 10.759 | 270.9 |
| 2026-01-31T13:10 | 11.87400 | -117.08264 | 11.292 | 270.1 |
| 2026-01-31T13:20 | 11.87477 | -117.11425 | 11.156 | 271.4 |
| 2026-01-31T13:30 | 11.87608 | -117.14581 | 11.143 | 272.4 |
| 2026-01-31T13:40 | 11.87789 | -117.17579 | 10.596 | 273.5 |
| 2026-01-31T13:50 | 11.87958 | -117.20413 | 10.019 | 273.5 |
| 2026-01-31T14:00 | 11.88137 | -117.23317 | 10.266 | 273.6 |
| 2026-01-31T14:10 | 11.88320 | -117.26282 | 10.477 | 273.6 |
| 2026-01-31T14:20 | 11.88498 | -117.29202 | 10.324 | 273.6 |
| 2026-01-31T14:30 | 11.88673 | -117.32097 | 10.231 | 273.5 |
| 2026-01-31T14:40 | 11.88851 | -117.34971 | 10.158 | 273.6 |
| 2026-01-31T14:50 | 11.89023 | -117.37828 | 10.100 | 273.5 |
| 2026-01-31T15:00 | 11.89193 | -117.40689 | 10.111 | 273.5 |
| 2026-01-31T15:10 | 11.89368 | -117.43573 | 10.192 | 273.5 |
| 2026-01-31T15:20 | 11.89542 | -117.46456 | 10.189 | 273.5 |
| 2026-01-31T15:30 | 11.89715 | -117.49299 | 10.047 | 273.5 |
| 2026-01-31T15:40 | 11.89892 | -117.52133 | 10.020 | 273.6 |
| 2026-01-31T15:50 | 11.90064 | -117.55025 | 10.220 | 273.4 |
| 2026-01-31T16:00 | 11.90238 | -117.57925 | 10.249 | 273.5 |
| 2026-01-31T16:10 | 11.90409 | -117.60825 | 10.246 | 273.4 |
| 2026-01-31T16:20 | 11.90601 | -117.63801 | 10.521 | 273.8 |
| 2026-01-31T16:30 | 11.90799 | -117.67006 | 11.329 | 273.6 |
| 2026-01-31T16:40 | 11.90991 | -117.70260 | 11.497 | 273.4 |
| 2026-01-31T16:50 | 11.91185 | -117.73511 | 11.489 | 273.5 |
| 2026-01-31T17:00 | 11.91379 | -117.76681 | 11.202 | 273.6 |
| 2026-01-31T17:10 | 11.91574 | -117.79893 | 11.354 | 273.5 |
| 2026-01-31T17:20 | 11.91771 | -117.83090 | 11.297 | 273.6 |
| 2026-01-31T17:30 | 11.91956 | -117.86150 | 10.816 | 273.5 |
| 2026-01-31T17:40 | 11.92108 | -117.88534 | 8.425 | 273.7 |
| 2026-01-31T17:50 | 11.92248 | -117.91140 | 9.207 | 273.1 |
| 2026-01-31T18:00 | 11.92439 | -117.94214 | 10.865 | 273.6 |
| 2026-01-31T18:10 | 11.92633 | -117.97207 | 10.578 | 273.8 |
| 2026-01-31T18:20 | 11.92807 | -118.00167 | 10.460 | 273.4 |
| 2026-01-31T18:30 | 11.92987 | -118.03112 | 10.409 | 273.6 |
| 2026-01-31T18:40 | 11.94253 | -118.05584 | 9.826 | 297.5 |
| 2026-01-31T18:50 | 11.95938 | -118.07750 | 9.737 | 308.3 |
| 2026-01-31T19:00 | 11.97700 | -118.09960 | 10.027 | 309.0 |
| 2026-01-31T19:10 | 11.99036 | -118.11670 | 7.698 | 308.4 |
| 2026-01-31T19:20 | 12.00733 | -118.13854 | 9.813 | 308.3 |
| 2026-01-31T19:30 | 12.02541 | -118.16135 | 10.326 | 308.8 |
| 2026-01-31T19:40 | 12.04342 | -118.18424 | 10.332 | 308.6 |
| 2026-01-31T19:50 | 12.06149 | -118.20728 | 10.387 | 308.5 |
| 2026-01-31T20:00 | 12.07961 | -118.23018 | 10.360 | 308.8 |
| 2026-01-31T20:10 | 12.09746 | -118.25298 | 10.270 | 308.5 |
| 2026-01-31T20:20 | 12.11551 | -118.27607 | 10.392 | 308.5 |
| 2026-01-31T20:30 | 12.13358 | -118.29897 | 10.348 | 308.7 |
| 2026-01-31T20:40 | 12.15132 | -118.32143 | 10.149 | 308.8 |
| 2026-01-31T20:50 | 12.16904 | -118.34402 | 10.182 | 308.6 |
| 2026-01-31T21:00 | 12.18704 | -118.36684 | 10.309 | 308.7 |
| 2026-01-31T21:10 | 12.20485 | -118.38973 | 10.283 | 308.3 |
| 2026-01-31T21:20 | 12.22278 | -118.41242 | 10.254 | 308.8 |
| 2026-01-31T21:30 | 12.23873 | -118.43268 | 9.142 | 308.7 |
| 2026-01-31T21:40 | 12.25504 | -118.45356 | 9.393 | 308.5 |
| 2026-01-31T21:50 | 12.27175 | -118.47471 | 9.560 | 308.8 |
| 2026-01-31T22:00 | 12.28850 | -118.49602 | 9.608 | 308.6 |
| 2026-01-31T22:10 | 12.30526 | -118.51729 | 9.602 | 308.7 |
| 2026-01-31T22:20 | 12.32228 | -118.53912 | 9.811 | 308.4 |
| 2026-01-31T22:30 | 12.33925 | -118.56052 | 9.684 | 308.9 |
| 2026-01-31T22:40 | 12.35613 | -118.58227 | 9.756 | 308.3 |
| 2026-01-31T22:50 | 12.37423 | -118.60519 | 10.354 | 308.8 |
| 2026-01-31T23:00 | 12.39239 | -118.62834 | 10.427 | 308.6 |
| 2026-01-31T23:10 | 12.41079 | -118.65167 | 10.534 | 308.7 |
| 2026-01-31T23:20 | 12.42921 | -118.67510 | 10.561 | 308.7 |
| 2026-01-31T23:30 | 12.44628 | -118.69698 | 9.837 | 308.4 |
| 2026-01-31T23:40 | 12.46417 | -118.71952 | 10.196 | 308.9 |
| 2026-01-31T23:50 | 12.48192 | -118.74215 | 10.193 | 308.6 |
| 2026-02-01T00:00 | 12.49808 | -118.76307 | 9.369 | 308.2 |
| 2026-02-01T00:10 | 12.51579 | -118.78572 | 10.186 | 308.5 |
| 2026-02-01T00:20 | 12.53403 | -118.80867 | 10.389 | 309.0 |
| 2026-02-01T00:30 | 12.55185 | -118.83146 | 10.251 | 308.5 |
| 2026-02-01T00:40 | 12.56984 | -118.85408 | 10.241 | 309.0 |
| 2026-02-01T00:50 | 12.58786 | -118.87724 | 10.394 | 308.4 |
| 2026-02-01T01:00 | 12.60611 | -118.90056 | 10.491 | 308.6 |
| 2026-02-01T01:10 | 12.62438 | -118.92386 | 10.489 | 308.6 |
| 2026-02-01T01:20 | 12.64280 | -118.94727 | 10.554 | 308.7 |
| 2026-02-01T01:30 | 12.66111 | -118.97064 | 10.515 | 308.6 |
| 2026-02-01T01:40 | 12.67940 | -118.99398 | 10.502 | 308.6 |
| 2026-02-01T01:50 | 12.69763 | -119.01702 | 10.408 | 308.9 |
| 2026-02-01T02:00 | 12.71559 | -119.04017 | 10.377 | 308.3 |
| 2026-02-01T02:10 | 12.73381 | -119.06324 | 10.413 | 308.8 |
| 2026-02-01T02:20 | 12.75183 | -119.08624 | 10.347 | 308.6 |
| 2026-02-01T02:30 | 12.77013 | -119.10963 | 10.518 | 308.6 |
| 2026-02-01T02:40 | 12.78844 | -119.13302 | 10.518 | 308.6 |
| 2026-02-01T02:50 | 12.80680 | -119.15634 | 10.512 | 308.7 |
| 2026-02-01T03:00 | 12.82507 | -119.17971 | 10.503 | 308.6 |
| 2026-02-01T03:10 | 12.84339 | -119.20294 | 10.474 | 308.8 |
| 2026-02-01T03:20 | 12.86199 | -119.22673 | 10.693 | 308.6 |
| 2026-02-01T03:30 | 12.88059 | -119.25034 | 10.641 | 308.8 |
| 2026-02-01T03:40 | 12.89928 | -119.27427 | 10.749 | 308.5 |
| 2026-02-01T03:50 | 12.91778 | -119.29803 | 10.660 | 308.4 |
| 2026-02-01T04:00 | 12.93753 | -119.31872 | 10.145 | 314.2 |
| 2026-02-01T04:10 | 12.96560 | -119.32443 | 10.253 | 348.7 |
| 2026-02-01T04:20 | 12.99386 | -119.33009 | 10.318 | 348.9 |
| 2026-02-01T04:30 | 13.02274 | -119.33583 | 10.537 | 349.0 |
| 2026-02-01T04:40 | 13.05129 | -119.34163 | 10.428 | 348.7 |
| 2026-02-01T04:50 | 13.08017 | -119.34708 | 10.521 | 349.5 |
| 2026-02-01T05:00 | 13.10883 | -119.35268 | 10.456 | 349.1 |
| 2026-02-01T05:10 | 13.13753 | -119.35856 | 10.485 | 348.6 |
| 2026-02-01T05:20 | 13.16669 | -119.36433 | 10.640 | 349.0 |
| 2026-02-01T05:30 | 13.19579 | -119.36999 | 10.614 | 349.2 |
| 2026-02-01T05:40 | 13.22509 | -119.37576 | 10.687 | 349.1 |
| 2026-02-01T05:50 | 13.25419 | -119.38154 | 10.621 | 349.0 |
| 2026-02-01T06:00 | 13.27964 | -119.38220 | 9.122 | 358.5 |
| 2026-02-01T06:10 | 13.27963 | -119.36600 | 5.685 | 90.1 |
| 2026-02-01T06:20 | 13.27964 | -119.36556 | 0.155 | 88.4 |
| 2026-02-01T06:30 | 13.27965 | -119.36559 | 0.012 | 299.4 |
| 2026-02-01T06:40 | 13.27986 | -119.36491 | 0.249 | 72.8 |
| 2026-02-01T06:50 | 13.27999 | -119.36455 | 0.135 | 69.3 |
| 2026-02-01T07:00 | 13.27997 | -119.36450 | 0.019 | 115.2 |
| 2026-02-01T07:10 | 13.27999 | -119.36454 | 0.014 | 306.6 |
| 2026-02-01T07:20 | 13.27995 | -119.36451 | 0.019 | 151.6 |
| 2026-02-01T07:30 | 13.28001 | -119.36453 | 0.024 | 341.1 |
| 2026-02-01T07:40 | 13.27993 | -119.36454 | 0.030 | 186.8 |
| 2026-02-01T07:50 | 13.27994 | -119.36450 | 0.016 | 75.4 |
| 2026-02-01T08:00 | 13.27999 | -119.36453 | 0.021 | 324.5 |
| 2026-02-01T08:10 | 13.27999 | -119.36450 | 0.010 | 86.0 |
| 2026-02-01T08:20 | 13.27994 | -119.36451 | 0.018 | 182.2 |
| 2026-02-01T08:30 | 13.27999 | -119.36455 | 0.026 | 319.0 |
| 2026-02-01T08:40 | 13.27993 | -119.36455 | 0.021 | 177.1 |
| 2026-02-01T08:50 | 13.28002 | -119.36454 | 0.030 | 10.2 |
| 2026-02-01T09:00 | 13.27998 | -119.36455 | 0.014 | 194.8 |
| 2026-02-01T09:10 | 13.27997 | -119.36455 | 0.004 | 201.4 |
| 2026-02-01T09:20 | 13.27995 | -119.36451 | 0.015 | 117.0 |
| 2026-02-01T09:30 | 13.27994 | -119.36453 | 0.006 | 245.9 |
| 2026-02-01T09:40 | 13.28002 | -119.36456 | 0.030 | 336.6 |
| 2026-02-01T09:50 | 13.28002 | -119.36454 | 0.010 | 83.5 |
| 2026-02-01T10:00 | 13.27998 | -119.36451 | 0.017 | 143.9 |
| 2026-02-01T10:10 | 13.27998 | -119.36457 | 0.023 | 270.0 |
| 2026-02-01T10:20 | 13.27783 | -119.36985 | 2.008 | 247.4 |
| 2026-02-01T10:30 | 13.27478 | -119.38346 | 4.898 | 257.1 |
| 2026-02-01T10:40 | 13.27329 | -119.38718 | 1.410 | 247.6 |
| 2026-02-01T10:50 | 13.27319 | -119.38798 | 0.284 | 262.8 |
| 2026-02-01T11:00 | 13.27324 | -119.38801 | 0.019 | 334.4 |
| 2026-02-01T11:10 | 13.27322 | -119.38797 | 0.015 | 115.2 |
| 2026-02-01T11:20 | 13.27326 | -119.38802 | 0.024 | 304.0 |
| 2026-02-01T11:30 | 13.27323 | -119.38799 | 0.014 | 121.8 |
| 2026-02-01T11:40 | 13.27323 | -119.38800 | 0.005 | 227.4 |
| 2026-02-01T11:50 | 13.27323 | -119.38802 | 0.007 | 294.4 |
| 2026-02-01T12:00 | 13.27324 | -119.38775 | 0.094 | 89.3 |
| 2026-02-01T12:10 | 13.27328 | -119.38728 | 0.165 | 84.7 |
| 2026-02-01T12:20 | 13.27370 | -119.38591 | 0.504 | 72.7 |
| 2026-02-01T12:30 | 13.27522 | -119.38362 | 0.972 | 55.9 |
| 2026-02-01T12:40 | 13.27681 | -119.38128 | 0.996 | 55.2 |
| 2026-02-01T12:50 | 13.27839 | -119.37895 | 0.998 | 55.4 |
| 2026-02-01T13:00 | 13.27999 | -119.37661 | 0.999 | 55.0 |
| 2026-02-01T13:10 | 13.28159 | -119.37428 | 1.001 | 54.9 |
| 2026-02-01T13:20 | 13.28319 | -119.37195 | 0.997 | 55.1 |
| 2026-02-01T13:30 | 13.28370 | -119.37121 | 0.318 | 54.9 |
| 2026-02-01T13:40 | 13.28369 | -119.37122 | 0.005 | 248.6 |
| 2026-02-01T13:50 | 13.28370 | -119.37124 | 0.009 | 298.0 |
| 2026-02-01T14:00 | 13.28368 | -119.37121 | 0.014 | 126.6 |
| 2026-02-01T14:10 | 13.28377 | -119.37120 | 0.031 | 3.2 |
| 2026-02-01T14:20 | 13.28376 | -119.37120 | 0.002 | 153.9 |
| 2026-02-01T14:30 | 13.28374 | -119.37120 | 0.008 | 182.4 |
| 2026-02-01T14:40 | 13.28375 | -119.37119 | 0.006 | 39.2 |
| 2026-02-01T14:50 | 13.28369 | -119.37123 | 0.026 | 212.9 |
| 2026-02-01T15:00 | 13.28369 | -119.37119 | 0.014 | 88.5 |
| 2026-02-01T15:10 | 13.28369 | -119.37120 | 0.004 | 290.4 |
| 2026-02-01T15:20 | 13.28372 | -119.37117 | 0.015 | 57.3 |
| 2026-02-01T15:30 | 13.28369 | -119.37118 | 0.009 | 213.7 |
| 2026-02-01T15:40 | 13.28376 | -119.37118 | 0.022 | 0.0 |
| 2026-02-01T15:50 | 13.28375 | -119.37118 | 0.000 | 135.6 |
| 2026-02-01T16:00 | 13.28374 | -119.37118 | 0.006 | 156.8 |
| 2026-02-01T16:10 | 13.28273 | -119.36970 | 0.629 | 124.9 |
| 2026-02-01T16:20 | 13.26522 | -119.38744 | 8.837 | 224.8 |
| 2026-02-01T16:30 | 13.25815 | -119.40001 | 5.085 | 240.2 |
| 2026-02-01T16:40 | 13.25827 | -119.39835 | 0.585 | 85.7 |
| 2026-02-01T16:50 | 13.25940 | -119.39626 | 0.834 | 61.1 |
| 2026-02-01T17:00 | 13.25961 | -119.39604 | 0.111 | 46.2 |
| 2026-02-01T17:10 | 13.25956 | -119.39603 | 0.019 | 174.6 |
| 2026-02-01T17:20 | 13.25954 | -119.39603 | 0.007 | 166.2 |
| 2026-02-01T17:30 | 13.25959 | -119.39603 | 0.019 | 355.8 |
| 2026-02-01T17:40 | 13.25967 | -119.39604 | 0.026 | 350.7 |
| 2026-02-01T17:50 | 13.25966 | -119.39596 | 0.029 | 94.3 |
| 2026-02-01T18:00 | 13.25972 | -119.39599 | 0.026 | 335.3 |
| 2026-02-01T18:10 | 13.25972 | -119.39599 | 0.001 | 198.1 |
| 2026-02-01T18:20 | 13.25967 | -119.39604 | 0.024 | 219.7 |
| 2026-02-01T18:30 | 13.25967 | -119.39605 | 0.004 | 259.5 |
| 2026-02-01T18:40 | 13.25967 | -119.39597 | 0.028 | 90.0 |
| 2026-02-01T18:50 | 13.25974 | -119.39601 | 0.029 | 328.2 |
| 2026-02-01T19:00 | 13.25965 | -119.39601 | 0.030 | 182.0 |
| 2026-02-01T19:10 | 13.25970 | -119.39596 | 0.024 | 48.1 |
| 2026-02-01T19:20 | 13.25968 | -119.39601 | 0.016 | 249.2 |
| 2026-02-01T19:30 | 13.25972 | -119.39598 | 0.018 | 38.8 |
| 2026-02-01T19:40 | 13.25977 | -119.39598 | 0.018 | 358.9 |
| 2026-02-01T19:50 | 13.25973 | -119.39601 | 0.018 | 221.1 |
| 2026-02-01T20:00 | 13.25980 | -119.39597 | 0.027 | 31.7 |
| 2026-02-01T20:10 | 13.25976 | -119.39602 | 0.022 | 234.4 |
| 2026-02-01T20:20 | 13.25976 | -119.39605 | 0.011 | 275.5 |
| 2026-02-01T20:30 | 13.25973 | -119.39605 | 0.011 | 176.3 |
| 2026-02-01T20:40 | 13.25981 | -119.39598 | 0.034 | 41.9 |
| 2026-02-01T20:50 | 13.25973 | -119.39602 | 0.029 | 209.2 |
| 2026-02-01T21:00 | 13.25975 | -119.39599 | 0.012 | 66.8 |
| 2026-02-01T21:10 | 13.25980 | -119.39603 | 0.022 | 323.5 |
| 2026-02-01T21:20 | 13.25976 | -119.39601 | 0.016 | 152.2 |
| 2026-02-01T21:30 | 13.25975 | -119.39598 | 0.010 | 106.8 |
| 2026-02-01T21:40 | 13.25977 | -119.39603 | 0.018 | 295.5 |
| 2026-02-01T21:50 | 13.25973 | -119.39598 | 0.020 | 130.6 |
| 2026-02-01T22:00 | 13.25977 | -119.39601 | 0.016 | 326.2 |
| 2026-02-01T22:10 | 13.25978 | -119.39603 | 0.006 | 295.5 |
| 2026-02-01T22:20 | 13.25971 | -119.39602 | 0.023 | 174.0 |
| 2026-02-01T22:30 | 13.25970 | -119.39603 | 0.007 | 220.3 |
| 2026-02-01T22:40 | 13.25976 | -119.39601 | 0.024 | 22.0 |
| 2026-02-01T22:50 | 13.25972 | -119.39599 | 0.016 | 156.1 |
| 2026-02-01T23:00 | 13.25975 | -119.39596 | 0.015 | 39.6 |
| 2026-02-01T23:10 | 13.25978 | -119.39597 | 0.009 | 349.3 |
| 2026-02-01T23:20 | 13.25979 | -119.39599 | 0.009 | 303.0 |
| 2026-02-01T23:30 | 13.25978 | -119.39602 | 0.012 | 254.9 |
| 2026-02-01T23:40 | 13.25975 | -119.39600 | 0.013 | 153.2 |
| 2026-02-01T23:50 | 13.25977 | -119.39597 | 0.014 | 53.4 |
| 2026-02-02T00:00 | 13.25978 | -119.39601 | 0.013 | 274.9 |
| 2026-02-02T00:10 | 13.25977 | -119.39603 | 0.009 | 260.3 |
| 2026-02-02T00:20 | 13.25975 | -119.39598 | 0.018 | 117.0 |
| 2026-02-02T00:30 | 13.25973 | -119.39600 | 0.009 | 205.1 |
| 2026-02-02T00:40 | 13.25977 | -119.39600 | 0.016 | 351.1 |
| 2026-02-02T00:50 | 13.25973 | -119.39598 | 0.017 | 158.6 |
| 2026-02-02T01:00 | 13.25975 | -119.39602 | 0.013 | 300.7 |
| 2026-02-02T01:10 | 13.25977 | -119.39596 | 0.021 | 64.3 |
| 2026-02-02T01:20 | 13.25981 | -119.39600 | 0.018 | 317.2 |
| 2026-02-02T01:30 | 13.25978 | -119.39598 | 0.011 | 138.3 |
| 2026-02-02T01:40 | 13.25977 | -119.39599 | 0.007 | 224.4 |
| 2026-02-02T01:50 | 13.25980 | -119.39597 | 0.014 | 32.7 |
| 2026-02-02T02:00 | 13.25979 | -119.39600 | 0.012 | 246.8 |
| 2026-02-02T02:10 | 13.25982 | -119.39601 | 0.011 | 348.9 |
| 2026-02-02T02:20 | 13.25980 | -119.39599 | 0.009 | 146.8 |
| 2026-02-02T02:30 | 13.25977 | -119.39600 | 0.009 | 195.3 |
| 2026-02-02T02:40 | 13.25977 | -119.39599 | 0.003 | 82.7 |
| 2026-02-02T02:50 | 13.25980 | -119.39598 | 0.008 | 17.3 |
| 2026-02-02T03:00 | 13.25983 | -119.39602 | 0.017 | 306.5 |
| 2026-02-02T03:10 | 13.25980 | -119.39596 | 0.025 | 116.7 |
| 2026-02-02T03:20 | 13.25979 | -119.39601 | 0.016 | 259.5 |
| 2026-02-02T03:30 | 13.25981 | -119.39599 | 0.009 | 27.1 |
| 2026-02-02T03:40 | 13.25985 | -119.39601 | 0.016 | 340.3 |
| 2026-02-02T03:50 | 13.25981 | -119.39602 | 0.016 | 200.5 |
| 2026-02-02T04:00 | 13.25981 | -119.39605 | 0.009 | 277.0 |
| 2026-02-02T04:10 | 13.25985 | -119.39602 | 0.015 | 37.7 |
| 2026-02-02T04:20 | 13.25982 | -119.39601 | 0.010 | 146.8 |
| 2026-02-02T04:30 | 13.25985 | -119.39601 | 0.011 | 350.4 |
| 2026-02-02T04:40 | 13.25989 | -119.39600 | 0.015 | 13.8 |
| 2026-02-02T04:50 | 13.25989 | -119.39596 | 0.015 | 90.0 |
| 2026-02-02T05:00 | 13.25985 | -119.39597 | 0.013 | 189.3 |
| 2026-02-02T05:10 | 13.25991 | -119.39598 | 0.020 | 342.2 |
| 2026-02-02T05:20 | 13.25989 | -119.39596 | 0.009 | 119.1 |
| 2026-02-02T05:30 | 13.25989 | -119.39595 | 0.003 | 111.0 |
| 2026-02-02T05:40 | 13.25988 | -119.39596 | 0.005 | 196.8 |
| 2026-02-02T05:50 | 13.25989 | -119.39598 | 0.009 | 310.7 |
| 2026-02-02T06:00 | 13.25986 | -119.39598 | 0.011 | 189.3 |
| 2026-02-02T06:10 | 13.25987 | -119.39599 | 0.004 | 311.8 |
| 2026-02-02T06:20 | 13.25991 | -119.39598 | 0.014 | 5.7 |
| 2026-02-02T06:30 | 13.25989 | -119.39598 | 0.007 | 159.2 |
| 2026-02-02T06:40 | 13.25999 | -119.39602 | 0.037 | 338.8 |
| 2026-02-02T06:50 | 13.25997 | -119.39601 | 0.007 | 150.1 |
| 2026-02-02T07:00 | 13.25999 | -119.39603 | 0.011 | 315.6 |
| 2026-02-02T07:10 | 13.25994 | -119.39604 | 0.019 | 188.6 |
| 2026-02-02T07:20 | 13.25999 | -119.39603 | 0.020 | 9.3 |
| 2026-02-02T07:30 | 13.25995 | -119.39601 | 0.016 | 159.5 |
| 2026-02-02T07:40 | 13.25998 | -119.39600 | 0.011 | 26.1 |
| 2026-02-02T07:50 | 13.25997 | -119.39599 | 0.004 | 168.9 |
| 2026-02-02T08:00 | 13.25997 | -119.39602 | 0.008 | 275.3 |
| 2026-02-02T08:10 | 13.26003 | -119.39601 | 0.019 | 10.7 |
| 2026-02-02T08:20 | 13.26003 | -119.39602 | 0.006 | 273.6 |
| 2026-02-02T08:30 | 13.25998 | -119.39600 | 0.019 | 153.4 |
| 2026-02-02T08:40 | 13.25999 | -119.39602 | 0.010 | 291.4 |
| 2026-02-02T08:50 | 13.25997 | -119.39605 | 0.011 | 239.5 |
| 2026-02-02T09:00 | 13.25998 | -119.39599 | 0.020 | 82.7 |
| 2026-02-02T09:10 | 13.26001 | -119.39603 | 0.015 | 314.6 |
| 2026-02-02T09:20 | 13.26002 | -119.39602 | 0.005 | 50.1 |
| 2026-02-02T09:30 | 13.25998 | -119.39601 | 0.015 | 176.1 |
| 2026-02-02T09:40 | 13.26003 | -119.39603 | 0.018 | 344.4 |
| 2026-02-02T09:50 | 13.26002 | -119.39602 | 0.002 | 143.7 |
| 2026-02-02T10:00 | 13.25992 | -119.39605 | 0.039 | 195.1 |
| 2026-02-02T10:10 | 13.25990 | -119.39606 | 0.007 | 200.8 |
| 2026-02-02T10:20 | 13.25990 | -119.39605 | 0.005 | 98.3 |
| 2026-02-02T10:30 | 13.25993 | -119.39605 | 0.013 | 358.4 |
| 2026-02-02T10:40 | 13.25993 | -119.39603 | 0.005 | 93.9 |
| 2026-02-02T10:50 | 13.25989 | -119.39604 | 0.016 | 194.1 |
| 2026-02-02T11:00 | 13.25992 | -119.39604 | 0.012 | 8.2 |
| 2026-02-02T11:10 | 13.25990 | -119.39602 | 0.011 | 157.2 |
| 2026-02-02T11:20 | 13.25987 | -119.39602 | 0.008 | 159.5 |
| 2026-02-02T11:30 | 13.25982 | -119.39599 | 0.021 | 156.9 |
| 2026-02-02T11:40 | 13.25989 | -119.39604 | 0.030 | 328.7 |
| 2026-02-02T11:50 | 13.25991 | -119.39598 | 0.022 | 67.1 |
| 2026-02-02T12:00 | 13.25989 | -119.39601 | 0.016 | 231.8 |
| 2026-02-02T12:10 | 13.25991 | -119.39598 | 0.013 | 55.8 |
| 2026-02-02T12:20 | 13.25990 | -119.39601 | 0.007 | 264.4 |
| 2026-02-02T12:30 | 13.25991 | -119.39598 | 0.010 | 83.8 |
| 2026-02-02T12:40 | 13.25988 | -119.39598 | 0.011 | 181.8 |
| 2026-02-02T12:50 | 13.26000 | -119.39589 | 0.053 | 35.5 |
| 2026-02-02T13:00 | 13.25994 | -119.39588 | 0.022 | 166.5 |
| 2026-02-02T13:10 | 13.25996 | -119.39589 | 0.008 | 332.8 |
| 2026-02-02T13:20 | 13.25992 | -119.39588 | 0.014 | 166.6 |
| 2026-02-02T13:30 | 13.25995 | -119.39591 | 0.016 | 309.4 |
| 2026-02-02T13:40 | 13.25996 | -119.39588 | 0.011 | 72.4 |
| 2026-02-02T13:50 | 13.25992 | -119.39588 | 0.014 | 172.7 |
| 2026-02-02T14:00 | 13.25997 | -119.39588 | 0.018 | 354.4 |
| 2026-02-02T14:10 | 13.25993 | -119.39587 | 0.018 | 158.0 |
| 2026-02-02T14:20 | 13.25995 | -119.39592 | 0.022 | 295.8 |
| 2026-02-02T14:30 | 13.25991 | -119.39587 | 0.024 | 124.2 |
| 2026-02-02T14:40 | 13.25994 | -119.39583 | 0.015 | 53.1 |
| 2026-02-02T14:50 | 13.25988 | -119.39588 | 0.027 | 217.4 |
| 2026-02-02T15:00 | 13.25994 | -119.39589 | 0.021 | 342.5 |
| 2026-02-02T15:10 | 13.25990 | -119.39588 | 0.013 | 161.4 |
| 2026-02-02T15:20 | 13.25989 | -119.39587 | 0.008 | 133.9 |
| 2026-02-02T15:30 | 13.25978 | -119.39581 | 0.042 | 152.2 |
| 2026-02-02T15:40 | 13.25979 | -119.39582 | 0.004 | 301.5 |
| 2026-02-02T15:50 | 13.25980 | -119.39591 | 0.031 | 276.0 |
| 2026-02-02T16:00 | 13.25979 | -119.39592 | 0.006 | 231.3 |
| 2026-02-02T16:10 | 13.25977 | -119.39597 | 0.017 | 256.3 |
| 2026-02-02T16:20 | 13.25977 | -119.39592 | 0.019 | 93.3 |
| 2026-02-02T16:30 | 13.25977 | -119.39594 | 0.007 | 261.7 |
| 2026-02-02T16:40 | 13.25977 | -119.39595 | 0.005 | 261.7 |
| 2026-02-02T16:50 | 13.25980 | -119.39591 | 0.017 | 51.1 |
| 2026-02-02T17:00 | 13.25976 | -119.39594 | 0.016 | 219.1 |
| 2026-02-02T17:10 | 13.25980 | -119.39596 | 0.013 | 338.6 |
| 2026-02-02T17:20 | 13.25979 | -119.39596 | 0.001 | 193.8 |
| 2026-02-02T17:30 | 13.25977 | -119.39595 | 0.008 | 166.9 |
| 2026-02-02T17:40 | 13.25981 | -119.39594 | 0.014 | 8.6 |
| 2026-02-02T17:50 | 13.25977 | -119.39592 | 0.015 | 145.0 |
| 2026-02-02T18:00 | 13.25976 | -119.39594 | 0.010 | 230.4 |
| 2026-02-02T18:10 | 13.25975 | -119.39594 | 0.002 | 129.2 |
| 2026-02-02T18:20 | 13.25980 | -119.39595 | 0.017 | 346.0 |
| 2026-02-02T18:30 | 13.25976 | -119.39592 | 0.018 | 152.4 |
| 2026-02-02T18:40 | 13.25977 | -119.39595 | 0.013 | 302.9 |
| 2026-02-02T18:50 | 13.25974 | -119.39596 | 0.011 | 183.6 |
| 2026-02-02T19:00 | 13.25977 | -119.39592 | 0.016 | 54.4 |
| 2026-02-02T19:10 | 13.25971 | -119.39594 | 0.023 | 195.0 |
| 2026-02-02T19:20 | 13.25964 | -119.39591 | 0.026 | 159.7 |
| 2026-02-02T19:30 | 13.25959 | -119.39592 | 0.017 | 192.9 |
| 2026-02-02T19:40 | 13.25960 | -119.39594 | 0.006 | 283.5 |
| 2026-02-02T19:50 | 13.25958 | -119.39594 | 0.005 | 184.0 |
| 2026-02-02T20:00 | 13.25957 | -119.39593 | 0.005 | 152.2 |
| 2026-02-02T20:10 | 13.25957 | -119.39593 | 0.001 | 75.7 |
| 2026-02-02T20:20 | 13.25957 | -119.39594 | 0.005 | 254.8 |
| 2026-02-02T20:30 | 13.26110 | -119.39290 | 1.199 | 62.8 |
| 2026-02-02T20:40 | 13.27042 | -119.37193 | 8.081 | 65.6 |
| 2026-02-02T20:50 | 13.27750 | -119.35684 | 5.871 | 64.4 |
| 2026-02-02T21:00 | 13.27792 | -119.35545 | 0.510 | 73.1 |
| 2026-02-02T21:10 | 13.27812 | -119.35520 | 0.114 | 51.0 |
| 2026-02-02T21:20 | 13.27833 | -119.35490 | 0.131 | 54.5 |
| 2026-02-02T21:30 | 13.27829 | -119.35489 | 0.014 | 164.2 |
| 2026-02-02T21:40 | 13.27830 | -119.35490 | 0.005 | 304.2 |
| 2026-02-02T21:50 | 13.27828 | -119.35490 | 0.007 | 188.4 |
| 2026-02-02T22:00 | 13.27830 | -119.35491 | 0.007 | 341.9 |
| 2026-02-02T22:10 | 13.27828 | -119.35491 | 0.006 | 183.3 |
| 2026-02-02T22:20 | 13.27844 | -119.35491 | 0.058 | 358.3 |
| 2026-02-02T22:30 | 13.27846 | -119.35494 | 0.009 | 297.0 |
| 2026-02-02T22:40 | 13.27845 | -119.35490 | 0.013 | 94.6 |
| 2026-02-02T22:50 | 13.27845 | -119.35489 | 0.002 | 98.3 |
| 2026-02-02T23:00 | 13.27844 | -119.35492 | 0.010 | 251.2 |
| 2026-02-02T23:10 | 13.27847 | -119.35490 | 0.012 | 33.1 |
| 2026-02-02T23:20 | 13.27842 | -119.35489 | 0.018 | 163.0 |
| 2026-02-02T23:30 | 13.27846 | -119.35490 | 0.013 | 336.6 |
| 2026-02-02T23:40 | 13.27844 | -119.35489 | 0.007 | 148.5 |
| 2026-02-02T23:50 | 13.27845 | -119.35492 | 0.010 | 290.7 |
| 2026-02-03T00:00 | 13.27843 | -119.35491 | 0.007 | 141.9 |
| 2026-02-03T00:10 | 13.27821 | -119.35396 | 0.343 | 103.3 |
| 2026-02-03T00:20 | 13.28280 | -119.34202 | 4.499 | 68.6 |
| 2026-02-03T00:30 | 13.28322 | -119.34110 | 0.357 | 65.1 |
| 2026-02-03T00:40 | 13.28320 | -119.34107 | 0.010 | 125.9 |
| 2026-02-03T00:50 | 13.28322 | -119.34106 | 0.009 | 36.7 |
| 2026-02-03T01:00 | 13.28323 | -119.34106 | 0.003 | 344.4 |
| 2026-02-03T01:10 | 13.28326 | -119.34110 | 0.019 | 305.7 |
| 2026-02-03T01:20 | 13.28322 | -119.34104 | 0.028 | 123.8 |
| 2026-02-03T01:30 | 13.28328 | -119.34105 | 0.025 | 351.8 |
| 2026-02-03T01:40 | 13.28327 | -119.34103 | 0.007 | 114.4 |
| 2026-02-03T01:50 | 13.28325 | -119.34109 | 0.025 | 245.2 |
| 2026-02-03T02:00 | 13.28329 | -119.34112 | 0.018 | 328.4 |
| 2026-02-03T02:10 | 13.28330 | -119.34109 | 0.012 | 73.3 |
| 2026-02-03T02:20 | 13.28332 | -119.34110 | 0.009 | 315.6 |
| 2026-02-03T02:30 | 13.28332 | -119.34109 | 0.003 | 83.5 |
| 2026-02-03T02:40 | 13.28324 | -119.34111 | 0.027 | 190.5 |
| 2026-02-03T02:50 | 13.28325 | -119.34106 | 0.017 | 77.7 |
| 2026-02-03T03:00 | 13.28332 | -119.34110 | 0.027 | 325.6 |
| 2026-02-03T03:10 | 13.28324 | -119.34107 | 0.029 | 158.6 |
| 2026-02-03T03:20 | 13.28329 | -119.34107 | 0.016 | 2.5 |
| 2026-02-03T03:30 | 13.28330 | -119.34109 | 0.009 | 303.0 |
| 2026-02-03T03:40 | 13.27994 | -119.33998 | 1.263 | 162.0 |
| 2026-02-03T03:50 | 13.26427 | -119.36051 | 9.132 | 232.1 |
| 2026-02-03T04:00 | 13.26760 | -119.35914 | 1.284 | 22.0 |
| 2026-02-03T04:10 | 13.26762 | -119.35907 | 0.026 | 72.7 |
| 2026-02-03T04:20 | 13.26763 | -119.35911 | 0.013 | 277.6 |
| 2026-02-03T04:30 | 13.26763 | -119.35908 | 0.011 | 72.4 |
| 2026-02-03T04:40 | 13.26766 | -119.35904 | 0.018 | 55.8 |
| 2026-02-03T04:50 | 13.26773 | -119.35904 | 0.024 | 357.4 |
| 2026-02-03T05:00 | 13.26769 | -119.35905 | 0.016 | 196.5 |
| 2026-02-03T05:10 | 13.26768 | -119.35903 | 0.008 | 110.4 |
| 2026-02-03T05:20 | 13.26778 | -119.35901 | 0.035 | 8.5 |
| 2026-02-03T05:30 | 13.26773 | -119.35902 | 0.015 | 182.6 |
| 2026-02-03T05:40 | 13.26771 | -119.35906 | 0.017 | 244.0 |
| 2026-02-03T05:50 | 13.26769 | -119.35904 | 0.010 | 126.6 |
| 2026-02-03T06:00 | 13.26773 | -119.35903 | 0.012 | 6.8 |
| 2026-02-03T06:10 | 13.26771 | -119.35902 | 0.008 | 135.6 |
| 2026-02-03T06:20 | 13.26776 | -119.35905 | 0.021 | 326.6 |
| 2026-02-03T06:30 | 13.26771 | -119.35902 | 0.021 | 150.4 |
| 2026-02-03T06:40 | 13.26768 | -119.35901 | 0.012 | 164.1 |
| 2026-02-03T06:50 | 13.26772 | -119.35905 | 0.021 | 317.0 |
| 2026-02-03T07:00 | 13.27069 | -119.35131 | 2.916 | 68.6 |
| 2026-02-03T07:10 | 13.27319 | -119.34558 | 2.203 | 66.0 |
| 2026-02-03T07:20 | 13.27313 | -119.34556 | 0.021 | 166.5 |
| 2026-02-03T07:30 | 13.27280 | -119.34523 | 0.166 | 135.3 |
| 2026-02-03T07:40 | 13.27271 | -119.34525 | 0.033 | 192.9 |
| 2026-02-03T07:50 | 13.27275 | -119.34523 | 0.015 | 32.0 |
| 2026-02-03T08:00 | 13.27276 | -119.34526 | 0.011 | 296.2 |
| 2026-02-03T08:10 | 13.27270 | -119.34523 | 0.023 | 153.1 |
| 2026-02-03T08:20 | 13.27273 | -119.34522 | 0.012 | 19.2 |
| 2026-02-03T08:30 | 13.27273 | -119.34522 | 0.003 | 195.6 |
| 2026-02-03T08:40 | 13.27275 | -119.34524 | 0.010 | 314.1 |
| 2026-02-03T08:50 | 13.27265 | -119.34525 | 0.034 | 186.5 |
| 2026-02-03T09:00 | 13.27274 | -119.34524 | 0.033 | 4.9 |
| 2026-02-03T09:10 | 13.27269 | -119.34528 | 0.025 | 215.8 |
| 2026-02-03T09:20 | 13.27275 | -119.34528 | 0.022 | 7.4 |
| 2026-02-03T09:30 | 13.27278 | -119.34527 | 0.013 | 13.0 |
| 2026-02-03T09:40 | 13.27275 | -119.34528 | 0.012 | 200.8 |
| 2026-02-03T09:50 | 13.27268 | -119.34523 | 0.030 | 147.8 |
| 2026-02-03T10:00 | 13.27270 | -119.34528 | 0.018 | 290.9 |
| 2026-02-03T10:10 | 13.27230 | -119.34501 | 0.171 | 145.5 |
| 2026-02-03T10:20 | 13.27518 | -119.36039 | 5.496 | 280.8 |
| 2026-02-03T10:30 | 13.28035 | -119.38724 | 9.602 | 281.1 |
| 2026-02-03T10:40 | 13.28470 | -119.40530 | 6.525 | 283.8 |
| 2026-02-03T10:50 | 13.28616 | -119.40538 | 0.523 | 357.0 |
| 2026-02-03T11:00 | 13.28726 | -119.40552 | 0.396 | 353.0 |
| 2026-02-03T11:10 | 13.28858 | -119.40565 | 0.477 | 354.5 |
| 2026-02-03T11:20 | 13.28943 | -119.40586 | 0.313 | 346.3 |
| 2026-02-03T11:30 | 13.29018 | -119.40626 | 0.302 | 332.6 |
| 2026-02-03T11:40 | 13.29089 | -119.40642 | 0.262 | 347.2 |
| 2026-02-03T11:50 | 13.29091 | -119.40641 | 0.009 | 44.4 |
| 2026-02-03T12:00 | 13.29086 | -119.40646 | 0.025 | 225.0 |
| 2026-02-03T12:10 | 13.29091 | -119.40640 | 0.029 | 46.9 |
| 2026-02-03T12:20 | 13.29088 | -119.40638 | 0.015 | 154.5 |
| 2026-02-03T12:30 | 13.29089 | -119.40643 | 0.018 | 286.3 |
| 2026-02-03T12:40 | 13.29252 | -119.40465 | 0.854 | 46.8 |
| 2026-02-03T12:50 | 13.29432 | -119.40260 | 0.965 | 48.2 |
| 2026-02-03T13:00 | 13.29616 | -119.40046 | 1.000 | 48.8 |
| 2026-02-03T13:10 | 13.29801 | -119.39832 | 1.000 | 48.5 |
| 2026-02-03T13:20 | 13.29985 | -119.39618 | 1.001 | 48.6 |
| 2026-02-03T13:30 | 13.30170 | -119.39405 | 0.998 | 48.5 |
| 2026-02-03T13:40 | 13.30354 | -119.39190 | 1.001 | 48.8 |
| 2026-02-03T13:50 | 13.30436 | -119.39090 | 0.460 | 50.4 |
| 2026-02-03T14:00 | 13.30440 | -119.39094 | 0.025 | 315.6 |
| 2026-02-03T14:10 | 13.30438 | -119.39091 | 0.015 | 117.6 |
| 2026-02-03T14:20 | 13.30439 | -119.39090 | 0.003 | 66.4 |
| 2026-02-03T14:30 | 13.30441 | -119.39092 | 0.011 | 313.0 |
| 2026-02-03T14:40 | 13.30442 | -119.39092 | 0.004 | 11.1 |
| 2026-02-03T14:50 | 13.30446 | -119.39096 | 0.020 | 317.0 |
| 2026-02-03T15:00 | 13.30445 | -119.39096 | 0.006 | 206.1 |
| 2026-02-03T15:10 | 13.30440 | -119.39095 | 0.017 | 160.8 |
| 2026-02-03T15:20 | 13.30444 | -119.39092 | 0.016 | 40.0 |
| 2026-02-03T15:30 | 13.30443 | -119.39096 | 0.015 | 267.3 |
| 2026-02-03T15:40 | 13.30438 | -119.39091 | 0.027 | 135.1 |
| 2026-02-03T15:50 | 13.30445 | -119.39095 | 0.029 | 329.9 |
| 2026-02-03T16:00 | 13.30441 | -119.39090 | 0.023 | 128.7 |
| 2026-02-03T16:10 | 13.30443 | -119.39092 | 0.008 | 313.9 |
| 2026-02-03T16:20 | 13.30461 | -119.39101 | 0.072 | 332.5 |
| 2026-02-03T16:30 | 13.30165 | -119.38061 | 3.798 | 106.2 |
| 2026-02-03T16:40 | 13.29139 | -119.35400 | 10.035 | 111.5 |
| 2026-02-03T16:50 | 13.28275 | -119.33289 | 8.028 | 112.7 |
| 2026-02-03T17:00 | 13.28148 | -119.33070 | 0.892 | 120.7 |
| 2026-02-03T17:10 | 13.28148 | -119.33071 | 0.004 | 336.5 |
| 2026-02-03T17:20 | 13.28142 | -119.33067 | 0.026 | 150.8 |
| 2026-02-03T17:30 | 13.28147 | -119.33072 | 0.023 | 314.4 |
| 2026-02-03T17:40 | 13.28144 | -119.33065 | 0.025 | 114.8 |
| 2026-02-03T17:50 | 13.28152 | -119.33070 | 0.032 | 328.6 |
| 2026-02-03T18:00 | 13.28145 | -119.33073 | 0.026 | 202.6 |
| 2026-02-03T18:10 | 13.28144 | -119.33075 | 0.009 | 237.0 |
| 2026-02-03T18:20 | 13.28147 | -119.33074 | 0.014 | 11.7 |
| 2026-02-03T18:30 | 13.28142 | -119.33070 | 0.024 | 139.2 |
| 2026-02-03T18:40 | 13.28147 | -119.33071 | 0.016 | 341.9 |
| 2026-02-03T18:50 | 13.28145 | -119.33068 | 0.012 | 109.9 |
| 2026-02-03T19:00 | 13.28145 | -119.33071 | 0.009 | 265.5 |
| 2026-02-03T19:10 | 13.28148 | -119.33069 | 0.011 | 38.1 |
| 2026-02-03T19:20 | 13.28143 | -119.33068 | 0.018 | 166.5 |
| 2026-02-03T19:30 | 13.28143 | -119.33070 | 0.008 | 275.3 |
| 2026-02-03T19:40 | 13.28143 | -119.33073 | 0.011 | 268.1 |
| 2026-02-03T19:50 | 13.28147 | -119.33071 | 0.016 | 31.3 |
| 2026-02-03T20:00 | 13.28147 | -119.33074 | 0.012 | 271.7 |
| 2026-02-03T20:10 | 13.28141 | -119.33073 | 0.021 | 167.2 |
| 2026-02-03T20:20 | 13.28142 | -119.33072 | 0.003 | 57.5 |
| 2026-02-03T20:30 | 13.28146 | -119.33071 | 0.016 | 8.7 |
| 2026-02-03T20:40 | 13.28148 | -119.33075 | 0.014 | 295.0 |
| 2026-02-03T20:50 | 13.28145 | -119.33071 | 0.016 | 130.2 |
| 2026-02-03T21:00 | 13.28144 | -119.33073 | 0.006 | 235.8 |
| 2026-02-03T21:10 | 13.28146 | -119.33073 | 0.009 | 351.1 |
| 2026-02-03T21:20 | 13.28143 | -119.33070 | 0.017 | 127.9 |
| 2026-02-03T21:30 | 13.28142 | -119.33071 | 0.007 | 218.1 |
| 2026-02-03T21:40 | 13.28146 | -119.33075 | 0.021 | 315.6 |
| 2026-02-03T21:50 | 13.28147 | -119.33078 | 0.013 | 285.8 |
| 2026-02-03T22:00 | 13.28145 | -119.33103 | 0.087 | 266.2 |
| 2026-02-03T22:10 | 13.28148 | -119.33107 | 0.018 | 301.7 |
| 2026-02-03T22:20 | 13.28148 | -119.33109 | 0.006 | 259.2 |
| 2026-02-03T22:30 | 13.28150 | -119.33108 | 0.010 | 27.0 |
| 2026-02-03T22:40 | 13.28151 | -119.33112 | 0.014 | 276.0 |
| 2026-02-03T22:50 | 13.28153 | -119.33107 | 0.018 | 57.9 |
| 2026-02-03T23:00 | 13.28153 | -119.33105 | 0.010 | 104.8 |
| 2026-02-03T23:10 | 13.28224 | -119.33236 | 0.527 | 298.8 |
| 2026-02-03T23:20 | 13.28258 | -119.33392 | 0.559 | 282.7 |
| 2026-02-03T23:30 | 13.28331 | -119.33656 | 0.962 | 285.9 |
| 2026-02-03T23:40 | 13.28380 | -119.33933 | 0.988 | 280.2 |
| 2026-02-03T23:50 | 13.28450 | -119.34200 | 0.970 | 285.1 |
| 2026-02-04T00:00 | 13.28460 | -119.34216 | 0.067 | 300.7 |
| 2026-02-04T00:10 | 13.28457 | -119.34213 | 0.016 | 141.9 |
| 2026-02-04T00:20 | 13.28449 | -119.34203 | 0.045 | 125.6 |
| 2026-02-04T00:30 | 13.28450 | -119.34200 | 0.010 | 64.8 |
| 2026-02-04T00:40 | 13.28450 | -119.34204 | 0.014 | 261.3 |
| 2026-02-04T00:50 | 13.28441 | -119.34202 | 0.031 | 163.1 |
| 2026-02-04T01:00 | 13.28443 | -119.34203 | 0.008 | 310.1 |
| 2026-02-04T01:10 | 13.28450 | -119.34202 | 0.026 | 15.6 |
| 2026-02-04T01:20 | 13.28446 | -119.34205 | 0.017 | 220.1 |
| 2026-02-04T01:30 | 13.28450 | -119.34203 | 0.016 | 23.3 |
| 2026-02-04T01:40 | 13.28443 | -119.34201 | 0.026 | 166.6 |
| 2026-02-04T01:50 | 13.28440 | -119.34207 | 0.023 | 243.0 |
| 2026-02-04T02:00 | 13.28445 | -119.34202 | 0.022 | 45.7 |
| 2026-02-04T02:10 | 13.28448 | -119.34204 | 0.011 | 337.9 |
| 2026-02-04T02:20 | 13.28445 | -119.34201 | 0.012 | 138.1 |
| 2026-02-04T02:30 | 13.28447 | -119.34200 | 0.006 | 39.6 |
| 2026-02-04T02:40 | 13.28446 | -119.34204 | 0.013 | 261.9 |
| 2026-02-04T02:50 | 13.28448 | -119.34202 | 0.010 | 44.4 |
| 2026-02-04T03:00 | 13.28445 | -119.34203 | 0.012 | 205.4 |
| 2026-02-04T03:10 | 13.28443 | -119.34201 | 0.012 | 117.8 |
| 2026-02-04T03:20 | 13.28443 | -119.34202 | 0.004 | 259.5 |
| 2026-02-04T03:30 | 13.28440 | -119.34200 | 0.013 | 150.4 |
| 2026-02-04T03:40 | 13.28441 | -119.34203 | 0.011 | 287.6 |
| 2026-02-04T03:50 | 13.28048 | -119.34047 | 1.510 | 158.8 |
| 2026-02-04T04:00 | 13.26769 | -119.36811 | 10.724 | 244.7 |
| 2026-02-04T04:10 | 13.25916 | -119.39221 | 8.993 | 250.1 |
| 2026-02-04T04:20 | 13.25902 | -119.39613 | 1.374 | 267.9 |
| 2026-02-04T04:30 | 13.25905 | -119.39612 | 0.012 | 1.6 |
| 2026-02-04T04:40 | 13.25905 | -119.39614 | 0.005 | 270.0 |
| 2026-02-04T04:50 | 13.25904 | -119.39615 | 0.008 | 226.3 |
| 2026-02-04T05:00 | 13.25901 | -119.39611 | 0.018 | 129.2 |
| 2026-02-04T05:10 | 13.25900 | -119.39608 | 0.012 | 97.0 |
| 2026-02-04T05:20 | 13.25899 | -119.39609 | 0.006 | 229.2 |
| 2026-02-04T05:30 | 13.25898 | -119.39610 | 0.005 | 221.7 |
| 2026-02-04T05:40 | 13.25930 | -119.39603 | 0.119 | 11.9 |
| 2026-02-04T05:50 | 13.25985 | -119.39592 | 0.199 | 11.3 |
| 2026-02-04T06:00 | 13.25987 | -119.39591 | 0.010 | 33.1 |
| 2026-02-04T06:10 | 13.25989 | -119.39591 | 0.006 | 3.1 |
| 2026-02-04T06:20 | 13.25989 | -119.39590 | 0.003 | 126.1 |
| 2026-02-04T06:30 | 13.25990 | -119.39593 | 0.013 | 281.5 |
| 2026-02-04T06:40 | 13.25991 | -119.39592 | 0.008 | 31.7 |
| 2026-02-04T06:50 | 13.25991 | -119.39594 | 0.006 | 270.0 |
| 2026-02-04T07:00 | 13.25986 | -119.39593 | 0.021 | 175.2 |
| 2026-02-04T07:10 | 13.25985 | -119.39590 | 0.013 | 91.6 |
| 2026-02-04T07:20 | 13.25990 | -119.39595 | 0.024 | 314.4 |
| 2026-02-04T07:30 | 13.25988 | -119.39592 | 0.011 | 125.2 |
| 2026-02-04T07:40 | 13.25990 | -119.39593 | 0.005 | 328.9 |
| 2026-02-04T07:50 | 13.25989 | -119.39591 | 0.007 | 105.0 |
| 2026-02-04T08:00 | 13.25988 | -119.39590 | 0.006 | 143.0 |
| 2026-02-04T08:10 | 13.25992 | -119.39593 | 0.018 | 320.5 |
| 2026-02-04T08:20 | 13.25997 | -119.39586 | 0.033 | 50.6 |
| 2026-02-04T08:30 | 13.25993 | -119.39586 | 0.015 | 178.7 |
| 2026-02-04T08:40 | 13.25992 | -119.39587 | 0.006 | 221.9 |
| 2026-02-04T08:50 | 13.25995 | -119.39585 | 0.014 | 33.1 |
| 2026-02-04T09:00 | 13.25981 | -119.39576 | 0.061 | 147.8 |
| 2026-02-04T09:10 | 13.25985 | -119.39578 | 0.016 | 332.8 |
| 2026-02-04T09:20 | 13.25984 | -119.39577 | 0.005 | 167.3 |
| 2026-02-04T09:30 | 13.25982 | -119.39576 | 0.008 | 144.7 |
| 2026-02-04T09:40 | 13.25985 | -119.39578 | 0.013 | 335.3 |
| 2026-02-04T09:50 | 13.25982 | -119.39581 | 0.018 | 228.4 |
| 2026-02-04T10:00 | 13.25982 | -119.39580 | 0.007 | 80.8 |
| 2026-02-04T10:10 | 13.25983 | -119.39576 | 0.013 | 80.6 |
| 2026-02-04T10:20 | 13.25984 | -119.39579 | 0.014 | 298.4 |
| 2026-02-04T10:30 | 13.25986 | -119.39579 | 0.005 | 352.6 |
| 2026-02-04T10:40 | 13.25983 | -119.39577 | 0.015 | 141.5 |
| 2026-02-04T10:50 | 13.25985 | -119.39580 | 0.016 | 303.5 |
| 2026-02-04T11:00 | 13.25982 | -119.39579 | 0.014 | 152.6 |
| 2026-02-04T11:10 | 13.25984 | -119.39577 | 0.009 | 41.2 |
| 2026-02-04T11:20 | 13.25983 | -119.39582 | 0.016 | 266.2 |
| 2026-02-04T11:30 | 13.25984 | -119.39578 | 0.013 | 83.5 |
| 2026-02-04T11:40 | 13.25986 | -119.39580 | 0.010 | 327.4 |
| 2026-02-04T11:50 | 13.25985 | -119.39579 | 0.004 | 174.9 |
| 2026-02-04T12:00 | 13.25972 | -119.39591 | 0.062 | 220.9 |
| 2026-02-04T12:10 | 13.25965 | -119.39606 | 0.059 | 245.4 |
| 2026-02-04T12:20 | 13.25961 | -119.39603 | 0.018 | 143.7 |
| 2026-02-04T12:30 | 13.25965 | -119.39602 | 0.014 | 18.5 |
| 2026-02-04T12:40 | 13.25961 | -119.39603 | 0.013 | 196.7 |
| 2026-02-04T12:50 | 13.25966 | -119.39606 | 0.020 | 321.3 |
| 2026-02-04T13:00 | 13.25968 | -119.39605 | 0.011 | 40.4 |
| 2026-02-04T13:10 | 13.25961 | -119.39604 | 0.025 | 178.4 |
| 2026-02-04T13:20 | 13.25967 | -119.39604 | 0.023 | 1.8 |
| 2026-02-04T13:30 | 13.25966 | -119.39603 | 0.006 | 146.8 |
| 2026-02-04T13:40 | 13.25962 | -119.39602 | 0.013 | 167.7 |
| 2026-02-04T13:50 | 13.25965 | -119.39603 | 0.010 | 352.0 |
| 2026-02-04T14:00 | 13.25961 | -119.39600 | 0.018 | 151.3 |
| 2026-02-04T14:10 | 13.25962 | -119.39602 | 0.009 | 308.9 |
| 2026-02-04T14:20 | 13.25965 | -119.39602 | 0.009 | 4.3 |
| 2026-02-04T14:30 | 13.25963 | -119.39601 | 0.007 | 160.2 |
| 2026-02-04T14:40 | 13.25963 | -119.39601 | 0.001 | 153.9 |
| 2026-02-04T14:50 | 13.25966 | -119.39600 | 0.011 | 14.6 |
| 2026-02-04T15:00 | 13.25966 | -119.39601 | 0.003 | 310.4 |
| 2026-02-04T15:10 | 13.25965 | -119.39601 | 0.005 | 180.0 |
| 2026-02-04T15:20 | 13.25962 | -119.39600 | 0.011 | 156.3 |
| 2026-02-04T15:30 | 13.25966 | -119.39601 | 0.015 | 336.9 |
| 2026-02-04T15:40 | 13.25968 | -119.39604 | 0.010 | 309.9 |
| 2026-02-04T15:50 | 13.25947 | -119.39600 | 0.076 | 169.4 |
| 2026-02-04T16:00 | 13.25953 | -119.39598 | 0.024 | 13.4 |
| 2026-02-04T16:10 | 13.25954 | -119.39598 | 0.003 | 6.2 |
| 2026-02-04T16:20 | 13.25956 | -119.39599 | 0.009 | 320.5 |
| 2026-02-04T16:30 | 13.25954 | -119.39598 | 0.008 | 141.1 |
| 2026-02-04T16:40 | 13.25951 | -119.39598 | 0.011 | 169.3 |
| 2026-02-04T16:50 | 13.25951 | -119.39598 | 0.004 | 221.1 |
| 2026-02-04T17:00 | 13.25951 | -119.39600 | 0.007 | 285.8 |
| 2026-02-04T17:10 | 13.25954 | -119.39600 | 0.010 | 5.8 |
| 2026-02-04T17:20 | 13.25951 | -119.39600 | 0.011 | 181.8 |
| 2026-02-04T17:30 | 13.25955 | -119.39599 | 0.015 | 12.4 |
| 2026-02-04T17:40 | 13.25954 | -119.39601 | 0.007 | 238.0 |
| 2026-02-04T17:50 | 13.25955 | -119.39599 | 0.008 | 55.8 |
| 2026-02-04T18:00 | 13.25963 | -119.39600 | 0.028 | 350.7 |
| 2026-02-04T18:10 | 13.25974 | -119.39681 | 0.284 | 278.2 |
| 2026-02-04T18:20 | 13.26029 | -119.40800 | 3.935 | 272.9 |
| 2026-02-04T18:30 | 13.26407 | -119.41544 | 2.939 | 297.5 |
| 2026-02-04T18:40 | 13.26369 | -119.41651 | 0.402 | 249.9 |
| 2026-02-04T18:50 | 13.26532 | -119.41988 | 1.318 | 296.4 |
| 2026-02-04T19:00 | 13.26553 | -119.42044 | 0.212 | 290.4 |
| 2026-02-04T19:10 | 13.26766 | -119.39945 | 7.404 | 84.1 |
| 2026-02-04T19:20 | 13.27127 | -119.37157 | 9.870 | 82.5 |
| 2026-02-04T19:30 | 13.27316 | -119.34643 | 8.847 | 85.6 |
| 2026-02-04T19:40 | 13.27319 | -119.34389 | 0.891 | 89.4 |
| 2026-02-04T19:50 | 13.27286 | -119.34381 | 0.121 | 166.6 |
| 2026-02-04T20:00 | 13.27286 | -119.34379 | 0.006 | 86.8 |
| 2026-02-04T20:10 | 13.27286 | -119.34380 | 0.001 | 206.1 |
| 2026-02-04T20:20 | 13.27284 | -119.34379 | 0.006 | 161.9 |
| 2026-02-04T20:30 | 13.27283 | -119.34380 | 0.006 | 217.6 |
| 2026-02-04T20:40 | 13.27289 | -119.34377 | 0.024 | 23.4 |
| 2026-02-04T20:50 | 13.27287 | -119.34379 | 0.008 | 213.8 |
| 2026-02-04T21:00 | 13.27288 | -119.34378 | 0.003 | 22.8 |
| 2026-02-04T21:10 | 13.27285 | -119.34380 | 0.013 | 209.6 |
| 2026-02-04T21:20 | 13.27284 | -119.34381 | 0.004 | 208.1 |
| 2026-02-04T21:30 | 13.27286 | -119.34377 | 0.017 | 51.1 |
| 2026-02-04T21:40 | 13.27288 | -119.34378 | 0.005 | 328.1 |
| 2026-02-04T21:50 | 13.27283 | -119.34379 | 0.018 | 193.5 |
| 2026-02-04T22:00 | 13.27287 | -119.34378 | 0.017 | 15.5 |
| 2026-02-04T22:10 | 13.27287 | -119.34378 | 0.003 | 180.0 |
| 2026-02-04T22:20 | 13.27283 | -119.34378 | 0.012 | 191.7 |
| 2026-02-04T22:30 | 13.27284 | -119.34379 | 0.005 | 306.6 |
| 2026-02-04T22:40 | 13.27284 | -119.34381 | 0.005 | 274.2 |
| 2026-02-04T22:50 | 13.27284 | -119.34378 | 0.009 | 103.8 |
| 2026-02-04T23:00 | 13.27286 | -119.34379 | 0.010 | 354.0 |
| 2026-02-04T23:10 | 13.27287 | -119.34378 | 0.003 | 13.8 |
| 2026-02-04T23:20 | 13.27283 | -119.34379 | 0.015 | 190.8 |
| 2026-02-04T23:30 | 13.27285 | -119.34381 | 0.009 | 328.1 |
| 2026-02-04T23:40 | 13.27286 | -119.34378 | 0.009 | 63.0 |
| 2026-02-04T23:50 | 13.27284 | -119.34378 | 0.008 | 168.0 |
| 2026-02-05T00:00 | 13.27283 | -119.34378 | 0.003 | 211.5 |
| 2026-02-05T00:10 | 13.27282 | -119.34378 | 0.004 | 153.9 |
| 2026-02-05T00:20 | 13.27282 | -119.34378 | 0.003 | 187.0 |
| 2026-02-05T00:30 | 13.27280 | -119.34380 | 0.009 | 240.9 |
| 2026-02-05T00:40 | 13.27284 | -119.34380 | 0.014 | 7.3 |
| 2026-02-05T00:50 | 13.27284 | -119.34375 | 0.014 | 90.0 |
| 2026-02-05T01:00 | 13.27279 | -119.34379 | 0.021 | 214.2 |
| 2026-02-05T01:10 | 13.27285 | -119.34380 | 0.020 | 346.7 |
| 2026-02-05T01:20 | 13.27283 | -119.34379 | 0.008 | 150.4 |
| 2026-02-05T01:30 | 13.27282 | -119.34380 | 0.004 | 217.3 |
| 2026-02-05T01:40 | 13.27282 | -119.34382 | 0.009 | 277.0 |
| 2026-02-05T01:50 | 13.27259 | -119.34405 | 0.116 | 224.2 |
| 2026-02-05T02:00 | 13.28062 | -119.33358 | 4.667 | 51.9 |
| 2026-02-05T02:10 | 13.28167 | -119.33142 | 0.848 | 63.7 |
| 2026-02-05T02:20 | 13.28147 | -119.33121 | 0.104 | 135.6 |
| 2026-02-05T02:30 | 13.28151 | -119.33129 | 0.033 | 295.9 |
| 2026-02-05T02:40 | 13.28144 | -119.33126 | 0.026 | 154.6 |
| 2026-02-05T02:50 | 13.28148 | -119.33123 | 0.018 | 38.8 |
| 2026-02-05T03:00 | 13.28150 | -119.33126 | 0.014 | 308.3 |
| 2026-02-05T03:10 | 13.28144 | -119.33127 | 0.023 | 186.0 |
| 2026-02-05T03:20 | 13.28144 | -119.33129 | 0.009 | 270.0 |
| 2026-02-05T03:30 | 13.28144 | -119.33127 | 0.008 | 87.5 |
| 2026-02-05T03:40 | 13.28144 | -119.33128 | 0.003 | 262.7 |
| 2026-02-05T03:50 | 13.28143 | -119.33124 | 0.015 | 99.7 |
| 2026-02-05T04:00 | 13.28143 | -119.33122 | 0.007 | 99.2 |
| 2026-02-05T04:10 | 13.28144 | -119.33123 | 0.006 | 325.9 |
| 2026-02-05T04:20 | 13.28142 | -119.33121 | 0.009 | 138.8 |
| 2026-02-05T04:30 | 13.28142 | -119.33126 | 0.017 | 267.6 |
| 2026-02-05T04:40 | 13.28142 | -119.33123 | 0.008 | 87.6 |
| 2026-02-05T04:50 | 13.28139 | -119.33120 | 0.015 | 128.0 |
| 2026-02-05T05:00 | 13.28136 | -119.33116 | 0.016 | 132.9 |
| 2026-02-05T05:10 | 13.27894 | -119.33027 | 0.924 | 160.2 |
| 2026-02-05T05:20 | 13.27656 | -119.35355 | 8.211 | 264.1 |
| 2026-02-05T05:30 | 13.27842 | -119.35730 | 1.473 | 296.8 |
| 2026-02-05T05:40 | 13.27868 | -119.35688 | 0.173 | 57.6 |
| 2026-02-05T05:50 | 13.27890 | -119.35635 | 0.203 | 66.9 |
| 2026-02-05T06:00 | 13.27893 | -119.35633 | 0.012 | 29.0 |
| 2026-02-05T06:10 | 13.27901 | -119.35632 | 0.028 | 8.6 |
| 2026-02-05T06:20 | 13.27898 | -119.35636 | 0.017 | 238.7 |
| 2026-02-05T06:30 | 13.27899 | -119.35635 | 0.006 | 71.2 |
| 2026-02-05T06:40 | 13.27898 | -119.35632 | 0.010 | 108.8 |
| 2026-02-05T06:50 | 13.27901 | -119.35634 | 0.014 | 324.0 |
| 2026-02-05T07:00 | 13.27899 | -119.35638 | 0.016 | 238.3 |
| 2026-02-05T07:10 | 13.27900 | -119.35634 | 0.015 | 67.8 |
| 2026-02-05T07:20 | 13.27898 | -119.35631 | 0.014 | 128.3 |
| 2026-02-05T07:30 | 13.27895 | -119.35635 | 0.015 | 237.3 |
| 2026-02-05T07:40 | 13.27896 | -119.35635 | 0.003 | 293.6 |
| 2026-02-05T07:50 | 13.27900 | -119.35636 | 0.016 | 348.9 |
| 2026-02-05T08:00 | 13.27900 | -119.35636 | 0.001 | 146.9 |
| 2026-02-05T08:10 | 13.27898 | -119.35634 | 0.009 | 137.1 |
| 2026-02-05T08:20 | 13.27901 | -119.35635 | 0.010 | 339.4 |
| 2026-02-05T08:30 | 13.27837 | -119.35600 | 0.259 | 151.8 |
| 2026-02-05T08:40 | 13.25693 | -119.34584 | 8.467 | 155.1 |
| 2026-02-05T08:50 | 13.23197 | -119.33364 | 9.915 | 154.4 |
| 2026-02-05T09:00 | 13.20600 | -119.32099 | 10.309 | 154.5 |
| 2026-02-05T09:10 | 13.18066 | -119.30876 | 10.039 | 154.7 |
| 2026-02-05T09:20 | 13.15528 | -119.29640 | 10.076 | 154.5 |
| 2026-02-05T09:30 | 13.12973 | -119.28405 | 10.124 | 154.7 |
| 2026-02-05T09:40 | 13.10378 | -119.27137 | 10.308 | 154.4 |
| 2026-02-05T09:50 | 13.07780 | -119.25891 | 10.283 | 154.8 |
| 2026-02-05T10:00 | 13.05178 | -119.24609 | 10.352 | 154.2 |
| 2026-02-05T10:10 | 13.02600 | -119.23361 | 10.221 | 154.6 |
| 2026-02-05T10:20 | 13.00033 | -119.22113 | 10.190 | 154.5 |
| 2026-02-05T10:30 | 12.97465 | -119.20869 | 10.182 | 154.6 |
| 2026-02-05T10:40 | 12.94845 | -119.19605 | 10.383 | 154.7 |
| 2026-02-05T10:50 | 12.92239 | -119.18341 | 10.337 | 154.6 |
| 2026-02-05T11:00 | 12.89664 | -119.17095 | 10.212 | 154.6 |
| 2026-02-05T11:10 | 12.87105 | -119.15853 | 10.155 | 154.6 |
| 2026-02-05T11:20 | 12.84573 | -119.14627 | 10.041 | 154.6 |
| 2026-02-05T11:30 | 12.81987 | -119.13368 | 10.264 | 154.5 |
| 2026-02-05T11:40 | 12.79368 | -119.12110 | 10.372 | 154.8 |
| 2026-02-05T11:50 | 12.76796 | -119.10855 | 10.216 | 154.4 |
| 2026-02-05T12:00 | 12.74196 | -119.09603 | 10.303 | 154.7 |
| 2026-02-05T12:10 | 12.71628 | -119.08341 | 10.212 | 154.2 |
| 2026-02-05T12:20 | 12.69029 | -119.07101 | 10.280 | 154.9 |
| 2026-02-05T12:30 | 12.66440 | -119.05840 | 10.280 | 154.4 |
| 2026-02-05T12:40 | 12.63825 | -119.04572 | 10.375 | 154.5 |
| 2026-02-05T12:50 | 12.61201 | -119.03301 | 10.409 | 154.6 |
| 2026-02-05T13:00 | 12.58585 | -119.02039 | 10.369 | 154.7 |
| 2026-02-05T13:10 | 12.56023 | -119.00807 | 10.152 | 154.7 |
| 2026-02-05T13:20 | 12.53522 | -118.99597 | 9.916 | 154.6 |
| 2026-02-05T13:30 | 12.50957 | -118.98349 | 10.187 | 154.4 |
| 2026-02-05T13:40 | 12.48366 | -118.97092 | 10.280 | 154.5 |
| 2026-02-05T13:50 | 12.45801 | -118.95852 | 10.173 | 154.6 |
| 2026-02-05T14:00 | 12.43243 | -118.94618 | 10.140 | 154.6 |
| 2026-02-05T14:10 | 12.40722 | -118.93404 | 9.990 | 154.7 |
| 2026-02-05T14:20 | 12.38164 | -118.92163 | 10.152 | 154.5 |
| 2026-02-05T14:30 | 12.35593 | -118.90919 | 10.196 | 154.6 |
| 2026-02-05T14:40 | 12.33033 | -118.89679 | 10.159 | 154.6 |
| 2026-02-05T14:50 | 12.30458 | -118.88429 | 10.220 | 154.5 |
| 2026-02-05T15:00 | 12.27866 | -118.87183 | 10.271 | 154.7 |
| 2026-02-05T15:10 | 12.25307 | -118.85942 | 10.155 | 154.5 |
| 2026-02-05T15:20 | 12.22756 | -118.84710 | 10.117 | 154.6 |
| 2026-02-05T15:30 | 12.20184 | -118.83469 | 10.196 | 154.6 |
| 2026-02-05T15:40 | 12.17563 | -118.82581 | 9.898 | 161.6 |
| 2026-02-05T15:50 | 12.17002 | -118.81919 | 3.078 | 130.7 |
| 2026-02-05T16:00 | 12.16995 | -118.81917 | 0.026 | 161.8 |
| 2026-02-05T16:10 | 12.16995 | -118.81918 | 0.002 | 270.0 |
| 2026-02-05T16:20 | 12.16998 | -118.81915 | 0.014 | 49.5 |
| 2026-02-05T16:30 | 12.16995 | -118.81917 | 0.012 | 225.7 |
| 2026-02-05T16:40 | 12.17001 | -118.81915 | 0.020 | 16.0 |
| 2026-02-05T16:50 | 12.17002 | -118.81920 | 0.017 | 284.9 |
| 2026-02-05T17:00 | 12.16994 | -118.81918 | 0.029 | 163.6 |
| 2026-02-05T17:10 | 12.16994 | -118.81917 | 0.002 | 63.1 |
| 2026-02-05T17:20 | 12.17000 | -118.81919 | 0.022 | 349.1 |
| 2026-02-05T17:30 | 12.17004 | -118.81918 | 0.014 | 8.4 |
| 2026-02-05T17:40 | 12.17009 | -118.81918 | 0.018 | 357.8 |
| 2026-02-05T17:50 | 12.17011 | -118.81923 | 0.019 | 294.0 |
| 2026-02-05T18:00 | 12.17002 | -118.81920 | 0.035 | 161.3 |
| 2026-02-05T18:10 | 12.17011 | -118.81922 | 0.032 | 348.6 |
| 2026-02-05T18:20 | 12.17004 | -118.81919 | 0.028 | 160.7 |
| 2026-02-05T18:30 | 12.17012 | -118.81922 | 0.031 | 337.7 |
| 2026-02-05T18:40 | 12.17004 | -118.81921 | 0.030 | 168.3 |
| 2026-02-05T18:50 | 12.17005 | -118.81923 | 0.012 | 303.2 |
| 2026-02-05T19:00 | 12.17005 | -118.81921 | 0.007 | 105.0 |
| 2026-02-05T19:10 | 12.17011 | -118.81919 | 0.025 | 18.7 |
| 2026-02-05T19:20 | 12.17008 | -118.81921 | 0.014 | 200.4 |
| 2026-02-05T19:30 | 12.17007 | -118.81919 | 0.008 | 112.1 |
| 2026-02-05T19:40 | 12.17010 | -118.81920 | 0.011 | 329.8 |
| 2026-02-05T19:50 | 12.17012 | -118.81924 | 0.015 | 298.1 |
| 2026-02-05T20:00 | 12.17010 | -118.81922 | 0.008 | 126.3 |
| 2026-02-05T20:10 | 12.17004 | -118.81919 | 0.024 | 153.4 |
| 2026-02-05T20:20 | 12.17012 | -118.81922 | 0.030 | 341.0 |
| 2026-02-05T20:30 | 12.17008 | -118.81922 | 0.014 | 187.0 |
| 2026-02-05T20:40 | 12.17004 | -118.81921 | 0.015 | 163.6 |
| 2026-02-05T20:50 | 12.17004 | -118.81920 | 0.005 | 101.5 |
| 2026-02-05T21:00 | 12.17009 | -118.81923 | 0.021 | 321.6 |
| 2026-02-05T21:10 | 12.17010 | -118.81921 | 0.010 | 61.3 |
| 2026-02-05T21:20 | 12.17003 | -118.81924 | 0.026 | 203.1 |
| 2026-02-05T21:30 | 12.17007 | -118.81921 | 0.017 | 28.9 |
| 2026-02-05T21:40 | 12.17009 | -118.81921 | 0.005 | 22.3 |
| 2026-02-05T21:50 | 12.17003 | -118.81922 | 0.021 | 194.3 |
| 2026-02-05T22:00 | 12.17010 | -118.81921 | 0.028 | 12.4 |
| 2026-02-05T22:10 | 12.17007 | -118.81918 | 0.016 | 138.2 |
| 2026-02-05T22:20 | 12.17005 | -118.81922 | 0.018 | 244.1 |
| 2026-02-05T22:30 | 12.17006 | -118.81918 | 0.015 | 71.3 |
| 2026-02-05T22:40 | 12.17008 | -118.81920 | 0.008 | 322.6 |
| 2026-02-05T22:50 | 12.16974 | -118.81892 | 0.156 | 141.4 |
| 2026-02-05T23:00 | 12.15832 | -118.80365 | 6.760 | 127.2 |
| 2026-02-05T23:10 | 12.14240 | -118.78180 | 9.581 | 126.5 |
| 2026-02-05T23:20 | 12.12595 | -118.75936 | 9.862 | 126.7 |
| 2026-02-05T23:30 | 12.10905 | -118.73636 | 10.120 | 126.7 |
| 2026-02-05T23:40 | 12.09218 | -118.71337 | 10.107 | 126.7 |
| 2026-02-05T23:50 | 12.07506 | -118.69013 | 10.233 | 126.8 |
| 2026-02-06T00:00 | 12.05766 | -118.66632 | 10.456 | 126.6 |
| 2026-02-06T00:10 | 12.04012 | -118.64233 | 10.536 | 126.6 |
| 2026-02-06T00:20 | 12.02269 | -118.61867 | 10.419 | 126.8 |
| 2026-02-06T00:30 | 12.00522 | -118.59486 | 10.470 | 126.7 |
| 2026-02-06T00:40 | 11.98770 | -118.57106 | 10.481 | 126.8 |
| 2026-02-06T00:50 | 11.97030 | -118.54729 | 10.446 | 126.6 |
| 2026-02-06T01:00 | 11.95251 | -118.52302 | 10.670 | 126.7 |
| 2026-02-06T01:10 | 11.93517 | -118.49938 | 10.400 | 126.7 |
| 2026-02-06T01:20 | 11.91769 | -118.47566 | 10.450 | 126.8 |
| 2026-02-06T01:30 | 11.90027 | -118.45198 | 10.426 | 126.8 |
| 2026-02-06T01:40 | 11.88291 | -118.42822 | 10.434 | 126.6 |
| 2026-02-06T01:50 | 11.86955 | -118.40371 | 9.885 | 119.0 |
| 2026-02-06T02:00 | 11.85279 | -118.38065 | 10.111 | 126.4 |
| 2026-02-06T02:10 | 11.83470 | -118.35721 | 10.506 | 128.1 |
| 2026-02-06T02:20 | 11.81687 | -118.33405 | 10.372 | 128.0 |
| 2026-02-06T02:30 | 11.79921 | -118.31106 | 10.288 | 128.0 |
| 2026-02-06T02:40 | 11.78130 | -118.28789 | 10.392 | 128.1 |
| 2026-02-06T02:50 | 11.76320 | -118.26444 | 10.513 | 128.1 |
| 2026-02-06T03:00 | 11.74545 | -118.24124 | 10.368 | 127.8 |
| 2026-02-06T03:10 | 11.72828 | -118.21787 | 10.287 | 126.7 |
| 2026-02-06T03:20 | 11.71118 | -118.19452 | 10.268 | 126.6 |
| 2026-02-06T03:30 | 11.69420 | -118.17135 | 10.194 | 126.6 |
| 2026-02-06T03:40 | 11.67749 | -118.14869 | 9.992 | 126.8 |
| 2026-02-06T03:50 | 11.66107 | -118.12628 | 9.857 | 126.6 |
| 2026-02-06T04:00 | 11.64276 | -118.10626 | 9.642 | 132.8 |
| 2026-02-06T04:10 | 11.63201 | -118.09024 | 6.844 | 124.2 |
| 2026-02-06T04:20 | 11.63285 | -118.08756 | 0.992 | 72.4 |
| 2026-02-06T04:30 | 11.63282 | -118.08755 | 0.011 | 153.8 |
| 2026-02-06T04:40 | 11.63278 | -118.08758 | 0.020 | 214.4 |
| 2026-02-06T04:50 | 11.63286 | -118.08755 | 0.031 | 19.0 |
| 2026-02-06T05:00 | 11.63287 | -118.08756 | 0.004 | 331.3 |
| 2026-02-06T05:10 | 11.63283 | -118.08759 | 0.017 | 222.9 |
| 2026-02-06T05:20 | 11.63284 | -118.08759 | 0.004 | 340.3 |
| 2026-02-06T05:30 | 11.63288 | -118.08755 | 0.019 | 46.8 |
| 2026-02-06T05:40 | 11.63277 | -118.08761 | 0.042 | 206.0 |
| 2026-02-06T05:50 | 11.63282 | -118.08762 | 0.015 | 347.8 |
| 2026-02-06T06:00 | 11.63280 | -118.08758 | 0.015 | 116.3 |
| 2026-02-06T06:10 | 11.63283 | -118.08757 | 0.014 | 13.1 |
| 2026-02-06T06:20 | 11.63283 | -118.08761 | 0.016 | 264.7 |
| 2026-02-06T06:30 | 11.63285 | -118.08757 | 0.018 | 61.0 |
| 2026-02-06T06:40 | 11.63280 | -118.08760 | 0.023 | 212.6 |
| 2026-02-06T06:50 | 11.63278 | -118.08760 | 0.008 | 180.0 |
| 2026-02-06T07:00 | 11.63285 | -118.08761 | 0.026 | 352.9 |
| 2026-02-06T07:10 | 11.63289 | -118.08759 | 0.016 | 22.7 |
| 2026-02-06T07:20 | 11.63281 | -118.08763 | 0.030 | 201.2 |
| 2026-02-06T07:30 | 11.63283 | -118.08757 | 0.021 | 70.4 |
| 2026-02-06T07:40 | 11.63286 | -118.08762 | 0.022 | 299.8 |
| 2026-02-06T07:50 | 11.63283 | -118.08761 | 0.012 | 148.5 |
| 2026-02-06T08:00 | 11.63288 | -118.08759 | 0.020 | 20.8 |
| 2026-02-06T08:10 | 11.63281 | -118.08761 | 0.029 | 194.2 |
| 2026-02-06T08:20 | 11.63283 | -118.08759 | 0.010 | 31.0 |
| 2026-02-06T08:30 | 11.63288 | -118.08756 | 0.021 | 31.1 |
| 2026-02-06T08:40 | 11.63289 | -118.08761 | 0.017 | 282.4 |
| 2026-02-06T08:50 | 11.63286 | -118.08756 | 0.019 | 125.0 |
| 2026-02-06T09:00 | 11.63290 | -118.08756 | 0.017 | 8.5 |
| 2026-02-06T09:10 | 11.63287 | -118.08762 | 0.025 | 239.4 |
| 2026-02-06T09:20 | 11.63290 | -118.08761 | 0.011 | 3.6 |
| 2026-02-06T09:30 | 11.63291 | -118.08761 | 0.004 | 30.6 |
| 2026-02-06T09:40 | 11.63285 | -118.08762 | 0.020 | 189.0 |
| 2026-02-06T09:50 | 11.63289 | -118.08758 | 0.018 | 39.1 |
| 2026-02-06T10:00 | 11.63293 | -118.08759 | 0.013 | 356.8 |
| 2026-02-06T10:10 | 11.63288 | -118.08756 | 0.019 | 151.8 |
| 2026-02-06T10:20 | 11.63311 | -118.08768 | 0.090 | 331.6 |
| 2026-02-06T10:30 | 11.63309 | -118.08764 | 0.017 | 110.5 |
| 2026-02-06T10:40 | 11.63311 | -118.08768 | 0.017 | 296.9 |
| 2026-02-06T10:50 | 11.63302 | -118.08767 | 0.033 | 172.5 |
| 2026-02-06T11:00 | 11.63307 | -118.08764 | 0.020 | 30.8 |
| 2026-02-06T11:10 | 11.63310 | -118.08766 | 0.013 | 319.8 |
| 2026-02-06T11:20 | 11.63307 | -118.08762 | 0.018 | 121.5 |
| 2026-02-06T11:30 | 11.63307 | -118.08769 | 0.026 | 271.6 |
| 2026-02-06T11:40 | 11.63290 | -118.08770 | 0.060 | 182.7 |
| 2026-02-06T11:50 | 11.63287 | -118.08771 | 0.014 | 193.1 |
| 2026-02-06T12:00 | 11.63292 | -118.08774 | 0.023 | 328.6 |
| 2026-02-06T12:10 | 11.63286 | -118.08772 | 0.025 | 157.4 |
| 2026-02-06T12:20 | 11.63291 | -118.08776 | 0.023 | 323.5 |
| 2026-02-06T12:30 | 11.63290 | -118.08769 | 0.024 | 94.3 |
| 2026-02-06T12:40 | 11.63291 | -118.08776 | 0.024 | 275.0 |
| 2026-02-06T12:50 | 11.63286 | -118.08769 | 0.031 | 127.4 |
| 2026-02-06T13:00 | 11.63291 | -118.08776 | 0.032 | 309.2 |
| 2026-02-06T13:10 | 11.63285 | -118.08770 | 0.031 | 133.1 |
| 2026-02-06T13:20 | 11.63288 | -118.08770 | 0.009 | 338.0 |
| 2026-02-06T13:30 | 11.63287 | -118.08773 | 0.010 | 262.0 |
| 2026-02-06T13:40 | 11.63292 | -118.08773 | 0.018 | 5.6 |
| 2026-02-06T13:50 | 11.63291 | -118.08775 | 0.009 | 242.1 |
| 2026-02-06T14:00 | 11.63287 | -118.08769 | 0.027 | 125.9 |
| 2026-02-06T14:10 | 11.63286 | -118.08770 | 0.005 | 256.8 |
| 2026-02-06T14:20 | 11.63289 | -118.08769 | 0.012 | 12.2 |
| 2026-02-06T14:30 | 11.63291 | -118.08769 | 0.005 | 7.5 |
| 2026-02-06T14:40 | 11.63284 | -118.08769 | 0.024 | 180.9 |
| 2026-02-06T14:50 | 11.63285 | -118.08769 | 0.002 | 348.9 |
| 2026-02-06T15:00 | 11.63291 | -118.08758 | 0.047 | 59.8 |
| 2026-02-06T15:10 | 11.63294 | -118.08757 | 0.011 | 10.8 |
| 2026-02-06T15:20 | 11.63292 | -118.08754 | 0.015 | 133.4 |
| 2026-02-06T15:30 | 11.63292 | -118.08751 | 0.012 | 88.2 |
| 2026-02-06T15:40 | 11.63290 | -118.08753 | 0.010 | 221.6 |
| 2026-02-06T15:50 | 11.63289 | -118.08752 | 0.005 | 124.1 |
| 2026-02-06T16:00 | 11.63289 | -118.08753 | 0.005 | 274.5 |
| 2026-02-06T16:10 | 11.63287 | -118.08750 | 0.012 | 128.0 |
| 2026-02-06T16:20 | 11.63288 | -118.08748 | 0.008 | 72.1 |
| 2026-02-06T16:30 | 11.63296 | -118.08748 | 0.030 | 3.4 |
| 2026-02-06T16:40 | 11.63298 | -118.08751 | 0.015 | 302.5 |
| 2026-02-06T16:50 | 11.63297 | -118.08750 | 0.007 | 137.4 |
| 2026-02-06T17:00 | 11.63298 | -118.08750 | 0.005 | 355.7 |
| 2026-02-06T17:10 | 11.63291 | -118.08749 | 0.027 | 175.6 |
| 2026-02-06T17:20 | 11.63294 | -118.08748 | 0.012 | 15.1 |
| 2026-02-06T17:30 | 11.63293 | -118.08749 | 0.004 | 210.6 |
| 2026-02-06T17:40 | 11.63298 | -118.08751 | 0.019 | 340.1 |
| 2026-02-06T17:50 | 11.63291 | -118.08747 | 0.028 | 150.5 |
| 2026-02-06T18:00 | 11.63296 | -118.08750 | 0.021 | 327.2 |
| 2026-02-06T18:10 | 11.63290 | -118.08749 | 0.021 | 170.5 |
| 2026-02-06T18:20 | 11.63302 | -118.08752 | 0.044 | 347.5 |
| 2026-02-06T18:30 | 11.63284 | -118.08778 | 0.114 | 235.8 |
| 2026-02-06T18:40 | 11.63278 | -118.08776 | 0.023 | 155.3 |
| 2026-02-06T18:50 | 11.63285 | -118.08776 | 0.024 | 0.0 |
| 2026-02-06T19:00 | 11.63289 | -118.08778 | 0.015 | 333.8 |
| 2026-02-06T19:10 | 11.63285 | -118.08777 | 0.014 | 170.0 |
| 2026-02-06T19:20 | 11.63286 | -118.08765 | 0.044 | 83.9 |
| 2026-02-06T19:30 | 11.63283 | -118.08766 | 0.012 | 210.0 |
| 2026-02-06T19:40 | 11.63291 | -118.08768 | 0.029 | 350.8 |
| 2026-02-06T19:50 | 11.63290 | -118.08768 | 0.003 | 173.0 |
| 2026-02-06T20:00 | 11.63288 | -118.08765 | 0.012 | 128.3 |
| 2026-02-06T20:10 | 11.63290 | -118.08771 | 0.022 | 282.9 |
| 2026-02-06T20:20 | 11.63289 | -118.08770 | 0.006 | 120.1 |
| 2026-02-06T20:30 | 11.63284 | -118.08767 | 0.019 | 150.5 |
| 2026-02-06T20:40 | 11.63290 | -118.08767 | 0.020 | 1.0 |
| 2026-02-06T20:50 | 11.63286 | -118.08767 | 0.015 | 180.0 |
| 2026-02-06T21:00 | 11.63289 | -118.08771 | 0.020 | 308.9 |
| 2026-02-06T21:10 | 11.63291 | -118.08771 | 0.007 | 18.2 |
| 2026-02-06T21:20 | 11.63289 | -118.08765 | 0.020 | 110.3 |
| 2026-02-06T21:30 | 11.63291 | -118.08768 | 0.012 | 308.3 |
| 2026-02-06T21:40 | 11.63301 | -118.08770 | 0.036 | 348.7 |
| 2026-02-06T21:50 | 11.63300 | -118.08770 | 0.005 | 172.5 |
| 2026-02-06T22:00 | 11.63298 | -118.08765 | 0.019 | 111.7 |
| 2026-02-06T22:10 | 11.63294 | -118.08769 | 0.019 | 229.8 |
| 2026-02-06T22:20 | 11.63294 | -118.08768 | 0.003 | 122.4 |
| 2026-02-06T22:30 | 11.63297 | -118.08771 | 0.014 | 320.6 |
| 2026-02-06T22:40 | 11.63293 | -118.08768 | 0.015 | 144.4 |
| 2026-02-06T22:50 | 11.63298 | -118.08767 | 0.018 | 17.8 |
| 2026-02-06T23:00 | 11.63295 | -118.08768 | 0.013 | 190.8 |
| 2026-02-06T23:10 | 11.63299 | -118.08771 | 0.021 | 321.7 |
| 2026-02-06T23:20 | 11.63297 | -118.08765 | 0.025 | 113.2 |
| 2026-02-06T23:30 | 11.63294 | -118.08769 | 0.017 | 245.2 |
| 2026-02-06T23:40 | 11.63299 | -118.08769 | 0.018 | 3.5 |
| 2026-02-06T23:50 | 11.63294 | -118.08769 | 0.018 | 186.9 |
| 2026-02-07T00:00 | 11.63298 | -118.08770 | 0.011 | 356.4 |
| 2026-02-07T00:10 | 11.63294 | -118.08767 | 0.017 | 140.4 |
| 2026-02-07T00:20 | 11.63297 | -118.08765 | 0.011 | 25.4 |
| 2026-02-07T00:30 | 11.63295 | -118.08767 | 0.009 | 228.0 |
| 2026-02-07T00:40 | 11.63297 | -118.08765 | 0.010 | 38.6 |
| 2026-02-07T00:50 | 11.63299 | -118.08769 | 0.016 | 298.6 |
| 2026-02-07T01:00 | 11.63298 | -118.08770 | 0.004 | 208.3 |
| 2026-02-07T01:10 | 11.63301 | -118.08769 | 0.010 | 11.9 |
| 2026-02-07T01:20 | 11.63294 | -118.08765 | 0.030 | 149.5 |
| 2026-02-07T01:30 | 11.63299 | -118.08767 | 0.020 | 336.0 |
| 2026-02-07T01:40 | 11.63296 | -118.08768 | 0.009 | 197.5 |
| 2026-02-07T01:50 | 11.63293 | -118.08767 | 0.011 | 161.2 |
| 2026-02-07T02:00 | 11.63293 | -118.08768 | 0.002 | 281.5 |
| 2026-02-07T02:10 | 11.63298 | -118.08767 | 0.015 | 5.2 |
| 2026-02-07T02:20 | 11.63296 | -118.08766 | 0.009 | 154.8 |
| 2026-02-07T02:30 | 11.63294 | -118.08768 | 0.008 | 241.9 |
| 2026-02-07T02:40 | 11.63300 | -118.08771 | 0.021 | 332.5 |
| 2026-02-07T02:50 | 11.63297 | -118.08768 | 0.014 | 132.4 |
| 2026-02-07T03:00 | 11.63297 | -118.08768 | 0.002 | 315.4 |
| 2026-02-07T03:10 | 11.63294 | -118.08768 | 0.011 | 183.5 |
| 2026-02-07T03:20 | 11.63293 | -118.08767 | 0.004 | 135.4 |
| 2026-02-07T03:30 | 11.63295 | -118.08768 | 0.006 | 317.9 |
| 2026-02-07T03:40 | 11.63296 | -118.08768 | 0.006 | 0.0 |
| 2026-02-07T03:50 | 11.63284 | -118.08768 | 0.043 | 179.5 |
| 2026-02-07T04:00 | 11.63284 | -118.08765 | 0.012 | 90.0 |
| 2026-02-07T04:10 | 11.63282 | -118.08765 | 0.008 | 189.7 |
| 2026-02-07T04:20 | 11.63282 | -118.08764 | 0.004 | 90.0 |
| 2026-02-07T04:30 | 11.63280 | -118.08767 | 0.011 | 232.7 |
| 2026-02-07T04:40 | 11.63279 | -118.08768 | 0.006 | 232.0 |
| 2026-02-07T04:50 | 11.63283 | -118.08769 | 0.015 | 341.4 |
| 2026-02-07T05:00 | 11.63286 | -118.08768 | 0.010 | 26.2 |
| 2026-02-07T05:10 | 11.63281 | -118.08769 | 0.019 | 185.4 |
| 2026-02-07T05:20 | 11.63286 | -118.08769 | 0.020 | 352.9 |
| 2026-02-07T05:30 | 11.63278 | -118.08766 | 0.032 | 159.2 |
| 2026-02-07T05:40 | 11.63278 | -118.08764 | 0.008 | 79.5 |
| 2026-02-07T05:50 | 11.63285 | -118.08770 | 0.032 | 319.0 |
| 2026-02-07T06:00 | 11.63284 | -118.08767 | 0.013 | 112.7 |
| 2026-02-07T06:10 | 11.63282 | -118.08768 | 0.008 | 209.7 |
| 2026-02-07T06:20 | 11.63285 | -118.08769 | 0.013 | 329.7 |
| 2026-02-07T06:30 | 11.63283 | -118.08767 | 0.011 | 132.8 |
| 2026-02-07T06:40 | 11.63286 | -118.08769 | 0.014 | 337.7 |
| 2026-02-07T06:50 | 11.63285 | -118.08767 | 0.006 | 130.6 |
| 2026-02-07T07:00 | 11.63284 | -118.08768 | 0.007 | 211.6 |
| 2026-02-07T07:10 | 11.63284 | -118.08770 | 0.006 | 273.6 |
| 2026-02-07T07:20 | 11.63272 | -118.08767 | 0.043 | 164.7 |
| 2026-02-07T07:30 | 11.63272 | -118.08768 | 0.004 | 253.1 |
| 2026-02-07T07:40 | 11.63274 | -118.08765 | 0.011 | 55.4 |
| 2026-02-07T07:50 | 11.63156 | -118.08685 | 0.507 | 146.2 |
| 2026-02-07T08:00 | 11.63075 | -118.08497 | 0.725 | 113.6 |
| 2026-02-07T08:10 | 11.63105 | -118.08346 | 0.545 | 78.7 |
| 2026-02-07T08:20 | 11.63209 | -118.08194 | 0.654 | 55.3 |
| 2026-02-07T08:30 | 11.62435 | -118.06212 | 7.526 | 111.6 |
| 2026-02-07T08:40 | 11.61829 | -118.04542 | 6.283 | 110.2 |
| 2026-02-07T08:50 | 11.61688 | -118.04244 | 1.168 | 115.7 |
| 2026-02-07T09:00 | 11.61683 | -118.04221 | 0.081 | 101.5 |
| 2026-02-07T09:10 | 11.61683 | -118.04220 | 0.004 | 94.8 |
| 2026-02-07T09:20 | 11.61687 | -118.04221 | 0.015 | 356.0 |
| 2026-02-07T09:30 | 11.61686 | -118.04223 | 0.010 | 244.9 |
| 2026-02-07T09:40 | 11.61684 | -118.04221 | 0.011 | 143.5 |
| 2026-02-07T09:50 | 11.61683 | -118.04223 | 0.005 | 256.8 |
| 2026-02-07T10:00 | 11.61684 | -118.04223 | 0.004 | 319.2 |
| 2026-02-07T10:10 | 11.61687 | -118.04223 | 0.011 | 16.5 |
| 2026-02-07T10:20 | 11.61685 | -118.04222 | 0.009 | 159.7 |
| 2026-02-07T10:30 | 11.61687 | -118.04221 | 0.008 | 7.7 |
| 2026-02-07T10:40 | 11.61686 | -118.04219 | 0.010 | 120.6 |
| 2026-02-07T10:50 | 11.61688 | -118.04222 | 0.014 | 298.8 |
| 2026-02-07T11:00 | 11.61683 | -118.04223 | 0.016 | 182.4 |
| 2026-02-07T11:10 | 11.61685 | -118.04224 | 0.008 | 333.8 |
| 2026-02-07T11:20 | 11.61688 | -118.04222 | 0.014 | 27.6 |
| 2026-02-07T11:30 | 11.61683 | -118.04221 | 0.021 | 175.1 |
| 2026-02-07T11:40 | 11.61687 | -118.04223 | 0.017 | 344.1 |
| 2026-02-07T11:50 | 11.61685 | -118.04220 | 0.011 | 122.6 |
| 2026-02-07T12:00 | 11.61688 | -118.04222 | 0.013 | 322.9 |
| 2026-02-07T12:10 | 11.61688 | -118.04224 | 0.008 | 272.6 |
| 2026-02-07T12:20 | 11.61691 | -118.04224 | 0.008 | 12.1 |
| 2026-02-07T12:30 | 11.61683 | -118.04224 | 0.028 | 179.3 |
| 2026-02-07T12:40 | 11.61684 | -118.04219 | 0.019 | 79.0 |
| 2026-02-07T12:50 | 11.61688 | -118.04220 | 0.016 | 339.0 |
| 2026-02-07T13:00 | 11.61687 | -118.04222 | 0.008 | 231.7 |
| 2026-02-07T13:10 | 11.61689 | -118.04227 | 0.018 | 298.4 |
| 2026-02-07T13:20 | 11.61683 | -118.04220 | 0.030 | 133.5 |
| 2026-02-07T13:30 | 11.61683 | -118.04222 | 0.006 | 249.2 |
| 2026-02-07T13:40 | 11.61689 | -118.04224 | 0.025 | 339.2 |
| 2026-02-07T13:50 | 11.61684 | -118.04222 | 0.019 | 150.5 |
| 2026-02-07T14:00 | 11.61691 | -118.04224 | 0.026 | 341.3 |
| 2026-02-07T14:10 | 11.61683 | -118.04220 | 0.035 | 154.3 |
| 2026-02-07T14:20 | 11.61684 | -118.04219 | 0.008 | 26.2 |
| 2026-02-07T14:30 | 11.61690 | -118.04220 | 0.020 | 342.1 |
| 2026-02-07T14:40 | 11.61686 | -118.04222 | 0.014 | 200.0 |
| 2026-02-07T14:50 | 11.61690 | -118.04219 | 0.019 | 29.7 |
| 2026-02-07T15:00 | 11.61689 | -118.04223 | 0.013 | 248.2 |
| 2026-02-07T15:10 | 11.61686 | -118.04222 | 0.011 | 174.6 |
| 2026-02-07T15:20 | 11.61683 | -118.04218 | 0.019 | 129.4 |
| 2026-02-07T15:30 | 11.61690 | -118.04226 | 0.038 | 311.6 |
| 2026-02-07T15:40 | 11.61686 | -118.04224 | 0.015 | 151.3 |
| 2026-02-07T15:50 | 11.61687 | -118.04221 | 0.011 | 80.7 |
| 2026-02-07T16:00 | 11.61683 | -118.04219 | 0.015 | 147.1 |
| 2026-02-07T16:10 | 11.61682 | -118.04221 | 0.008 | 252.1 |
| 2026-02-07T16:20 | 11.61692 | -118.04213 | 0.045 | 40.7 |
| 2026-02-07T16:30 | 11.60712 | -118.04595 | 3.760 | 201.0 |
| 2026-02-07T16:40 | 11.58798 | -118.05409 | 7.435 | 202.8 |
| 2026-02-07T16:50 | 11.58904 | -118.05511 | 0.525 | 316.7 |
| 2026-02-07T17:00 | 11.58888 | -118.05492 | 0.088 | 132.0 |
| 2026-02-07T17:10 | 11.58834 | -118.05434 | 0.283 | 133.3 |
| 2026-02-07T17:20 | 11.58833 | -118.05430 | 0.012 | 95.0 |
| 2026-02-07T17:30 | 11.58825 | -118.05425 | 0.037 | 148.8 |
| 2026-02-07T17:40 | 11.58831 | -118.05426 | 0.024 | 348.8 |
| 2026-02-07T17:50 | 11.58820 | -118.05427 | 0.041 | 184.9 |
| 2026-02-07T18:00 | 11.58825 | -118.05428 | 0.020 | 348.6 |
| 2026-02-07T18:10 | 11.58824 | -118.05425 | 0.012 | 107.1 |
| 2026-02-07T18:20 | 11.58830 | -118.05427 | 0.021 | 344.3 |
| 2026-02-07T18:30 | 11.58829 | -118.05428 | 0.003 | 251.3 |
| 2026-02-07T18:40 | 11.58822 | -118.05430 | 0.029 | 196.4 |
| 2026-02-07T18:50 | 11.58822 | -118.05428 | 0.008 | 82.5 |
| 2026-02-07T19:00 | 11.58822 | -118.05428 | 0.002 | 296.9 |
| 2026-02-07T19:10 | 11.58826 | -118.05425 | 0.018 | 41.4 |
| 2026-02-07T19:20 | 11.58827 | -118.05432 | 0.027 | 280.0 |
| 2026-02-07T19:30 | 11.58824 | -118.05433 | 0.013 | 184.6 |
| 2026-02-07T19:40 | 11.58845 | -118.05365 | 0.251 | 72.4 |
| 2026-02-07T19:50 | 11.59903 | -118.03397 | 7.916 | 61.4 |
| 2026-02-07T20:00 | 11.60169 | -118.03070 | 1.499 | 50.5 |
| 2026-02-07T20:10 | 11.60166 | -118.03065 | 0.018 | 124.7 |
| 2026-02-07T20:20 | 11.60177 | -118.03041 | 0.095 | 64.7 |
| 2026-02-07T20:30 | 11.60180 | -118.03041 | 0.009 | 13.8 |
| 2026-02-07T20:40 | 11.60171 | -118.03029 | 0.053 | 127.6 |
| 2026-02-07T20:50 | 11.60178 | -118.03037 | 0.039 | 308.7 |
| 2026-02-07T21:00 | 11.60173 | -118.03031 | 0.029 | 127.5 |
| 2026-02-07T21:10 | 11.60177 | -118.03035 | 0.023 | 314.8 |
| 2026-02-07T21:20 | 11.60178 | -118.03037 | 0.004 | 298.9 |
| 2026-02-07T21:30 | 11.60178 | -118.03036 | 0.001 | 26.2 |
| 2026-02-07T21:40 | 11.60170 | -118.03033 | 0.033 | 157.7 |
| 2026-02-07T21:50 | 11.60174 | -118.03030 | 0.017 | 31.6 |
| 2026-02-07T22:00 | 11.60174 | -118.03033 | 0.010 | 288.7 |
| 2026-02-07T22:10 | 11.60178 | -118.03035 | 0.013 | 332.4 |
| 2026-02-07T22:20 | 11.60169 | -118.03035 | 0.030 | 182.0 |
| 2026-02-07T22:30 | 11.60173 | -118.03038 | 0.016 | 322.5 |
| 2026-02-07T22:40 | 11.60169 | -118.03032 | 0.025 | 122.0 |
| 2026-02-07T22:50 | 11.60177 | -118.03034 | 0.027 | 342.0 |
| 2026-02-07T23:00 | 11.60176 | -118.03024 | 0.035 | 94.6 |
| 2026-02-07T23:10 | 11.60172 | -118.03025 | 0.015 | 193.2 |
| 2026-02-07T23:20 | 11.60174 | -118.03025 | 0.009 | 0.0 |
| 2026-02-07T23:30 | 11.60166 | -118.03038 | 0.054 | 237.4 |
| 2026-02-07T23:40 | 11.60194 | -118.03016 | 0.128 | 37.6 |
| 2026-02-07T23:50 | 11.60203 | -118.03024 | 0.041 | 320.7 |
| 2026-02-08T00:00 | 11.60198 | -118.03026 | 0.021 | 207.1 |
| 2026-02-08T00:10 | 11.60201 | -118.03023 | 0.015 | 50.5 |
| 2026-02-08T00:20 | 11.60175 | -118.03035 | 0.101 | 205.1 |
| 2026-02-08T00:30 | 11.60171 | -118.03029 | 0.028 | 124.9 |
| 2026-02-08T00:40 | 11.60172 | -118.03032 | 0.013 | 291.8 |
| 2026-02-08T00:50 | 11.60173 | -118.03032 | 0.006 | 349.5 |
| 2026-02-08T01:00 | 11.60172 | -118.03030 | 0.010 | 126.4 |
| 2026-02-08T01:10 | 11.60171 | -118.03033 | 0.010 | 251.3 |
| 2026-02-08T01:20 | 11.60170 | -118.03030 | 0.012 | 109.8 |
| 2026-02-08T01:30 | 11.60173 | -118.03030 | 0.013 | 349.1 |
| 2026-02-08T01:40 | 11.60173 | -118.03032 | 0.005 | 261.8 |
| 2026-02-08T01:50 | 11.60173 | -118.03031 | 0.004 | 131.6 |
| 2026-02-08T02:00 | 11.60168 | -118.03034 | 0.017 | 211.0 |
| 2026-02-08T02:10 | 11.60165 | -118.03028 | 0.023 | 123.6 |
| 2026-02-08T02:20 | 11.59349 | -118.03678 | 3.715 | 218.1 |
| 2026-02-08T02:30 | 11.58769 | -118.05487 | 6.718 | 252.0 |
| 2026-02-08T02:40 | 11.58855 | -118.05488 | 0.307 | 359.1 |
| 2026-02-08T02:50 | 11.58830 | -118.05442 | 0.185 | 118.9 |
| 2026-02-08T03:00 | 11.58832 | -118.05441 | 0.009 | 22.3 |
| 2026-02-08T03:10 | 11.58825 | -118.05448 | 0.035 | 223.8 |
| 2026-02-08T03:20 | 11.58831 | -118.05442 | 0.029 | 41.2 |
| 2026-02-08T03:30 | 11.58831 | -118.05449 | 0.023 | 269.1 |
| 2026-02-08T03:40 | 11.58829 | -118.05438 | 0.040 | 101.4 |
| 2026-02-08T03:50 | 11.58830 | -118.05431 | 0.025 | 86.0 |
| 2026-02-08T04:00 | 11.58831 | -118.05428 | 0.009 | 61.0 |
| 2026-02-08T04:10 | 11.58831 | -118.05428 | 0.003 | 114.3 |
| 2026-02-08T04:20 | 11.58834 | -118.05431 | 0.019 | 316.2 |
| 2026-02-08T04:30 | 11.58832 | -118.05429 | 0.012 | 134.2 |
| 2026-02-08T04:40 | 11.58828 | -118.05430 | 0.015 | 199.5 |
| 2026-02-08T04:50 | 11.58828 | -118.05429 | 0.004 | 74.5 |
| 2026-02-08T05:00 | 11.58829 | -118.05428 | 0.005 | 50.9 |
| 2026-02-08T05:10 | 11.58829 | -118.05429 | 0.005 | 270.0 |
| 2026-02-08T05:20 | 11.58828 | -118.05427 | 0.008 | 115.8 |
| 2026-02-08T05:30 | 11.58830 | -118.05430 | 0.012 | 302.2 |
| 2026-02-08T05:40 | 11.58827 | -118.05427 | 0.015 | 129.7 |
| 2026-02-08T05:50 | 11.60151 | -118.04648 | 5.484 | 30.1 |
| 2026-02-08T06:00 | 11.60545 | -118.04302 | 1.866 | 40.8 |
| 2026-02-08T06:10 | 11.60551 | -118.04300 | 0.022 | 24.1 |
| 2026-02-08T06:20 | 11.60538 | -118.04232 | 0.242 | 101.3 |
| 2026-02-08T06:30 | 11.60524 | -118.04177 | 0.201 | 104.4 |
| 2026-02-08T06:40 | 11.60526 | -118.04178 | 0.009 | 345.6 |
| 2026-02-08T06:50 | 11.60529 | -118.04176 | 0.011 | 31.2 |
| 2026-02-08T07:00 | 11.60529 | -118.04176 | 0.003 | 8.0 |
| 2026-02-08T07:10 | 11.60527 | -118.04178 | 0.011 | 208.0 |
| 2026-02-08T07:20 | 11.60533 | -118.04179 | 0.021 | 350.4 |
| 2026-02-08T07:30 | 11.60533 | -118.04166 | 0.045 | 86.3 |
| 2026-02-08T07:40 | 11.60656 | -118.03953 | 0.871 | 59.7 |
| 2026-02-08T07:50 | 11.60786 | -118.03704 | 0.994 | 62.2 |
| 2026-02-08T08:00 | 11.60917 | -118.03455 | 0.996 | 61.8 |
| 2026-02-08T08:10 | 11.61049 | -118.03205 | 1.002 | 61.9 |
| 2026-02-08T08:20 | 11.61181 | -118.02956 | 0.998 | 61.8 |
| 2026-02-08T08:30 | 11.61312 | -118.02707 | 0.995 | 61.9 |
| 2026-02-08T08:40 | 11.61442 | -118.02456 | 1.002 | 62.2 |
| 2026-02-08T08:50 | 11.61509 | -118.02331 | 0.504 | 61.7 |
| 2026-02-08T09:00 | 11.61506 | -118.02330 | 0.011 | 164.8 |
| 2026-02-08T09:10 | 11.61505 | -118.02329 | 0.005 | 120.6 |
| 2026-02-08T09:20 | 11.61509 | -118.02334 | 0.022 | 305.1 |
| 2026-02-08T09:30 | 11.61510 | -118.02331 | 0.010 | 60.4 |
| 2026-02-08T09:40 | 11.61512 | -118.02331 | 0.008 | 23.9 |
| 2026-02-08T09:50 | 11.61509 | -118.02329 | 0.015 | 155.6 |
| 2026-02-08T10:00 | 11.61510 | -118.02329 | 0.005 | 348.9 |
| 2026-02-08T10:10 | 11.61510 | -118.02331 | 0.006 | 263.2 |
| 2026-02-08T10:20 | 11.61510 | -118.02329 | 0.006 | 76.6 |
| 2026-02-08T10:30 | 11.61511 | -118.02332 | 0.011 | 275.8 |
| 2026-02-08T10:40 | 11.61511 | -118.02332 | 0.003 | 26.2 |
| 2026-02-08T10:50 | 11.61510 | -118.02328 | 0.013 | 109.2 |
| 2026-02-08T11:00 | 11.61513 | -118.02333 | 0.019 | 302.6 |
| 2026-02-08T11:10 | 11.61507 | -118.02332 | 0.023 | 170.1 |
| 2026-02-08T11:20 | 11.61536 | -118.02331 | 0.105 | 1.0 |
| 2026-02-08T11:30 | 11.61542 | -118.02297 | 0.122 | 81.2 |
| 2026-02-08T11:40 | 11.61852 | -118.03987 | 6.068 | 280.6 |
| 2026-02-08T11:50 | 11.62394 | -118.06562 | 9.301 | 282.1 |
| 2026-02-08T12:00 | 11.62894 | -118.08552 | 7.252 | 284.3 |
| 2026-02-08T12:10 | 11.63226 | -118.08736 | 1.354 | 331.4 |
| 2026-02-08T12:20 | 11.63254 | -118.08746 | 0.106 | 341.1 |
| 2026-02-08T12:30 | 11.63279 | -118.08770 | 0.122 | 316.7 |
| 2026-02-08T12:40 | 11.63281 | -118.08774 | 0.017 | 302.4 |
| 2026-02-08T12:50 | 11.63281 | -118.08772 | 0.006 | 96.4 |
| 2026-02-08T13:00 | 11.63281 | -118.08774 | 0.010 | 267.9 |
| 2026-02-08T13:10 | 11.63277 | -118.08759 | 0.057 | 104.9 |
| 2026-02-08T13:20 | 11.63280 | -118.08763 | 0.018 | 309.9 |
| 2026-02-08T13:30 | 11.63290 | -118.08772 | 0.048 | 318.1 |
| 2026-02-08T13:40 | 11.63288 | -118.08772 | 0.007 | 165.5 |
| 2026-02-08T13:50 | 11.63292 | -118.08772 | 0.013 | 346.2 |
| 2026-02-08T14:00 | 11.63288 | -118.08774 | 0.014 | 208.8 |
| 2026-02-08T14:10 | 11.63289 | -118.08776 | 0.006 | 305.1 |
| 2026-02-08T14:20 | 11.63288 | -118.08773 | 0.009 | 114.9 |
| 2026-02-08T14:30 | 11.63291 | -118.08773 | 0.009 | 2.4 |
| 2026-02-08T14:40 | 11.63291 | -118.08774 | 0.004 | 275.8 |
| 2026-02-08T14:50 | 11.63291 | -118.08775 | 0.002 | 296.9 |
| 2026-02-08T15:00 | 11.63290 | -118.08773 | 0.005 | 127.3 |
| 2026-02-08T15:10 | 11.63287 | -118.08772 | 0.012 | 150.6 |
| 2026-02-08T15:20 | 11.63289 | -118.08771 | 0.008 | 27.3 |
| 2026-02-08T15:30 | 11.63292 | -118.08771 | 0.009 | 355.5 |
| 2026-02-08T15:40 | 11.63288 | -118.08772 | 0.015 | 192.5 |
| 2026-02-08T15:50 | 11.63290 | -118.08775 | 0.012 | 303.6 |
| 2026-02-08T16:00 | 11.63291 | -118.08775 | 0.005 | 351.4 |
| 2026-02-08T16:10 | 11.63291 | -118.08770 | 0.019 | 94.3 |
| 2026-02-08T16:20 | 11.63288 | -118.08771 | 0.009 | 210.2 |
| 2026-02-08T16:30 | 11.63292 | -118.08775 | 0.017 | 309.6 |
| 2026-02-08T16:40 | 11.63288 | -118.08774 | 0.013 | 173.6 |
| 2026-02-08T16:50 | 11.63287 | -118.08773 | 0.007 | 131.3 |
| 2026-02-08T17:00 | 11.63287 | -118.08773 | 0.002 | 329.4 |
| 2026-02-08T17:10 | 11.63287 | -118.08779 | 0.022 | 265.3 |
| 2026-02-08T17:20 | 11.63288 | -118.08773 | 0.021 | 82.2 |
| 2026-02-08T17:30 | 11.63296 | -118.08776 | 0.032 | 345.4 |
| 2026-02-08T17:40 | 11.63298 | -118.08772 | 0.013 | 68.2 |
| 2026-02-08T17:50 | 11.63296 | -118.08769 | 0.013 | 113.5 |
| 2026-02-08T18:00 | 11.63296 | -118.08769 | 0.001 | 146.7 |
| 2026-02-08T18:10 | 11.63300 | -118.08775 | 0.027 | 302.4 |
| 2026-02-08T18:20 | 11.63299 | -118.08772 | 0.010 | 96.2 |
| 2026-02-08T18:30 | 11.63299 | -118.08771 | 0.004 | 104.2 |
| 2026-02-08T18:40 | 11.63296 | -118.08772 | 0.013 | 193.1 |
| 2026-02-08T18:50 | 11.63296 | -118.08774 | 0.006 | 270.0 |
| 2026-02-08T19:00 | 11.63298 | -118.08770 | 0.016 | 53.8 |
| 2026-02-08T19:10 | 11.63296 | -118.08772 | 0.011 | 211.2 |
| 2026-02-08T19:20 | 11.63296 | -118.08770 | 0.005 | 85.9 |
| 2026-02-08T19:30 | 11.63293 | -118.08768 | 0.012 | 148.5 |
| 2026-02-08T19:40 | 11.63297 | -118.08768 | 0.013 | 0.0 |
| 2026-02-08T19:50 | 11.63292 | -118.08770 | 0.016 | 195.7 |
| 2026-02-08T20:00 | 11.63294 | -118.08769 | 0.007 | 22.5 |
| 2026-02-08T20:10 | 11.63295 | -118.08771 | 0.010 | 287.3 |
| 2026-02-08T20:20 | 11.63296 | -118.08772 | 0.004 | 318.8 |
| 2026-02-08T20:30 | 11.63290 | -118.08769 | 0.023 | 153.4 |
| 2026-02-08T20:40 | 11.63295 | -118.08774 | 0.022 | 315.4 |
| 2026-02-08T20:50 | 11.63292 | -118.08772 | 0.010 | 149.0 |
| 2026-02-08T21:00 | 11.63295 | -118.08773 | 0.011 | 352.5 |
| 2026-02-08T21:10 | 11.63290 | -118.08770 | 0.020 | 149.2 |
| 2026-02-08T21:20 | 11.63291 | -118.08770 | 0.001 | 33.3 |
| 2026-02-08T21:30 | 11.63290 | -118.08768 | 0.005 | 115.1 |
| 2026-02-08T21:40 | 11.63295 | -118.08771 | 0.021 | 329.4 |
| 2026-02-08T21:50 | 11.63295 | -118.08772 | 0.003 | 277.2 |
| 2026-02-08T22:00 | 11.63295 | -118.08772 | 0.002 | 90.0 |
| 2026-02-08T22:10 | 11.63283 | -118.08769 | 0.045 | 167.4 |
| 2026-02-08T22:20 | 11.63282 | -118.08778 | 0.034 | 263.4 |
| 2026-02-08T22:30 | 11.63282 | -118.08782 | 0.014 | 268.5 |
| 2026-02-08T22:40 | 11.63288 | -118.08784 | 0.022 | 346.8 |
| 2026-02-08T22:50 | 11.63299 | -118.08768 | 0.068 | 54.6 |
| 2026-02-08T23:00 | 11.63297 | -118.08774 | 0.021 | 252.5 |
| 2026-02-08T23:10 | 11.63294 | -118.08768 | 0.022 | 121.0 |
| 2026-02-08T23:20 | 11.63297 | -118.08775 | 0.026 | 300.4 |
| 2026-02-08T23:30 | 11.63299 | -118.08776 | 0.008 | 333.8 |
| 2026-02-08T23:40 | 11.63297 | -118.08773 | 0.013 | 122.7 |
| 2026-02-08T23:50 | 11.63299 | -118.08773 | 0.006 | 350.1 |
| 2026-02-09T00:00 | 11.63297 | -118.08775 | 0.011 | 211.2 |
| 2026-02-09T00:10 | 11.63295 | -118.08775 | 0.005 | 199.4 |
| 2026-02-09T00:20 | 11.63298 | -118.08772 | 0.015 | 53.0 |
| 2026-02-09T00:30 | 11.63296 | -118.08768 | 0.014 | 123.7 |
| 2026-02-09T00:40 | 11.63293 | -118.08765 | 0.015 | 135.4 |
| 2026-02-09T00:50 | 11.63292 | -118.08770 | 0.017 | 267.5 |
| 2026-02-09T01:00 | 11.63297 | -118.08770 | 0.016 | 0.0 |
| 2026-02-09T01:10 | 11.63299 | -118.08773 | 0.011 | 312.8 |
| 2026-02-09T01:20 | 11.63292 | -118.08765 | 0.036 | 131.9 |
| 2026-02-09T01:30 | 11.63297 | -118.08773 | 0.033 | 301.3 |
| 2026-02-09T01:40 | 11.63298 | -118.08771 | 0.008 | 74.5 |
| 2026-02-09T01:50 | 11.63296 | -118.08772 | 0.006 | 219.8 |
| 2026-02-09T02:00 | 11.63296 | -118.08768 | 0.013 | 93.1 |
| 2026-02-09T02:10 | 11.63292 | -118.08772 | 0.020 | 218.9 |
| 2026-02-09T02:20 | 11.63295 | -118.08769 | 0.014 | 41.5 |
| 2026-02-09T02:30 | 11.63294 | -118.08771 | 0.009 | 245.2 |
| 2026-02-09T02:40 | 11.63293 | -118.08768 | 0.014 | 105.3 |
| 2026-02-09T02:50 | 11.63294 | -118.08768 | 0.004 | 0.0 |
| 2026-02-09T03:00 | 11.63293 | -118.08771 | 0.012 | 254.5 |
| 2026-02-09T03:10 | 11.63288 | -118.08768 | 0.019 | 152.8 |
| 2026-02-09T03:20 | 11.63287 | -118.08766 | 0.009 | 125.9 |
| 2026-02-09T03:30 | 11.63291 | -118.08759 | 0.029 | 58.3 |
| 2026-02-09T03:40 | 11.63289 | -118.08760 | 0.006 | 206.2 |
| 2026-02-09T03:50 | 11.63287 | -118.08758 | 0.009 | 135.4 |
| 2026-02-09T04:00 | 11.63291 | -118.08761 | 0.016 | 318.1 |
| 2026-02-09T04:10 | 11.63290 | -118.08763 | 0.005 | 250.1 |
| 2026-02-09T04:20 | 11.63285 | -118.08757 | 0.028 | 130.3 |
| 2026-02-09T04:30 | 11.63291 | -118.08761 | 0.025 | 322.2 |
| 2026-02-09T04:40 | 11.63290 | -118.08758 | 0.013 | 93.2 |
| 2026-02-09T04:50 | 11.63291 | -118.08760 | 0.007 | 278.2 |
| 2026-02-09T05:00 | 11.63288 | -118.08759 | 0.011 | 178.2 |
| 2026-02-09T05:10 | 11.63286 | -118.08762 | 0.010 | 236.5 |
| 2026-02-09T05:20 | 11.63290 | -118.08762 | 0.014 | 352.6 |
| 2026-02-09T05:30 | 11.63289 | -118.08762 | 0.004 | 145.4 |
| 2026-02-09T05:40 | 11.63289 | -118.08761 | 0.002 | 135.4 |
| 2026-02-09T05:50 | 11.63286 | -118.08759 | 0.014 | 139.5 |
| 2026-02-09T06:00 | 11.63286 | -118.08758 | 0.003 | 35.1 |
| 2026-02-09T06:10 | 11.63287 | -118.08758 | 0.001 | 333.8 |
| 2026-02-09T06:20 | 11.63294 | -118.08757 | 0.029 | 10.5 |
| 2026-02-09T06:30 | 11.63290 | -118.08758 | 0.016 | 199.8 |
| 2026-02-09T06:40 | 11.63294 | -118.08759 | 0.013 | 342.8 |
| 2026-02-09T06:50 | 11.63291 | -118.08759 | 0.011 | 178.2 |
| 2026-02-09T07:00 | 11.63292 | -118.08760 | 0.003 | 319.8 |
| 2026-02-09T07:10 | 11.63293 | -118.08759 | 0.005 | 28.0 |
| 2026-02-09T07:20 | 11.63289 | -118.08758 | 0.015 | 158.0 |
| 2026-02-09T07:30 | 11.63290 | -118.08760 | 0.010 | 296.9 |
| 2026-02-09T07:40 | 11.63295 | -118.08758 | 0.018 | 29.2 |
| 2026-02-09T07:50 | 11.62438 | -118.08045 | 3.970 | 140.7 |
| 2026-02-09T08:00 | 11.60417 | -118.06015 | 10.187 | 135.3 |
| 2026-02-09T08:10 | 11.58396 | -118.04309 | 9.416 | 140.2 |
| 2026-02-09T08:20 | 11.57902 | -118.03959 | 2.161 | 145.0 |
| 2026-02-09T08:30 | 11.57898 | -118.03963 | 0.022 | 227.8 |
| 2026-02-09T08:40 | 11.57902 | -118.03962 | 0.015 | 16.1 |
| 2026-02-09T08:50 | 11.57920 | -118.03946 | 0.088 | 40.6 |
| 2026-02-09T09:00 | 11.57976 | -118.03893 | 0.272 | 43.1 |
| 2026-02-09T09:10 | 11.58039 | -118.03837 | 0.300 | 41.3 |
| 2026-02-09T09:20 | 11.58103 | -118.03781 | 0.304 | 41.1 |
| 2026-02-09T09:30 | 11.58124 | -118.03761 | 0.105 | 42.4 |
| 2026-02-09T09:40 | 11.58122 | -118.03760 | 0.009 | 161.1 |
| 2026-02-09T09:50 | 11.58156 | -118.03685 | 0.292 | 65.0 |
| 2026-02-09T10:00 | 11.58245 | -118.03548 | 0.578 | 56.6 |
| 2026-02-09T10:10 | 11.58393 | -118.03309 | 0.997 | 57.9 |
| 2026-02-09T10:20 | 11.58541 | -118.03072 | 0.991 | 57.8 |
| 2026-02-09T10:30 | 11.58687 | -118.02833 | 0.993 | 58.2 |
| 2026-02-09T10:40 | 11.58831 | -118.02591 | 0.996 | 58.8 |
| 2026-02-09T10:50 | 11.58979 | -118.02351 | 1.000 | 58.0 |
| 2026-02-09T11:00 | 11.59125 | -118.02111 | 0.998 | 58.3 |
| 2026-02-09T11:10 | 11.59273 | -118.01871 | 0.997 | 58.0 |
| 2026-02-09T11:20 | 11.59288 | -118.01849 | 0.095 | 56.0 |
| 2026-02-09T11:30 | 11.59286 | -118.01850 | 0.009 | 204.1 |
| 2026-02-09T11:40 | 11.59284 | -118.01848 | 0.009 | 138.6 |
| 2026-02-09T11:50 | 11.59283 | -118.01849 | 0.003 | 192.4 |
| 2026-02-09T12:00 | 11.59289 | -118.01850 | 0.021 | 349.6 |
| 2026-02-09T12:10 | 11.59283 | -118.01850 | 0.019 | 187.4 |
| 2026-02-09T12:20 | 11.59283 | -118.01848 | 0.010 | 92.1 |
| 2026-02-09T12:30 | 11.59284 | -118.01848 | 0.004 | 311.6 |
| 2026-02-09T12:40 | 11.59288 | -118.01848 | 0.016 | 5.1 |
| 2026-02-09T12:50 | 11.59282 | -118.01848 | 0.022 | 178.2 |
| 2026-02-09T13:00 | 11.59285 | -118.01851 | 0.017 | 311.9 |
| 2026-02-09T13:10 | 11.59285 | -118.01851 | 0.004 | 138.8 |
| 2026-02-09T13:20 | 11.59288 | -118.01847 | 0.016 | 42.8 |
| 2026-02-09T13:30 | 11.59287 | -118.01849 | 0.004 | 254.5 |
| 2026-02-09T13:40 | 11.59290 | -118.01848 | 0.008 | 4.9 |
| 2026-02-09T13:50 | 11.59284 | -118.01850 | 0.020 | 197.2 |
| 2026-02-09T14:00 | 11.59288 | -118.01854 | 0.018 | 311.5 |
| 2026-02-09T14:10 | 11.60139 | -118.02927 | 4.863 | 308.8 |
| 2026-02-09T14:20 | 11.61149 | -118.05735 | 10.557 | 290.0 |
| 2026-02-09T14:30 | 11.61463 | -118.05618 | 1.199 | 20.3 |
| 2026-02-09T14:40 | 11.61470 | -118.05580 | 0.134 | 79.4 |
| 2026-02-09T14:50 | 11.61471 | -118.05577 | 0.014 | 67.7 |
| 2026-02-09T15:00 | 11.61465 | -118.05574 | 0.025 | 158.9 |
| 2026-02-09T15:10 | 11.61468 | -118.05575 | 0.011 | 350.4 |
| 2026-02-09T15:20 | 11.61466 | -118.05574 | 0.007 | 156.3 |
| 2026-02-09T15:30 | 11.61468 | -118.05575 | 0.010 | 335.5 |
| 2026-02-09T15:40 | 11.61462 | -118.05575 | 0.023 | 174.7 |
| 2026-02-09T15:50 | 11.61468 | -118.05576 | 0.023 | 342.4 |
| 2026-02-09T16:00 | 11.61467 | -118.05574 | 0.009 | 124.1 |
| 2026-02-09T16:10 | 11.61469 | -118.05575 | 0.007 | 337.5 |
| 2026-02-09T16:20 | 11.61467 | -118.05572 | 0.012 | 127.3 |
| 2026-02-09T16:30 | 11.61469 | -118.05577 | 0.020 | 294.6 |
| 2026-02-09T16:40 | 11.61464 | -118.05579 | 0.017 | 196.7 |
| 2026-02-09T16:50 | 11.61465 | -118.05577 | 0.007 | 53.4 |
| 2026-02-09T17:00 | 11.61463 | -118.05579 | 0.010 | 220.4 |
| 2026-02-09T17:10 | 11.61462 | -118.05579 | 0.004 | 160.3 |
| 2026-02-09T17:20 | 11.61464 | -118.05578 | 0.009 | 29.4 |
| 2026-02-09T17:30 | 11.61463 | -118.05574 | 0.014 | 111.0 |
| 2026-02-09T17:40 | 11.61460 | -118.05574 | 0.012 | 185.3 |
| 2026-02-09T17:50 | 11.61943 | -118.05163 | 2.259 | 40.0 |
| 2026-02-09T18:00 | 11.63264 | -118.03956 | 6.368 | 42.0 |
| 2026-02-09T18:10 | 11.63283 | -118.03931 | 0.111 | 52.5 |
| 2026-02-09T18:20 | 11.63290 | -118.03887 | 0.158 | 80.8 |
| 2026-02-09T18:30 | 11.63296 | -118.03869 | 0.069 | 70.9 |
| 2026-02-09T18:40 | 11.63295 | -118.03865 | 0.014 | 102.9 |
| 2026-02-09T18:50 | 11.63294 | -118.03867 | 0.010 | 239.4 |
| 2026-02-09T19:00 | 11.63291 | -118.03867 | 0.009 | 180.0 |
| 2026-02-09T19:10 | 11.63289 | -118.03867 | 0.009 | 180.0 |
| 2026-02-09T19:20 | 11.63299 | -118.03868 | 0.036 | 355.4 |
| 2026-02-09T19:30 | 11.63301 | -118.03866 | 0.011 | 47.3 |
| 2026-02-09T19:40 | 11.63293 | -118.03879 | 0.055 | 241.8 |
| 2026-02-09T19:50 | 11.63300 | -118.03870 | 0.041 | 52.3 |
| 2026-02-09T20:00 | 11.63288 | -118.03871 | 0.043 | 182.4 |
| 2026-02-09T20:10 | 11.63285 | -118.03878 | 0.027 | 243.4 |
| 2026-02-09T20:20 | 11.63295 | -118.03869 | 0.048 | 39.5 |
| 2026-02-09T20:30 | 11.63295 | -118.03869 | 0.002 | 161.8 |
| 2026-02-09T20:40 | 11.63300 | -118.03869 | 0.019 | 355.8 |
| 2026-02-09T20:50 | 11.63299 | -118.03871 | 0.008 | 249.8 |
| 2026-02-09T21:00 | 11.63301 | -118.03884 | 0.043 | 276.2 |
| 2026-02-09T21:10 | 11.63298 | -118.05144 | 4.451 | 269.9 |
| 2026-02-09T21:20 | 11.62933 | -118.07370 | 7.968 | 260.6 |
| 2026-02-09T21:30 | 11.63048 | -118.07786 | 1.524 | 285.7 |
| 2026-02-09T21:40 | 11.63070 | -118.07787 | 0.080 | 356.5 |
| 2026-02-09T21:50 | 11.63084 | -118.07788 | 0.049 | 357.9 |
| 2026-02-09T22:00 | 11.63076 | -118.07787 | 0.030 | 175.2 |
| 2026-02-09T22:10 | 11.63073 | -118.07787 | 0.009 | 186.8 |
| 2026-02-09T22:20 | 11.63069 | -118.07786 | 0.017 | 162.6 |
| 2026-02-09T22:30 | 11.63074 | -118.07788 | 0.019 | 341.5 |
| 2026-02-09T22:40 | 11.63070 | -118.07788 | 0.014 | 178.5 |
| 2026-02-09T22:50 | 11.63079 | -118.07786 | 0.033 | 7.9 |
| 2026-02-09T23:00 | 11.63085 | -118.07786 | 0.019 | 0.0 |
| 2026-02-09T23:10 | 11.63085 | -118.07784 | 0.006 | 79.8 |
| 2026-02-09T23:20 | 11.63087 | -118.07784 | 0.008 | 15.7 |
| 2026-02-09T23:30 | 11.63090 | -118.07790 | 0.024 | 299.9 |
| 2026-02-09T23:40 | 11.63071 | -118.07789 | 0.068 | 176.1 |
| 2026-02-09T23:50 | 11.63075 | -118.07792 | 0.018 | 316.2 |
| 2026-02-10T00:00 | 11.63072 | -118.07788 | 0.018 | 120.9 |
| 2026-02-10T00:10 | 11.63068 | -118.07784 | 0.021 | 141.7 |
| 2026-02-10T00:20 | 11.63073 | -118.07785 | 0.020 | 346.6 |
| 2026-02-10T00:30 | 11.63076 | -118.07796 | 0.038 | 283.7 |
| 2026-02-10T00:40 | 11.63077 | -118.07792 | 0.015 | 79.1 |
| 2026-02-10T00:50 | 11.63075 | -118.07790 | 0.007 | 125.6 |
| 2026-02-10T01:00 | 11.63078 | -118.07798 | 0.031 | 290.4 |
| 2026-02-10T01:10 | 11.63076 | -118.07795 | 0.014 | 125.3 |
| 2026-02-10T01:20 | 11.63077 | -118.07797 | 0.010 | 297.8 |
| 2026-02-10T01:30 | 11.63077 | -118.07794 | 0.012 | 104.2 |
| 2026-02-10T01:40 | 11.63075 | -118.07791 | 0.013 | 114.1 |
| 2026-02-10T01:50 | 11.63083 | -118.07789 | 0.029 | 9.7 |
| 2026-02-10T02:00 | 11.63084 | -118.07789 | 0.005 | 26.2 |
| 2026-02-10T02:10 | 11.63081 | -118.07792 | 0.016 | 221.0 |
| 2026-02-10T02:20 | 11.63083 | -118.07788 | 0.015 | 54.4 |
| 2026-02-10T02:30 | 11.63083 | -118.07789 | 0.002 | 243.1 |
| 2026-02-10T02:40 | 11.63084 | -118.07792 | 0.013 | 289.7 |
| 2026-02-10T02:50 | 11.63082 | -118.07790 | 0.009 | 135.4 |
| 2026-02-10T03:00 | 11.63083 | -118.07788 | 0.008 | 74.5 |
| 2026-02-10T03:10 | 11.63084 | -118.07789 | 0.006 | 308.6 |
| 2026-02-10T03:20 | 11.63080 | -118.07790 | 0.014 | 187.0 |
| 2026-02-10T03:30 | 11.63081 | -118.07789 | 0.003 | 49.8 |
| 2026-02-10T03:40 | 11.62525 | -118.07141 | 3.034 | 131.0 |
| 2026-02-10T03:50 | 11.61388 | -118.05713 | 6.481 | 128.9 |
| 2026-02-10T04:00 | 11.61464 | -118.05579 | 0.546 | 60.2 |
| 2026-02-10T04:10 | 11.61461 | -118.05576 | 0.016 | 137.2 |
| 2026-02-10T04:20 | 11.61463 | -118.05573 | 0.011 | 40.6 |
| 2026-02-10T04:30 | 11.61463 | -118.05578 | 0.014 | 268.6 |
| 2026-02-10T04:40 | 11.61462 | -118.05577 | 0.003 | 159.7 |
| 2026-02-10T04:50 | 11.61468 | -118.05581 | 0.025 | 326.5 |
| 2026-02-10T05:00 | 11.61464 | -118.05577 | 0.020 | 138.9 |
| 2026-02-10T05:10 | 11.61469 | -118.05578 | 0.019 | 349.5 |
| 2026-02-10T05:20 | 11.61463 | -118.05573 | 0.028 | 137.0 |
| 2026-02-10T05:30 | 11.61463 | -118.05576 | 0.012 | 270.0 |
| 2026-02-10T05:40 | 11.61469 | -118.05575 | 0.021 | 16.9 |
| 2026-02-10T05:50 | 11.61468 | -118.05581 | 0.024 | 262.2 |
| 2026-02-10T06:00 | 11.61460 | -118.05576 | 0.034 | 147.5 |
| 2026-02-10T06:10 | 11.61462 | -118.05575 | 0.010 | 41.6 |
| 2026-02-10T06:20 | 11.61465 | -118.05573 | 0.012 | 25.5 |
| 2026-02-10T06:30 | 11.61470 | -118.05578 | 0.025 | 316.6 |
| 2026-02-10T06:40 | 11.61462 | -118.05574 | 0.034 | 155.1 |
| 2026-02-10T06:50 | 11.61471 | -118.05573 | 0.032 | 4.4 |
| 2026-02-10T07:00 | 11.62500 | -118.04598 | 5.045 | 43.1 |
| 2026-02-10T07:10 | 11.63255 | -118.03909 | 3.638 | 41.9 |
| 2026-02-10T07:20 | 11.63288 | -118.03866 | 0.192 | 53.2 |
| 2026-02-10T07:30 | 11.63293 | -118.03866 | 0.020 | 0.0 |
| 2026-02-10T07:40 | 11.63291 | -118.03862 | 0.018 | 122.1 |
| 2026-02-10T07:50 | 11.63298 | -118.03861 | 0.026 | 4.7 |
| 2026-02-10T08:00 | 11.63300 | -118.03865 | 0.017 | 294.8 |
| 2026-02-10T08:10 | 11.63291 | -118.03861 | 0.035 | 153.2 |
| 2026-02-10T08:20 | 11.63284 | -118.03866 | 0.030 | 212.2 |
| 2026-02-10T08:30 | 11.63285 | -118.03863 | 0.008 | 71.3 |
| 2026-02-10T08:40 | 11.63305 | -118.03866 | 0.075 | 351.8 |
| 2026-02-10T08:50 | 11.63305 | -118.03872 | 0.021 | 271.0 |
| 2026-02-10T09:00 | 11.63302 | -118.03870 | 0.016 | 143.8 |
| 2026-02-10T09:10 | 11.63299 | -118.03871 | 0.011 | 197.6 |
| 2026-02-10T09:20 | 11.63305 | -118.03866 | 0.027 | 40.3 |
| 2026-02-10T09:30 | 11.63301 | -118.03863 | 0.018 | 147.0 |
| 2026-02-10T09:40 | 11.63306 | -118.03868 | 0.027 | 317.0 |
| 2026-02-10T09:50 | 11.63300 | -118.03867 | 0.022 | 165.3 |
| 2026-02-10T10:00 | 11.63307 | -118.03867 | 0.026 | 359.2 |
| 2026-02-10T10:10 | 11.63300 | -118.03865 | 0.026 | 168.2 |
| 2026-02-10T10:20 | 11.63469 | -118.03501 | 1.421 | 64.8 |
| 2026-02-10T10:30 | 11.64237 | -118.01116 | 8.858 | 71.9 |
| 2026-02-10T10:40 | 11.65061 | -117.98517 | 9.639 | 72.2 |
| 2026-02-10T10:50 | 11.65908 | -117.95891 | 9.757 | 71.9 |
| 2026-02-10T11:00 | 11.66794 | -117.93237 | 9.893 | 71.3 |
| 2026-02-10T11:10 | 11.67658 | -117.90601 | 9.807 | 71.6 |
| 2026-02-10T11:20 | 11.68541 | -117.87908 | 10.022 | 71.6 |
| 2026-02-10T11:30 | 11.69439 | -117.85173 | 10.175 | 71.6 |
| 2026-02-10T11:40 | 11.70335 | -117.82478 | 10.042 | 71.3 |
| 2026-02-10T11:50 | 11.71222 | -117.79775 | 10.056 | 71.6 |
| 2026-02-10T12:00 | 11.72095 | -117.77113 | 9.902 | 71.6 |
| 2026-02-10T12:10 | 11.72977 | -117.74441 | 9.950 | 71.5 |
| 2026-02-10T12:20 | 11.73837 | -117.71806 | 9.797 | 71.7 |
| 2026-02-10T12:30 | 11.74709 | -117.69167 | 9.823 | 71.5 |
| 2026-02-10T12:40 | 11.75594 | -117.66509 | 9.901 | 71.3 |
| 2026-02-10T12:50 | 11.76453 | -117.63890 | 9.745 | 71.6 |
| 2026-02-10T13:00 | 11.77320 | -117.61256 | 9.798 | 71.5 |
| 2026-02-10T13:10 | 11.78189 | -117.58639 | 9.747 | 71.4 |
| 2026-02-10T13:20 | 11.79026 | -117.56076 | 9.529 | 71.6 |
| 2026-02-10T13:30 | 11.79878 | -117.53484 | 9.645 | 71.5 |
| 2026-02-10T13:40 | 11.80750 | -117.50836 | 9.850 | 71.5 |
| 2026-02-10T13:50 | 11.81633 | -117.48175 | 9.911 | 71.4 |
| 2026-02-10T14:00 | 11.82495 | -117.45559 | 9.731 | 71.5 |
| 2026-02-10T14:10 | 11.83363 | -117.42931 | 9.780 | 71.5 |
| 2026-02-10T14:20 | 11.84234 | -117.40273 | 9.886 | 71.6 |
| 2026-02-10T14:30 | 11.84992 | -117.38149 | 7.971 | 70.1 |
| 2026-02-10T14:40 | 11.85019 | -117.38021 | 0.459 | 77.8 |
| 2026-02-10T14:50 | 11.84997 | -117.38017 | 0.081 | 168.2 |
| 2026-02-10T15:00 | 11.85002 | -117.38020 | 0.022 | 324.1 |
| 2026-02-10T15:10 | 11.84997 | -117.38019 | 0.019 | 168.4 |
| 2026-02-10T15:20 | 11.84999 | -117.38013 | 0.023 | 68.2 |
| 2026-02-10T15:30 | 11.85002 | -117.38012 | 0.013 | 23.5 |
| 2026-02-10T15:40 | 11.84998 | -117.38013 | 0.018 | 200.0 |
| 2026-02-10T15:50 | 11.84993 | -117.38012 | 0.017 | 165.3 |
| 2026-02-10T16:00 | 11.84997 | -117.38011 | 0.013 | 22.1 |
| 2026-02-10T16:10 | 11.84994 | -117.38010 | 0.010 | 161.2 |
| 2026-02-10T16:20 | 11.84992 | -117.38012 | 0.012 | 229.5 |
| 2026-02-10T16:30 | 11.84992 | -117.38012 | 0.002 | 143.5 |
| 2026-02-10T16:40 | 11.84990 | -117.38016 | 0.014 | 241.1 |
| 2026-02-10T16:50 | 11.84991 | -117.38015 | 0.005 | 20.8 |
| 2026-02-10T17:00 | 11.84989 | -117.38017 | 0.011 | 213.8 |
| 2026-02-10T17:10 | 11.84990 | -117.38010 | 0.023 | 80.8 |
| 2026-02-10T17:20 | 11.84997 | -117.38010 | 0.027 | 0.0 |
| 2026-02-10T17:30 | 11.84990 | -117.38014 | 0.026 | 207.3 |
| 2026-02-10T17:40 | 11.84988 | -117.38016 | 0.009 | 219.9 |
| 2026-02-10T17:50 | 11.84991 | -117.38013 | 0.014 | 50.9 |
| 2026-02-10T18:00 | 11.84991 | -117.38017 | 0.018 | 275.8 |
| 2026-02-10T18:10 | 11.84991 | -117.38010 | 0.027 | 92.3 |
| 2026-02-10T18:20 | 11.85015 | -117.37384 | 2.211 | 87.8 |
| 2026-02-10T18:30 | 11.85614 | -117.34820 | 9.295 | 76.7 |
| 2026-02-10T18:40 | 11.86156 | -117.32251 | 9.271 | 77.9 |
| 2026-02-10T18:50 | 11.86705 | -117.29619 | 9.491 | 78.0 |
| 2026-02-10T19:00 | 11.87269 | -117.26926 | 9.712 | 78.0 |
| 2026-02-10T19:10 | 11.87832 | -117.24233 | 9.713 | 78.0 |
| 2026-02-10T19:20 | 11.88396 | -117.21522 | 9.774 | 78.1 |
| 2026-02-10T19:30 | 11.88961 | -117.18799 | 9.818 | 78.1 |
| 2026-02-10T19:40 | 11.89538 | -117.16040 | 9.950 | 78.0 |
| 2026-02-10T19:50 | 11.90111 | -117.13276 | 9.965 | 78.1 |
| 2026-02-10T20:00 | 11.90688 | -117.10539 | 9.873 | 77.9 |
| 2026-02-10T20:10 | 11.91211 | -117.07729 | 10.088 | 79.3 |
| 2026-02-10T20:20 | 11.91670 | -117.04948 | 9.945 | 80.5 |
| 2026-02-10T20:30 | 11.92082 | -117.02882 | 7.436 | 78.5 |
| 2026-02-10T20:40 | 11.92093 | -117.02770 | 0.397 | 84.5 |
| 2026-02-10T20:50 | 11.92078 | -117.02774 | 0.056 | 193.7 |
| 2026-02-10T21:00 | 11.92078 | -117.02773 | 0.004 | 105.5 |
| 2026-02-10T21:10 | 11.92084 | -117.02772 | 0.024 | 11.0 |
| 2026-02-10T21:20 | 11.92112 | -117.02655 | 0.422 | 76.5 |
| 2026-02-10T21:30 | 11.92227 | -117.02524 | 0.622 | 48.3 |
| 2026-02-10T21:40 | 11.92341 | -117.02511 | 0.409 | 6.4 |
| 2026-02-10T21:50 | 11.92823 | -117.02553 | 1.734 | 355.0 |
| 2026-02-10T22:00 | 11.93057 | -117.02488 | 0.869 | 15.4 |
| 2026-02-10T22:10 | 11.93070 | -117.02461 | 0.105 | 65.0 |
| 2026-02-10T22:20 | 11.93070 | -117.02458 | 0.010 | 73.2 |
| 2026-02-10T22:30 | 11.93075 | -117.02460 | 0.017 | 343.3 |
| 2026-02-10T22:40 | 11.93074 | -117.02457 | 0.011 | 110.4 |
| 2026-02-10T22:50 | 11.93068 | -117.02456 | 0.019 | 176.9 |
| 2026-02-10T23:00 | 11.93073 | -117.02450 | 0.029 | 55.1 |
| 2026-02-10T23:10 | 11.93074 | -117.02451 | 0.006 | 308.6 |
| 2026-02-10T23:20 | 11.93070 | -117.02450 | 0.016 | 170.9 |
| 2026-02-10T23:30 | 11.93070 | -117.02452 | 0.005 | 283.2 |
| 2026-02-10T23:40 | 11.93076 | -117.02451 | 0.020 | 5.0 |
| 2026-02-10T23:50 | 11.93077 | -117.02448 | 0.010 | 61.3 |
| 2026-02-11T00:00 | 11.93075 | -117.02451 | 0.013 | 237.2 |
| 2026-02-11T00:10 | 11.93076 | -117.02452 | 0.004 | 338.5 |
| 2026-02-11T00:20 | 11.93066 | -117.02450 | 0.036 | 167.4 |
| 2026-02-11T00:30 | 11.93070 | -117.02450 | 0.015 | 350.2 |
| 2026-02-11T00:40 | 11.93072 | -117.02453 | 0.011 | 308.8 |
| 2026-02-11T00:50 | 11.93075 | -117.02451 | 0.010 | 34.9 |
| 2026-02-11T01:00 | 11.93073 | -117.02448 | 0.014 | 125.3 |
| 2026-02-11T01:10 | 11.93074 | -117.02452 | 0.014 | 289.2 |
| 2026-02-11T01:20 | 11.93075 | -117.02452 | 0.005 | 356.2 |
| 2026-02-11T01:30 | 11.93073 | -117.02447 | 0.018 | 111.9 |
| 2026-02-11T01:40 | 11.93071 | -117.02450 | 0.015 | 237.4 |
| 2026-02-11T01:50 | 11.93074 | -117.02448 | 0.014 | 45.6 |
| 2026-02-11T02:00 | 11.93070 | -117.02449 | 0.015 | 197.8 |
| 2026-02-11T02:10 | 11.93072 | -117.02452 | 0.013 | 304.5 |
| 2026-02-11T02:20 | 11.93073 | -117.02448 | 0.013 | 71.3 |
| 2026-02-11T02:30 | 11.93075 | -117.02451 | 0.010 | 312.6 |
| 2026-02-11T02:40 | 11.93074 | -117.02449 | 0.007 | 122.4 |
| 2026-02-11T02:50 | 11.93076 | -117.02450 | 0.009 | 329.8 |
| 2026-02-11T03:00 | 11.93077 | -117.02449 | 0.007 | 57.6 |
| 2026-02-11T03:10 | 11.93073 | -117.02452 | 0.019 | 221.5 |
| 2026-02-11T03:20 | 11.93075 | -117.02449 | 0.013 | 64.5 |
| 2026-02-11T03:30 | 11.93084 | -117.02451 | 0.033 | 342.8 |
| 2026-02-11T03:40 | 11.93089 | -117.02452 | 0.017 | 352.8 |
| 2026-02-11T03:50 | 11.93087 | -117.02451 | 0.008 | 139.2 |
| 2026-02-11T04:00 | 11.93087 | -117.02449 | 0.007 | 90.0 |
| 2026-02-11T04:10 | 11.93085 | -117.02435 | 0.049 | 97.1 |
| 2026-02-11T04:20 | 11.93089 | -117.02425 | 0.036 | 69.0 |
| 2026-02-11T04:30 | 11.93088 | -117.02397 | 0.102 | 91.4 |
| 2026-02-11T04:40 | 11.93083 | -117.02393 | 0.021 | 146.4 |
| 2026-02-11T04:50 | 11.93089 | -117.02390 | 0.022 | 30.7 |
| 2026-02-11T05:00 | 11.93085 | -117.02393 | 0.017 | 216.7 |
| 2026-02-11T05:10 | 11.93090 | -117.02395 | 0.021 | 337.8 |
| 2026-02-11T05:20 | 11.93090 | -117.02397 | 0.007 | 261.3 |
| 2026-02-11T05:30 | 11.93091 | -117.02396 | 0.007 | 54.4 |
| 2026-02-11T05:40 | 11.93083 | -117.02390 | 0.034 | 147.4 |
| 2026-02-11T05:50 | 11.93083 | -117.02392 | 0.007 | 257.9 |
| 2026-02-11T06:00 | 11.93094 | -117.02396 | 0.044 | 344.0 |
| 2026-02-11T06:10 | 11.93086 | -117.02390 | 0.035 | 149.4 |
| 2026-02-11T06:20 | 11.93091 | -117.02399 | 0.035 | 302.5 |
| 2026-02-11T06:30 | 11.93093 | -117.02394 | 0.018 | 71.3 |
| 2026-02-11T06:40 | 11.93087 | -117.02396 | 0.024 | 200.1 |
| 2026-02-11T06:50 | 11.93091 | -117.02391 | 0.025 | 51.4 |
| 2026-02-11T07:00 | 11.93093 | -117.02394 | 0.013 | 297.6 |
| 2026-02-11T07:10 | 11.93086 | -117.02393 | 0.025 | 169.5 |
| 2026-02-11T07:20 | 11.93089 | -117.02388 | 0.020 | 50.4 |
| 2026-02-11T07:30 | 11.93093 | -117.02395 | 0.028 | 298.9 |
| 2026-02-11T07:40 | 11.93088 | -117.02388 | 0.030 | 126.0 |
| 2026-02-11T07:50 | 11.93090 | -117.02391 | 0.010 | 305.7 |
| 2026-02-11T08:00 | 11.93095 | -117.02395 | 0.023 | 319.8 |
| 2026-02-11T08:10 | 11.93070 | -117.02391 | 0.090 | 171.0 |
| 2026-02-11T08:20 | 11.93075 | -117.02398 | 0.032 | 306.0 |
| 2026-02-11T08:30 | 11.93070 | -117.02395 | 0.023 | 146.0 |
| 2026-02-11T08:40 | 11.93065 | -117.02393 | 0.016 | 157.1 |
| 2026-02-11T08:50 | 11.93075 | -117.02395 | 0.035 | 346.7 |
| 2026-02-11T09:00 | 11.93073 | -117.02390 | 0.021 | 115.6 |
| 2026-02-11T09:10 | 11.93067 | -117.02394 | 0.025 | 218.1 |
| 2026-02-11T09:20 | 11.93069 | -117.02398 | 0.013 | 296.9 |
| 2026-02-11T09:30 | 11.93075 | -117.02397 | 0.023 | 4.3 |
| 2026-02-11T09:40 | 11.93069 | -117.02397 | 0.022 | 176.4 |
| 2026-02-11T09:50 | 11.93068 | -117.02394 | 0.010 | 104.2 |
| 2026-02-11T10:00 | 11.93072 | -117.02397 | 0.016 | 318.2 |
| 2026-02-11T10:10 | 11.93074 | -117.02394 | 0.013 | 42.4 |
| 2026-02-11T10:20 | 11.93075 | -117.02397 | 0.010 | 291.3 |
| 2026-02-11T10:30 | 11.93064 | -117.02433 | 0.134 | 251.6 |
| 2026-02-11T10:40 | 11.93038 | -117.02514 | 0.299 | 252.1 |
| 2026-02-11T10:50 | 11.93017 | -117.02585 | 0.264 | 253.4 |
| 2026-02-11T11:00 | 11.93008 | -117.02585 | 0.031 | 176.7 |
| 2026-02-11T11:10 | 11.93004 | -117.02586 | 0.017 | 189.5 |
| 2026-02-11T11:20 | 11.93000 | -117.02580 | 0.024 | 124.8 |
| 2026-02-11T11:30 | 11.93004 | -117.02583 | 0.020 | 327.0 |
| 2026-02-11T11:40 | 11.93006 | -117.02584 | 0.006 | 332.3 |
| 2026-02-11T11:50 | 11.92994 | -117.02582 | 0.042 | 169.8 |
| 2026-02-11T12:00 | 11.92992 | -117.02583 | 0.009 | 201.1 |
| 2026-02-11T12:10 | 11.93005 | -117.02583 | 0.046 | 356.9 |
| 2026-02-11T12:20 | 11.93019 | -117.02586 | 0.053 | 349.7 |
| 2026-02-11T12:30 | 11.93013 | -117.02585 | 0.023 | 169.2 |
| 2026-02-11T12:40 | 11.93008 | -117.02584 | 0.020 | 169.1 |
| 2026-02-11T12:50 | 11.92996 | -117.02583 | 0.043 | 177.6 |
| 2026-02-11T13:00 | 11.92984 | -117.02585 | 0.042 | 187.3 |
| 2026-02-11T13:10 | 11.92996 | -117.02583 | 0.042 | 8.3 |
| 2026-02-11T13:20 | 11.92990 | -117.02583 | 0.021 | 176.2 |
| 2026-02-11T13:30 | 11.93002 | -117.02584 | 0.044 | 353.6 |
| 2026-02-11T13:40 | 11.93002 | -117.02578 | 0.023 | 88.2 |
| 2026-02-11T13:50 | 11.92998 | -117.02580 | 0.018 | 206.2 |
| 2026-02-11T14:00 | 11.93008 | -117.02582 | 0.037 | 346.3 |
| 2026-02-11T14:10 | 11.93005 | -117.02581 | 0.013 | 155.9 |
| 2026-02-11T14:20 | 11.93001 | -117.02580 | 0.015 | 170.5 |
| 2026-02-11T14:30 | 11.92997 | -117.02578 | 0.016 | 148.5 |
| 2026-02-11T14:40 | 11.92994 | -117.02584 | 0.024 | 242.3 |
| 2026-02-11T14:50 | 11.93001 | -117.02584 | 0.027 | 357.7 |
| 2026-02-11T15:00 | 11.92997 | -117.02588 | 0.021 | 222.5 |
| 2026-02-11T15:10 | 11.93001 | -117.02582 | 0.026 | 56.3 |
| 2026-02-11T15:20 | 11.92996 | -117.02579 | 0.019 | 145.8 |
| 2026-02-11T15:30 | 11.92998 | -117.02580 | 0.008 | 322.6 |
| 2026-02-11T15:40 | 11.93001 | -117.02581 | 0.011 | 351.0 |
| 2026-02-11T15:50 | 11.92993 | -117.02580 | 0.030 | 176.7 |
| 2026-02-11T16:00 | 11.92994 | -117.02581 | 0.004 | 322.6 |
| 2026-02-11T16:10 | 11.92996 | -117.02582 | 0.007 | 342.7 |
| 2026-02-11T16:20 | 11.92992 | -117.02583 | 0.015 | 195.5 |
| 2026-02-11T16:30 | 11.92994 | -117.02549 | 0.121 | 86.6 |
| 2026-02-11T16:40 | 11.93007 | -117.02466 | 0.296 | 80.5 |
| 2026-02-11T16:50 | 11.93015 | -117.02407 | 0.208 | 82.0 |
| 2026-02-11T17:00 | 11.92979 | -117.02388 | 0.150 | 152.0 |
| 2026-02-11T17:10 | 11.92980 | -117.02384 | 0.013 | 59.7 |
| 2026-02-11T17:20 | 11.92975 | -117.02389 | 0.026 | 216.3 |
| 2026-02-11T17:30 | 11.92978 | -117.02386 | 0.015 | 40.6 |
| 2026-02-11T17:40 | 11.92981 | -117.02385 | 0.011 | 10.8 |
| 2026-02-11T17:50 | 11.92979 | -117.02390 | 0.019 | 249.9 |
| 2026-02-11T18:00 | 11.92975 | -117.02384 | 0.025 | 123.4 |
| 2026-02-11T18:10 | 11.92982 | -117.02385 | 0.024 | 350.7 |
| 2026-02-11T18:20 | 11.92982 | -117.02388 | 0.009 | 283.2 |
| 2026-02-11T18:30 | 11.92981 | -117.02388 | 0.004 | 168.9 |
| 2026-02-11T18:40 | 11.92978 | -117.02390 | 0.015 | 213.3 |
| 2026-02-11T18:50 | 11.92982 | -117.02385 | 0.024 | 52.9 |
| 2026-02-11T19:00 | 11.92980 | -117.02390 | 0.020 | 249.6 |
| 2026-02-11T19:10 | 11.92975 | -117.02388 | 0.017 | 159.6 |
| 2026-02-11T19:20 | 11.92988 | -117.02397 | 0.055 | 327.5 |
| 2026-02-11T19:30 | 11.93034 | -117.02401 | 0.163 | 354.5 |
| 2026-02-11T19:40 | 11.93032 | -117.02401 | 0.004 | 189.3 |
| 2026-02-11T19:50 | 11.92980 | -117.02403 | 0.186 | 181.5 |
| 2026-02-11T20:00 | 11.92975 | -117.02405 | 0.020 | 198.2 |
| 2026-02-11T20:10 | 11.92985 | -117.02406 | 0.035 | 350.1 |
| 2026-02-11T20:20 | 11.92980 | -117.02402 | 0.023 | 134.3 |
| 2026-02-11T20:30 | 11.92978 | -117.02401 | 0.009 | 158.1 |
| 2026-02-11T20:40 | 11.92984 | -117.02401 | 0.022 | 353.4 |
| 2026-02-11T20:50 | 11.92976 | -117.02407 | 0.034 | 214.6 |
| 2026-02-11T21:00 | 11.92979 | -117.02398 | 0.031 | 73.8 |
| 2026-02-11T21:10 | 11.93026 | -117.02416 | 0.181 | 339.7 |
| 2026-02-11T21:20 | 11.93075 | -117.02427 | 0.178 | 347.3 |
| 2026-02-11T21:30 | 11.93068 | -117.02429 | 0.023 | 193.2 |
| 2026-02-11T21:40 | 11.93069 | -117.02431 | 0.007 | 293.1 |
| 2026-02-11T21:50 | 11.93076 | -117.02442 | 0.047 | 300.2 |
| 2026-02-11T22:00 | 11.93068 | -117.02450 | 0.039 | 224.2 |
| 2026-02-11T22:10 | 11.93069 | -117.02451 | 0.004 | 323.6 |
| 2026-02-11T22:20 | 11.93069 | -117.02442 | 0.030 | 90.7 |
| 2026-02-11T22:30 | 11.93069 | -117.02445 | 0.010 | 274.0 |
| 2026-02-11T22:40 | 11.93068 | -117.02444 | 0.002 | 135.4 |
| 2026-02-11T22:50 | 11.93060 | -117.02467 | 0.087 | 249.2 |
| 2026-02-11T23:00 | 11.93043 | -117.02502 | 0.135 | 243.5 |
| 2026-02-11T23:10 | 11.93048 | -117.02498 | 0.021 | 36.8 |
| 2026-02-11T23:20 | 11.93042 | -117.02499 | 0.020 | 189.0 |
| 2026-02-11T23:30 | 11.93046 | -117.02500 | 0.016 | 343.8 |
| 2026-02-11T23:40 | 11.93044 | -117.02499 | 0.010 | 145.1 |
| 2026-02-11T23:50 | 11.93048 | -117.02502 | 0.019 | 316.2 |
| 2026-02-12T00:00 | 11.93040 | -117.02502 | 0.029 | 178.6 |
| 2026-02-12T00:10 | 11.93043 | -117.02502 | 0.013 | 358.4 |
| 2026-02-12T00:20 | 11.93048 | -117.02502 | 0.016 | 357.4 |
| 2026-02-12T00:30 | 11.93042 | -117.02505 | 0.021 | 206.6 |
| 2026-02-12T00:40 | 11.93048 | -117.02503 | 0.022 | 24.1 |
| 2026-02-12T00:50 | 11.93049 | -117.02503 | 0.004 | 338.5 |
| 2026-02-12T01:00 | 11.93041 | -117.02499 | 0.033 | 152.2 |
| 2026-02-12T01:10 | 11.93043 | -117.02500 | 0.011 | 326.2 |
| 2026-02-12T01:20 | 11.93045 | -117.02505 | 0.016 | 286.7 |
| 2026-02-12T01:30 | 11.93043 | -117.02504 | 0.007 | 168.3 |
| 2026-02-12T01:40 | 11.93042 | -117.02506 | 0.006 | 259.8 |
| 2026-02-12T01:50 | 11.93045 | -117.02501 | 0.022 | 60.2 |
| 2026-02-12T02:00 | 11.93048 | -117.02505 | 0.020 | 300.6 |
| 2026-02-12T02:10 | 11.93030 | -117.02501 | 0.067 | 168.2 |
| 2026-02-12T02:20 | 11.93012 | -117.02501 | 0.065 | 179.7 |
| 2026-02-12T02:30 | 11.93045 | -117.02496 | 0.122 | 9.0 |
| 2026-02-12T02:40 | 11.93165 | -117.02369 | 0.621 | 46.2 |
| 2026-02-12T02:50 | 11.93195 | -117.02341 | 0.144 | 42.8 |
| 2026-02-12T03:00 | 11.92492 | -117.02896 | 3.190 | 217.8 |
| 2026-02-12T03:10 | 11.91285 | -117.04155 | 6.196 | 225.8 |
| 2026-02-12T03:20 | 11.91325 | -117.03926 | 0.819 | 79.8 |
| 2026-02-12T03:30 | 11.91553 | -117.03917 | 0.817 | 2.4 |
| 2026-02-12T03:40 | 11.92908 | -117.03385 | 5.202 | 21.1 |
| 2026-02-12T03:50 | 11.93442 | -117.02626 | 3.289 | 54.4 |
| 2026-02-12T04:00 | 11.93406 | -117.02636 | 0.135 | 195.0 |
| 2026-02-12T04:10 | 11.93407 | -117.02629 | 0.025 | 85.0 |
| 2026-02-12T04:20 | 11.93405 | -117.02629 | 0.006 | 176.9 |
| 2026-02-12T04:30 | 11.93407 | -117.02633 | 0.015 | 298.1 |
| 2026-02-12T04:40 | 11.93402 | -117.02628 | 0.027 | 134.4 |
| 2026-02-12T04:50 | 11.93409 | -117.02634 | 0.034 | 319.2 |
| 2026-02-12T05:00 | 11.93405 | -117.02631 | 0.017 | 147.4 |
| 2026-02-12T05:10 | 11.93412 | -117.02630 | 0.026 | 12.5 |
| 2026-02-12T05:20 | 11.93405 | -117.02625 | 0.030 | 145.4 |
| 2026-02-12T05:30 | 11.93406 | -117.02626 | 0.004 | 312.1 |
| 2026-02-12T05:40 | 11.93403 | -117.02630 | 0.017 | 235.9 |
| 2026-02-12T05:50 | 11.93397 | -117.02632 | 0.022 | 199.6 |
| 2026-02-12T06:00 | 11.93409 | -117.02624 | 0.049 | 32.8 |
| 2026-02-12T06:10 | 11.93409 | -117.02628 | 0.013 | 266.8 |
| 2026-02-12T06:20 | 11.93402 | -117.02633 | 0.030 | 215.0 |
| 2026-02-12T06:30 | 11.93413 | -117.02630 | 0.041 | 11.0 |
| 2026-02-12T06:40 | 11.93410 | -117.02623 | 0.029 | 112.5 |
| 2026-02-12T06:50 | 11.93405 | -117.02623 | 0.016 | 186.4 |
| 2026-02-12T07:00 | 11.93410 | -117.02628 | 0.023 | 316.1 |
| 2026-02-12T07:10 | 11.93415 | -117.02625 | 0.020 | 34.7 |
| 2026-02-12T07:20 | 11.93405 | -117.02638 | 0.059 | 232.4 |
| 2026-02-12T07:30 | 11.93330 | -117.04223 | 5.596 | 267.2 |
| 2026-02-12T07:40 | 11.93452 | -117.07123 | 10.241 | 272.4 |
| 2026-02-12T07:50 | 11.93725 | -117.09124 | 7.125 | 277.9 |
| 2026-02-12T08:00 | 11.93812 | -117.09171 | 0.352 | 332.4 |
| 2026-02-12T08:10 | 11.93810 | -117.09171 | 0.011 | 196.5 |
| 2026-02-12T08:20 | 11.93816 | -117.09166 | 0.032 | 39.1 |
| 2026-02-12T08:30 | 11.93819 | -117.09170 | 0.018 | 303.5 |
| 2026-02-12T08:40 | 11.93814 | -117.09172 | 0.020 | 200.7 |
| 2026-02-12T08:50 | 11.93820 | -117.09174 | 0.022 | 345.3 |
| 2026-02-12T09:00 | 11.93830 | -117.09145 | 0.108 | 71.2 |
| 2026-02-12T09:10 | 11.93837 | -117.09149 | 0.031 | 329.6 |
| 2026-02-12T09:20 | 11.93832 | -117.09148 | 0.020 | 167.7 |
| 2026-02-12T09:30 | 11.93832 | -117.09152 | 0.015 | 270.0 |
| 2026-02-12T09:40 | 11.93830 | -117.09149 | 0.011 | 112.1 |
| 2026-02-12T09:50 | 11.93825 | -117.09144 | 0.025 | 140.6 |
| 2026-02-12T10:00 | 11.93830 | -117.09148 | 0.021 | 324.3 |
| 2026-02-12T10:10 | 11.93834 | -117.09145 | 0.020 | 36.5 |
| 2026-02-12T10:20 | 11.93831 | -117.09146 | 0.014 | 207.5 |
| 2026-02-12T10:30 | 11.93825 | -117.09143 | 0.027 | 149.0 |
| 2026-02-12T10:40 | 11.93830 | -117.09147 | 0.026 | 323.2 |
| 2026-02-12T10:50 | 11.93858 | -117.09161 | 0.109 | 333.4 |
| 2026-02-12T11:00 | 11.95104 | -117.09571 | 4.695 | 342.0 |
| 2026-02-12T11:10 | 11.96311 | -117.09826 | 4.415 | 348.3 |
| 2026-02-12T11:20 | 11.96332 | -117.09694 | 0.471 | 81.0 |
| 2026-02-12T11:30 | 11.96356 | -117.09664 | 0.139 | 50.5 |
| 2026-02-12T11:40 | 11.96357 | -117.09666 | 0.010 | 285.3 |
| 2026-02-12T11:50 | 11.96367 | -117.09663 | 0.036 | 19.2 |
| 2026-02-12T12:00 | 11.96354 | -117.09665 | 0.045 | 192.7 |
| 2026-02-12T12:10 | 11.96353 | -117.09670 | 0.017 | 252.0 |
| 2026-02-12T12:20 | 11.96356 | -117.09667 | 0.016 | 37.4 |
| 2026-02-12T12:30 | 11.96360 | -117.09668 | 0.014 | 357.1 |
| 2026-02-12T12:40 | 11.96352 | -117.09666 | 0.029 | 166.8 |
| 2026-02-12T12:50 | 11.96354 | -117.09667 | 0.008 | 311.9 |
| 2026-02-12T13:00 | 11.96354 | -117.09667 | 0.002 | 30.6 |
| 2026-02-12T13:10 | 11.96358 | -117.09667 | 0.012 | 10.2 |
| 2026-02-12T13:20 | 11.96354 | -117.09668 | 0.015 | 207.4 |
| 2026-02-12T13:30 | 11.96352 | -117.09663 | 0.020 | 108.4 |
| 2026-02-12T13:40 | 11.96354 | -117.09666 | 0.012 | 304.6 |
| 2026-02-12T13:50 | 11.96357 | -117.09662 | 0.017 | 45.4 |
| 2026-02-12T14:00 | 11.96352 | -117.09667 | 0.024 | 221.6 |
| 2026-02-12T14:10 | 11.96356 | -117.09667 | 0.015 | 358.7 |
| 2026-02-12T14:20 | 11.96907 | -117.09603 | 1.984 | 6.5 |
| 2026-02-12T14:30 | 11.98598 | -117.09884 | 6.138 | 350.7 |
| 2026-02-12T14:40 | 11.98665 | -117.09628 | 0.935 | 75.2 |
| 2026-02-12T14:50 | 11.98671 | -117.09629 | 0.022 | 344.8 |
| 2026-02-12T15:00 | 11.98665 | -117.09623 | 0.031 | 130.8 |
| 2026-02-12T15:10 | 11.98661 | -117.09623 | 0.013 | 180.0 |
| 2026-02-12T15:20 | 11.98658 | -117.09628 | 0.022 | 242.2 |
| 2026-02-12T15:30 | 11.98666 | -117.09625 | 0.028 | 21.4 |
| 2026-02-12T15:40 | 11.98666 | -117.09626 | 0.003 | 324.9 |
| 2026-02-12T15:50 | 11.98666 | -117.09630 | 0.014 | 268.6 |
| 2026-02-12T16:00 | 11.98661 | -117.09627 | 0.021 | 150.8 |
| 2026-02-12T16:10 | 11.98665 | -117.09630 | 0.019 | 321.4 |
| 2026-02-12T16:20 | 11.98668 | -117.09627 | 0.016 | 51.9 |
| 2026-02-12T16:30 | 11.98661 | -117.09624 | 0.028 | 164.6 |
| 2026-02-12T16:40 | 11.98666 | -117.09631 | 0.030 | 307.7 |
| 2026-02-12T16:50 | 11.98670 | -117.09630 | 0.017 | 9.5 |
| 2026-02-12T17:00 | 11.98664 | -117.09625 | 0.028 | 139.5 |
| 2026-02-12T17:10 | 11.98664 | -117.09624 | 0.003 | 102.7 |
| 2026-02-12T17:20 | 11.98665 | -117.09625 | 0.004 | 311.6 |
| 2026-02-12T17:30 | 11.98671 | -117.09626 | 0.022 | 355.3 |
| 2026-02-12T17:40 | 11.98658 | -117.09629 | 0.047 | 193.9 |
| 2026-02-12T17:50 | 11.98664 | -117.09626 | 0.023 | 27.8 |
| 2026-02-12T18:00 | 11.98666 | -117.09625 | 0.009 | 11.6 |
| 2026-02-12T18:10 | 11.98668 | -117.09627 | 0.008 | 306.3 |
| 2026-02-12T18:20 | 11.98667 | -117.09632 | 0.018 | 260.6 |
| 2026-02-12T18:30 | 11.98666 | -117.09627 | 0.018 | 98.1 |
| 2026-02-12T18:40 | 11.98669 | -117.09626 | 0.011 | 21.1 |
| 2026-02-12T18:50 | 11.98665 | -117.09627 | 0.014 | 199.9 |
| 2026-02-12T19:00 | 11.98665 | -117.09624 | 0.010 | 90.0 |
| 2026-02-12T19:10 | 11.98663 | -117.09631 | 0.024 | 252.1 |
| 2026-02-12T19:20 | 11.98666 | -117.09627 | 0.019 | 51.4 |
| 2026-02-12T19:30 | 11.98663 | -117.09629 | 0.016 | 214.0 |
| 2026-02-12T19:40 | 11.98668 | -117.09625 | 0.024 | 41.0 |
| 2026-02-12T19:50 | 11.98661 | -117.09623 | 0.025 | 161.8 |
| 2026-02-12T20:00 | 11.98434 | -117.09805 | 1.036 | 218.3 |
| 2026-02-12T20:10 | 11.99456 | -117.12567 | 10.405 | 290.6 |
| 2026-02-12T20:20 | 12.00450 | -117.15337 | 10.396 | 290.0 |
| 2026-02-12T20:30 | 12.01390 | -117.18170 | 10.543 | 288.6 |
| 2026-02-12T20:40 | 12.03721 | -117.19337 | 9.306 | 333.8 |
| 2026-02-12T20:50 | 12.06518 | -117.20111 | 10.386 | 344.8 |
| 2026-02-12T21:00 | 12.09321 | -117.20848 | 10.372 | 345.5 |
| 2026-02-12T21:10 | 12.12210 | -117.21610 | 10.688 | 345.5 |
| 2026-02-12T21:20 | 12.15083 | -117.22379 | 10.642 | 345.2 |
| 2026-02-12T21:30 | 12.17946 | -117.23139 | 10.600 | 345.4 |
| 2026-02-12T21:40 | 12.20843 | -117.23911 | 10.727 | 345.3 |
| 2026-02-12T21:50 | 12.23775 | -117.24698 | 10.864 | 345.2 |
| 2026-02-12T22:00 | 12.26654 | -117.25473 | 10.669 | 345.2 |
| 2026-02-12T22:10 | 12.29520 | -117.26234 | 10.610 | 345.4 |
| 2026-02-12T22:20 | 12.32394 | -117.26991 | 10.631 | 345.5 |
| 2026-02-12T22:30 | 12.35255 | -117.27755 | 10.598 | 345.3 |
| 2026-02-12T22:40 | 12.38051 | -117.28507 | 10.359 | 345.2 |
| 2026-02-12T22:50 | 12.40921 | -117.29278 | 10.634 | 345.2 |
| 2026-02-12T23:00 | 12.43772 | -117.30041 | 10.559 | 345.3 |
| 2026-02-12T23:10 | 12.46618 | -117.30795 | 10.534 | 345.4 |
| 2026-02-12T23:20 | 12.49482 | -117.31556 | 10.604 | 345.4 |
| 2026-02-12T23:30 | 12.52331 | -117.32327 | 10.560 | 345.1 |
| 2026-02-12T23:40 | 12.55179 | -117.33075 | 10.534 | 345.5 |
| 2026-02-12T23:50 | 12.58044 | -117.33845 | 10.615 | 345.2 |
| 2026-02-13T00:00 | 12.60884 | -117.34608 | 10.520 | 345.2 |
| 2026-02-13T00:10 | 12.63663 | -117.35344 | 10.289 | 345.4 |
| 2026-02-13T00:20 | 12.66409 | -117.36077 | 10.167 | 345.3 |
| 2026-02-13T00:30 | 12.69186 | -117.36829 | 10.294 | 345.1 |
| 2026-02-13T00:40 | 12.71979 | -117.37570 | 10.337 | 345.4 |
| 2026-02-13T00:50 | 12.74836 | -117.38337 | 10.586 | 345.2 |
| 2026-02-13T01:00 | 12.77697 | -117.39098 | 10.590 | 345.4 |
| 2026-02-13T01:10 | 12.80552 | -117.39859 | 10.571 | 345.3 |
| 2026-02-13T01:20 | 12.83407 | -117.40619 | 10.572 | 345.4 |
| 2026-02-13T01:30 | 12.86258 | -117.41385 | 10.559 | 345.2 |
| 2026-02-13T01:40 | 12.89085 | -117.42141 | 10.470 | 345.3 |
| 2026-02-13T01:50 | 12.91887 | -117.42888 | 10.375 | 345.4 |
| 2026-02-13T02:00 | 12.94705 | -117.43653 | 10.447 | 345.1 |
| 2026-02-13T02:10 | 12.97502 | -117.44396 | 10.355 | 345.4 |
| 2026-02-13T02:20 | 13.00316 | -117.45144 | 10.417 | 345.4 |
| 2026-02-13T02:30 | 13.03132 | -117.45902 | 10.434 | 345.2 |
| 2026-02-13T02:40 | 13.05953 | -117.46663 | 10.453 | 345.2 |
| 2026-02-13T02:50 | 13.08775 | -117.47411 | 10.443 | 345.4 |
| 2026-02-13T03:00 | 13.11589 | -117.48163 | 10.422 | 345.3 |
| 2026-02-13T03:10 | 13.14417 | -117.48928 | 10.480 | 345.1 |
| 2026-02-13T03:20 | 13.17253 | -117.49688 | 10.504 | 345.3 |
| 2026-02-13T03:30 | 13.20082 | -117.50440 | 10.471 | 345.4 |
| 2026-02-13T03:40 | 13.22933 | -117.51208 | 10.564 | 345.2 |
| 2026-02-13T03:50 | 13.25806 | -117.51977 | 10.640 | 345.3 |
| 2026-02-13T04:00 | 13.28671 | -117.52732 | 10.600 | 345.5 |
| 2026-02-13T04:10 | 13.31533 | -117.53516 | 10.616 | 345.0 |
| 2026-02-13T04:20 | 13.34390 | -117.54273 | 10.573 | 345.5 |
| 2026-02-13T04:30 | 13.37214 | -117.55037 | 10.467 | 345.2 |
| 2026-02-13T04:40 | 13.40010 | -117.55775 | 10.342 | 345.5 |
| 2026-02-13T04:50 | 13.42773 | -117.56524 | 10.242 | 345.1 |
| 2026-02-13T05:00 | 13.45538 | -117.57262 | 10.237 | 345.4 |
| 2026-02-13T05:10 | 13.48292 | -117.58002 | 10.202 | 345.3 |
| 2026-02-13T05:20 | 13.51089 | -117.58754 | 10.363 | 345.2 |
| 2026-02-13T05:30 | 13.53867 | -117.59496 | 10.285 | 345.4 |
| 2026-02-13T05:40 | 13.56636 | -117.60238 | 10.255 | 345.3 |
| 2026-02-13T05:50 | 13.59421 | -117.60991 | 10.320 | 345.2 |
| 2026-02-13T06:00 | 13.62223 | -117.61740 | 10.374 | 345.4 |
| 2026-02-13T06:10 | 13.65038 | -117.62483 | 10.414 | 345.5 |
| 2026-02-13T06:20 | 13.67835 | -117.63247 | 10.371 | 345.1 |
| 2026-02-13T06:30 | 13.70616 | -117.63998 | 10.305 | 345.2 |
| 2026-02-13T06:40 | 13.73372 | -117.64726 | 10.199 | 345.5 |
| 2026-02-13T06:50 | 13.76080 | -117.65458 | 10.035 | 345.2 |
| 2026-02-13T07:00 | 13.78866 | -117.66208 | 10.320 | 345.2 |
| 2026-02-13T07:10 | 13.81676 | -117.66956 | 10.401 | 345.4 |
| 2026-02-13T07:20 | 13.84436 | -117.67706 | 10.229 | 345.1 |
| 2026-02-13T07:30 | 13.87168 | -117.68428 | 10.110 | 345.5 |
| 2026-02-13T07:40 | 13.89887 | -117.69161 | 10.071 | 345.2 |
| 2026-02-13T07:50 | 13.92592 | -117.69890 | 10.024 | 345.2 |
| 2026-02-13T08:00 | 13.95346 | -117.70631 | 10.200 | 345.3 |
| 2026-02-13T08:10 | 13.98152 | -117.71384 | 10.392 | 345.3 |
| 2026-02-13T08:20 | 14.00909 | -117.72130 | 10.214 | 345.2 |
| 2026-02-13T08:30 | 14.03703 | -117.72871 | 10.342 | 345.5 |
| 2026-02-13T08:40 | 14.06521 | -117.73638 | 10.444 | 345.1 |
| 2026-02-13T08:50 | 14.09368 | -117.74394 | 10.537 | 345.5 |
| 2026-02-13T09:00 | 14.12165 | -117.75157 | 10.370 | 345.1 |
| 2026-02-13T09:10 | 14.15014 | -117.75921 | 10.549 | 345.3 |
| 2026-02-13T09:20 | 14.17869 | -117.76685 | 10.574 | 345.4 |
| 2026-02-13T09:30 | 14.20720 | -117.77455 | 10.560 | 345.2 |
| 2026-02-13T09:40 | 14.23588 | -117.78218 | 10.618 | 345.5 |
| 2026-02-13T09:50 | 14.26483 | -117.79002 | 10.727 | 345.2 |
| 2026-02-13T10:00 | 14.29325 | -117.79760 | 10.519 | 345.4 |
| 2026-02-13T10:10 | 14.32161 | -117.80533 | 10.515 | 345.1 |
| 2026-02-13T10:20 | 14.35003 | -117.81302 | 10.530 | 345.2 |
| 2026-02-13T10:30 | 14.37841 | -117.82064 | 10.509 | 345.3 |
| 2026-02-13T10:40 | 14.40582 | -117.82795 | 10.146 | 345.4 |
| 2026-02-13T10:50 | 14.43407 | -117.83555 | 10.463 | 345.3 |
| 2026-02-13T11:00 | 14.46224 | -117.84314 | 10.434 | 345.3 |
| 2026-02-13T11:10 | 14.49043 | -117.85070 | 10.440 | 345.4 |
| 2026-02-13T11:20 | 14.51854 | -117.85831 | 10.416 | 345.2 |
| 2026-02-13T11:30 | 14.54642 | -117.86590 | 10.333 | 345.1 |
| 2026-02-13T11:40 | 14.57467 | -117.87339 | 10.455 | 345.5 |
| 2026-02-13T11:50 | 14.60275 | -117.88102 | 10.404 | 345.2 |
| 2026-02-13T12:00 | 14.63114 | -117.88862 | 10.512 | 345.4 |
| 2026-02-13T12:10 | 14.65957 | -117.89625 | 10.527 | 345.4 |
| 2026-02-13T12:20 | 14.68802 | -117.90398 | 10.543 | 345.2 |
| 2026-02-13T12:30 | 14.71677 | -117.91179 | 10.656 | 345.2 |
| 2026-02-13T12:40 | 14.74566 | -117.91952 | 10.696 | 345.4 |
| 2026-02-13T12:50 | 14.77464 | -117.92735 | 10.735 | 345.3 |
| 2026-02-13T13:00 | 14.80372 | -117.93518 | 10.769 | 345.3 |
| 2026-02-13T13:10 | 14.83238 | -117.94290 | 10.615 | 345.3 |
| 2026-02-13T13:20 | 14.86066 | -117.95056 | 10.478 | 345.2 |
| 2026-02-13T13:30 | 14.88872 | -117.95809 | 10.388 | 345.4 |
| 2026-02-13T13:40 | 14.91700 | -117.96575 | 10.476 | 345.2 |
| 2026-02-13T13:50 | 14.94567 | -117.97351 | 10.624 | 345.3 |
| 2026-02-13T14:00 | 14.97432 | -117.98124 | 10.612 | 345.3 |
| 2026-02-13T14:10 | 15.00265 | -117.98889 | 10.493 | 345.3 |
| 2026-02-13T14:20 | 15.03079 | -117.99648 | 10.423 | 345.3 |
| 2026-02-13T14:30 | 15.05875 | -118.00409 | 10.359 | 345.2 |
| 2026-02-13T14:40 | 15.08643 | -118.01145 | 10.245 | 345.5 |
| 2026-02-13T14:50 | 15.11442 | -118.01910 | 10.375 | 345.1 |
| 2026-02-13T15:00 | 15.14253 | -118.02661 | 10.406 | 345.4 |
| 2026-02-13T15:10 | 15.17064 | -118.03428 | 10.417 | 345.2 |
| 2026-02-13T15:20 | 15.19882 | -118.04187 | 10.438 | 345.4 |
| 2026-02-13T15:30 | 15.22690 | -118.04938 | 10.394 | 345.4 |
| 2026-02-13T15:40 | 15.25528 | -118.05714 | 10.519 | 345.1 |
| 2026-02-13T15:50 | 15.28370 | -118.06486 | 10.531 | 345.2 |
| 2026-02-13T16:00 | 15.31199 | -118.07247 | 10.475 | 345.4 |
| 2026-02-13T16:10 | 15.34025 | -118.08006 | 10.465 | 345.4 |
| 2026-02-13T16:20 | 15.36777 | -118.08751 | 10.193 | 345.3 |
| 2026-02-13T16:30 | 15.39545 | -118.09500 | 10.255 | 345.3 |
| 2026-02-13T16:40 | 15.42311 | -118.10252 | 10.249 | 345.2 |
| 2026-02-13T16:50 | 15.45047 | -118.10988 | 10.129 | 345.4 |
| 2026-02-13T17:00 | 15.47783 | -118.11732 | 10.138 | 345.2 |
| 2026-02-13T17:10 | 15.50538 | -118.12478 | 10.205 | 345.3 |
| 2026-02-13T17:20 | 15.53263 | -118.13218 | 10.097 | 345.2 |
| 2026-02-13T17:30 | 15.56002 | -118.13952 | 10.142 | 345.4 |
| 2026-02-13T17:40 | 15.58725 | -118.14687 | 10.085 | 345.3 |
| 2026-02-13T17:50 | 15.61439 | -118.15431 | 10.062 | 345.1 |
| 2026-02-13T18:00 | 15.64164 | -118.16164 | 10.087 | 345.4 |
| 2026-02-13T18:10 | 15.66925 | -118.16921 | 10.238 | 345.1 |
| 2026-02-13T18:20 | 15.69740 | -118.17621 | 10.375 | 346.4 |
| 2026-02-13T18:30 | 15.72668 | -118.18202 | 10.681 | 349.1 |
| 2026-02-13T18:40 | 15.75589 | -118.18765 | 10.649 | 349.4 |
| 2026-02-13T18:50 | 15.78484 | -118.19340 | 10.561 | 349.1 |
| 2026-02-13T19:00 | 15.81382 | -118.19904 | 10.568 | 349.3 |
| 2026-02-13T19:10 | 15.84341 | -118.20476 | 10.786 | 349.4 |
| 2026-02-13T19:20 | 15.87223 | -118.21048 | 10.514 | 349.1 |
| 2026-02-13T19:30 | 15.90058 | -118.21593 | 10.333 | 349.5 |
| 2026-02-13T19:40 | 15.92877 | -118.22150 | 10.285 | 349.2 |
| 2026-02-13T19:50 | 15.95694 | -118.22698 | 10.270 | 349.4 |
| 2026-02-13T20:00 | 15.98489 | -118.23250 | 10.196 | 349.2 |
| 2026-02-13T20:10 | 16.01289 | -118.23790 | 10.205 | 349.4 |
| 2026-02-13T20:20 | 16.04119 | -118.24350 | 10.326 | 349.2 |
| 2026-02-13T20:30 | 16.06923 | -118.24899 | 10.225 | 349.3 |
| 2026-02-13T20:40 | 16.09766 | -118.25456 | 10.370 | 349.3 |
| 2026-02-13T20:50 | 16.12633 | -118.26013 | 10.451 | 349.4 |
| 2026-02-13T21:00 | 16.15500 | -118.26573 | 10.455 | 349.3 |
| 2026-02-13T21:10 | 16.18349 | -118.27130 | 10.389 | 349.3 |
| 2026-02-13T21:20 | 16.21198 | -118.27693 | 10.392 | 349.2 |
| 2026-02-13T21:30 | 16.24028 | -118.28252 | 10.324 | 349.2 |
| 2026-02-13T21:40 | 16.26860 | -118.28806 | 10.329 | 349.3 |
| 2026-02-13T21:50 | 16.29682 | -118.29351 | 10.287 | 349.4 |
| 2026-02-13T22:00 | 16.32477 | -118.29900 | 10.191 | 349.3 |
| 2026-02-13T22:10 | 16.35252 | -118.30441 | 10.118 | 349.4 |
| 2026-02-13T22:20 | 16.38070 | -118.30992 | 10.278 | 349.3 |
| 2026-02-13T22:30 | 16.40884 | -118.31550 | 10.266 | 349.2 |
| 2026-02-13T22:40 | 16.43715 | -118.32104 | 10.321 | 349.3 |
| 2026-02-13T22:50 | 16.46566 | -118.32659 | 10.395 | 349.4 |
| 2026-02-13T23:00 | 16.49416 | -118.33213 | 10.392 | 349.4 |
| 2026-02-13T23:10 | 16.52213 | -118.33763 | 10.203 | 349.2 |
| 2026-02-13T23:20 | 16.55058 | -118.34328 | 10.378 | 349.2 |
| 2026-02-13T23:30 | 16.57893 | -118.34881 | 10.337 | 349.3 |
| 2026-02-13T23:40 | 16.60732 | -118.35443 | 10.356 | 349.2 |
| 2026-02-13T23:50 | 16.63563 | -118.35992 | 10.321 | 349.4 |
| 2026-02-14T00:00 | 16.66388 | -118.36550 | 10.305 | 349.2 |
| 2026-02-14T00:10 | 16.69190 | -118.37099 | 10.218 | 349.3 |
| 2026-02-14T00:20 | 16.72014 | -118.37656 | 10.298 | 349.2 |
| 2026-02-14T00:30 | 16.74827 | -118.38204 | 10.257 | 349.4 |
| 2026-02-14T00:40 | 16.77639 | -118.38756 | 10.254 | 349.3 |
| 2026-02-14T00:50 | 16.80483 | -118.39316 | 10.375 | 349.3 |
| 2026-02-14T01:00 | 16.83318 | -118.39871 | 10.338 | 349.3 |
| 2026-02-14T01:10 | 16.86162 | -118.40427 | 10.368 | 349.3 |
| 2026-02-14T01:20 | 16.89028 | -118.40997 | 10.456 | 349.2 |
| 2026-02-14T01:30 | 16.91898 | -118.41557 | 10.467 | 349.4 |
| 2026-02-14T01:40 | 16.94762 | -118.42122 | 10.447 | 349.2 |
| 2026-02-14T01:50 | 16.97629 | -118.42684 | 10.453 | 349.3 |
| 2026-02-14T02:00 | 17.00501 | -118.43244 | 10.471 | 349.4 |
| 2026-02-14T02:10 | 17.03329 | -118.43806 | 10.316 | 349.2 |
| 2026-02-14T02:20 | 17.06179 | -118.44364 | 10.392 | 349.3 |
| 2026-02-14T02:30 | 17.09040 | -118.44930 | 10.438 | 349.2 |
| 2026-02-14T02:40 | 17.11906 | -118.45499 | 10.456 | 349.2 |
| 2026-02-14T02:50 | 17.14768 | -118.46061 | 10.436 | 349.3 |
| 2026-02-14T03:00 | 17.17647 | -118.46621 | 10.495 | 349.4 |
| 2026-02-14T03:10 | 17.20525 | -118.47187 | 10.499 | 349.3 |
| 2026-02-14T03:20 | 17.23418 | -118.47758 | 10.550 | 349.3 |
| 2026-02-14T03:30 | 17.26329 | -118.48331 | 10.619 | 349.3 |
| 2026-02-14T03:40 | 17.29223 | -118.48901 | 10.555 | 349.3 |
| 2026-02-14T03:50 | 17.32102 | -118.49466 | 10.498 | 349.3 |
| 2026-02-14T04:00 | 17.34969 | -118.50036 | 10.461 | 349.2 |
| 2026-02-14T04:10 | 17.37841 | -118.50596 | 10.468 | 349.4 |
| 2026-02-14T04:20 | 17.40669 | -118.51157 | 10.317 | 349.2 |
| 2026-02-14T04:30 | 17.43532 | -118.51717 | 10.438 | 349.4 |
| 2026-02-14T04:40 | 17.46393 | -118.52286 | 10.439 | 349.2 |
| 2026-02-14T04:50 | 17.49218 | -118.52951 | 10.381 | 347.3 |
| 2026-02-14T05:00 | 17.52021 | -118.53691 | 10.360 | 345.8 |
| 2026-02-14T05:10 | 17.54837 | -118.54433 | 10.409 | 345.8 |
| 2026-02-14T05:20 | 17.57685 | -118.55183 | 10.528 | 345.8 |
| 2026-02-14T05:30 | 17.60500 | -118.55925 | 10.406 | 345.8 |
| 2026-02-14T05:40 | 17.63301 | -118.56660 | 10.348 | 345.9 |
| 2026-02-14T05:50 | 17.66139 | -118.57420 | 10.503 | 345.6 |
| 2026-02-14T06:00 | 17.68965 | -118.58157 | 10.438 | 346.0 |
| 2026-02-14T06:10 | 17.71724 | -118.58885 | 10.198 | 345.8 |
| 2026-02-14T06:20 | 17.74470 | -118.59612 | 10.153 | 345.8 |
| 2026-02-14T06:30 | 17.77226 | -118.60336 | 10.186 | 345.9 |
| 2026-02-14T06:40 | 17.79974 | -118.61062 | 10.160 | 345.8 |
| 2026-02-14T06:50 | 17.82751 | -118.61795 | 10.263 | 345.8 |
| 2026-02-14T07:00 | 17.85521 | -118.62525 | 10.239 | 345.9 |
| 2026-02-14T07:10 | 17.88335 | -118.63272 | 10.405 | 345.7 |
| 2026-02-14T07:20 | 17.91158 | -118.64008 | 10.428 | 346.0 |
| 2026-02-14T07:30 | 17.93994 | -118.64762 | 10.488 | 345.7 |
| 2026-02-14T07:40 | 17.96850 | -118.65517 | 10.558 | 345.8 |
| 2026-02-14T07:50 | 17.99732 | -118.66283 | 10.658 | 345.7 |
| 2026-02-14T08:00 | 18.02563 | -118.67020 | 10.455 | 346.0 |
| 2026-02-14T08:10 | 18.05384 | -118.67774 | 10.435 | 345.6 |
| 2026-02-14T08:20 | 18.08241 | -118.68522 | 10.554 | 345.9 |
| 2026-02-14T08:30 | 18.11084 | -118.69184 | 10.441 | 347.4 |
| 2026-02-14T08:40 | 18.13973 | -118.69101 | 10.355 | 1.6 |
| 2026-02-14T08:50 | 18.16850 | -118.69007 | 10.316 | 1.8 |
| 2026-02-14T09:00 | 18.19730 | -118.68941 | 10.325 | 1.2 |
| 2026-02-14T09:10 | 18.22609 | -118.68836 | 10.323 | 2.0 |
| 2026-02-14T09:20 | 18.25470 | -118.68745 | 10.258 | 1.7 |
| 2026-02-14T09:30 | 18.28343 | -118.68654 | 10.303 | 1.7 |
| 2026-02-14T09:40 | 18.31235 | -118.68570 | 10.369 | 1.6 |
| 2026-02-14T09:50 | 18.34141 | -118.68475 | 10.421 | 1.8 |
| 2026-02-14T10:00 | 18.37039 | -118.68386 | 10.389 | 1.7 |
| 2026-02-14T10:10 | 18.39970 | -118.68299 | 10.508 | 1.6 |
| 2026-02-14T10:20 | 18.42898 | -118.68207 | 10.500 | 1.7 |
| 2026-02-14T10:30 | 18.45800 | -118.68120 | 10.406 | 1.6 |
| 2026-02-14T10:40 | 18.48705 | -118.68031 | 10.414 | 1.7 |
| 2026-02-14T10:50 | 18.51578 | -118.67941 | 10.300 | 1.7 |
| 2026-02-14T11:00 | 18.54477 | -118.67848 | 10.396 | 1.8 |
| 2026-02-14T11:10 | 18.57362 | -118.67763 | 10.345 | 1.6 |
| 2026-02-14T11:20 | 18.60276 | -118.67671 | 10.448 | 1.7 |
| 2026-02-14T11:30 | 18.63171 | -118.67581 | 10.380 | 1.7 |
| 2026-02-14T11:40 | 18.66065 | -118.67494 | 10.378 | 1.6 |
| 2026-02-14T11:50 | 18.68936 | -118.67405 | 10.295 | 1.7 |
| 2026-02-14T12:00 | 18.71770 | -118.67314 | 10.160 | 1.7 |
| 2026-02-14T12:10 | 18.74640 | -118.67225 | 10.293 | 1.7 |
| 2026-02-14T12:20 | 18.77495 | -118.67139 | 10.235 | 1.6 |
| 2026-02-14T12:30 | 18.80318 | -118.67052 | 10.122 | 1.7 |
| 2026-02-14T12:40 | 18.83152 | -118.66963 | 10.162 | 1.7 |
| 2026-02-14T12:50 | 18.85992 | -118.66876 | 10.183 | 1.7 |
| 2026-02-14T13:00 | 18.88849 | -118.66794 | 10.245 | 1.6 |
| 2026-02-14T13:10 | 18.91682 | -118.66698 | 10.157 | 1.8 |
| 2026-02-14T13:20 | 18.94513 | -118.66606 | 10.154 | 1.8 |
| 2026-02-14T13:30 | 18.97344 | -118.66523 | 10.149 | 1.6 |
| 2026-02-14T13:40 | 19.00181 | -118.66433 | 10.173 | 1.7 |
| 2026-02-14T13:50 | 19.02985 | -118.66353 | 10.053 | 1.6 |
| 2026-02-14T14:00 | 19.05761 | -118.66263 | 9.955 | 1.8 |
| 2026-02-14T14:10 | 19.08497 | -118.66183 | 9.811 | 1.6 |
| 2026-02-14T14:20 | 19.11230 | -118.66091 | 9.802 | 1.9 |
| 2026-02-14T14:30 | 19.13964 | -118.66003 | 9.802 | 1.7 |
| 2026-02-14T14:40 | 19.16701 | -118.65918 | 9.816 | 1.7 |
| 2026-02-14T14:50 | 19.19436 | -118.65841 | 9.804 | 1.5 |
| 2026-02-14T15:00 | 19.22200 | -118.65749 | 9.915 | 1.8 |
| 2026-02-14T15:10 | 19.24950 | -118.65639 | 9.861 | 2.2 |
| 2026-02-14T15:20 | 19.27708 | -118.65740 | 9.893 | 358.0 |
| 2026-02-14T15:30 | 19.30463 | -118.65506 | 9.906 | 4.6 |
| 2026-02-14T15:40 | 19.33287 | -118.65405 | 10.128 | 1.9 |
| 2026-02-14T15:50 | 19.36130 | -118.65319 | 10.193 | 1.6 |
| 2026-02-14T16:00 | 19.38986 | -118.65231 | 10.241 | 1.7 |
| 2026-02-14T16:10 | 19.41858 | -118.65141 | 10.300 | 1.7 |
| 2026-02-14T16:20 | 19.44772 | -118.65051 | 10.449 | 1.7 |
| 2026-02-14T16:30 | 19.47611 | -118.64966 | 10.182 | 1.6 |
| 2026-02-14T16:40 | 19.50564 | -118.64872 | 10.587 | 1.7 |
| 2026-02-14T16:50 | 19.53448 | -118.64775 | 10.345 | 1.8 |
| 2026-02-14T17:00 | 19.56375 | -118.64689 | 10.494 | 1.6 |
| 2026-02-14T17:10 | 19.59326 | -118.64598 | 10.581 | 1.7 |
| 2026-02-14T17:20 | 19.62309 | -118.64507 | 10.697 | 1.6 |
| 2026-02-14T17:30 | 19.65266 | -118.64414 | 10.606 | 1.7 |
| 2026-02-14T17:40 | 19.68211 | -118.64328 | 10.559 | 1.6 |
| 2026-02-14T17:50 | 19.71100 | -118.64226 | 10.362 | 1.9 |
| 2026-02-14T18:00 | 19.73987 | -118.64144 | 10.352 | 1.6 |
| 2026-02-14T18:10 | 19.76909 | -118.64048 | 10.479 | 1.8 |
| 2026-02-14T18:20 | 19.79866 | -118.63955 | 10.602 | 1.7 |
| 2026-02-14T18:30 | 19.82656 | -118.63872 | 10.005 | 1.6 |
| 2026-02-14T18:40 | 19.85628 | -118.63783 | 10.659 | 1.6 |
| 2026-02-14T18:50 | 19.88585 | -118.63682 | 10.604 | 1.9 |
| 2026-02-14T19:00 | 19.91533 | -118.63592 | 10.574 | 1.6 |
| 2026-02-14T19:10 | 19.94409 | -118.63509 | 10.314 | 1.6 |
| 2026-02-14T19:20 | 19.97322 | -118.63414 | 10.445 | 1.8 |
| 2026-02-14T19:30 | 20.00195 | -118.63321 | 10.305 | 1.8 |
| 2026-02-14T19:40 | 20.03057 | -118.63225 | 10.263 | 1.8 |
| 2026-02-14T19:50 | 20.05885 | -118.63144 | 10.140 | 1.6 |
| 2026-02-14T20:00 | 20.08736 | -118.63058 | 10.225 | 1.6 |
| 2026-02-14T20:10 | 20.11570 | -118.62964 | 10.166 | 1.8 |
| 2026-02-14T20:20 | 20.14446 | -118.62885 | 10.309 | 1.5 |
| 2026-02-14T20:30 | 20.17331 | -118.62783 | 10.350 | 1.9 |
| 2026-02-14T20:40 | 20.20267 | -118.62692 | 10.528 | 1.7 |
| 2026-02-14T20:50 | 20.23168 | -118.62603 | 10.404 | 1.7 |
| 2026-02-14T21:00 | 20.26056 | -118.62509 | 10.358 | 1.8 |
| 2026-02-14T21:10 | 20.28959 | -118.62424 | 10.412 | 1.6 |
| 2026-02-14T21:20 | 20.31864 | -118.62333 | 10.418 | 1.7 |
| 2026-02-14T21:30 | 20.34773 | -118.62248 | 10.430 | 1.6 |
| 2026-02-14T21:40 | 20.37682 | -118.62148 | 10.434 | 1.9 |
| 2026-02-14T21:50 | 20.40612 | -118.62056 | 10.509 | 1.7 |
| 2026-02-14T22:00 | 20.43588 | -118.61966 | 10.671 | 1.6 |
| 2026-02-14T22:10 | 20.46539 | -118.61876 | 10.582 | 1.6 |
| 2026-02-14T22:20 | 20.49459 | -118.61782 | 10.474 | 1.7 |
| 2026-02-14T22:30 | 20.52437 | -118.61693 | 10.679 | 1.6 |
| 2026-02-14T22:40 | 20.55369 | -118.61606 | 10.516 | 1.6 |
| 2026-02-14T22:50 | 20.58320 | -118.61504 | 10.583 | 1.9 |
| 2026-02-14T23:00 | 20.61261 | -118.61416 | 10.547 | 1.6 |
| 2026-02-14T23:10 | 20.64171 | -118.61317 | 10.438 | 1.8 |
| 2026-02-14T23:20 | 20.67077 | -118.61232 | 10.423 | 1.6 |
| 2026-02-14T23:30 | 20.70007 | -118.61145 | 10.506 | 1.6 |
| 2026-02-14T23:40 | 20.72959 | -118.61043 | 10.591 | 1.9 |
| 2026-02-14T23:50 | 20.75919 | -118.60954 | 10.614 | 1.6 |
| 2026-02-15T00:00 | 20.78877 | -118.60861 | 10.611 | 1.7 |
| 2026-02-15T00:10 | 20.81824 | -118.60834 | 10.564 | 0.5 |
| 2026-02-15T00:20 | 20.84768 | -118.60924 | 10.559 | 358.4 |
| 2026-02-15T00:30 | 20.87716 | -118.61014 | 10.572 | 358.4 |
| 2026-02-15T00:40 | 20.90647 | -118.61101 | 10.512 | 358.4 |
| 2026-02-15T00:50 | 20.93558 | -118.61186 | 10.439 | 358.4 |
| 2026-02-15T01:00 | 20.96467 | -118.61276 | 10.432 | 358.3 |
| 2026-02-15T01:10 | 20.99385 | -118.61367 | 10.468 | 358.3 |
| 2026-02-15T01:20 | 21.02317 | -118.61462 | 10.514 | 358.3 |
| 2026-02-15T01:30 | 21.05295 | -118.61546 | 10.681 | 358.5 |
| 2026-02-15T01:40 | 21.08283 | -118.61639 | 10.718 | 358.3 |
| 2026-02-15T01:50 | 21.11297 | -118.61726 | 10.808 | 358.4 |
| 2026-02-15T02:00 | 21.14331 | -118.61824 | 10.882 | 358.3 |
| 2026-02-15T02:10 | 21.17332 | -118.61920 | 10.765 | 358.3 |
| 2026-02-15T02:20 | 21.20350 | -118.62003 | 10.820 | 358.5 |
| 2026-02-15T02:30 | 21.23371 | -118.62098 | 10.838 | 358.3 |
| 2026-02-15T02:40 | 21.26342 | -118.62191 | 10.657 | 358.3 |
| 2026-02-15T02:50 | 21.29286 | -118.62274 | 10.558 | 358.5 |
| 2026-02-15T03:00 | 21.32229 | -118.62373 | 10.556 | 358.2 |
| 2026-02-15T03:10 | 21.35191 | -118.62459 | 10.621 | 358.4 |
| 2026-02-15T03:20 | 21.38136 | -118.62539 | 10.563 | 358.5 |
| 2026-02-15T03:30 | 21.41081 | -118.62633 | 10.563 | 358.3 |
| 2026-02-15T03:40 | 21.44027 | -118.62732 | 10.565 | 358.2 |
| 2026-02-15T03:50 | 21.46966 | -118.62820 | 10.544 | 358.4 |
| 2026-02-15T04:00 | 21.49887 | -118.62916 | 10.476 | 358.2 |
| 2026-02-15T04:10 | 21.52829 | -118.62996 | 10.551 | 358.5 |
| 2026-02-15T04:20 | 21.55778 | -118.63089 | 10.576 | 358.3 |
| 2026-02-15T04:30 | 21.58771 | -118.63175 | 10.735 | 358.5 |
| 2026-02-15T04:40 | 21.61698 | -118.63266 | 10.499 | 358.3 |
| 2026-02-15T04:50 | 21.64582 | -118.63359 | 10.348 | 358.3 |
| 2026-02-15T05:00 | 21.67448 | -118.63449 | 10.279 | 358.3 |
| 2026-02-15T05:10 | 21.70367 | -118.63533 | 10.470 | 358.5 |
| 2026-02-15T05:20 | 21.73314 | -118.63626 | 10.568 | 358.3 |
| 2026-02-15T05:30 | 21.76292 | -118.63719 | 10.684 | 358.3 |
| 2026-02-15T05:40 | 21.79212 | -118.63804 | 10.471 | 358.5 |
| 2026-02-15T05:50 | 21.82150 | -118.63892 | 10.539 | 358.4 |
| 2026-02-15T06:00 | 21.85100 | -118.63983 | 10.581 | 358.4 |
| 2026-02-15T06:10 | 21.88054 | -118.64075 | 10.596 | 358.3 |
| 2026-02-15T06:20 | 21.90972 | -118.64167 | 10.465 | 358.3 |
| 2026-02-15T06:30 | 21.93893 | -118.64253 | 10.476 | 358.4 |
| 2026-02-15T06:40 | 21.96817 | -118.64342 | 10.491 | 358.4 |
| 2026-02-15T06:50 | 21.99748 | -118.64431 | 10.512 | 358.4 |
| 2026-02-15T07:00 | 22.02681 | -118.64523 | 10.519 | 358.3 |
| 2026-02-15T07:10 | 22.05614 | -118.64629 | 10.524 | 358.1 |
| 2026-02-15T07:20 | 22.08481 | -118.64696 | 10.281 | 358.8 |
| 2026-02-15T07:30 | 22.11348 | -118.64788 | 10.283 | 358.3 |
| 2026-02-15T07:40 | 22.14213 | -118.64882 | 10.280 | 358.2 |
| 2026-02-15T07:50 | 22.17065 | -118.64967 | 10.227 | 358.4 |
| 2026-02-15T08:00 | 22.19904 | -118.65053 | 10.186 | 358.4 |
| 2026-02-15T08:10 | 22.22740 | -118.65144 | 10.171 | 358.3 |
| 2026-02-15T08:20 | 22.25611 | -118.65227 | 10.298 | 358.4 |
| 2026-02-15T08:30 | 22.28475 | -118.65317 | 10.273 | 358.3 |
| 2026-02-15T08:40 | 22.31354 | -118.65406 | 10.326 | 358.4 |
| 2026-02-15T08:50 | 22.34232 | -118.65496 | 10.325 | 358.3 |
| 2026-02-15T09:00 | 22.37115 | -118.65581 | 10.342 | 358.4 |
| 2026-02-15T09:10 | 22.40019 | -118.65671 | 10.416 | 358.3 |
| 2026-02-15T09:20 | 22.42904 | -118.65763 | 10.350 | 358.3 |
| 2026-02-15T09:30 | 22.45813 | -118.65765 | 10.432 | 360.0 |
| 2026-02-15T09:40 | 22.48742 | -118.65696 | 10.504 | 1.2 |
| 2026-02-15T09:50 | 22.51643 | -118.65631 | 10.402 | 1.2 |
| 2026-02-15T10:00 | 22.54544 | -118.65562 | 10.406 | 1.2 |
| 2026-02-15T10:10 | 22.57447 | -118.65497 | 10.411 | 1.2 |
| 2026-02-15T10:20 | 22.60376 | -118.65433 | 10.504 | 1.2 |
| 2026-02-15T10:30 | 22.63292 | -118.65364 | 10.458 | 1.3 |
| 2026-02-15T10:40 | 22.66214 | -118.65299 | 10.479 | 1.2 |
| 2026-02-15T10:50 | 22.69130 | -118.65227 | 10.458 | 1.3 |
| 2026-02-15T11:00 | 22.72036 | -118.65165 | 10.422 | 1.1 |
| 2026-02-15T11:10 | 22.74970 | -118.65102 | 10.524 | 1.1 |
| 2026-02-15T11:20 | 22.77923 | -118.65028 | 10.592 | 1.3 |
| 2026-02-15T11:30 | 22.80864 | -118.64958 | 10.547 | 1.3 |
| 2026-02-15T11:40 | 22.83785 | -118.64896 | 10.478 | 1.1 |
| 2026-02-15T11:50 | 22.86725 | -118.64830 | 10.545 | 1.2 |
| 2026-02-15T12:00 | 22.89662 | -118.64761 | 10.535 | 1.2 |
| 2026-02-15T12:10 | 22.92642 | -118.64692 | 10.687 | 1.2 |
| 2026-02-15T12:20 | 22.95618 | -118.64629 | 10.672 | 1.1 |
| 2026-02-15T12:30 | 22.98605 | -118.64558 | 10.713 | 1.3 |
| 2026-02-15T12:40 | 23.01603 | -118.64482 | 10.754 | 1.3 |
| 2026-02-15T12:50 | 23.04574 | -118.64424 | 10.657 | 1.0 |
| 2026-02-15T13:00 | 23.07571 | -118.64353 | 10.750 | 1.3 |
| 2026-02-15T13:10 | 23.10581 | -118.64280 | 10.793 | 1.3 |
| 2026-02-15T13:20 | 23.13557 | -118.64216 | 10.675 | 1.1 |
| 2026-02-15T13:30 | 23.16549 | -118.64054 | 10.745 | 2.9 |
| 2026-02-15T13:40 | 23.19539 | -118.63869 | 10.736 | 3.3 |
| 2026-02-15T13:50 | 23.22495 | -118.63678 | 10.620 | 3.4 |
| 2026-02-15T14:00 | 23.25457 | -118.63497 | 10.639 | 3.2 |
| 2026-02-15T14:10 | 23.28412 | -118.63310 | 10.614 | 3.3 |
| 2026-02-15T14:20 | 23.31357 | -118.63125 | 10.581 | 3.3 |
| 2026-02-15T14:30 | 23.34305 | -118.62939 | 10.587 | 3.3 |
| 2026-02-15T14:40 | 23.37199 | -118.62754 | 10.399 | 3.4 |
| 2026-02-15T14:50 | 23.40054 | -118.62574 | 10.253 | 3.3 |
| 2026-02-15T15:00 | 23.42900 | -118.62397 | 10.223 | 3.3 |
| 2026-02-15T15:10 | 23.45740 | -118.62225 | 10.203 | 3.2 |
| 2026-02-15T15:20 | 23.48554 | -118.62042 | 10.107 | 3.4 |
| 2026-02-15T15:30 | 23.51387 | -118.61866 | 10.179 | 3.3 |
| 2026-02-15T15:40 | 23.54210 | -118.61688 | 10.140 | 3.3 |
| 2026-02-15T15:50 | 23.57034 | -118.61514 | 10.142 | 3.2 |
| 2026-02-15T16:00 | 23.59841 | -118.61337 | 10.085 | 3.3 |
| 2026-02-15T16:10 | 23.62717 | -118.61158 | 10.331 | 3.3 |
| 2026-02-15T16:20 | 23.65592 | -118.60974 | 10.327 | 3.4 |
| 2026-02-15T16:30 | 23.68482 | -118.60789 | 10.381 | 3.4 |
| 2026-02-15T16:40 | 23.71388 | -118.60607 | 10.439 | 3.3 |
| 2026-02-15T16:50 | 23.74301 | -118.60423 | 10.467 | 3.3 |
| 2026-02-15T17:00 | 23.77195 | -118.60239 | 10.396 | 3.4 |
| 2026-02-15T17:10 | 23.80102 | -118.60054 | 10.442 | 3.4 |
| 2026-02-15T17:20 | 23.82987 | -118.59873 | 10.364 | 3.3 |
| 2026-02-15T17:30 | 23.85850 | -118.59690 | 10.286 | 3.4 |
| 2026-02-15T17:40 | 23.88760 | -118.59514 | 10.450 | 3.2 |
| 2026-02-15T17:50 | 23.91597 | -118.59332 | 10.195 | 3.4 |
| 2026-02-15T18:00 | 23.94482 | -118.59147 | 10.363 | 3.4 |
| 2026-02-15T18:10 | 23.97378 | -118.58964 | 10.402 | 3.3 |
| 2026-02-15T18:20 | 24.00322 | -118.58782 | 10.576 | 3.2 |
| 2026-02-15T18:30 | 24.03262 | -118.58594 | 10.563 | 3.4 |
| 2026-02-15T18:40 | 24.06195 | -118.58414 | 10.535 | 3.2 |
| 2026-02-15T18:50 | 24.09141 | -118.58223 | 10.583 | 3.4 |
| 2026-02-15T19:00 | 24.12070 | -118.58046 | 10.519 | 3.2 |
| 2026-02-15T19:10 | 24.14983 | -118.57858 | 10.469 | 3.4 |
| 2026-02-15T19:20 | 24.17887 | -118.57668 | 10.434 | 3.4 |
| 2026-02-15T19:30 | 24.20791 | -118.57488 | 10.430 | 3.3 |
| 2026-02-15T19:40 | 24.23700 | -118.57309 | 10.451 | 3.2 |
| 2026-02-15T19:50 | 24.26607 | -118.57115 | 10.444 | 3.5 |
| 2026-02-15T20:00 | 24.29512 | -118.56940 | 10.434 | 3.2 |
| 2026-02-15T20:10 | 24.32422 | -118.56758 | 10.455 | 3.3 |
| 2026-02-15T20:20 | 24.35354 | -118.56566 | 10.532 | 3.4 |
| 2026-02-15T20:30 | 24.38263 | -118.56389 | 10.451 | 3.2 |
| 2026-02-15T20:40 | 24.41168 | -118.56202 | 10.436 | 3.4 |
| 2026-02-15T20:50 | 24.44076 | -118.56015 | 10.449 | 3.4 |
| 2026-02-15T21:00 | 24.46991 | -118.55832 | 10.469 | 3.3 |
| 2026-02-15T21:10 | 24.49887 | -118.55242 | 10.567 | 10.6 |
| 2026-02-15T21:20 | 24.52752 | -118.54571 | 10.507 | 12.1 |
| 2026-02-15T21:30 | 24.55605 | -118.53909 | 10.464 | 12.0 |
| 2026-02-15T21:40 | 24.58466 | -118.53235 | 10.495 | 12.2 |
| 2026-02-15T21:50 | 24.61318 | -118.52572 | 10.457 | 12.0 |
| 2026-02-15T22:00 | 24.64190 | -118.51903 | 10.533 | 12.0 |
| 2026-02-15T22:10 | 24.67088 | -118.51224 | 10.630 | 12.1 |
| 2026-02-15T22:20 | 24.70002 | -118.50544 | 10.685 | 12.0 |
| 2026-02-15T22:30 | 24.72930 | -118.49859 | 10.740 | 12.1 |
| 2026-02-15T22:40 | 24.75862 | -118.49169 | 10.755 | 12.1 |
| 2026-02-15T22:50 | 24.78762 | -118.48500 | 10.629 | 11.9 |
| 2026-02-15T23:00 | 24.81692 | -118.47809 | 10.750 | 12.2 |
| 2026-02-15T23:10 | 24.84655 | -118.47112 | 10.870 | 12.1 |
| 2026-02-15T23:20 | 24.87644 | -118.46417 | 10.960 | 12.0 |
| 2026-02-15T23:30 | 24.90612 | -118.45724 | 10.882 | 12.0 |
| 2026-02-15T23:40 | 24.93579 | -118.45023 | 10.889 | 12.2 |
| 2026-02-15T23:50 | 24.96526 | -118.44331 | 10.807 | 12.1 |
| 2026-02-16T00:00 | 24.99444 | -118.43649 | 10.702 | 12.0 |
| 2026-02-16T00:10 | 25.02376 | -118.42965 | 10.752 | 12.0 |
| 2026-02-16T00:20 | 25.05299 | -118.42281 | 10.721 | 12.0 |
| 2026-02-16T00:30 | 25.08233 | -118.41593 | 10.759 | 12.1 |
| 2026-02-16T00:40 | 25.11176 | -118.40897 | 10.800 | 12.2 |
| 2026-02-16T00:50 | 25.14104 | -118.40214 | 10.737 | 12.0 |
| 2026-02-16T01:00 | 25.17038 | -118.39524 | 10.761 | 12.1 |
| 2026-02-16T01:10 | 25.19937 | -118.38849 | 10.631 | 12.0 |
| 2026-02-16T01:20 | 25.22815 | -118.38170 | 10.558 | 12.1 |
| 2026-02-16T01:30 | 25.25676 | -118.37501 | 10.492 | 12.0 |
| 2026-02-16T01:40 | 25.28556 | -118.36818 | 10.569 | 12.2 |
| 2026-02-16T01:50 | 25.31435 | -118.36151 | 10.552 | 11.9 |
| 2026-02-16T02:00 | 25.34327 | -118.35458 | 10.618 | 12.3 |
| 2026-02-16T02:10 | 25.37182 | -118.34767 | 10.484 | 12.4 |
| 2026-02-16T02:20 | 25.40059 | -118.34067 | 10.568 | 12.5 |
| 2026-02-16T02:30 | 25.42966 | -118.33376 | 10.668 | 12.2 |
| 2026-02-16T02:40 | 25.45877 | -118.32674 | 10.690 | 12.3 |
| 2026-02-16T02:50 | 25.48766 | -118.31979 | 10.607 | 12.3 |
| 2026-02-16T03:00 | 25.51641 | -118.31300 | 10.547 | 12.1 |
| 2026-02-16T03:10 | 25.54499 | -118.30633 | 10.478 | 11.9 |
| 2026-02-16T03:20 | 25.57351 | -118.29968 | 10.458 | 11.9 |
| 2026-02-16T03:30 | 25.60193 | -118.29303 | 10.421 | 12.0 |
| 2026-02-16T03:40 | 25.63035 | -118.28645 | 10.418 | 11.8 |
| 2026-02-16T03:50 | 25.65851 | -118.27990 | 10.322 | 11.9 |
| 2026-02-16T04:00 | 25.68669 | -118.27329 | 10.334 | 12.0 |
| 2026-02-16T04:10 | 25.71501 | -118.26670 | 10.382 | 11.9 |
| 2026-02-16T04:20 | 25.74370 | -118.26002 | 10.518 | 11.9 |
| 2026-02-16T04:30 | 25.77258 | -118.25329 | 10.586 | 11.9 |
| 2026-02-16T04:40 | 25.80159 | -118.24652 | 10.638 | 11.9 |
| 2026-02-16T04:50 | 25.83039 | -118.23978 | 10.560 | 11.9 |
| 2026-02-16T05:00 | 25.85902 | -118.23310 | 10.498 | 11.9 |
| 2026-02-16T05:10 | 25.88769 | -118.22641 | 10.508 | 11.9 |
| 2026-02-16T05:20 | 25.91632 | -118.21969 | 10.501 | 12.0 |
| 2026-02-16T05:30 | 25.94494 | -118.21303 | 10.490 | 11.9 |
| 2026-02-16T05:40 | 25.97347 | -118.20642 | 10.459 | 11.8 |
| 2026-02-16T05:50 | 26.00211 | -118.19964 | 10.507 | 12.1 |
| 2026-02-16T06:00 | 26.03068 | -118.19297 | 10.475 | 11.9 |
| 2026-02-16T06:10 | 26.05937 | -118.18629 | 10.515 | 11.9 |
| 2026-02-16T06:20 | 26.08780 | -118.17966 | 10.423 | 11.9 |
| 2026-02-16T06:30 | 26.11621 | -118.17301 | 10.418 | 11.9 |
| 2026-02-16T06:40 | 26.14450 | -118.16640 | 10.371 | 11.9 |
| 2026-02-16T06:50 | 26.17275 | -118.15974 | 10.360 | 12.0 |
| 2026-02-16T07:00 | 26.20129 | -118.15308 | 10.465 | 11.9 |
| 2026-02-16T07:10 | 26.22982 | -118.14639 | 10.461 | 11.9 |
| 2026-02-16T07:20 | 26.25835 | -118.13971 | 10.459 | 11.9 |
| 2026-02-16T07:30 | 26.28697 | -118.13301 | 10.494 | 11.9 |
| 2026-02-16T07:40 | 26.31548 | -118.12635 | 10.452 | 11.9 |
| 2026-02-16T07:50 | 26.34390 | -118.11963 | 10.423 | 12.0 |
| 2026-02-16T08:00 | 26.37227 | -118.11300 | 10.402 | 11.9 |
| 2026-02-16T08:10 | 26.40072 | -118.10633 | 10.431 | 11.9 |
| 2026-02-16T08:20 | 26.42917 | -118.09965 | 10.431 | 11.9 |
| 2026-02-16T08:30 | 26.45765 | -118.09294 | 10.446 | 12.0 |
| 2026-02-16T08:40 | 26.48635 | -118.08626 | 10.518 | 11.8 |
| 2026-02-16T08:50 | 26.51494 | -118.07950 | 10.488 | 12.0 |
| 2026-02-16T09:00 | 26.54366 | -118.07277 | 10.529 | 11.9 |
| 2026-02-16T09:10 | 26.57238 | -118.06605 | 10.528 | 11.9 |
| 2026-02-16T09:20 | 26.60104 | -118.05932 | 10.511 | 11.9 |
| 2026-02-16T09:30 | 26.62993 | -118.05248 | 10.596 | 12.0 |
| 2026-02-16T09:40 | 26.65874 | -118.04573 | 10.562 | 11.9 |
| 2026-02-16T09:50 | 26.68761 | -118.03894 | 10.585 | 11.9 |
| 2026-02-16T10:00 | 26.71650 | -118.03217 | 10.592 | 11.9 |
| 2026-02-16T10:10 | 26.74542 | -118.02537 | 10.606 | 11.9 |
| 2026-02-16T10:20 | 26.77442 | -118.01850 | 10.634 | 12.0 |
| 2026-02-16T10:30 | 26.80331 | -118.01168 | 10.597 | 12.0 |
| 2026-02-16T10:40 | 26.83205 | -118.00503 | 10.531 | 11.7 |
| 2026-02-16T10:50 | 26.86084 | -117.99824 | 10.558 | 11.9 |
| 2026-02-16T11:00 | 26.88957 | -117.99137 | 10.540 | 12.1 |
| 2026-02-16T11:10 | 26.91860 | -117.98456 | 10.645 | 11.9 |
| 2026-02-16T11:20 | 26.94772 | -117.97770 | 10.678 | 11.9 |
| 2026-02-16T11:30 | 26.97634 | -117.97092 | 10.497 | 12.0 |
| 2026-02-16T11:40 | 27.00460 | -117.96429 | 10.359 | 11.9 |
| 2026-02-16T11:50 | 27.03267 | -117.95790 | 10.280 | 11.5 |
| 2026-02-16T12:00 | 27.06059 | -117.95108 | 10.253 | 12.3 |
| 2026-02-16T12:10 | 27.08906 | -117.94432 | 10.443 | 12.0 |
| 2026-02-16T12:20 | 27.11753 | -117.93762 | 10.440 | 11.9 |
| 2026-02-16T12:30 | 27.14606 | -117.93098 | 10.453 | 11.8 |
| 2026-02-16T12:40 | 27.17450 | -117.92425 | 10.430 | 12.0 |
| 2026-02-16T12:50 | 27.20260 | -117.91758 | 10.307 | 12.0 |
| 2026-02-16T13:00 | 27.23047 | -117.91101 | 10.219 | 11.9 |
| 2026-02-16T13:10 | 27.25811 | -117.90448 | 10.135 | 11.9 |
| 2026-02-16T13:20 | 27.28585 | -117.89790 | 10.177 | 12.0 |
| 2026-02-16T13:30 | 27.31369 | -117.89130 | 10.208 | 12.0 |
| 2026-02-16T13:40 | 27.34158 | -117.88471 | 10.227 | 11.9 |
| 2026-02-16T13:50 | 27.36957 | -117.87811 | 10.265 | 11.9 |
| 2026-02-16T14:00 | 27.39759 | -117.87147 | 10.275 | 11.9 |
| 2026-02-16T14:10 | 27.42562 | -117.86484 | 10.278 | 11.9 |
| 2026-02-16T14:20 | 27.45370 | -117.85822 | 10.298 | 11.9 |
| 2026-02-16T14:30 | 27.48186 | -117.85154 | 10.325 | 11.9 |
| 2026-02-16T14:40 | 27.50978 | -117.84488 | 10.242 | 12.0 |
| 2026-02-16T14:50 | 27.53786 | -117.83832 | 10.294 | 11.8 |
| 2026-02-16T15:00 | 27.56594 | -117.83163 | 10.300 | 12.0 |
| 2026-02-16T15:10 | 27.59410 | -117.82496 | 10.327 | 11.9 |
| 2026-02-16T15:20 | 27.62214 | -117.81831 | 10.282 | 11.9 |
| 2026-02-16T15:30 | 27.65021 | -117.81160 | 10.299 | 12.0 |
| 2026-02-16T15:40 | 27.67815 | -117.80497 | 10.245 | 11.9 |
| 2026-02-16T15:50 | 27.70607 | -117.79836 | 10.238 | 11.9 |
| 2026-02-16T16:00 | 27.73416 | -117.79170 | 10.302 | 11.9 |
| 2026-02-16T16:10 | 27.76248 | -117.78498 | 10.386 | 11.9 |
| 2026-02-16T16:20 | 27.79342 | -117.77764 | 11.347 | 11.9 |
| 2026-02-16T16:30 | 27.82542 | -117.77001 | 11.737 | 12.0 |
| 2026-02-16T16:40 | 27.85733 | -117.76250 | 11.697 | 11.8 |
| 2026-02-16T16:50 | 27.88788 | -117.75225 | 11.440 | 16.6 |
| 2026-02-16T17:00 | 27.91410 | -117.73864 | 10.359 | 24.8 |
| 2026-02-16T17:10 | 27.93997 | -117.72580 | 10.144 | 23.8 |
| 2026-02-16T17:20 | 27.96877 | -117.72560 | 10.337 | 0.3 |
| 2026-02-16T17:30 | 27.99758 | -117.72562 | 10.337 | 360.0 |
| 2026-02-16T17:40 | 28.02598 | -117.72230 | 10.247 | 5.9 |
| 2026-02-16T17:50 | 28.05395 | -117.71569 | 10.254 | 11.8 |
| 2026-02-16T18:00 | 28.08185 | -117.70906 | 10.231 | 11.9 |
| 2026-02-16T18:10 | 28.10993 | -117.70234 | 10.300 | 12.0 |
| 2026-02-16T18:20 | 28.13805 | -117.69562 | 10.315 | 11.9 |
| 2026-02-16T18:30 | 28.16604 | -117.68898 | 10.262 | 11.9 |
| 2026-02-16T18:40 | 28.19397 | -117.68224 | 10.250 | 12.1 |
| 2026-02-16T18:50 | 28.22198 | -117.67559 | 10.272 | 11.9 |
| 2026-02-16T19:00 | 28.25031 | -117.66887 | 10.385 | 11.8 |
| 2026-02-16T19:10 | 28.27870 | -117.66210 | 10.414 | 11.9 |
| 2026-02-16T19:20 | 28.30417 | -117.65594 | 9.348 | 12.1 |
| 2026-02-16T19:30 | 28.33014 | -117.64995 | 9.511 | 11.5 |
| 2026-02-16T19:40 | 28.35857 | -117.64317 | 10.427 | 11.9 |
| 2026-02-16T19:50 | 28.38708 | -117.63612 | 10.472 | 12.3 |
| 2026-02-16T20:00 | 28.41557 | -117.62936 | 10.445 | 11.8 |
| 2026-02-16T20:10 | 28.44389 | -117.62267 | 10.383 | 11.8 |
| 2026-02-16T20:20 | 28.47200 | -117.61594 | 10.309 | 11.9 |
| 2026-02-16T20:30 | 28.50022 | -117.60919 | 10.349 | 11.9 |
| 2026-02-16T20:40 | 28.52835 | -117.60242 | 10.323 | 12.0 |
| 2026-02-16T20:50 | 28.55652 | -117.59570 | 10.330 | 11.9 |
| 2026-02-16T21:00 | 28.58263 | -117.58945 | 9.576 | 11.9 |
| 2026-02-16T21:10 | 28.60880 | -117.58316 | 9.601 | 12.0 |
| 2026-02-16T21:20 | 28.64113 | -117.57547 | 11.853 | 11.8 |
| 2026-02-16T21:30 | 28.67347 | -117.56769 | 11.866 | 12.0 |
| 2026-02-16T21:40 | 28.70382 | -117.56044 | 11.129 | 11.9 |
| 2026-02-16T21:50 | 28.73268 | -117.55353 | 10.587 | 11.9 |
| 2026-02-16T22:00 | 28.76132 | -117.54674 | 10.499 | 11.8 |
| 2026-02-16T22:10 | 28.78980 | -117.53990 | 10.448 | 11.9 |
| 2026-02-16T22:20 | 28.81807 | -117.53301 | 10.375 | 12.1 |
| 2026-02-16T22:30 | 28.84635 | -117.52644 | 10.360 | 11.6 |
| 2026-02-16T22:40 | 28.87496 | -117.51936 | 10.510 | 12.3 |
| 2026-02-16T22:50 | 28.90349 | -117.51250 | 10.466 | 11.9 |
| 2026-02-16T23:00 | 28.93194 | -117.50573 | 10.432 | 11.8 |
| 2026-02-16T23:10 | 28.96046 | -117.49887 | 10.458 | 11.9 |
| 2026-02-16T23:20 | 28.98896 | -117.49198 | 10.457 | 12.0 |
| 2026-02-16T23:30 | 29.01734 | -117.48510 | 10.414 | 12.0 |
| 2026-02-16T23:40 | 29.04569 | -117.47838 | 10.394 | 11.8 |
| 2026-02-16T23:50 | 29.07384 | -117.47161 | 10.328 | 11.9 |
| 2026-02-17T00:00 | 29.10211 | -117.46489 | 10.362 | 11.8 |
| 2026-02-17T00:10 | 29.13058 | -117.45790 | 10.455 | 12.2 |
| 2026-02-17T00:20 | 29.15871 | -117.45121 | 10.313 | 11.8 |
| 2026-02-17T00:30 | 29.18650 | -117.44458 | 10.191 | 11.8 |
| 2026-02-17T00:40 | 29.21408 | -117.43793 | 10.116 | 11.9 |
| 2026-02-17T00:50 | 29.24195 | -117.43124 | 10.222 | 11.9 |
| 2026-02-17T01:00 | 29.26983 | -117.42449 | 10.230 | 12.0 |
| 2026-02-17T01:10 | 29.29762 | -117.41782 | 10.193 | 11.9 |
| 2026-02-17T01:20 | 29.32553 | -117.41092 | 10.248 | 12.2 |
| 2026-02-17T01:30 | 29.35352 | -117.40422 | 10.263 | 11.8 |
| 2026-02-17T01:40 | 29.38159 | -117.39742 | 10.299 | 12.0 |
| 2026-02-17T01:50 | 29.40942 | -117.39081 | 10.204 | 11.8 |
| 2026-02-17T02:00 | 29.43736 | -117.38404 | 10.249 | 12.0 |
| 2026-02-17T02:10 | 29.46557 | -117.37723 | 10.349 | 11.9 |
| 2026-02-17T02:20 | 29.49381 | -117.37033 | 10.365 | 12.1 |
| 2026-02-17T02:30 | 29.52218 | -117.36365 | 10.398 | 11.7 |
| 2026-02-17T02:40 | 29.55038 | -117.35680 | 10.345 | 12.0 |
| 2026-02-17T02:50 | 29.57859 | -117.34997 | 10.349 | 11.9 |
| 2026-02-17T03:00 | 29.60687 | -117.34306 | 10.381 | 12.0 |
| 2026-02-17T03:10 | 29.63510 | -117.33628 | 10.353 | 11.9 |
| 2026-02-17T03:20 | 29.66336 | -117.32933 | 10.376 | 12.1 |
| 2026-02-17T03:30 | 29.69144 | -117.32266 | 10.290 | 11.7 |
| 2026-02-17T03:40 | 29.71947 | -117.31584 | 10.285 | 12.0 |
| 2026-02-17T03:50 | 29.74687 | -117.30933 | 10.044 | 11.7 |
| 2026-02-17T04:00 | 29.77326 | -117.30284 | 9.689 | 12.1 |
| 2026-02-17T04:10 | 29.79884 | -117.29672 | 9.379 | 11.8 |
| 2026-02-17T04:20 | 29.82444 | -117.29044 | 9.397 | 12.1 |
| 2026-02-17T04:30 | 29.84986 | -117.28425 | 9.326 | 12.0 |
| 2026-02-17T04:40 | 29.87539 | -117.27811 | 9.364 | 11.8 |
| 2026-02-17T04:50 | 29.90123 | -117.27179 | 9.481 | 12.0 |
| 2026-02-17T05:00 | 29.92736 | -117.26559 | 9.577 | 11.7 |
| 2026-02-17T05:10 | 29.95377 | -117.25915 | 9.691 | 12.0 |
| 2026-02-17T05:20 | 29.98010 | -117.25275 | 9.659 | 11.9 |
| 2026-02-17T05:30 | 30.00626 | -117.24636 | 9.602 | 12.0 |
| 2026-02-17T05:40 | 30.03261 | -117.23995 | 9.669 | 12.0 |
| 2026-02-17T05:50 | 30.05914 | -117.23364 | 9.723 | 11.7 |
| 2026-02-17T06:00 | 30.08544 | -117.22723 | 9.649 | 12.0 |
| 2026-02-17T06:10 | 30.11137 | -117.22085 | 9.518 | 12.1 |
| 2026-02-17T06:20 | 30.13730 | -117.21471 | 9.502 | 11.6 |
| 2026-02-17T06:30 | 30.16321 | -117.20830 | 9.514 | 12.1 |
| 2026-02-17T06:40 | 30.18933 | -117.20183 | 9.591 | 12.1 |
| 2026-02-17T06:50 | 30.21570 | -117.19553 | 9.666 | 11.7 |
| 2026-02-17T07:00 | 30.24183 | -117.18905 | 9.597 | 12.1 |
| 2026-02-17T07:10 | 30.26788 | -117.18275 | 9.554 | 11.9 |
| 2026-02-17T07:20 | 30.29392 | -117.17645 | 9.550 | 11.9 |
| 2026-02-17T07:30 | 30.32010 | -117.17017 | 9.599 | 11.8 |
| 2026-02-17T07:40 | 30.34597 | -117.16381 | 9.493 | 12.0 |
| 2026-02-17T07:50 | 30.37126 | -117.15759 | 9.283 | 12.0 |
| 2026-02-17T08:00 | 30.39688 | -117.15139 | 9.398 | 11.8 |
| 2026-02-17T08:10 | 30.42247 | -117.14510 | 9.393 | 12.0 |
| 2026-02-17T08:20 | 30.44801 | -117.13893 | 9.364 | 11.8 |
| 2026-02-17T08:30 | 30.47342 | -117.13271 | 9.326 | 12.0 |
| 2026-02-17T08:40 | 30.49885 | -117.12660 | 9.324 | 11.8 |
| 2026-02-17T08:50 | 30.52439 | -117.12029 | 9.374 | 12.1 |
| 2026-02-17T09:00 | 30.54988 | -117.11414 | 9.347 | 11.8 |
| 2026-02-17T09:10 | 30.57517 | -117.10797 | 9.279 | 11.9 |
| 2026-02-17T09:20 | 30.60016 | -117.10188 | 9.170 | 11.9 |
| 2026-02-17T09:30 | 30.62553 | -117.09687 | 9.239 | 9.7 |
| 2026-02-17T09:40 | 30.65108 | -117.09173 | 9.308 | 9.9 |
| 2026-02-17T09:50 | 30.67712 | -117.08652 | 9.485 | 9.8 |
| 2026-02-17T10:00 | 30.70333 | -117.08125 | 9.553 | 9.9 |
| 2026-02-17T10:10 | 30.72944 | -117.07599 | 9.512 | 9.9 |
| 2026-02-17T10:20 | 30.75566 | -117.07073 | 9.551 | 9.8 |
| 2026-02-17T10:30 | 30.78200 | -117.06541 | 9.599 | 9.9 |
| 2026-02-17T10:40 | 30.80812 | -117.06019 | 9.517 | 9.8 |
| 2026-02-17T10:50 | 30.83412 | -117.05489 | 9.477 | 10.0 |
| 2026-02-17T11:00 | 30.86017 | -117.04977 | 9.483 | 9.6 |
| 2026-02-17T11:10 | 30.88647 | -117.04431 | 9.592 | 10.2 |
| 2026-02-17T11:20 | 30.91274 | -117.03907 | 9.569 | 9.8 |
| 2026-02-17T11:30 | 30.93888 | -117.03381 | 9.526 | 9.8 |
| 2026-02-17T11:40 | 30.96494 | -117.02857 | 9.495 | 9.8 |
| 2026-02-17T11:50 | 30.99151 | -117.02310 | 9.688 | 10.0 |
| 2026-02-17T12:00 | 31.01830 | -117.01778 | 9.755 | 9.7 |
| 2026-02-17T12:10 | 31.04527 | -117.01231 | 9.829 | 9.9 |
| 2026-02-17T12:20 | 31.07244 | -117.00684 | 9.901 | 9.8 |
| 2026-02-17T12:30 | 31.09973 | -117.00134 | 9.943 | 9.8 |
| 2026-02-17T12:40 | 31.12730 | -116.99578 | 10.042 | 9.8 |
| 2026-02-17T12:50 | 31.15445 | -116.99029 | 9.894 | 9.9 |
| 2026-02-17T13:00 | 31.18136 | -116.98484 | 9.807 | 9.9 |
| 2026-02-17T13:10 | 31.20843 | -116.97935 | 9.865 | 9.9 |
| 2026-02-17T13:20 | 31.23517 | -116.97416 | 9.734 | 9.5 |
| 2026-02-17T13:30 | 31.26146 | -116.96864 | 9.590 | 10.2 |
| 2026-02-17T13:40 | 31.28704 | -116.96355 | 9.315 | 9.7 |
| 2026-02-17T13:50 | 31.31265 | -116.95832 | 9.336 | 9.9 |
| 2026-02-17T14:00 | 31.33832 | -116.95317 | 9.353 | 9.8 |
| 2026-02-17T14:10 | 31.36424 | -116.94782 | 9.450 | 10.0 |
| 2026-02-17T14:20 | 31.39023 | -116.94257 | 9.469 | 9.8 |
| 2026-02-17T14:30 | 31.41615 | -116.93737 | 9.442 | 9.8 |
| 2026-02-17T14:40 | 31.44193 | -116.93219 | 9.391 | 9.8 |
| 2026-02-17T14:50 | 31.46745 | -116.92672 | 9.317 | 10.4 |
| 2026-02-17T15:00 | 31.49229 | -116.91767 | 9.342 | 17.4 |
| 2026-02-17T15:10 | 31.51699 | -116.90869 | 9.288 | 17.3 |
| 2026-02-17T15:20 | 31.54223 | -116.89949 | 9.493 | 17.3 |
| 2026-02-17T15:30 | 31.56712 | -116.89041 | 9.361 | 17.4 |
| 2026-02-17T15:40 | 31.59166 | -116.88152 | 9.226 | 17.2 |
| 2026-02-17T15:50 | 31.61646 | -116.87260 | 9.315 | 17.1 |
| 2026-02-17T16:00 | 31.64142 | -116.86343 | 9.394 | 17.4 |
| 2026-02-17T16:10 | 31.66654 | -116.85438 | 9.439 | 17.1 |
| 2026-02-17T16:20 | 31.69175 | -116.84522 | 9.476 | 17.3 |
| 2026-02-17T16:30 | 31.71664 | -116.83624 | 9.351 | 17.2 |
| 2026-02-17T16:40 | 31.73793 | -116.82197 | 8.808 | 29.8 |
| 2026-02-17T16:50 | 31.75573 | -116.80096 | 9.079 | 45.2 |
| 2026-02-17T17:00 | 31.77181 | -116.77913 | 8.842 | 49.2 |
| 2026-02-17T17:10 | 31.78329 | -116.75416 | 8.697 | 61.7 |
| 2026-02-17T17:20 | 31.78832 | -116.74142 | 4.305 | 65.2 |
| 2026-02-17T17:30 | 31.78834 | -116.72505 | 5.020 | 89.9 |
| 2026-02-17T17:40 | 31.78818 | -116.70560 | 5.965 | 90.6 |
| 2026-02-17T17:50 | 31.78753 | -116.69047 | 4.644 | 92.8 |
| 2026-02-17T18:00 | 31.78517 | -116.67733 | 4.118 | 101.9 |
| 2026-02-17T18:10 | 31.78423 | -116.67512 | 0.758 | 116.6 |
| 2026-02-17T18:20 | 31.78422 | -116.67513 | 0.003 | 253.7 |
| 2026-02-17T18:30 | 31.78420 | -116.67512 | 0.011 | 159.1 |
| 2026-02-17T18:40 | 31.78336 | -116.67501 | 0.300 | 173.8 |
| 2026-02-17T18:50 | 31.78329 | -116.67500 | 0.027 | 168.9 |
| 2026-02-17T19:00 | 31.78330 | -116.67503 | 0.010 | 293.2 |
| 2026-02-17T19:10 | 31.78329 | -116.67499 | 0.014 | 111.8 |
| 2026-02-17T19:20 | 31.78327 | -116.67502 | 0.012 | 247.1 |
| 2026-02-17T19:30 | 31.78330 | -116.67499 | 0.014 | 49.0 |
| 2026-02-17T19:40 | 31.78327 | -116.67502 | 0.014 | 228.4 |
| 2026-02-17T19:50 | 31.78327 | -116.67502 | 0.000 | 270.0 |
| 2026-02-17T20:00 | 31.78328 | -116.67498 | 0.013 | 76.8 |
| 2026-02-17T20:10 | 31.78332 | -116.67504 | 0.022 | 305.7 |
| 2026-02-17T20:20 | 31.78334 | -116.67499 | 0.017 | 54.9 |
| 2026-02-17T20:30 | 31.78329 | -116.67503 | 0.022 | 208.5 |
| 2026-02-17T20:40 | 31.78330 | -116.67506 | 0.011 | 293.1 |
| 2026-02-17T20:50 | 31.78334 | -116.67501 | 0.019 | 49.7 |
| 2026-02-17T21:00 | 31.78327 | -116.67504 | 0.026 | 197.2 |
| 2026-02-17T21:10 | 31.78329 | -116.67500 | 0.014 | 55.9 |
| 2026-02-17T21:20 | 31.78328 | -116.67503 | 0.011 | 254.6 |
| 2026-02-17T21:30 | 31.78332 | -116.67500 | 0.018 | 35.2 |
| 2026-02-17T21:40 | 31.78330 | -116.67498 | 0.008 | 139.5 |
| 2026-02-17T21:50 | 31.78330 | -116.67500 | 0.005 | 256.8 |
| 2026-02-17T22:00 | 31.78334 | -116.67503 | 0.017 | 331.6 |
| 2026-02-17T22:10 | 31.78330 | -116.67498 | 0.020 | 132.7 |
| 2026-02-17T22:20 | 31.78335 | -116.67501 | 0.020 | 331.1 |
| 2026-02-17T22:30 | 31.78332 | -116.67499 | 0.013 | 157.5 |
| 2026-02-17T22:40 | 31.78331 | -116.67507 | 0.023 | 260.1 |
| 2026-02-17T22:50 | 31.78330 | -116.67504 | 0.010 | 113.2 |
| 2026-02-17T23:00 | 31.78329 | -116.67502 | 0.005 | 118.7 |
| 2026-02-17T23:10 | 31.78328 | -116.67502 | 0.005 | 165.3 |
| 2026-02-17T23:20 | 31.78328 | -116.67500 | 0.006 | 75.4 |
| 2026-02-17T23:30 | 31.78328 | -116.67503 | 0.008 | 272.6 |
| 2026-02-17T23:40 | 31.78330 | -116.67502 | 0.007 | 25.4 |
| 2026-02-17T23:50 | 31.78331 | -116.67505 | 0.011 | 286.8 |
| 2026-02-18T00:00 | 31.78330 | -116.67502 | 0.010 | 116.6 |
| 2026-02-18T00:10 | 31.78334 | -116.67503 | 0.017 | 349.7 |
| 2026-02-18T00:20 | 31.78327 | -116.67501 | 0.027 | 164.3 |
| 2026-02-18T00:30 | 31.78332 | -116.67504 | 0.018 | 331.5 |
| 2026-02-18T00:40 | 31.78334 | -116.67502 | 0.010 | 39.1 |
| 2026-02-18T00:50 | 31.78332 | -116.67503 | 0.005 | 207.7 |
| 2026-02-18T01:00 | 31.78328 | -116.67502 | 0.015 | 174.2 |
| 2026-02-18T01:10 | 31.78689 | -116.68073 | 2.178 | 306.5 |
| 2026-02-18T01:20 | 31.80425 | -116.69545 | 7.696 | 324.1 |
| 2026-02-18T01:30 | 31.82207 | -116.70993 | 7.788 | 325.2 |
| 2026-02-18T01:40 | 31.83916 | -116.72507 | 7.693 | 322.9 |
| 2026-02-18T01:50 | 31.85400 | -116.74144 | 7.318 | 316.7 |
| 2026-02-18T02:00 | 31.86591 | -116.75814 | 6.671 | 309.9 |
| 2026-02-18T02:10 | 31.87658 | -116.77401 | 6.191 | 308.2 |
| 2026-02-18T02:20 | 31.88676 | -116.78980 | 6.061 | 307.1 |
| 2026-02-18T02:30 | 31.89603 | -116.80654 | 6.114 | 303.0 |
| 2026-02-18T02:40 | 31.90427 | -116.82387 | 6.079 | 299.1 |
| 2026-02-18T02:50 | 31.91218 | -116.84106 | 5.980 | 298.3 |
| 2026-02-18T03:00 | 31.92029 | -116.85734 | 5.774 | 300.3 |
| 2026-02-18T03:10 | 31.92819 | -116.87316 | 5.612 | 300.3 |
| 2026-02-18T03:20 | 31.93588 | -116.88888 | 5.550 | 299.9 |
| 2026-02-18T03:30 | 31.94399 | -116.90499 | 5.728 | 300.5 |
| 2026-02-18T03:40 | 31.95176 | -116.92096 | 5.629 | 299.7 |
| 2026-02-18T03:50 | 31.95994 | -116.93730 | 5.800 | 300.4 |
| 2026-02-18T04:00 | 31.96833 | -116.95402 | 5.938 | 300.5 |
| 2026-02-18T04:10 | 31.97676 | -116.97119 | 6.066 | 299.9 |
| 2026-02-18T04:20 | 31.98523 | -116.98825 | 6.040 | 300.2 |
| 2026-02-18T04:30 | 31.99369 | -117.00537 | 6.057 | 300.1 |
| 2026-02-18T04:40 | 32.00236 | -117.02283 | 6.183 | 300.2 |
| 2026-02-18T04:50 | 32.01086 | -117.04003 | 6.083 | 300.1 |
| 2026-02-18T05:00 | 32.01920 | -117.05675 | 5.927 | 300.4 |
| 2026-02-18T05:10 | 32.02729 | -117.07291 | 5.734 | 300.4 |
| 2026-02-18T05:20 | 32.03504 | -117.08892 | 5.634 | 299.6 |
| 2026-02-18T05:30 | 32.04311 | -117.10488 | 5.676 | 300.7 |
| 2026-02-18T05:40 | 32.05103 | -117.12071 | 5.612 | 300.4 |
| 2026-02-18T05:50 | 32.05873 | -117.13641 | 5.540 | 299.9 |
| 2026-02-18T06:00 | 32.06677 | -117.15237 | 5.671 | 300.6 |
| 2026-02-18T06:10 | 32.07471 | -117.16842 | 5.677 | 300.2 |
| 2026-02-18T06:20 | 32.08324 | -117.18529 | 5.996 | 300.7 |
| 2026-02-18T06:30 | 32.09172 | -117.20178 | 5.888 | 301.1 |
| 2026-02-18T06:40 | 32.09952 | -117.21744 | 5.546 | 300.3 |
| 2026-02-18T06:50 | 32.10750 | -117.23339 | 5.657 | 300.5 |
| 2026-02-18T07:00 | 32.11539 | -117.24922 | 5.605 | 300.4 |
| 2026-02-18T07:10 | 32.12351 | -117.26494 | 5.619 | 301.2 |
| 2026-02-18T07:20 | 32.13159 | -117.28117 | 5.746 | 300.3 |
| 2026-02-18T07:30 | 32.13944 | -117.29697 | 5.589 | 300.3 |
| 2026-02-18T07:40 | 32.14797 | -117.31382 | 5.989 | 300.8 |
| 2026-02-18T07:50 | 32.15610 | -117.32975 | 5.677 | 301.0 |
| 2026-02-18T08:00 | 32.16381 | -117.34534 | 5.506 | 300.2 |
| 2026-02-18T08:10 | 32.17197 | -117.36147 | 5.733 | 300.8 |
| 2026-02-18T08:20 | 32.18015 | -117.37768 | 5.756 | 300.7 |
| 2026-02-18T08:30 | 32.18821 | -117.39394 | 5.746 | 300.2 |
| 2026-02-18T08:40 | 32.19633 | -117.41002 | 5.712 | 300.7 |
| 2026-02-18T08:50 | 32.20433 | -117.42582 | 5.614 | 300.8 |
| 2026-02-18T09:00 | 32.21284 | -117.44132 | 5.632 | 302.9 |
| 2026-02-18T09:10 | 32.22528 | -117.45304 | 5.724 | 321.3 |
| 2026-02-18T09:20 | 32.23818 | -117.46442 | 5.787 | 323.1 |
| 2026-02-18T09:30 | 32.25029 | -117.47607 | 5.618 | 320.7 |
| 2026-02-18T09:40 | 32.26278 | -117.48795 | 5.766 | 321.0 |
| 2026-02-18T09:50 | 32.27475 | -117.49944 | 5.546 | 320.8 |
| 2026-02-18T10:00 | 32.28725 | -117.50953 | 5.443 | 325.5 |
| 2026-02-18T10:10 | 32.30183 | -117.51636 | 5.634 | 338.3 |
| 2026-02-18T10:20 | 32.31659 | -117.52353 | 5.734 | 337.6 |
| 2026-02-18T10:30 | 32.33108 | -117.53044 | 5.612 | 337.9 |
| 2026-02-18T10:40 | 32.34532 | -117.53715 | 5.509 | 338.2 |
| 2026-02-18T10:50 | 32.35912 | -117.54355 | 5.324 | 338.5 |
| 2026-02-18T11:00 | 32.37351 | -117.55027 | 5.557 | 338.4 |
| 2026-02-18T11:10 | 32.38734 | -117.55655 | 5.323 | 338.9 |
| 2026-02-18T11:20 | 32.40047 | -117.56245 | 5.043 | 339.1 |
| 2026-02-18T11:30 | 32.41416 | -117.56542 | 5.001 | 349.6 |
| 2026-02-18T11:40 | 32.42999 | -117.56380 | 5.703 | 5.0 |
| 2026-02-18T11:50 | 32.44522 | -117.56259 | 5.482 | 3.9 |
| 2026-02-18T12:00 | 32.45958 | -117.56182 | 5.165 | 2.6 |
| 2026-02-18T12:10 | 32.47433 | -117.55821 | 5.408 | 11.7 |
| 2026-02-18T12:20 | 32.48997 | -117.55068 | 6.063 | 22.2 |
| 2026-02-18T12:30 | 32.50647 | -117.54263 | 6.411 | 22.5 |
| 2026-02-18T12:40 | 32.52412 | -117.53416 | 6.845 | 22.1 |
| 2026-02-18T12:50 | 32.54279 | -117.52549 | 7.203 | 21.5 |
| 2026-02-18T13:00 | 32.56163 | -117.51652 | 7.293 | 21.9 |
| 2026-02-18T13:10 | 32.57966 | -117.50772 | 7.007 | 22.5 |
| 2026-02-18T13:20 | 32.59527 | -117.49654 | 6.552 | 31.2 |
| 2026-02-18T13:30 | 32.60199 | -117.47890 | 5.882 | 65.8 |
| 2026-02-18T13:40 | 32.60883 | -117.46740 | 4.271 | 54.9 |
| 2026-02-18T13:50 | 32.60572 | -117.44258 | 7.625 | 98.4 |
| 2026-02-18T14:00 | 32.60292 | -117.41750 | 7.690 | 97.5 |
| 2026-02-18T14:10 | 32.60081 | -117.39314 | 7.441 | 95.8 |
| 2026-02-18T14:20 | 32.59823 | -117.36768 | 7.795 | 96.8 |
| 2026-02-18T14:30 | 32.59588 | -117.34322 | 7.482 | 96.5 |
| 2026-02-18T14:40 | 32.60227 | -117.32423 | 6.215 | 68.3 |
| 2026-02-18T14:50 | 32.60967 | -117.30475 | 6.489 | 65.8 |
| 2026-02-18T15:00 | 32.61733 | -117.28494 | 6.619 | 65.5 |
| 2026-02-18T15:10 | 32.61989 | -117.26584 | 5.875 | 81.0 |
| 2026-02-18T15:20 | 32.61710 | -117.24555 | 6.247 | 99.2 |
| 2026-02-18T15:30 | 32.62511 | -117.22580 | 6.655 | 64.4 |
| 2026-02-18T15:40 | 32.64737 | -117.22474 | 8.000 | 2.3 |
| 2026-02-18T15:50 | 32.67430 | -117.22886 | 9.751 | 352.6 |
| 2026-02-18T15:59 | 32.70370 | -117.22961 | 10.795 | 358.8 |
